<?xml version="1.0" encoding="UTF-8" standalone="no" ?>
<gpx xmlns="http://www.topografix.com/GPX/1/1" xmlns:xsi="http://www.w3.org/2001/XMLSchema-instance" xsi:schemaLocation="http://www.topografix.com/GPX/1/1 http://www.topografix.com/GPX/1/1/gpx.xsd" version="1.1" creator="VisuGPX - https://www.visugpx.com">
  <metadata>
    <name>2017-07-21 Bike ride-Amberieux-Rance O 35</name>
    <desc><![CDATA[2017-07-21 Bike ride-Amberieux-Rance O 35]]></desc>
  </metadata>
  <wpt lat="45.92458" lon="4.73708">
    <ele>174</ele>
    <name><![CDATA[2017-07-21 10:22 (Start)]]></name>
  </wpt>
  <wpt lat="45.92464" lon="4.73709">
    <ele>174</ele>
    <name><![CDATA[2017-07-21 10:22 (End)]]></name>
    <desc><![CDATA[Created by Google My Tracks on Android  Name: 2017-07-21 10:22 Activity type: biking Description: - Total distance: 35.14 km (21.8 mi) Total time: 1:52:54 Moving time: 1:43:25 Average speed: 18.67 km/h (11.6 mi/h) Average moving speed: 20.38 km/h (12.7 mi/h) Max speed: 51.72 km/h (32.1 mi/h) Average pace: 3:13 min/km (5:10 min/mi) Average moving pace: 2:57 min/km (4:44 min/mi) Fastest pace: 1:10 min/km (1:52 min/mi) Max elevation: 302 m (992 ft) Min elevation: 161 m (527 ft) Elevation gain: 642 m (2105 ft) Max grade: 12 % Min grade: -16 % Recorded: 21/07/2017 10:22]]></desc>
  </wpt>
  <trk>
    <name><![CDATA[2017-07-21 10:22]]></name>
    <trkseg>
      <trkpt lat="45.92458" lon="4.73708">
        <ele>174</ele>
        <time>2017-07-21T08:22:56.379Z</time>
      </trkpt>
      <trkpt lat="45.92458" lon="4.73707">
        <ele>174</ele>
        <time>2017-07-21T08:24:06Z</time>
      </trkpt>
      <trkpt lat="45.92458" lon="4.73706">
        <ele>174</ele>
        <time>2017-07-21T08:24:08Z</time>
      </trkpt>
      <trkpt lat="45.92459" lon="4.73707">
        <ele>174</ele>
        <time>2017-07-21T08:24:09Z</time>
      </trkpt>
      <trkpt lat="45.92463" lon="4.73718">
        <ele>174</ele>
        <time>2017-07-21T08:24:38Z</time>
      </trkpt>
      <trkpt lat="45.92464" lon="4.73717">
        <ele>174</ele>
        <time>2017-07-21T08:24:39Z</time>
      </trkpt>
      <trkpt lat="45.92464" lon="4.73708">
        <ele>174</ele>
        <time>2017-07-21T08:24:48Z</time>
      </trkpt>
      <trkpt lat="45.92464" lon="4.73704">
        <ele>174</ele>
        <time>2017-07-21T08:24:49Z</time>
      </trkpt>
      <trkpt lat="45.92464" lon="4.73695">
        <ele>174</ele>
        <time>2017-07-21T08:24:51Z</time>
      </trkpt>
      <trkpt lat="45.92465" lon="4.73689">
        <ele>174</ele>
        <time>2017-07-21T08:24:52Z</time>
      </trkpt>
      <trkpt lat="45.92469" lon="4.73678">
        <ele>174</ele>
        <time>2017-07-21T08:24:54Z</time>
      </trkpt>
      <trkpt lat="45.9247" lon="4.73673">
        <ele>174</ele>
        <time>2017-07-21T08:24:55Z</time>
      </trkpt>
      <trkpt lat="45.92474" lon="4.73662">
        <ele>174</ele>
        <time>2017-07-21T08:24:57Z</time>
      </trkpt>
      <trkpt lat="45.92477" lon="4.7366">
        <ele>174</ele>
        <time>2017-07-21T08:24:58Z</time>
      </trkpt>
      <trkpt lat="45.92484" lon="4.73658">
        <ele>174</ele>
        <time>2017-07-21T08:25:00Z</time>
      </trkpt>
      <trkpt lat="45.92488" lon="4.73657">
        <ele>174</ele>
        <time>2017-07-21T08:25:01Z</time>
      </trkpt>
      <trkpt lat="45.92495" lon="4.73656">
        <ele>175</ele>
        <time>2017-07-21T08:25:03Z</time>
      </trkpt>
      <trkpt lat="45.92498" lon="4.73655">
        <ele>175</ele>
        <time>2017-07-21T08:25:04Z</time>
      </trkpt>
      <trkpt lat="45.92505" lon="4.73655">
        <ele>174</ele>
        <time>2017-07-21T08:25:06Z</time>
      </trkpt>
      <trkpt lat="45.92509" lon="4.73654">
        <ele>174</ele>
        <time>2017-07-21T08:25:07Z</time>
      </trkpt>
      <trkpt lat="45.92515" lon="4.73649">
        <ele>174</ele>
        <time>2017-07-21T08:25:09Z</time>
      </trkpt>
      <trkpt lat="45.9252" lon="4.7365">
        <ele>174</ele>
        <time>2017-07-21T08:25:10Z</time>
      </trkpt>
      <trkpt lat="45.92525" lon="4.7365">
        <ele>173</ele>
        <time>2017-07-21T08:25:11Z</time>
      </trkpt>
      <trkpt lat="45.9253" lon="4.7365">
        <ele>173</ele>
        <time>2017-07-21T08:25:12Z</time>
      </trkpt>
      <trkpt lat="45.92535" lon="4.73649">
        <ele>173</ele>
        <time>2017-07-21T08:25:13Z</time>
      </trkpt>
      <trkpt lat="45.92539" lon="4.73647">
        <ele>173</ele>
        <time>2017-07-21T08:25:14Z</time>
      </trkpt>
      <trkpt lat="45.92548" lon="4.73644">
        <ele>173</ele>
        <time>2017-07-21T08:25:16Z</time>
      </trkpt>
      <trkpt lat="45.92553" lon="4.73643">
        <ele>173</ele>
        <time>2017-07-21T08:25:17Z</time>
      </trkpt>
      <trkpt lat="45.92557" lon="4.73642">
        <ele>173</ele>
        <time>2017-07-21T08:25:18Z</time>
      </trkpt>
      <trkpt lat="45.92562" lon="4.7364">
        <ele>173</ele>
        <time>2017-07-21T08:25:19Z</time>
      </trkpt>
      <trkpt lat="45.92568" lon="4.73639">
        <ele>173</ele>
        <time>2017-07-21T08:25:20Z</time>
      </trkpt>
      <trkpt lat="45.92573" lon="4.73636">
        <ele>172</ele>
        <time>2017-07-21T08:25:21Z</time>
      </trkpt>
      <trkpt lat="45.92578" lon="4.73634">
        <ele>172</ele>
        <time>2017-07-21T08:25:22Z</time>
      </trkpt>
      <trkpt lat="45.92583" lon="4.73634">
        <ele>172</ele>
        <time>2017-07-21T08:25:23Z</time>
      </trkpt>
      <trkpt lat="45.92589" lon="4.73633">
        <ele>172</ele>
        <time>2017-07-21T08:25:24Z</time>
      </trkpt>
      <trkpt lat="45.92594" lon="4.73632">
        <ele>172</ele>
        <time>2017-07-21T08:25:25Z</time>
      </trkpt>
      <trkpt lat="45.92601" lon="4.73632">
        <ele>172</ele>
        <time>2017-07-21T08:25:26Z</time>
      </trkpt>
      <trkpt lat="45.92605" lon="4.73633">
        <ele>172</ele>
        <time>2017-07-21T08:25:27Z</time>
      </trkpt>
      <trkpt lat="45.92611" lon="4.73634">
        <ele>173</ele>
        <time>2017-07-21T08:25:28Z</time>
      </trkpt>
      <trkpt lat="45.92616" lon="4.73637">
        <ele>173</ele>
        <time>2017-07-21T08:25:29Z</time>
      </trkpt>
      <trkpt lat="45.9262" lon="4.73642">
        <ele>173</ele>
        <time>2017-07-21T08:25:30Z</time>
      </trkpt>
      <trkpt lat="45.92624" lon="4.73648">
        <ele>173</ele>
        <time>2017-07-21T08:25:31Z</time>
      </trkpt>
      <trkpt lat="45.92628" lon="4.73654">
        <ele>173</ele>
        <time>2017-07-21T08:25:32Z</time>
      </trkpt>
      <trkpt lat="45.92631" lon="4.7366">
        <ele>173</ele>
        <time>2017-07-21T08:25:33Z</time>
      </trkpt>
      <trkpt lat="45.92635" lon="4.73666">
        <ele>173</ele>
        <time>2017-07-21T08:25:34Z</time>
      </trkpt>
      <trkpt lat="45.92639" lon="4.73672">
        <ele>173</ele>
        <time>2017-07-21T08:25:35Z</time>
      </trkpt>
      <trkpt lat="45.92643" lon="4.73679">
        <ele>173</ele>
        <time>2017-07-21T08:25:36Z</time>
      </trkpt>
      <trkpt lat="45.92645" lon="4.73687">
        <ele>173</ele>
        <time>2017-07-21T08:25:37Z</time>
      </trkpt>
      <trkpt lat="45.92649" lon="4.73692">
        <ele>173</ele>
        <time>2017-07-21T08:25:38Z</time>
      </trkpt>
      <trkpt lat="45.92654" lon="4.73698">
        <ele>173</ele>
        <time>2017-07-21T08:25:39Z</time>
      </trkpt>
      <trkpt lat="45.92658" lon="4.73702">
        <ele>173</ele>
        <time>2017-07-21T08:25:40Z</time>
      </trkpt>
      <trkpt lat="45.92662" lon="4.73706">
        <ele>173</ele>
        <time>2017-07-21T08:25:41Z</time>
      </trkpt>
      <trkpt lat="45.92668" lon="4.7371">
        <ele>174</ele>
        <time>2017-07-21T08:25:42Z</time>
      </trkpt>
      <trkpt lat="45.92675" lon="4.73713">
        <ele>174</ele>
        <time>2017-07-21T08:25:43Z</time>
      </trkpt>
      <trkpt lat="45.9268" lon="4.73714">
        <ele>173</ele>
        <time>2017-07-21T08:25:44Z</time>
      </trkpt>
      <trkpt lat="45.92686" lon="4.73715">
        <ele>173</ele>
        <time>2017-07-21T08:25:45Z</time>
      </trkpt>
      <trkpt lat="45.92692" lon="4.73716">
        <ele>173</ele>
        <time>2017-07-21T08:25:46Z</time>
      </trkpt>
      <trkpt lat="45.92697" lon="4.73717">
        <ele>173</ele>
        <time>2017-07-21T08:25:47Z</time>
      </trkpt>
      <trkpt lat="45.92706" lon="4.73719">
        <ele>173</ele>
        <time>2017-07-21T08:25:49Z</time>
      </trkpt>
      <trkpt lat="45.92711" lon="4.73721">
        <ele>173</ele>
        <time>2017-07-21T08:25:50Z</time>
      </trkpt>
      <trkpt lat="45.92719" lon="4.73722">
        <ele>173</ele>
        <time>2017-07-21T08:25:52Z</time>
      </trkpt>
      <trkpt lat="45.92725" lon="4.73725">
        <ele>173</ele>
        <time>2017-07-21T08:25:53Z</time>
      </trkpt>
      <trkpt lat="45.92732" lon="4.73726">
        <ele>173</ele>
        <time>2017-07-21T08:25:54Z</time>
      </trkpt>
      <trkpt lat="45.92738" lon="4.73726">
        <ele>173</ele>
        <time>2017-07-21T08:25:55Z</time>
      </trkpt>
      <trkpt lat="45.92744" lon="4.73727">
        <ele>173</ele>
        <time>2017-07-21T08:25:56Z</time>
      </trkpt>
      <trkpt lat="45.9275" lon="4.73728">
        <ele>173</ele>
        <time>2017-07-21T08:25:57Z</time>
      </trkpt>
      <trkpt lat="45.92754" lon="4.73729">
        <ele>172</ele>
        <time>2017-07-21T08:25:58Z</time>
      </trkpt>
      <trkpt lat="45.92759" lon="4.7373">
        <ele>172</ele>
        <time>2017-07-21T08:25:59Z</time>
      </trkpt>
      <trkpt lat="45.92767" lon="4.73732">
        <ele>172</ele>
        <time>2017-07-21T08:26:01Z</time>
      </trkpt>
      <trkpt lat="45.92772" lon="4.73734">
        <ele>172</ele>
        <time>2017-07-21T08:26:02Z</time>
      </trkpt>
      <trkpt lat="45.9278" lon="4.73735">
        <ele>172</ele>
        <time>2017-07-21T08:26:05Z</time>
      </trkpt>
      <trkpt lat="45.92781" lon="4.73732">
        <ele>172</ele>
        <time>2017-07-21T08:26:06Z</time>
      </trkpt>
      <trkpt lat="45.92784" lon="4.7372">
        <ele>172</ele>
        <time>2017-07-21T08:26:08Z</time>
      </trkpt>
      <trkpt lat="45.92786" lon="4.73713">
        <ele>172</ele>
        <time>2017-07-21T08:26:09Z</time>
      </trkpt>
      <trkpt lat="45.92787" lon="4.73706">
        <ele>172</ele>
        <time>2017-07-21T08:26:10Z</time>
      </trkpt>
      <trkpt lat="45.92789" lon="4.737">
        <ele>172</ele>
        <time>2017-07-21T08:26:11Z</time>
      </trkpt>
      <trkpt lat="45.92792" lon="4.73692">
        <ele>172</ele>
        <time>2017-07-21T08:26:12Z</time>
      </trkpt>
      <trkpt lat="45.92794" lon="4.73685">
        <ele>172</ele>
        <time>2017-07-21T08:26:13Z</time>
      </trkpt>
      <trkpt lat="45.92795" lon="4.73677">
        <ele>172</ele>
        <time>2017-07-21T08:26:14Z</time>
      </trkpt>
      <trkpt lat="45.92797" lon="4.73669">
        <ele>172</ele>
        <time>2017-07-21T08:26:15Z</time>
      </trkpt>
      <trkpt lat="45.92799" lon="4.73661">
        <ele>172</ele>
        <time>2017-07-21T08:26:16Z</time>
      </trkpt>
      <trkpt lat="45.92801" lon="4.73653">
        <ele>172</ele>
        <time>2017-07-21T08:26:17Z</time>
      </trkpt>
      <trkpt lat="45.92808" lon="4.73645">
        <ele>172</ele>
        <time>2017-07-21T08:26:19Z</time>
      </trkpt>
      <trkpt lat="45.92811" lon="4.73643">
        <ele>172</ele>
        <time>2017-07-21T08:26:20Z</time>
      </trkpt>
      <trkpt lat="45.92814" lon="4.73639">
        <ele>172</ele>
        <time>2017-07-21T08:26:21Z</time>
      </trkpt>
      <trkpt lat="45.92815" lon="4.73636">
        <ele>172</ele>
        <time>2017-07-21T08:26:22Z</time>
      </trkpt>
      <trkpt lat="45.92815" lon="4.73636">
        <ele>172</ele>
        <time>2017-07-21T08:26:23Z</time>
      </trkpt>
      <trkpt lat="45.92815" lon="4.73637">
        <ele>172</ele>
        <time>2017-07-21T08:26:24Z</time>
      </trkpt>
      <trkpt lat="45.92814" lon="4.73636">
        <ele>172</ele>
        <time>2017-07-21T08:26:25Z</time>
      </trkpt>
      <trkpt lat="45.92814" lon="4.73636">
        <ele>172</ele>
        <time>2017-07-21T08:26:37Z</time>
      </trkpt>
      <trkpt lat="45.92815" lon="4.73636">
        <ele>172</ele>
        <time>2017-07-21T08:26:38Z</time>
      </trkpt>
      <trkpt lat="45.92818" lon="4.73625">
        <ele>172</ele>
        <time>2017-07-21T08:26:41Z</time>
      </trkpt>
      <trkpt lat="45.92818" lon="4.7362">
        <ele>172</ele>
        <time>2017-07-21T08:26:42Z</time>
      </trkpt>
      <trkpt lat="45.92818" lon="4.73609">
        <ele>172</ele>
        <time>2017-07-21T08:26:44Z</time>
      </trkpt>
      <trkpt lat="45.92818" lon="4.73602">
        <ele>171</ele>
        <time>2017-07-21T08:26:45Z</time>
      </trkpt>
      <trkpt lat="45.92818" lon="4.73595">
        <ele>171</ele>
        <time>2017-07-21T08:26:46Z</time>
      </trkpt>
      <trkpt lat="45.92818" lon="4.73588">
        <ele>171</ele>
        <time>2017-07-21T08:26:47Z</time>
      </trkpt>
      <trkpt lat="45.92819" lon="4.7358">
        <ele>171</ele>
        <time>2017-07-21T08:26:48Z</time>
      </trkpt>
      <trkpt lat="45.92819" lon="4.73572">
        <ele>171</ele>
        <time>2017-07-21T08:26:49Z</time>
      </trkpt>
      <trkpt lat="45.92819" lon="4.73564">
        <ele>171</ele>
        <time>2017-07-21T08:26:50Z</time>
      </trkpt>
      <trkpt lat="45.9282" lon="4.73556">
        <ele>171</ele>
        <time>2017-07-21T08:26:51Z</time>
      </trkpt>
      <trkpt lat="45.92821" lon="4.73547">
        <ele>171</ele>
        <time>2017-07-21T08:26:52Z</time>
      </trkpt>
      <trkpt lat="45.92821" lon="4.73538">
        <ele>172</ele>
        <time>2017-07-21T08:26:53Z</time>
      </trkpt>
      <trkpt lat="45.92822" lon="4.73531">
        <ele>172</ele>
        <time>2017-07-21T08:26:54Z</time>
      </trkpt>
      <trkpt lat="45.92823" lon="4.73523">
        <ele>172</ele>
        <time>2017-07-21T08:26:55Z</time>
      </trkpt>
      <trkpt lat="45.92824" lon="4.73515">
        <ele>172</ele>
        <time>2017-07-21T08:26:56Z</time>
      </trkpt>
      <trkpt lat="45.92824" lon="4.73508">
        <ele>172</ele>
        <time>2017-07-21T08:26:57Z</time>
      </trkpt>
      <trkpt lat="45.92824" lon="4.735">
        <ele>172</ele>
        <time>2017-07-21T08:26:58Z</time>
      </trkpt>
      <trkpt lat="45.92824" lon="4.73492">
        <ele>172</ele>
        <time>2017-07-21T08:26:59Z</time>
      </trkpt>
      <trkpt lat="45.92826" lon="4.73484">
        <ele>172</ele>
        <time>2017-07-21T08:27:00Z</time>
      </trkpt>
      <trkpt lat="45.92827" lon="4.73476">
        <ele>172</ele>
        <time>2017-07-21T08:27:01Z</time>
      </trkpt>
      <trkpt lat="45.92828" lon="4.73467">
        <ele>172</ele>
        <time>2017-07-21T08:27:02Z</time>
      </trkpt>
      <trkpt lat="45.92829" lon="4.73459">
        <ele>172</ele>
        <time>2017-07-21T08:27:03Z</time>
      </trkpt>
      <trkpt lat="45.92831" lon="4.73451">
        <ele>172</ele>
        <time>2017-07-21T08:27:04Z</time>
      </trkpt>
      <trkpt lat="45.92832" lon="4.73442">
        <ele>172</ele>
        <time>2017-07-21T08:27:05Z</time>
      </trkpt>
      <trkpt lat="45.92833" lon="4.73434">
        <ele>172</ele>
        <time>2017-07-21T08:27:06Z</time>
      </trkpt>
      <trkpt lat="45.92834" lon="4.73425">
        <ele>172</ele>
        <time>2017-07-21T08:27:07Z</time>
      </trkpt>
      <trkpt lat="45.92834" lon="4.73415">
        <ele>172</ele>
        <time>2017-07-21T08:27:08Z</time>
      </trkpt>
      <trkpt lat="45.92836" lon="4.73406">
        <ele>172</ele>
        <time>2017-07-21T08:27:09Z</time>
      </trkpt>
      <trkpt lat="45.92838" lon="4.73397">
        <ele>172</ele>
        <time>2017-07-21T08:27:10Z</time>
      </trkpt>
      <trkpt lat="45.92838" lon="4.73389">
        <ele>172</ele>
        <time>2017-07-21T08:27:11Z</time>
      </trkpt>
      <trkpt lat="45.92838" lon="4.73382">
        <ele>172</ele>
        <time>2017-07-21T08:27:12Z</time>
      </trkpt>
      <trkpt lat="45.92839" lon="4.73375">
        <ele>171</ele>
        <time>2017-07-21T08:27:13Z</time>
      </trkpt>
      <trkpt lat="45.92839" lon="4.73367">
        <ele>171</ele>
        <time>2017-07-21T08:27:14Z</time>
      </trkpt>
      <trkpt lat="45.9284" lon="4.7336">
        <ele>171</ele>
        <time>2017-07-21T08:27:15Z</time>
      </trkpt>
      <trkpt lat="45.92841" lon="4.73352">
        <ele>171</ele>
        <time>2017-07-21T08:27:16Z</time>
      </trkpt>
      <trkpt lat="45.92841" lon="4.73343">
        <ele>171</ele>
        <time>2017-07-21T08:27:17Z</time>
      </trkpt>
      <trkpt lat="45.92842" lon="4.73334">
        <ele>171</ele>
        <time>2017-07-21T08:27:18Z</time>
      </trkpt>
      <trkpt lat="45.92842" lon="4.73325">
        <ele>171</ele>
        <time>2017-07-21T08:27:19Z</time>
      </trkpt>
      <trkpt lat="45.92842" lon="4.73316">
        <ele>171</ele>
        <time>2017-07-21T08:27:20Z</time>
      </trkpt>
      <trkpt lat="45.92843" lon="4.73306">
        <ele>171</ele>
        <time>2017-07-21T08:27:21Z</time>
      </trkpt>
      <trkpt lat="45.92844" lon="4.73297">
        <ele>171</ele>
        <time>2017-07-21T08:27:22Z</time>
      </trkpt>
      <trkpt lat="45.92846" lon="4.73289">
        <ele>171</ele>
        <time>2017-07-21T08:27:23Z</time>
      </trkpt>
      <trkpt lat="45.92847" lon="4.7328">
        <ele>171</ele>
        <time>2017-07-21T08:27:24Z</time>
      </trkpt>
      <trkpt lat="45.92849" lon="4.73271">
        <ele>171</ele>
        <time>2017-07-21T08:27:25Z</time>
      </trkpt>
      <trkpt lat="45.9285" lon="4.73263">
        <ele>171</ele>
        <time>2017-07-21T08:27:26Z</time>
      </trkpt>
      <trkpt lat="45.92851" lon="4.73256">
        <ele>171</ele>
        <time>2017-07-21T08:27:27Z</time>
      </trkpt>
      <trkpt lat="45.92853" lon="4.73247">
        <ele>171</ele>
        <time>2017-07-21T08:27:28Z</time>
      </trkpt>
      <trkpt lat="45.92855" lon="4.7324">
        <ele>171</ele>
        <time>2017-07-21T08:27:29Z</time>
      </trkpt>
      <trkpt lat="45.92856" lon="4.73232">
        <ele>171</ele>
        <time>2017-07-21T08:27:30Z</time>
      </trkpt>
      <trkpt lat="45.92858" lon="4.73224">
        <ele>171</ele>
        <time>2017-07-21T08:27:31Z</time>
      </trkpt>
      <trkpt lat="45.92859" lon="4.73216">
        <ele>171</ele>
        <time>2017-07-21T08:27:32Z</time>
      </trkpt>
      <trkpt lat="45.9286" lon="4.73207">
        <ele>171</ele>
        <time>2017-07-21T08:27:33Z</time>
      </trkpt>
      <trkpt lat="45.92861" lon="4.73199">
        <ele>171</ele>
        <time>2017-07-21T08:27:34Z</time>
      </trkpt>
      <trkpt lat="45.92861" lon="4.7319">
        <ele>171</ele>
        <time>2017-07-21T08:27:35Z</time>
      </trkpt>
      <trkpt lat="45.92862" lon="4.73181">
        <ele>171</ele>
        <time>2017-07-21T08:27:36Z</time>
      </trkpt>
      <trkpt lat="45.92864" lon="4.73172">
        <ele>171</ele>
        <time>2017-07-21T08:27:37Z</time>
      </trkpt>
      <trkpt lat="45.92865" lon="4.73163">
        <ele>171</ele>
        <time>2017-07-21T08:27:38Z</time>
      </trkpt>
      <trkpt lat="45.92867" lon="4.73155">
        <ele>171</ele>
        <time>2017-07-21T08:27:39Z</time>
      </trkpt>
      <trkpt lat="45.92868" lon="4.73147">
        <ele>171</ele>
        <time>2017-07-21T08:27:40Z</time>
      </trkpt>
      <trkpt lat="45.9287" lon="4.73139">
        <ele>171</ele>
        <time>2017-07-21T08:27:41Z</time>
      </trkpt>
      <trkpt lat="45.92871" lon="4.7313">
        <ele>171</ele>
        <time>2017-07-21T08:27:42Z</time>
      </trkpt>
      <trkpt lat="45.92873" lon="4.73122">
        <ele>171</ele>
        <time>2017-07-21T08:27:43Z</time>
      </trkpt>
      <trkpt lat="45.92875" lon="4.73115">
        <ele>172</ele>
        <time>2017-07-21T08:27:44Z</time>
      </trkpt>
      <trkpt lat="45.92877" lon="4.73108">
        <ele>172</ele>
        <time>2017-07-21T08:27:45Z</time>
      </trkpt>
      <trkpt lat="45.92879" lon="4.73101">
        <ele>172</ele>
        <time>2017-07-21T08:27:46Z</time>
      </trkpt>
      <trkpt lat="45.92881" lon="4.73094">
        <ele>172</ele>
        <time>2017-07-21T08:27:47Z</time>
      </trkpt>
      <trkpt lat="45.92883" lon="4.73087">
        <ele>172</ele>
        <time>2017-07-21T08:27:48Z</time>
      </trkpt>
      <trkpt lat="45.92886" lon="4.73081">
        <ele>172</ele>
        <time>2017-07-21T08:27:49Z</time>
      </trkpt>
      <trkpt lat="45.92889" lon="4.73075">
        <ele>172</ele>
        <time>2017-07-21T08:27:50Z</time>
      </trkpt>
      <trkpt lat="45.92892" lon="4.73068">
        <ele>172</ele>
        <time>2017-07-21T08:27:51Z</time>
      </trkpt>
      <trkpt lat="45.92896" lon="4.73061">
        <ele>172</ele>
        <time>2017-07-21T08:27:52Z</time>
      </trkpt>
      <trkpt lat="45.929" lon="4.73056">
        <ele>172</ele>
        <time>2017-07-21T08:27:53Z</time>
      </trkpt>
      <trkpt lat="45.92903" lon="4.73051">
        <ele>172</ele>
        <time>2017-07-21T08:27:54Z</time>
      </trkpt>
      <trkpt lat="45.92907" lon="4.73046">
        <ele>172</ele>
        <time>2017-07-21T08:27:55Z</time>
      </trkpt>
      <trkpt lat="45.9291" lon="4.7304">
        <ele>172</ele>
        <time>2017-07-21T08:27:56Z</time>
      </trkpt>
      <trkpt lat="45.92915" lon="4.73034">
        <ele>172</ele>
        <time>2017-07-21T08:27:57Z</time>
      </trkpt>
      <trkpt lat="45.92918" lon="4.73029">
        <ele>172</ele>
        <time>2017-07-21T08:27:58Z</time>
      </trkpt>
      <trkpt lat="45.92922" lon="4.73024">
        <ele>171</ele>
        <time>2017-07-21T08:27:59Z</time>
      </trkpt>
      <trkpt lat="45.92927" lon="4.7302">
        <ele>171</ele>
        <time>2017-07-21T08:28:00Z</time>
      </trkpt>
      <trkpt lat="45.92932" lon="4.73015">
        <ele>171</ele>
        <time>2017-07-21T08:28:01Z</time>
      </trkpt>
      <trkpt lat="45.92937" lon="4.73009">
        <ele>171</ele>
        <time>2017-07-21T08:28:02Z</time>
      </trkpt>
      <trkpt lat="45.92942" lon="4.73004">
        <ele>171</ele>
        <time>2017-07-21T08:28:03Z</time>
      </trkpt>
      <trkpt lat="45.92948" lon="4.72997">
        <ele>171</ele>
        <time>2017-07-21T08:28:04Z</time>
      </trkpt>
      <trkpt lat="45.92953" lon="4.72991">
        <ele>171</ele>
        <time>2017-07-21T08:28:05Z</time>
      </trkpt>
      <trkpt lat="45.92958" lon="4.72985">
        <ele>171</ele>
        <time>2017-07-21T08:28:06Z</time>
      </trkpt>
      <trkpt lat="45.92963" lon="4.72979">
        <ele>171</ele>
        <time>2017-07-21T08:28:07Z</time>
      </trkpt>
      <trkpt lat="45.92968" lon="4.72974">
        <ele>171</ele>
        <time>2017-07-21T08:28:08Z</time>
      </trkpt>
      <trkpt lat="45.92974" lon="4.7297">
        <ele>171</ele>
        <time>2017-07-21T08:28:09Z</time>
      </trkpt>
      <trkpt lat="45.92978" lon="4.72965">
        <ele>171</ele>
        <time>2017-07-21T08:28:10Z</time>
      </trkpt>
      <trkpt lat="45.92982" lon="4.7296">
        <ele>171</ele>
        <time>2017-07-21T08:28:11Z</time>
      </trkpt>
      <trkpt lat="45.92987" lon="4.72955">
        <ele>171</ele>
        <time>2017-07-21T08:28:12Z</time>
      </trkpt>
      <trkpt lat="45.9299" lon="4.72948">
        <ele>171</ele>
        <time>2017-07-21T08:28:13Z</time>
      </trkpt>
      <trkpt lat="45.92994" lon="4.72943">
        <ele>171</ele>
        <time>2017-07-21T08:28:14Z</time>
      </trkpt>
      <trkpt lat="45.92999" lon="4.72937">
        <ele>171</ele>
        <time>2017-07-21T08:28:15Z</time>
      </trkpt>
      <trkpt lat="45.93002" lon="4.72931">
        <ele>170</ele>
        <time>2017-07-21T08:28:16Z</time>
      </trkpt>
      <trkpt lat="45.93007" lon="4.72926">
        <ele>170</ele>
        <time>2017-07-21T08:28:17Z</time>
      </trkpt>
      <trkpt lat="45.93011" lon="4.72921">
        <ele>170</ele>
        <time>2017-07-21T08:28:18Z</time>
      </trkpt>
      <trkpt lat="45.93016" lon="4.72915">
        <ele>171</ele>
        <time>2017-07-21T08:28:19Z</time>
      </trkpt>
      <trkpt lat="45.9302" lon="4.72909">
        <ele>172</ele>
        <time>2017-07-21T08:28:20Z</time>
      </trkpt>
      <trkpt lat="45.93025" lon="4.72903">
        <ele>172</ele>
        <time>2017-07-21T08:28:21Z</time>
      </trkpt>
      <trkpt lat="45.9303" lon="4.72897">
        <ele>172</ele>
        <time>2017-07-21T08:28:22Z</time>
      </trkpt>
      <trkpt lat="45.93035" lon="4.72891">
        <ele>172</ele>
        <time>2017-07-21T08:28:23Z</time>
      </trkpt>
      <trkpt lat="45.9304" lon="4.72885">
        <ele>172</ele>
        <time>2017-07-21T08:28:24Z</time>
      </trkpt>
      <trkpt lat="45.93045" lon="4.72881">
        <ele>172</ele>
        <time>2017-07-21T08:28:25Z</time>
      </trkpt>
      <trkpt lat="45.93048" lon="4.72877">
        <ele>172</ele>
        <time>2017-07-21T08:28:26Z</time>
      </trkpt>
      <trkpt lat="45.93054" lon="4.7287">
        <ele>172</ele>
        <time>2017-07-21T08:28:27Z</time>
      </trkpt>
      <trkpt lat="45.93059" lon="4.72864">
        <ele>172</ele>
        <time>2017-07-21T08:28:28Z</time>
      </trkpt>
      <trkpt lat="45.93064" lon="4.72858">
        <ele>172</ele>
        <time>2017-07-21T08:28:29Z</time>
      </trkpt>
      <trkpt lat="45.93069" lon="4.72849">
        <ele>172</ele>
        <time>2017-07-21T08:28:30Z</time>
      </trkpt>
      <trkpt lat="45.93074" lon="4.72841">
        <ele>173</ele>
        <time>2017-07-21T08:28:31Z</time>
      </trkpt>
      <trkpt lat="45.93079" lon="4.72832">
        <ele>173</ele>
        <time>2017-07-21T08:28:32Z</time>
      </trkpt>
      <trkpt lat="45.93083" lon="4.72823">
        <ele>173</ele>
        <time>2017-07-21T08:28:33Z</time>
      </trkpt>
      <trkpt lat="45.93088" lon="4.72815">
        <ele>172</ele>
        <time>2017-07-21T08:28:34Z</time>
      </trkpt>
      <trkpt lat="45.93093" lon="4.72807">
        <ele>172</ele>
        <time>2017-07-21T08:28:35Z</time>
      </trkpt>
      <trkpt lat="45.93099" lon="4.72802">
        <ele>171</ele>
        <time>2017-07-21T08:28:36Z</time>
      </trkpt>
      <trkpt lat="45.93103" lon="4.72846">
        <ele>172</ele>
        <time>2017-07-21T08:28:37Z</time>
      </trkpt>
      <trkpt lat="45.931" lon="4.72832">
        <ele>172</ele>
        <time>2017-07-21T08:28:38Z</time>
      </trkpt>
      <trkpt lat="45.93105" lon="4.72821">
        <ele>172</ele>
        <time>2017-07-21T08:28:39Z</time>
      </trkpt>
      <trkpt lat="45.93111" lon="4.72809">
        <ele>171</ele>
        <time>2017-07-21T08:28:40Z</time>
      </trkpt>
      <trkpt lat="45.93117" lon="4.72804">
        <ele>171</ele>
        <time>2017-07-21T08:28:41Z</time>
      </trkpt>
      <trkpt lat="45.93122" lon="4.72802">
        <ele>171</ele>
        <time>2017-07-21T08:28:42Z</time>
      </trkpt>
      <trkpt lat="45.93128" lon="4.72798">
        <ele>171</ele>
        <time>2017-07-21T08:28:43Z</time>
      </trkpt>
      <trkpt lat="45.93133" lon="4.72795">
        <ele>171</ele>
        <time>2017-07-21T08:28:44Z</time>
      </trkpt>
      <trkpt lat="45.93141" lon="4.72792">
        <ele>171</ele>
        <time>2017-07-21T08:28:46Z</time>
      </trkpt>
      <trkpt lat="45.93145" lon="4.72785">
        <ele>171</ele>
        <time>2017-07-21T08:28:47Z</time>
      </trkpt>
      <trkpt lat="45.93151" lon="4.72762">
        <ele>170</ele>
        <time>2017-07-21T08:28:48Z</time>
      </trkpt>
      <trkpt lat="45.93156" lon="4.72757">
        <ele>170</ele>
        <time>2017-07-21T08:28:49Z</time>
      </trkpt>
      <trkpt lat="45.9316" lon="4.72751">
        <ele>170</ele>
        <time>2017-07-21T08:28:50Z</time>
      </trkpt>
      <trkpt lat="45.93165" lon="4.72747">
        <ele>170</ele>
        <time>2017-07-21T08:28:51Z</time>
      </trkpt>
      <trkpt lat="45.9317" lon="4.72743">
        <ele>170</ele>
        <time>2017-07-21T08:28:52Z</time>
      </trkpt>
      <trkpt lat="45.93173" lon="4.72738">
        <ele>170</ele>
        <time>2017-07-21T08:28:53Z</time>
      </trkpt>
      <trkpt lat="45.93177" lon="4.72733">
        <ele>170</ele>
        <time>2017-07-21T08:28:54Z</time>
      </trkpt>
      <trkpt lat="45.93181" lon="4.72727">
        <ele>170</ele>
        <time>2017-07-21T08:28:55Z</time>
      </trkpt>
      <trkpt lat="45.93186" lon="4.72722">
        <ele>169</ele>
        <time>2017-07-21T08:28:56Z</time>
      </trkpt>
      <trkpt lat="45.9319" lon="4.72716">
        <ele>169</ele>
        <time>2017-07-21T08:28:57Z</time>
      </trkpt>
      <trkpt lat="45.93195" lon="4.72711">
        <ele>169</ele>
        <time>2017-07-21T08:28:58Z</time>
      </trkpt>
      <trkpt lat="45.932" lon="4.72706">
        <ele>169</ele>
        <time>2017-07-21T08:28:59Z</time>
      </trkpt>
      <trkpt lat="45.93204" lon="4.72701">
        <ele>169</ele>
        <time>2017-07-21T08:29:00Z</time>
      </trkpt>
      <trkpt lat="45.93209" lon="4.72694">
        <ele>169</ele>
        <time>2017-07-21T08:29:01Z</time>
      </trkpt>
      <trkpt lat="45.93213" lon="4.72688">
        <ele>169</ele>
        <time>2017-07-21T08:29:02Z</time>
      </trkpt>
      <trkpt lat="45.93218" lon="4.72683">
        <ele>169</ele>
        <time>2017-07-21T08:29:03Z</time>
      </trkpt>
      <trkpt lat="45.93223" lon="4.72677">
        <ele>169</ele>
        <time>2017-07-21T08:29:04Z</time>
      </trkpt>
      <trkpt lat="45.93227" lon="4.72672">
        <ele>169</ele>
        <time>2017-07-21T08:29:05Z</time>
      </trkpt>
      <trkpt lat="45.93232" lon="4.72668">
        <ele>169</ele>
        <time>2017-07-21T08:29:06Z</time>
      </trkpt>
      <trkpt lat="45.93237" lon="4.72665">
        <ele>169</ele>
        <time>2017-07-21T08:29:07Z</time>
      </trkpt>
      <trkpt lat="45.93241" lon="4.7266">
        <ele>169</ele>
        <time>2017-07-21T08:29:08Z</time>
      </trkpt>
      <trkpt lat="45.93245" lon="4.72654">
        <ele>169</ele>
        <time>2017-07-21T08:29:09Z</time>
      </trkpt>
      <trkpt lat="45.9325" lon="4.72648">
        <ele>169</ele>
        <time>2017-07-21T08:29:10Z</time>
      </trkpt>
      <trkpt lat="45.93255" lon="4.72642">
        <ele>169</ele>
        <time>2017-07-21T08:29:11Z</time>
      </trkpt>
      <trkpt lat="45.9326" lon="4.72636">
        <ele>169</ele>
        <time>2017-07-21T08:29:12Z</time>
      </trkpt>
      <trkpt lat="45.93265" lon="4.7263">
        <ele>170</ele>
        <time>2017-07-21T08:29:13Z</time>
      </trkpt>
      <trkpt lat="45.9327" lon="4.72622">
        <ele>170</ele>
        <time>2017-07-21T08:29:14Z</time>
      </trkpt>
      <trkpt lat="45.93274" lon="4.72616">
        <ele>170</ele>
        <time>2017-07-21T08:29:15Z</time>
      </trkpt>
      <trkpt lat="45.93278" lon="4.7261">
        <ele>170</ele>
        <time>2017-07-21T08:29:16Z</time>
      </trkpt>
      <trkpt lat="45.93283" lon="4.72604">
        <ele>170</ele>
        <time>2017-07-21T08:29:17Z</time>
      </trkpt>
      <trkpt lat="45.93287" lon="4.72599">
        <ele>170</ele>
        <time>2017-07-21T08:29:18Z</time>
      </trkpt>
      <trkpt lat="45.93292" lon="4.72592">
        <ele>170</ele>
        <time>2017-07-21T08:29:19Z</time>
      </trkpt>
      <trkpt lat="45.93296" lon="4.72587">
        <ele>170</ele>
        <time>2017-07-21T08:29:20Z</time>
      </trkpt>
      <trkpt lat="45.93301" lon="4.72582">
        <ele>171</ele>
        <time>2017-07-21T08:29:21Z</time>
      </trkpt>
      <trkpt lat="45.93307" lon="4.72578">
        <ele>171</ele>
        <time>2017-07-21T08:29:22Z</time>
      </trkpt>
      <trkpt lat="45.93312" lon="4.72573">
        <ele>171</ele>
        <time>2017-07-21T08:29:23Z</time>
      </trkpt>
      <trkpt lat="45.93315" lon="4.72569">
        <ele>171</ele>
        <time>2017-07-21T08:29:24Z</time>
      </trkpt>
      <trkpt lat="45.93322" lon="4.72561">
        <ele>171</ele>
        <time>2017-07-21T08:29:26Z</time>
      </trkpt>
      <trkpt lat="45.93326" lon="4.72557">
        <ele>171</ele>
        <time>2017-07-21T08:29:27Z</time>
      </trkpt>
      <trkpt lat="45.93331" lon="4.72551">
        <ele>172</ele>
        <time>2017-07-21T08:29:28Z</time>
      </trkpt>
      <trkpt lat="45.93336" lon="4.72547">
        <ele>171</ele>
        <time>2017-07-21T08:29:29Z</time>
      </trkpt>
      <trkpt lat="45.9334" lon="4.72543">
        <ele>171</ele>
        <time>2017-07-21T08:29:30Z</time>
      </trkpt>
      <trkpt lat="45.93344" lon="4.72537">
        <ele>171</ele>
        <time>2017-07-21T08:29:31Z</time>
      </trkpt>
      <trkpt lat="45.93348" lon="4.72532">
        <ele>172</ele>
        <time>2017-07-21T08:29:32Z</time>
      </trkpt>
      <trkpt lat="45.93352" lon="4.72527">
        <ele>172</ele>
        <time>2017-07-21T08:29:33Z</time>
      </trkpt>
      <trkpt lat="45.93357" lon="4.72521">
        <ele>172</ele>
        <time>2017-07-21T08:29:34Z</time>
      </trkpt>
      <trkpt lat="45.93361" lon="4.72516">
        <ele>172</ele>
        <time>2017-07-21T08:29:35Z</time>
      </trkpt>
      <trkpt lat="45.93365" lon="4.72511">
        <ele>172</ele>
        <time>2017-07-21T08:29:36Z</time>
      </trkpt>
      <trkpt lat="45.9337" lon="4.72507">
        <ele>172</ele>
        <time>2017-07-21T08:29:37Z</time>
      </trkpt>
      <trkpt lat="45.93374" lon="4.72502">
        <ele>172</ele>
        <time>2017-07-21T08:29:38Z</time>
      </trkpt>
      <trkpt lat="45.93378" lon="4.72495">
        <ele>173</ele>
        <time>2017-07-21T08:29:39Z</time>
      </trkpt>
      <trkpt lat="45.93381" lon="4.72489">
        <ele>173</ele>
        <time>2017-07-21T08:29:40Z</time>
      </trkpt>
      <trkpt lat="45.93385" lon="4.72484">
        <ele>173</ele>
        <time>2017-07-21T08:29:41Z</time>
      </trkpt>
      <trkpt lat="45.93388" lon="4.72479">
        <ele>173</ele>
        <time>2017-07-21T08:29:42Z</time>
      </trkpt>
      <trkpt lat="45.93391" lon="4.72473">
        <ele>173</ele>
        <time>2017-07-21T08:29:43Z</time>
      </trkpt>
      <trkpt lat="45.93394" lon="4.72467">
        <ele>173</ele>
        <time>2017-07-21T08:29:44Z</time>
      </trkpt>
      <trkpt lat="45.93396" lon="4.7246">
        <ele>173</ele>
        <time>2017-07-21T08:29:45Z</time>
      </trkpt>
      <trkpt lat="45.93398" lon="4.72453">
        <ele>173</ele>
        <time>2017-07-21T08:29:46Z</time>
      </trkpt>
      <trkpt lat="45.934" lon="4.72446">
        <ele>173</ele>
        <time>2017-07-21T08:29:47Z</time>
      </trkpt>
      <trkpt lat="45.93403" lon="4.7244">
        <ele>173</ele>
        <time>2017-07-21T08:29:48Z</time>
      </trkpt>
      <trkpt lat="45.93407" lon="4.72435">
        <ele>173</ele>
        <time>2017-07-21T08:29:49Z</time>
      </trkpt>
      <trkpt lat="45.9341" lon="4.72429">
        <ele>174</ele>
        <time>2017-07-21T08:29:50Z</time>
      </trkpt>
      <trkpt lat="45.93414" lon="4.72424">
        <ele>174</ele>
        <time>2017-07-21T08:29:51Z</time>
      </trkpt>
      <trkpt lat="45.93419" lon="4.72421">
        <ele>174</ele>
        <time>2017-07-21T08:29:52Z</time>
      </trkpt>
      <trkpt lat="45.93424" lon="4.72421">
        <ele>174</ele>
        <time>2017-07-21T08:29:53Z</time>
      </trkpt>
      <trkpt lat="45.93431" lon="4.72418">
        <ele>174</ele>
        <time>2017-07-21T08:29:54Z</time>
      </trkpt>
      <trkpt lat="45.93438" lon="4.72415">
        <ele>174</ele>
        <time>2017-07-21T08:29:55Z</time>
      </trkpt>
      <trkpt lat="45.93443" lon="4.72412">
        <ele>173</ele>
        <time>2017-07-21T08:29:56Z</time>
      </trkpt>
      <trkpt lat="45.93448" lon="4.72408">
        <ele>173</ele>
        <time>2017-07-21T08:29:57Z</time>
      </trkpt>
      <trkpt lat="45.93452" lon="4.72402">
        <ele>173</ele>
        <time>2017-07-21T08:29:58Z</time>
      </trkpt>
      <trkpt lat="45.93457" lon="4.72398">
        <ele>173</ele>
        <time>2017-07-21T08:29:59Z</time>
      </trkpt>
      <trkpt lat="45.93462" lon="4.72393">
        <ele>173</ele>
        <time>2017-07-21T08:30:00Z</time>
      </trkpt>
      <trkpt lat="45.93465" lon="4.72387">
        <ele>173</ele>
        <time>2017-07-21T08:30:01Z</time>
      </trkpt>
      <trkpt lat="45.93469" lon="4.72381">
        <ele>173</ele>
        <time>2017-07-21T08:30:02Z</time>
      </trkpt>
      <trkpt lat="45.93473" lon="4.72376">
        <ele>173</ele>
        <time>2017-07-21T08:30:03Z</time>
      </trkpt>
      <trkpt lat="45.93476" lon="4.72371">
        <ele>173</ele>
        <time>2017-07-21T08:30:04Z</time>
      </trkpt>
      <trkpt lat="45.9348" lon="4.72364">
        <ele>173</ele>
        <time>2017-07-21T08:30:05Z</time>
      </trkpt>
      <trkpt lat="45.93484" lon="4.72358">
        <ele>173</ele>
        <time>2017-07-21T08:30:06Z</time>
      </trkpt>
      <trkpt lat="45.93488" lon="4.72351">
        <ele>173</ele>
        <time>2017-07-21T08:30:07Z</time>
      </trkpt>
      <trkpt lat="45.93493" lon="4.72345">
        <ele>173</ele>
        <time>2017-07-21T08:30:08Z</time>
      </trkpt>
      <trkpt lat="45.93498" lon="4.72339">
        <ele>173</ele>
        <time>2017-07-21T08:30:09Z</time>
      </trkpt>
      <trkpt lat="45.93502" lon="4.72334">
        <ele>173</ele>
        <time>2017-07-21T08:30:10Z</time>
      </trkpt>
      <trkpt lat="45.93506" lon="4.72327">
        <ele>173</ele>
        <time>2017-07-21T08:30:11Z</time>
      </trkpt>
      <trkpt lat="45.93511" lon="4.72323">
        <ele>173</ele>
        <time>2017-07-21T08:30:12Z</time>
      </trkpt>
      <trkpt lat="45.93516" lon="4.72318">
        <ele>173</ele>
        <time>2017-07-21T08:30:13Z</time>
      </trkpt>
      <trkpt lat="45.93519" lon="4.72311">
        <ele>173</ele>
        <time>2017-07-21T08:30:14Z</time>
      </trkpt>
      <trkpt lat="45.93523" lon="4.72306">
        <ele>173</ele>
        <time>2017-07-21T08:30:15Z</time>
      </trkpt>
      <trkpt lat="45.93525" lon="4.72299">
        <ele>172</ele>
        <time>2017-07-21T08:30:16Z</time>
      </trkpt>
      <trkpt lat="45.93527" lon="4.72293">
        <ele>172</ele>
        <time>2017-07-21T08:30:17Z</time>
      </trkpt>
      <trkpt lat="45.93529" lon="4.72287">
        <ele>172</ele>
        <time>2017-07-21T08:30:18Z</time>
      </trkpt>
      <trkpt lat="45.93531" lon="4.72279">
        <ele>172</ele>
        <time>2017-07-21T08:30:19Z</time>
      </trkpt>
      <trkpt lat="45.93535" lon="4.72274">
        <ele>172</ele>
        <time>2017-07-21T08:30:20Z</time>
      </trkpt>
      <trkpt lat="45.93538" lon="4.72268">
        <ele>172</ele>
        <time>2017-07-21T08:30:21Z</time>
      </trkpt>
      <trkpt lat="45.9354" lon="4.72262">
        <ele>172</ele>
        <time>2017-07-21T08:30:22Z</time>
      </trkpt>
      <trkpt lat="45.93542" lon="4.72255">
        <ele>172</ele>
        <time>2017-07-21T08:30:23Z</time>
      </trkpt>
      <trkpt lat="45.93544" lon="4.72248">
        <ele>172</ele>
        <time>2017-07-21T08:30:24Z</time>
      </trkpt>
      <trkpt lat="45.93546" lon="4.72241">
        <ele>172</ele>
        <time>2017-07-21T08:30:25Z</time>
      </trkpt>
      <trkpt lat="45.93551" lon="4.7223">
        <ele>172</ele>
        <time>2017-07-21T08:30:27Z</time>
      </trkpt>
      <trkpt lat="45.93556" lon="4.72228">
        <ele>173</ele>
        <time>2017-07-21T08:30:28Z</time>
      </trkpt>
      <trkpt lat="45.93562" lon="4.72229">
        <ele>173</ele>
        <time>2017-07-21T08:30:29Z</time>
      </trkpt>
      <trkpt lat="45.93568" lon="4.72231">
        <ele>173</ele>
        <time>2017-07-21T08:30:30Z</time>
      </trkpt>
      <trkpt lat="45.93572" lon="4.72239">
        <ele>173</ele>
        <time>2017-07-21T08:30:31Z</time>
      </trkpt>
      <trkpt lat="45.93576" lon="4.72241">
        <ele>173</ele>
        <time>2017-07-21T08:30:32Z</time>
      </trkpt>
      <trkpt lat="45.93583" lon="4.72246">
        <ele>173</ele>
        <time>2017-07-21T08:30:34Z</time>
      </trkpt>
      <trkpt lat="45.93584" lon="4.7225">
        <ele>173</ele>
        <time>2017-07-21T08:30:35Z</time>
      </trkpt>
      <trkpt lat="45.93585" lon="4.72259">
        <ele>173</ele>
        <time>2017-07-21T08:30:38Z</time>
      </trkpt>
      <trkpt lat="45.93588" lon="4.72266">
        <ele>173</ele>
        <time>2017-07-21T08:30:39Z</time>
      </trkpt>
      <trkpt lat="45.93602" lon="4.72268">
        <ele>173</ele>
        <time>2017-07-21T08:30:40Z</time>
      </trkpt>
      <trkpt lat="45.93607" lon="4.72274">
        <ele>172</ele>
        <time>2017-07-21T08:30:41Z</time>
      </trkpt>
      <trkpt lat="45.93612" lon="4.72278">
        <ele>172</ele>
        <time>2017-07-21T08:30:42Z</time>
      </trkpt>
      <trkpt lat="45.93617" lon="4.72282">
        <ele>172</ele>
        <time>2017-07-21T08:30:43Z</time>
      </trkpt>
      <trkpt lat="45.93623" lon="4.72287">
        <ele>172</ele>
        <time>2017-07-21T08:30:44Z</time>
      </trkpt>
      <trkpt lat="45.93627" lon="4.7229">
        <ele>172</ele>
        <time>2017-07-21T08:30:45Z</time>
      </trkpt>
      <trkpt lat="45.93633" lon="4.72293">
        <ele>172</ele>
        <time>2017-07-21T08:30:46Z</time>
      </trkpt>
      <trkpt lat="45.93638" lon="4.72298">
        <ele>172</ele>
        <time>2017-07-21T08:30:47Z</time>
      </trkpt>
      <trkpt lat="45.93644" lon="4.72302">
        <ele>172</ele>
        <time>2017-07-21T08:30:48Z</time>
      </trkpt>
      <trkpt lat="45.93649" lon="4.72307">
        <ele>172</ele>
        <time>2017-07-21T08:30:49Z</time>
      </trkpt>
      <trkpt lat="45.93655" lon="4.72312">
        <ele>172</ele>
        <time>2017-07-21T08:30:50Z</time>
      </trkpt>
      <trkpt lat="45.93661" lon="4.72317">
        <ele>172</ele>
        <time>2017-07-21T08:30:51Z</time>
      </trkpt>
      <trkpt lat="45.93666" lon="4.72321">
        <ele>171</ele>
        <time>2017-07-21T08:30:52Z</time>
      </trkpt>
      <trkpt lat="45.9367" lon="4.72324">
        <ele>171</ele>
        <time>2017-07-21T08:30:53Z</time>
      </trkpt>
      <trkpt lat="45.93675" lon="4.72327">
        <ele>171</ele>
        <time>2017-07-21T08:30:54Z</time>
      </trkpt>
      <trkpt lat="45.93681" lon="4.7233">
        <ele>171</ele>
        <time>2017-07-21T08:30:55Z</time>
      </trkpt>
      <trkpt lat="45.93686" lon="4.72332">
        <ele>172</ele>
        <time>2017-07-21T08:30:56Z</time>
      </trkpt>
      <trkpt lat="45.93692" lon="4.72335">
        <ele>171</ele>
        <time>2017-07-21T08:30:57Z</time>
      </trkpt>
      <trkpt lat="45.93697" lon="4.72337">
        <ele>171</ele>
        <time>2017-07-21T08:30:58Z</time>
      </trkpt>
      <trkpt lat="45.93702" lon="4.72339">
        <ele>171</ele>
        <time>2017-07-21T08:30:59Z</time>
      </trkpt>
      <trkpt lat="45.93707" lon="4.72345">
        <ele>171</ele>
        <time>2017-07-21T08:31:00Z</time>
      </trkpt>
      <trkpt lat="45.93712" lon="4.72369">
        <ele>172</ele>
        <time>2017-07-21T08:31:01Z</time>
      </trkpt>
      <trkpt lat="45.93719" lon="4.72377">
        <ele>171</ele>
        <time>2017-07-21T08:31:02Z</time>
      </trkpt>
      <trkpt lat="45.93722" lon="4.72382">
        <ele>171</ele>
        <time>2017-07-21T08:31:03Z</time>
      </trkpt>
      <trkpt lat="45.93728" lon="4.72386">
        <ele>171</ele>
        <time>2017-07-21T08:31:04Z</time>
      </trkpt>
      <trkpt lat="45.93733" lon="4.72391">
        <ele>171</ele>
        <time>2017-07-21T08:31:05Z</time>
      </trkpt>
      <trkpt lat="45.93738" lon="4.72395">
        <ele>171</ele>
        <time>2017-07-21T08:31:06Z</time>
      </trkpt>
      <trkpt lat="45.93743" lon="4.72398">
        <ele>171</ele>
        <time>2017-07-21T08:31:07Z</time>
      </trkpt>
      <trkpt lat="45.93748" lon="4.72402">
        <ele>171</ele>
        <time>2017-07-21T08:31:08Z</time>
      </trkpt>
      <trkpt lat="45.93754" lon="4.7241">
        <ele>171</ele>
        <time>2017-07-21T08:31:10Z</time>
      </trkpt>
      <trkpt lat="45.93759" lon="4.72414">
        <ele>171</ele>
        <time>2017-07-21T08:31:11Z</time>
      </trkpt>
      <trkpt lat="45.93763" lon="4.72419">
        <ele>171</ele>
        <time>2017-07-21T08:31:12Z</time>
      </trkpt>
      <trkpt lat="45.93768" lon="4.72424">
        <ele>171</ele>
        <time>2017-07-21T08:31:13Z</time>
      </trkpt>
      <trkpt lat="45.93773" lon="4.72428">
        <ele>171</ele>
        <time>2017-07-21T08:31:14Z</time>
      </trkpt>
      <trkpt lat="45.93778" lon="4.72433">
        <ele>172</ele>
        <time>2017-07-21T08:31:15Z</time>
      </trkpt>
      <trkpt lat="45.93783" lon="4.72439">
        <ele>172</ele>
        <time>2017-07-21T08:31:16Z</time>
      </trkpt>
      <trkpt lat="45.93788" lon="4.72445">
        <ele>172</ele>
        <time>2017-07-21T08:31:17Z</time>
      </trkpt>
      <trkpt lat="45.93793" lon="4.7245">
        <ele>172</ele>
        <time>2017-07-21T08:31:18Z</time>
      </trkpt>
      <trkpt lat="45.93797" lon="4.72455">
        <ele>172</ele>
        <time>2017-07-21T08:31:19Z</time>
      </trkpt>
      <trkpt lat="45.93802" lon="4.72459">
        <ele>172</ele>
        <time>2017-07-21T08:31:20Z</time>
      </trkpt>
      <trkpt lat="45.93807" lon="4.72462">
        <ele>172</ele>
        <time>2017-07-21T08:31:21Z</time>
      </trkpt>
      <trkpt lat="45.9381" lon="4.72466">
        <ele>172</ele>
        <time>2017-07-21T08:31:22Z</time>
      </trkpt>
      <trkpt lat="45.93816" lon="4.72472">
        <ele>172</ele>
        <time>2017-07-21T08:31:23Z</time>
      </trkpt>
      <trkpt lat="45.93822" lon="4.72477">
        <ele>172</ele>
        <time>2017-07-21T08:31:24Z</time>
      </trkpt>
      <trkpt lat="45.93826" lon="4.72479">
        <ele>173</ele>
        <time>2017-07-21T08:31:25Z</time>
      </trkpt>
      <trkpt lat="45.93834" lon="4.72485">
        <ele>173</ele>
        <time>2017-07-21T08:31:27Z</time>
      </trkpt>
      <trkpt lat="45.93838" lon="4.72487">
        <ele>173</ele>
        <time>2017-07-21T08:31:28Z</time>
      </trkpt>
      <trkpt lat="45.93845" lon="4.72491">
        <ele>173</ele>
        <time>2017-07-21T08:31:30Z</time>
      </trkpt>
      <trkpt lat="45.9385" lon="4.72493">
        <ele>173</ele>
        <time>2017-07-21T08:31:31Z</time>
      </trkpt>
      <trkpt lat="45.93854" lon="4.72495">
        <ele>173</ele>
        <time>2017-07-21T08:31:32Z</time>
      </trkpt>
      <trkpt lat="45.93859" lon="4.72499">
        <ele>173</ele>
        <time>2017-07-21T08:31:33Z</time>
      </trkpt>
      <trkpt lat="45.9386" lon="4.72514">
        <ele>173</ele>
        <time>2017-07-21T08:31:34Z</time>
      </trkpt>
      <trkpt lat="45.93867" lon="4.72516">
        <ele>173</ele>
        <time>2017-07-21T08:31:35Z</time>
      </trkpt>
      <trkpt lat="45.93873" lon="4.72518">
        <ele>173</ele>
        <time>2017-07-21T08:31:36Z</time>
      </trkpt>
      <trkpt lat="45.93879" lon="4.72518">
        <ele>173</ele>
        <time>2017-07-21T08:31:37Z</time>
      </trkpt>
      <trkpt lat="45.93883" lon="4.72516">
        <ele>173</ele>
        <time>2017-07-21T08:31:38Z</time>
      </trkpt>
      <trkpt lat="45.93887" lon="4.72511">
        <ele>173</ele>
        <time>2017-07-21T08:31:39Z</time>
      </trkpt>
      <trkpt lat="45.93891" lon="4.72507">
        <ele>173</ele>
        <time>2017-07-21T08:31:40Z</time>
      </trkpt>
      <trkpt lat="45.93894" lon="4.72502">
        <ele>172</ele>
        <time>2017-07-21T08:31:41Z</time>
      </trkpt>
      <trkpt lat="45.93898" lon="4.72497">
        <ele>172</ele>
        <time>2017-07-21T08:31:42Z</time>
      </trkpt>
      <trkpt lat="45.93902" lon="4.72491">
        <ele>172</ele>
        <time>2017-07-21T08:31:43Z</time>
      </trkpt>
      <trkpt lat="45.93907" lon="4.72485">
        <ele>172</ele>
        <time>2017-07-21T08:31:44Z</time>
      </trkpt>
      <trkpt lat="45.93911" lon="4.72479">
        <ele>172</ele>
        <time>2017-07-21T08:31:45Z</time>
      </trkpt>
      <trkpt lat="45.93916" lon="4.72473">
        <ele>172</ele>
        <time>2017-07-21T08:31:46Z</time>
      </trkpt>
      <trkpt lat="45.93921" lon="4.72467">
        <ele>171</ele>
        <time>2017-07-21T08:31:47Z</time>
      </trkpt>
      <trkpt lat="45.93927" lon="4.72462">
        <ele>171</ele>
        <time>2017-07-21T08:31:48Z</time>
      </trkpt>
      <trkpt lat="45.93932" lon="4.72455">
        <ele>171</ele>
        <time>2017-07-21T08:31:49Z</time>
      </trkpt>
      <trkpt lat="45.93937" lon="4.72449">
        <ele>171</ele>
        <time>2017-07-21T08:31:50Z</time>
      </trkpt>
      <trkpt lat="45.93942" lon="4.72442">
        <ele>171</ele>
        <time>2017-07-21T08:31:51Z</time>
      </trkpt>
      <trkpt lat="45.93947" lon="4.72436">
        <ele>171</ele>
        <time>2017-07-21T08:31:52Z</time>
      </trkpt>
      <trkpt lat="45.93952" lon="4.72431">
        <ele>171</ele>
        <time>2017-07-21T08:31:53Z</time>
      </trkpt>
      <trkpt lat="45.93957" lon="4.72425">
        <ele>171</ele>
        <time>2017-07-21T08:31:54Z</time>
      </trkpt>
      <trkpt lat="45.93961" lon="4.72419">
        <ele>171</ele>
        <time>2017-07-21T08:31:55Z</time>
      </trkpt>
      <trkpt lat="45.93966" lon="4.72414">
        <ele>171</ele>
        <time>2017-07-21T08:31:56Z</time>
      </trkpt>
      <trkpt lat="45.93971" lon="4.72408">
        <ele>171</ele>
        <time>2017-07-21T08:31:57Z</time>
      </trkpt>
      <trkpt lat="45.93976" lon="4.72402">
        <ele>171</ele>
        <time>2017-07-21T08:31:58Z</time>
      </trkpt>
      <trkpt lat="45.9398" lon="4.72397">
        <ele>171</ele>
        <time>2017-07-21T08:31:59Z</time>
      </trkpt>
      <trkpt lat="45.93985" lon="4.72391">
        <ele>171</ele>
        <time>2017-07-21T08:32:00Z</time>
      </trkpt>
      <trkpt lat="45.9399" lon="4.72385">
        <ele>171</ele>
        <time>2017-07-21T08:32:01Z</time>
      </trkpt>
      <trkpt lat="45.93995" lon="4.7238">
        <ele>171</ele>
        <time>2017-07-21T08:32:02Z</time>
      </trkpt>
      <trkpt lat="45.94" lon="4.72375">
        <ele>171</ele>
        <time>2017-07-21T08:32:03Z</time>
      </trkpt>
      <trkpt lat="45.94004" lon="4.7237">
        <ele>171</ele>
        <time>2017-07-21T08:32:04Z</time>
      </trkpt>
      <trkpt lat="45.94009" lon="4.72365">
        <ele>171</ele>
        <time>2017-07-21T08:32:05Z</time>
      </trkpt>
      <trkpt lat="45.94013" lon="4.72359">
        <ele>171</ele>
        <time>2017-07-21T08:32:06Z</time>
      </trkpt>
      <trkpt lat="45.94017" lon="4.72353">
        <ele>171</ele>
        <time>2017-07-21T08:32:07Z</time>
      </trkpt>
      <trkpt lat="45.94022" lon="4.72347">
        <ele>171</ele>
        <time>2017-07-21T08:32:08Z</time>
      </trkpt>
      <trkpt lat="45.94027" lon="4.72342">
        <ele>171</ele>
        <time>2017-07-21T08:32:09Z</time>
      </trkpt>
      <trkpt lat="45.94031" lon="4.72337">
        <ele>171</ele>
        <time>2017-07-21T08:32:10Z</time>
      </trkpt>
      <trkpt lat="45.94035" lon="4.72331">
        <ele>171</ele>
        <time>2017-07-21T08:32:11Z</time>
      </trkpt>
      <trkpt lat="45.94037" lon="4.72326">
        <ele>171</ele>
        <time>2017-07-21T08:32:12Z</time>
      </trkpt>
      <trkpt lat="45.94044" lon="4.72319">
        <ele>171</ele>
        <time>2017-07-21T08:32:14Z</time>
      </trkpt>
      <trkpt lat="45.94047" lon="4.72315">
        <ele>171</ele>
        <time>2017-07-21T08:32:15Z</time>
      </trkpt>
      <trkpt lat="45.94053" lon="4.72308">
        <ele>171</ele>
        <time>2017-07-21T08:32:17Z</time>
      </trkpt>
      <trkpt lat="45.94056" lon="4.72305">
        <ele>171</ele>
        <time>2017-07-21T08:32:18Z</time>
      </trkpt>
      <trkpt lat="45.94059" lon="4.723">
        <ele>171</ele>
        <time>2017-07-21T08:32:19Z</time>
      </trkpt>
      <trkpt lat="45.94062" lon="4.72295">
        <ele>171</ele>
        <time>2017-07-21T08:32:20Z</time>
      </trkpt>
      <trkpt lat="45.94068" lon="4.7229">
        <ele>171</ele>
        <time>2017-07-21T08:32:21Z</time>
      </trkpt>
      <trkpt lat="45.94073" lon="4.72286">
        <ele>171</ele>
        <time>2017-07-21T08:32:22Z</time>
      </trkpt>
      <trkpt lat="45.94077" lon="4.72282">
        <ele>171</ele>
        <time>2017-07-21T08:32:23Z</time>
      </trkpt>
      <trkpt lat="45.94082" lon="4.72279">
        <ele>171</ele>
        <time>2017-07-21T08:32:24Z</time>
      </trkpt>
      <trkpt lat="45.94087" lon="4.72277">
        <ele>171</ele>
        <time>2017-07-21T08:32:25Z</time>
      </trkpt>
      <trkpt lat="45.94092" lon="4.72275">
        <ele>171</ele>
        <time>2017-07-21T08:32:26Z</time>
      </trkpt>
      <trkpt lat="45.94098" lon="4.72275">
        <ele>171</ele>
        <time>2017-07-21T08:32:27Z</time>
      </trkpt>
      <trkpt lat="45.94103" lon="4.72276">
        <ele>171</ele>
        <time>2017-07-21T08:32:28Z</time>
      </trkpt>
      <trkpt lat="45.94108" lon="4.72278">
        <ele>171</ele>
        <time>2017-07-21T08:32:29Z</time>
      </trkpt>
      <trkpt lat="45.94114" lon="4.7228">
        <ele>171</ele>
        <time>2017-07-21T08:32:30Z</time>
      </trkpt>
      <trkpt lat="45.94118" lon="4.72282">
        <ele>171</ele>
        <time>2017-07-21T08:32:31Z</time>
      </trkpt>
      <trkpt lat="45.94123" lon="4.72285">
        <ele>171</ele>
        <time>2017-07-21T08:32:32Z</time>
      </trkpt>
      <trkpt lat="45.94129" lon="4.72287">
        <ele>171</ele>
        <time>2017-07-21T08:32:33Z</time>
      </trkpt>
      <trkpt lat="45.94134" lon="4.7229">
        <ele>171</ele>
        <time>2017-07-21T08:32:34Z</time>
      </trkpt>
      <trkpt lat="45.94138" lon="4.72292">
        <ele>171</ele>
        <time>2017-07-21T08:32:35Z</time>
      </trkpt>
      <trkpt lat="45.94143" lon="4.72295">
        <ele>171</ele>
        <time>2017-07-21T08:32:36Z</time>
      </trkpt>
      <trkpt lat="45.94148" lon="4.72297">
        <ele>171</ele>
        <time>2017-07-21T08:32:37Z</time>
      </trkpt>
      <trkpt lat="45.94153" lon="4.72298">
        <ele>171</ele>
        <time>2017-07-21T08:32:38Z</time>
      </trkpt>
      <trkpt lat="45.94158" lon="4.723">
        <ele>171</ele>
        <time>2017-07-21T08:32:39Z</time>
      </trkpt>
      <trkpt lat="45.94164" lon="4.723">
        <ele>171</ele>
        <time>2017-07-21T08:32:40Z</time>
      </trkpt>
      <trkpt lat="45.9417" lon="4.72301">
        <ele>171</ele>
        <time>2017-07-21T08:32:41Z</time>
      </trkpt>
      <trkpt lat="45.94176" lon="4.72301">
        <ele>171</ele>
        <time>2017-07-21T08:32:42Z</time>
      </trkpt>
      <trkpt lat="45.94182" lon="4.72302">
        <ele>171</ele>
        <time>2017-07-21T08:32:43Z</time>
      </trkpt>
      <trkpt lat="45.94187" lon="4.72302">
        <ele>171</ele>
        <time>2017-07-21T08:32:44Z</time>
      </trkpt>
      <trkpt lat="45.94193" lon="4.72301">
        <ele>171</ele>
        <time>2017-07-21T08:32:45Z</time>
      </trkpt>
      <trkpt lat="45.94198" lon="4.72301">
        <ele>171</ele>
        <time>2017-07-21T08:32:46Z</time>
      </trkpt>
      <trkpt lat="45.94204" lon="4.72301">
        <ele>171</ele>
        <time>2017-07-21T08:32:47Z</time>
      </trkpt>
      <trkpt lat="45.9421" lon="4.72301">
        <ele>171</ele>
        <time>2017-07-21T08:32:48Z</time>
      </trkpt>
      <trkpt lat="45.94214" lon="4.723">
        <ele>171</ele>
        <time>2017-07-21T08:32:49Z</time>
      </trkpt>
      <trkpt lat="45.94219" lon="4.72299">
        <ele>171</ele>
        <time>2017-07-21T08:32:50Z</time>
      </trkpt>
      <trkpt lat="45.94223" lon="4.72298">
        <ele>171</ele>
        <time>2017-07-21T08:32:51Z</time>
      </trkpt>
      <trkpt lat="45.94229" lon="4.72296">
        <ele>171</ele>
        <time>2017-07-21T08:32:52Z</time>
      </trkpt>
      <trkpt lat="45.94234" lon="4.72295">
        <ele>171</ele>
        <time>2017-07-21T08:32:53Z</time>
      </trkpt>
      <trkpt lat="45.94239" lon="4.72292">
        <ele>171</ele>
        <time>2017-07-21T08:32:54Z</time>
      </trkpt>
      <trkpt lat="45.94245" lon="4.7229">
        <ele>171</ele>
        <time>2017-07-21T08:32:55Z</time>
      </trkpt>
      <trkpt lat="45.94251" lon="4.72288">
        <ele>171</ele>
        <time>2017-07-21T08:32:56Z</time>
      </trkpt>
      <trkpt lat="45.94256" lon="4.72285">
        <ele>171</ele>
        <time>2017-07-21T08:32:57Z</time>
      </trkpt>
      <trkpt lat="45.9426" lon="4.72283">
        <ele>171</ele>
        <time>2017-07-21T08:32:58Z</time>
      </trkpt>
      <trkpt lat="45.94264" lon="4.72282">
        <ele>171</ele>
        <time>2017-07-21T08:32:59Z</time>
      </trkpt>
      <trkpt lat="45.94269" lon="4.72283">
        <ele>171</ele>
        <time>2017-07-21T08:33:00Z</time>
      </trkpt>
      <trkpt lat="45.94273" lon="4.72286">
        <ele>171</ele>
        <time>2017-07-21T08:33:01Z</time>
      </trkpt>
      <trkpt lat="45.94277" lon="4.7229">
        <ele>171</ele>
        <time>2017-07-21T08:33:02Z</time>
      </trkpt>
      <trkpt lat="45.94281" lon="4.72295">
        <ele>171</ele>
        <time>2017-07-21T08:33:03Z</time>
      </trkpt>
      <trkpt lat="45.94284" lon="4.72301">
        <ele>171</ele>
        <time>2017-07-21T08:33:04Z</time>
      </trkpt>
      <trkpt lat="45.94287" lon="4.72307">
        <ele>171</ele>
        <time>2017-07-21T08:33:05Z</time>
      </trkpt>
      <trkpt lat="45.9429" lon="4.72313">
        <ele>171</ele>
        <time>2017-07-21T08:33:06Z</time>
      </trkpt>
      <trkpt lat="45.94293" lon="4.72319">
        <ele>171</ele>
        <time>2017-07-21T08:33:07Z</time>
      </trkpt>
      <trkpt lat="45.94296" lon="4.72326">
        <ele>171</ele>
        <time>2017-07-21T08:33:08Z</time>
      </trkpt>
      <trkpt lat="45.94299" lon="4.72333">
        <ele>171</ele>
        <time>2017-07-21T08:33:09Z</time>
      </trkpt>
      <trkpt lat="45.94303" lon="4.7234">
        <ele>172</ele>
        <time>2017-07-21T08:33:10Z</time>
      </trkpt>
      <trkpt lat="45.94306" lon="4.72346">
        <ele>172</ele>
        <time>2017-07-21T08:33:11Z</time>
      </trkpt>
      <trkpt lat="45.9431" lon="4.72353">
        <ele>172</ele>
        <time>2017-07-21T08:33:12Z</time>
      </trkpt>
      <trkpt lat="45.94313" lon="4.72359">
        <ele>172</ele>
        <time>2017-07-21T08:33:13Z</time>
      </trkpt>
      <trkpt lat="45.94316" lon="4.72365">
        <ele>172</ele>
        <time>2017-07-21T08:33:14Z</time>
      </trkpt>
      <trkpt lat="45.94319" lon="4.72371">
        <ele>172</ele>
        <time>2017-07-21T08:33:15Z</time>
      </trkpt>
      <trkpt lat="45.94322" lon="4.72377">
        <ele>172</ele>
        <time>2017-07-21T08:33:16Z</time>
      </trkpt>
      <trkpt lat="45.94324" lon="4.72383">
        <ele>172</ele>
        <time>2017-07-21T08:33:17Z</time>
      </trkpt>
      <trkpt lat="45.94326" lon="4.72389">
        <ele>172</ele>
        <time>2017-07-21T08:33:18Z</time>
      </trkpt>
      <trkpt lat="45.94329" lon="4.72397">
        <ele>172</ele>
        <time>2017-07-21T08:33:19Z</time>
      </trkpt>
      <trkpt lat="45.94331" lon="4.72403">
        <ele>173</ele>
        <time>2017-07-21T08:33:20Z</time>
      </trkpt>
      <trkpt lat="45.94334" lon="4.7241">
        <ele>173</ele>
        <time>2017-07-21T08:33:21Z</time>
      </trkpt>
      <trkpt lat="45.94337" lon="4.72416">
        <ele>173</ele>
        <time>2017-07-21T08:33:22Z</time>
      </trkpt>
      <trkpt lat="45.9434" lon="4.72423">
        <ele>173</ele>
        <time>2017-07-21T08:33:23Z</time>
      </trkpt>
      <trkpt lat="45.94343" lon="4.7243">
        <ele>173</ele>
        <time>2017-07-21T08:33:24Z</time>
      </trkpt>
      <trkpt lat="45.94345" lon="4.72436">
        <ele>173</ele>
        <time>2017-07-21T08:33:25Z</time>
      </trkpt>
      <trkpt lat="45.94348" lon="4.72442">
        <ele>173</ele>
        <time>2017-07-21T08:33:26Z</time>
      </trkpt>
      <trkpt lat="45.94351" lon="4.72448">
        <ele>173</ele>
        <time>2017-07-21T08:33:27Z</time>
      </trkpt>
      <trkpt lat="45.94354" lon="4.72453">
        <ele>173</ele>
        <time>2017-07-21T08:33:28Z</time>
      </trkpt>
      <trkpt lat="45.94357" lon="4.72459">
        <ele>173</ele>
        <time>2017-07-21T08:33:29Z</time>
      </trkpt>
      <trkpt lat="45.9436" lon="4.72466">
        <ele>173</ele>
        <time>2017-07-21T08:33:30Z</time>
      </trkpt>
      <trkpt lat="45.94363" lon="4.72472">
        <ele>173</ele>
        <time>2017-07-21T08:33:31Z</time>
      </trkpt>
      <trkpt lat="45.94366" lon="4.72479">
        <ele>173</ele>
        <time>2017-07-21T08:33:32Z</time>
      </trkpt>
      <trkpt lat="45.94369" lon="4.72486">
        <ele>173</ele>
        <time>2017-07-21T08:33:33Z</time>
      </trkpt>
      <trkpt lat="45.94371" lon="4.72494">
        <ele>173</ele>
        <time>2017-07-21T08:33:34Z</time>
      </trkpt>
      <trkpt lat="45.94373" lon="4.72501">
        <ele>173</ele>
        <time>2017-07-21T08:33:35Z</time>
      </trkpt>
      <trkpt lat="45.94375" lon="4.72507">
        <ele>174</ele>
        <time>2017-07-21T08:33:36Z</time>
      </trkpt>
      <trkpt lat="45.94378" lon="4.72514">
        <ele>174</ele>
        <time>2017-07-21T08:33:37Z</time>
      </trkpt>
      <trkpt lat="45.9438" lon="4.72521">
        <ele>174</ele>
        <time>2017-07-21T08:33:38Z</time>
      </trkpt>
      <trkpt lat="45.94382" lon="4.72527">
        <ele>174</ele>
        <time>2017-07-21T08:33:39Z</time>
      </trkpt>
      <trkpt lat="45.94384" lon="4.72534">
        <ele>174</ele>
        <time>2017-07-21T08:33:40Z</time>
      </trkpt>
      <trkpt lat="45.94386" lon="4.72541">
        <ele>174</ele>
        <time>2017-07-21T08:33:41Z</time>
      </trkpt>
      <trkpt lat="45.94389" lon="4.72549">
        <ele>173</ele>
        <time>2017-07-21T08:33:42Z</time>
      </trkpt>
      <trkpt lat="45.94391" lon="4.72556">
        <ele>173</ele>
        <time>2017-07-21T08:33:43Z</time>
      </trkpt>
      <trkpt lat="45.94393" lon="4.72563">
        <ele>173</ele>
        <time>2017-07-21T08:33:44Z</time>
      </trkpt>
      <trkpt lat="45.94395" lon="4.72571">
        <ele>173</ele>
        <time>2017-07-21T08:33:45Z</time>
      </trkpt>
      <trkpt lat="45.94396" lon="4.72579">
        <ele>173</ele>
        <time>2017-07-21T08:33:46Z</time>
      </trkpt>
      <trkpt lat="45.94397" lon="4.72587">
        <ele>173</ele>
        <time>2017-07-21T08:33:47Z</time>
      </trkpt>
      <trkpt lat="45.94398" lon="4.72594">
        <ele>173</ele>
        <time>2017-07-21T08:33:48Z</time>
      </trkpt>
      <trkpt lat="45.94398" lon="4.72602">
        <ele>173</ele>
        <time>2017-07-21T08:33:49Z</time>
      </trkpt>
      <trkpt lat="45.94398" lon="4.7261">
        <ele>173</ele>
        <time>2017-07-21T08:33:50Z</time>
      </trkpt>
      <trkpt lat="45.94399" lon="4.72618">
        <ele>173</ele>
        <time>2017-07-21T08:33:51Z</time>
      </trkpt>
      <trkpt lat="45.944" lon="4.72626">
        <ele>174</ele>
        <time>2017-07-21T08:33:52Z</time>
      </trkpt>
      <trkpt lat="45.94401" lon="4.72633">
        <ele>174</ele>
        <time>2017-07-21T08:33:53Z</time>
      </trkpt>
      <trkpt lat="45.94402" lon="4.7264">
        <ele>174</ele>
        <time>2017-07-21T08:33:54Z</time>
      </trkpt>
      <trkpt lat="45.94403" lon="4.72647">
        <ele>174</ele>
        <time>2017-07-21T08:33:55Z</time>
      </trkpt>
      <trkpt lat="45.94404" lon="4.72655">
        <ele>174</ele>
        <time>2017-07-21T08:33:56Z</time>
      </trkpt>
      <trkpt lat="45.94406" lon="4.72663">
        <ele>174</ele>
        <time>2017-07-21T08:33:57Z</time>
      </trkpt>
      <trkpt lat="45.94407" lon="4.72672">
        <ele>173</ele>
        <time>2017-07-21T08:33:58Z</time>
      </trkpt>
      <trkpt lat="45.94408" lon="4.7268">
        <ele>173</ele>
        <time>2017-07-21T08:33:59Z</time>
      </trkpt>
      <trkpt lat="45.94409" lon="4.72688">
        <ele>173</ele>
        <time>2017-07-21T08:34:00Z</time>
      </trkpt>
      <trkpt lat="45.9441" lon="4.72697">
        <ele>173</ele>
        <time>2017-07-21T08:34:01Z</time>
      </trkpt>
      <trkpt lat="45.94411" lon="4.72705">
        <ele>172</ele>
        <time>2017-07-21T08:34:02Z</time>
      </trkpt>
      <trkpt lat="45.94412" lon="4.72714">
        <ele>172</ele>
        <time>2017-07-21T08:34:03Z</time>
      </trkpt>
      <trkpt lat="45.94412" lon="4.72723">
        <ele>172</ele>
        <time>2017-07-21T08:34:04Z</time>
      </trkpt>
      <trkpt lat="45.94412" lon="4.72732">
        <ele>172</ele>
        <time>2017-07-21T08:34:05Z</time>
      </trkpt>
      <trkpt lat="45.94413" lon="4.72741">
        <ele>171</ele>
        <time>2017-07-21T08:34:06Z</time>
      </trkpt>
      <trkpt lat="45.94414" lon="4.72749">
        <ele>171</ele>
        <time>2017-07-21T08:34:07Z</time>
      </trkpt>
      <trkpt lat="45.94416" lon="4.72758">
        <ele>170</ele>
        <time>2017-07-21T08:34:08Z</time>
      </trkpt>
      <trkpt lat="45.94417" lon="4.72767">
        <ele>169</ele>
        <time>2017-07-21T08:34:09Z</time>
      </trkpt>
      <trkpt lat="45.94419" lon="4.72775">
        <ele>169</ele>
        <time>2017-07-21T08:34:10Z</time>
      </trkpt>
      <trkpt lat="45.9442" lon="4.72783">
        <ele>168</ele>
        <time>2017-07-21T08:34:11Z</time>
      </trkpt>
      <trkpt lat="45.94421" lon="4.72791">
        <ele>168</ele>
        <time>2017-07-21T08:34:12Z</time>
      </trkpt>
      <trkpt lat="45.94422" lon="4.72799">
        <ele>167</ele>
        <time>2017-07-21T08:34:13Z</time>
      </trkpt>
      <trkpt lat="45.94423" lon="4.72807">
        <ele>167</ele>
        <time>2017-07-21T08:34:14Z</time>
      </trkpt>
      <trkpt lat="45.94425" lon="4.72814">
        <ele>167</ele>
        <time>2017-07-21T08:34:15Z</time>
      </trkpt>
      <trkpt lat="45.94426" lon="4.72822">
        <ele>167</ele>
        <time>2017-07-21T08:34:16Z</time>
      </trkpt>
      <trkpt lat="45.94427" lon="4.7283">
        <ele>166</ele>
        <time>2017-07-21T08:34:17Z</time>
      </trkpt>
      <trkpt lat="45.94429" lon="4.72838">
        <ele>166</ele>
        <time>2017-07-21T08:34:18Z</time>
      </trkpt>
      <trkpt lat="45.9443" lon="4.72844">
        <ele>166</ele>
        <time>2017-07-21T08:34:19Z</time>
      </trkpt>
      <trkpt lat="45.9443" lon="4.72851">
        <ele>166</ele>
        <time>2017-07-21T08:34:20Z</time>
      </trkpt>
      <trkpt lat="45.94431" lon="4.72858">
        <ele>166</ele>
        <time>2017-07-21T08:34:21Z</time>
      </trkpt>
      <trkpt lat="45.94433" lon="4.72864">
        <ele>166</ele>
        <time>2017-07-21T08:34:22Z</time>
      </trkpt>
      <trkpt lat="45.94434" lon="4.72871">
        <ele>166</ele>
        <time>2017-07-21T08:34:23Z</time>
      </trkpt>
      <trkpt lat="45.94435" lon="4.72878">
        <ele>166</ele>
        <time>2017-07-21T08:34:24Z</time>
      </trkpt>
      <trkpt lat="45.94436" lon="4.72884">
        <ele>166</ele>
        <time>2017-07-21T08:34:25Z</time>
      </trkpt>
      <trkpt lat="45.94436" lon="4.72891">
        <ele>166</ele>
        <time>2017-07-21T08:34:26Z</time>
      </trkpt>
      <trkpt lat="45.94437" lon="4.72903">
        <ele>166</ele>
        <time>2017-07-21T08:34:28Z</time>
      </trkpt>
      <trkpt lat="45.94438" lon="4.72909">
        <ele>166</ele>
        <time>2017-07-21T08:34:29Z</time>
      </trkpt>
      <trkpt lat="45.94438" lon="4.72916">
        <ele>166</ele>
        <time>2017-07-21T08:34:30Z</time>
      </trkpt>
      <trkpt lat="45.94439" lon="4.72922">
        <ele>167</ele>
        <time>2017-07-21T08:34:31Z</time>
      </trkpt>
      <trkpt lat="45.94441" lon="4.72929">
        <ele>167</ele>
        <time>2017-07-21T08:34:32Z</time>
      </trkpt>
      <trkpt lat="45.94441" lon="4.72936">
        <ele>167</ele>
        <time>2017-07-21T08:34:33Z</time>
      </trkpt>
      <trkpt lat="45.94442" lon="4.72944">
        <ele>167</ele>
        <time>2017-07-21T08:34:34Z</time>
      </trkpt>
      <trkpt lat="45.94442" lon="4.72952">
        <ele>167</ele>
        <time>2017-07-21T08:34:35Z</time>
      </trkpt>
      <trkpt lat="45.94443" lon="4.7296">
        <ele>167</ele>
        <time>2017-07-21T08:34:36Z</time>
      </trkpt>
      <trkpt lat="45.94444" lon="4.72968">
        <ele>167</ele>
        <time>2017-07-21T08:34:37Z</time>
      </trkpt>
      <trkpt lat="45.94445" lon="4.72976">
        <ele>167</ele>
        <time>2017-07-21T08:34:38Z</time>
      </trkpt>
      <trkpt lat="45.94446" lon="4.72985">
        <ele>167</ele>
        <time>2017-07-21T08:34:39Z</time>
      </trkpt>
      <trkpt lat="45.94448" lon="4.72994">
        <ele>167</ele>
        <time>2017-07-21T08:34:40Z</time>
      </trkpt>
      <trkpt lat="45.94449" lon="4.73004">
        <ele>169</ele>
        <time>2017-07-21T08:34:41Z</time>
      </trkpt>
      <trkpt lat="45.94451" lon="4.73014">
        <ele>169</ele>
        <time>2017-07-21T08:34:42Z</time>
      </trkpt>
      <trkpt lat="45.94452" lon="4.73024">
        <ele>169</ele>
        <time>2017-07-21T08:34:43Z</time>
      </trkpt>
      <trkpt lat="45.94454" lon="4.73034">
        <ele>169</ele>
        <time>2017-07-21T08:34:44Z</time>
      </trkpt>
      <trkpt lat="45.94455" lon="4.73044">
        <ele>169</ele>
        <time>2017-07-21T08:34:45Z</time>
      </trkpt>
      <trkpt lat="45.94457" lon="4.73055">
        <ele>170</ele>
        <time>2017-07-21T08:34:46Z</time>
      </trkpt>
      <trkpt lat="45.94459" lon="4.73065">
        <ele>170</ele>
        <time>2017-07-21T08:34:47Z</time>
      </trkpt>
      <trkpt lat="45.9446" lon="4.73076">
        <ele>170</ele>
        <time>2017-07-21T08:34:48Z</time>
      </trkpt>
      <trkpt lat="45.94461" lon="4.73086">
        <ele>171</ele>
        <time>2017-07-21T08:34:49Z</time>
      </trkpt>
      <trkpt lat="45.94463" lon="4.73095">
        <ele>171</ele>
        <time>2017-07-21T08:34:50Z</time>
      </trkpt>
      <trkpt lat="45.94464" lon="4.73104">
        <ele>172</ele>
        <time>2017-07-21T08:34:51Z</time>
      </trkpt>
      <trkpt lat="45.94465" lon="4.73114">
        <ele>172</ele>
        <time>2017-07-21T08:34:52Z</time>
      </trkpt>
      <trkpt lat="45.94465" lon="4.73123">
        <ele>172</ele>
        <time>2017-07-21T08:34:53Z</time>
      </trkpt>
      <trkpt lat="45.94466" lon="4.73132">
        <ele>172</ele>
        <time>2017-07-21T08:34:54Z</time>
      </trkpt>
      <trkpt lat="45.94467" lon="4.7314">
        <ele>172</ele>
        <time>2017-07-21T08:34:55Z</time>
      </trkpt>
      <trkpt lat="45.94468" lon="4.73149">
        <ele>172</ele>
        <time>2017-07-21T08:34:56Z</time>
      </trkpt>
      <trkpt lat="45.9447" lon="4.73157">
        <ele>172</ele>
        <time>2017-07-21T08:34:57Z</time>
      </trkpt>
      <trkpt lat="45.94471" lon="4.73165">
        <ele>173</ele>
        <time>2017-07-21T08:34:58Z</time>
      </trkpt>
      <trkpt lat="45.94472" lon="4.73172">
        <ele>174</ele>
        <time>2017-07-21T08:34:59Z</time>
      </trkpt>
      <trkpt lat="45.94473" lon="4.7318">
        <ele>174</ele>
        <time>2017-07-21T08:35:00Z</time>
      </trkpt>
      <trkpt lat="45.94475" lon="4.73187">
        <ele>174</ele>
        <time>2017-07-21T08:35:01Z</time>
      </trkpt>
      <trkpt lat="45.94475" lon="4.73195">
        <ele>174</ele>
        <time>2017-07-21T08:35:02Z</time>
      </trkpt>
      <trkpt lat="45.94476" lon="4.73202">
        <ele>174</ele>
        <time>2017-07-21T08:35:03Z</time>
      </trkpt>
      <trkpt lat="45.94477" lon="4.73209">
        <ele>175</ele>
        <time>2017-07-21T08:35:04Z</time>
      </trkpt>
      <trkpt lat="45.94479" lon="4.73217">
        <ele>175</ele>
        <time>2017-07-21T08:35:05Z</time>
      </trkpt>
      <trkpt lat="45.94481" lon="4.73224">
        <ele>175</ele>
        <time>2017-07-21T08:35:06Z</time>
      </trkpt>
      <trkpt lat="45.94483" lon="4.7323">
        <ele>175</ele>
        <time>2017-07-21T08:35:07Z</time>
      </trkpt>
      <trkpt lat="45.94484" lon="4.73236">
        <ele>175</ele>
        <time>2017-07-21T08:35:08Z</time>
      </trkpt>
      <trkpt lat="45.94486" lon="4.73242">
        <ele>175</ele>
        <time>2017-07-21T08:35:09Z</time>
      </trkpt>
      <trkpt lat="45.94489" lon="4.73254">
        <ele>176</ele>
        <time>2017-07-21T08:35:11Z</time>
      </trkpt>
      <trkpt lat="45.94489" lon="4.73261">
        <ele>176</ele>
        <time>2017-07-21T08:35:12Z</time>
      </trkpt>
      <trkpt lat="45.9449" lon="4.73273">
        <ele>177</ele>
        <time>2017-07-21T08:35:14Z</time>
      </trkpt>
      <trkpt lat="45.9449" lon="4.73279">
        <ele>177</ele>
        <time>2017-07-21T08:35:15Z</time>
      </trkpt>
      <trkpt lat="45.94487" lon="4.73289">
        <ele>177</ele>
        <time>2017-07-21T08:35:16Z</time>
      </trkpt>
      <trkpt lat="45.94488" lon="4.73296">
        <ele>177</ele>
        <time>2017-07-21T08:35:17Z</time>
      </trkpt>
      <trkpt lat="45.94488" lon="4.73303">
        <ele>177</ele>
        <time>2017-07-21T08:35:18Z</time>
      </trkpt>
      <trkpt lat="45.9449" lon="4.73309">
        <ele>177</ele>
        <time>2017-07-21T08:35:19Z</time>
      </trkpt>
      <trkpt lat="45.9449" lon="4.73321">
        <ele>177</ele>
        <time>2017-07-21T08:35:21Z</time>
      </trkpt>
      <trkpt lat="45.94491" lon="4.73326">
        <ele>177</ele>
        <time>2017-07-21T08:35:22Z</time>
      </trkpt>
      <trkpt lat="45.94492" lon="4.73333">
        <ele>177</ele>
        <time>2017-07-21T08:35:23Z</time>
      </trkpt>
      <trkpt lat="45.94493" lon="4.73339">
        <ele>178</ele>
        <time>2017-07-21T08:35:24Z</time>
      </trkpt>
      <trkpt lat="45.94493" lon="4.73346">
        <ele>178</ele>
        <time>2017-07-21T08:35:25Z</time>
      </trkpt>
      <trkpt lat="45.94494" lon="4.73352">
        <ele>178</ele>
        <time>2017-07-21T08:35:26Z</time>
      </trkpt>
      <trkpt lat="45.94495" lon="4.73359">
        <ele>178</ele>
        <time>2017-07-21T08:35:27Z</time>
      </trkpt>
      <trkpt lat="45.94496" lon="4.73365">
        <ele>179</ele>
        <time>2017-07-21T08:35:28Z</time>
      </trkpt>
      <trkpt lat="45.94497" lon="4.73377">
        <ele>179</ele>
        <time>2017-07-21T08:35:30Z</time>
      </trkpt>
      <trkpt lat="45.94497" lon="4.73383">
        <ele>179</ele>
        <time>2017-07-21T08:35:31Z</time>
      </trkpt>
      <trkpt lat="45.94499" lon="4.73396">
        <ele>179</ele>
        <time>2017-07-21T08:35:33Z</time>
      </trkpt>
      <trkpt lat="45.945" lon="4.73402">
        <ele>180</ele>
        <time>2017-07-21T08:35:34Z</time>
      </trkpt>
      <trkpt lat="45.94501" lon="4.73408">
        <ele>179</ele>
        <time>2017-07-21T08:35:35Z</time>
      </trkpt>
      <trkpt lat="45.945" lon="4.73415">
        <ele>180</ele>
        <time>2017-07-21T08:35:36Z</time>
      </trkpt>
      <trkpt lat="45.945" lon="4.73421">
        <ele>180</ele>
        <time>2017-07-21T08:35:37Z</time>
      </trkpt>
      <trkpt lat="45.94501" lon="4.73428">
        <ele>180</ele>
        <time>2017-07-21T08:35:38Z</time>
      </trkpt>
      <trkpt lat="45.94501" lon="4.7344">
        <ele>181</ele>
        <time>2017-07-21T08:35:40Z</time>
      </trkpt>
      <trkpt lat="45.94501" lon="4.73445">
        <ele>181</ele>
        <time>2017-07-21T08:35:41Z</time>
      </trkpt>
      <trkpt lat="45.94501" lon="4.73457">
        <ele>181</ele>
        <time>2017-07-21T08:35:43Z</time>
      </trkpt>
      <trkpt lat="45.94502" lon="4.73463">
        <ele>181</ele>
        <time>2017-07-21T08:35:44Z</time>
      </trkpt>
      <trkpt lat="45.94502" lon="4.73474">
        <ele>182</ele>
        <time>2017-07-21T08:35:46Z</time>
      </trkpt>
      <trkpt lat="45.94502" lon="4.73481">
        <ele>182</ele>
        <time>2017-07-21T08:35:47Z</time>
      </trkpt>
      <trkpt lat="45.94502" lon="4.73493">
        <ele>182</ele>
        <time>2017-07-21T08:35:49Z</time>
      </trkpt>
      <trkpt lat="45.94502" lon="4.73498">
        <ele>183</ele>
        <time>2017-07-21T08:35:50Z</time>
      </trkpt>
      <trkpt lat="45.94501" lon="4.73504">
        <ele>183</ele>
        <time>2017-07-21T08:35:51Z</time>
      </trkpt>
      <trkpt lat="45.94501" lon="4.73511">
        <ele>183</ele>
        <time>2017-07-21T08:35:52Z</time>
      </trkpt>
      <trkpt lat="45.94501" lon="4.73523">
        <ele>183</ele>
        <time>2017-07-21T08:35:54Z</time>
      </trkpt>
      <trkpt lat="45.94501" lon="4.73529">
        <ele>183</ele>
        <time>2017-07-21T08:35:55Z</time>
      </trkpt>
      <trkpt lat="45.945" lon="4.7354">
        <ele>183</ele>
        <time>2017-07-21T08:35:57Z</time>
      </trkpt>
      <trkpt lat="45.94501" lon="4.73547">
        <ele>183</ele>
        <time>2017-07-21T08:35:58Z</time>
      </trkpt>
      <trkpt lat="45.945" lon="4.73558">
        <ele>185</ele>
        <time>2017-07-21T08:36:00Z</time>
      </trkpt>
      <trkpt lat="45.94499" lon="4.73564">
        <ele>185</ele>
        <time>2017-07-21T08:36:01Z</time>
      </trkpt>
      <trkpt lat="45.94498" lon="4.73576">
        <ele>185</ele>
        <time>2017-07-21T08:36:03Z</time>
      </trkpt>
      <trkpt lat="45.94498" lon="4.73582">
        <ele>185</ele>
        <time>2017-07-21T08:36:04Z</time>
      </trkpt>
      <trkpt lat="45.94498" lon="4.73589">
        <ele>185</ele>
        <time>2017-07-21T08:36:05Z</time>
      </trkpt>
      <trkpt lat="45.94496" lon="4.73597">
        <ele>185</ele>
        <time>2017-07-21T08:36:06Z</time>
      </trkpt>
      <trkpt lat="45.94495" lon="4.73609">
        <ele>186</ele>
        <time>2017-07-21T08:36:08Z</time>
      </trkpt>
      <trkpt lat="45.94496" lon="4.73614">
        <ele>186</ele>
        <time>2017-07-21T08:36:09Z</time>
      </trkpt>
      <trkpt lat="45.94498" lon="4.73626">
        <ele>186</ele>
        <time>2017-07-21T08:36:11Z</time>
      </trkpt>
      <trkpt lat="45.94498" lon="4.73631">
        <ele>186</ele>
        <time>2017-07-21T08:36:12Z</time>
      </trkpt>
      <trkpt lat="45.94494" lon="4.73643">
        <ele>186</ele>
        <time>2017-07-21T08:36:14Z</time>
      </trkpt>
      <trkpt lat="45.94492" lon="4.73649">
        <ele>186</ele>
        <time>2017-07-21T08:36:15Z</time>
      </trkpt>
      <trkpt lat="45.9449" lon="4.73656">
        <ele>185</ele>
        <time>2017-07-21T08:36:16Z</time>
      </trkpt>
      <trkpt lat="45.94489" lon="4.73662">
        <ele>185</ele>
        <time>2017-07-21T08:36:17Z</time>
      </trkpt>
      <trkpt lat="45.94488" lon="4.73669">
        <ele>185</ele>
        <time>2017-07-21T08:36:18Z</time>
      </trkpt>
      <trkpt lat="45.94487" lon="4.73678">
        <ele>186</ele>
        <time>2017-07-21T08:36:19Z</time>
      </trkpt>
      <trkpt lat="45.94486" lon="4.73684">
        <ele>186</ele>
        <time>2017-07-21T08:36:20Z</time>
      </trkpt>
      <trkpt lat="45.94486" lon="4.73692">
        <ele>186</ele>
        <time>2017-07-21T08:36:21Z</time>
      </trkpt>
      <trkpt lat="45.94486" lon="4.73701">
        <ele>186</ele>
        <time>2017-07-21T08:36:22Z</time>
      </trkpt>
      <trkpt lat="45.94485" lon="4.73708">
        <ele>186</ele>
        <time>2017-07-21T08:36:23Z</time>
      </trkpt>
      <trkpt lat="45.94484" lon="4.73715">
        <ele>186</ele>
        <time>2017-07-21T08:36:24Z</time>
      </trkpt>
      <trkpt lat="45.94483" lon="4.73722">
        <ele>186</ele>
        <time>2017-07-21T08:36:25Z</time>
      </trkpt>
      <trkpt lat="45.94482" lon="4.73729">
        <ele>186</ele>
        <time>2017-07-21T08:36:26Z</time>
      </trkpt>
      <trkpt lat="45.9448" lon="4.73736">
        <ele>186</ele>
        <time>2017-07-21T08:36:27Z</time>
      </trkpt>
      <trkpt lat="45.94479" lon="4.73742">
        <ele>186</ele>
        <time>2017-07-21T08:36:28Z</time>
      </trkpt>
      <trkpt lat="45.94477" lon="4.73749">
        <ele>186</ele>
        <time>2017-07-21T08:36:29Z</time>
      </trkpt>
      <trkpt lat="45.94476" lon="4.73756">
        <ele>186</ele>
        <time>2017-07-21T08:36:30Z</time>
      </trkpt>
      <trkpt lat="45.94477" lon="4.73763">
        <ele>186</ele>
        <time>2017-07-21T08:36:31Z</time>
      </trkpt>
      <trkpt lat="45.94479" lon="4.7377">
        <ele>186</ele>
        <time>2017-07-21T08:36:32Z</time>
      </trkpt>
      <trkpt lat="45.94483" lon="4.73775">
        <ele>186</ele>
        <time>2017-07-21T08:36:33Z</time>
      </trkpt>
      <trkpt lat="45.94487" lon="4.73779">
        <ele>186</ele>
        <time>2017-07-21T08:36:34Z</time>
      </trkpt>
      <trkpt lat="45.94491" lon="4.73782">
        <ele>186</ele>
        <time>2017-07-21T08:36:35Z</time>
      </trkpt>
      <trkpt lat="45.94496" lon="4.73785">
        <ele>186</ele>
        <time>2017-07-21T08:36:36Z</time>
      </trkpt>
      <trkpt lat="45.945" lon="4.73788">
        <ele>186</ele>
        <time>2017-07-21T08:36:37Z</time>
      </trkpt>
      <trkpt lat="45.94508" lon="4.73793">
        <ele>186</ele>
        <time>2017-07-21T08:36:39Z</time>
      </trkpt>
      <trkpt lat="45.94511" lon="4.73797">
        <ele>186</ele>
        <time>2017-07-21T08:36:40Z</time>
      </trkpt>
      <trkpt lat="45.94515" lon="4.73802">
        <ele>186</ele>
        <time>2017-07-21T08:36:41Z</time>
      </trkpt>
      <trkpt lat="45.94518" lon="4.73807">
        <ele>186</ele>
        <time>2017-07-21T08:36:42Z</time>
      </trkpt>
      <trkpt lat="45.94524" lon="4.73814">
        <ele>186</ele>
        <time>2017-07-21T08:36:44Z</time>
      </trkpt>
      <trkpt lat="45.94528" lon="4.73819">
        <ele>186</ele>
        <time>2017-07-21T08:36:45Z</time>
      </trkpt>
      <trkpt lat="45.94531" lon="4.73823">
        <ele>186</ele>
        <time>2017-07-21T08:36:46Z</time>
      </trkpt>
      <trkpt lat="45.94535" lon="4.73827">
        <ele>186</ele>
        <time>2017-07-21T08:36:47Z</time>
      </trkpt>
      <trkpt lat="45.94543" lon="4.73833">
        <ele>186</ele>
        <time>2017-07-21T08:36:49Z</time>
      </trkpt>
      <trkpt lat="45.94546" lon="4.73836">
        <ele>186</ele>
        <time>2017-07-21T08:36:50Z</time>
      </trkpt>
      <trkpt lat="45.94552" lon="4.73843">
        <ele>186</ele>
        <time>2017-07-21T08:36:52Z</time>
      </trkpt>
      <trkpt lat="45.94556" lon="4.73847">
        <ele>186</ele>
        <time>2017-07-21T08:36:53Z</time>
      </trkpt>
      <trkpt lat="45.94559" lon="4.7385">
        <ele>186</ele>
        <time>2017-07-21T08:36:54Z</time>
      </trkpt>
      <trkpt lat="45.94563" lon="4.73854">
        <ele>186</ele>
        <time>2017-07-21T08:36:55Z</time>
      </trkpt>
      <trkpt lat="45.94571" lon="4.7386">
        <ele>186</ele>
        <time>2017-07-21T08:36:57Z</time>
      </trkpt>
      <trkpt lat="45.94574" lon="4.73863">
        <ele>186</ele>
        <time>2017-07-21T08:36:58Z</time>
      </trkpt>
      <trkpt lat="45.94581" lon="4.73869">
        <ele>186</ele>
        <time>2017-07-21T08:37:00Z</time>
      </trkpt>
      <trkpt lat="45.94584" lon="4.73872">
        <ele>187</ele>
        <time>2017-07-21T08:37:01Z</time>
      </trkpt>
      <trkpt lat="45.9459" lon="4.73879">
        <ele>187</ele>
        <time>2017-07-21T08:37:03Z</time>
      </trkpt>
      <trkpt lat="45.94593" lon="4.73884">
        <ele>187</ele>
        <time>2017-07-21T08:37:04Z</time>
      </trkpt>
      <trkpt lat="45.946" lon="4.73891">
        <ele>187</ele>
        <time>2017-07-21T08:37:06Z</time>
      </trkpt>
      <trkpt lat="45.94603" lon="4.73896">
        <ele>187</ele>
        <time>2017-07-21T08:37:07Z</time>
      </trkpt>
      <trkpt lat="45.94607" lon="4.739">
        <ele>187</ele>
        <time>2017-07-21T08:37:08Z</time>
      </trkpt>
      <trkpt lat="45.9461" lon="4.73904">
        <ele>187</ele>
        <time>2017-07-21T08:37:09Z</time>
      </trkpt>
      <trkpt lat="45.94613" lon="4.73908">
        <ele>187</ele>
        <time>2017-07-21T08:37:10Z</time>
      </trkpt>
      <trkpt lat="45.94617" lon="4.73913">
        <ele>187</ele>
        <time>2017-07-21T08:37:11Z</time>
      </trkpt>
      <trkpt lat="45.94623" lon="4.73921">
        <ele>187</ele>
        <time>2017-07-21T08:37:13Z</time>
      </trkpt>
      <trkpt lat="45.94625" lon="4.7393">
        <ele>187</ele>
        <time>2017-07-21T08:37:14Z</time>
      </trkpt>
      <trkpt lat="45.9463" lon="4.7394">
        <ele>187</ele>
        <time>2017-07-21T08:37:16Z</time>
      </trkpt>
      <trkpt lat="45.94633" lon="4.73943">
        <ele>187</ele>
        <time>2017-07-21T08:37:17Z</time>
      </trkpt>
      <trkpt lat="45.9464" lon="4.7395">
        <ele>187</ele>
        <time>2017-07-21T08:37:19Z</time>
      </trkpt>
      <trkpt lat="45.94644" lon="4.73953">
        <ele>187</ele>
        <time>2017-07-21T08:37:20Z</time>
      </trkpt>
      <trkpt lat="45.94648" lon="4.73957">
        <ele>187</ele>
        <time>2017-07-21T08:37:21Z</time>
      </trkpt>
      <trkpt lat="45.94652" lon="4.7396">
        <ele>187</ele>
        <time>2017-07-21T08:37:22Z</time>
      </trkpt>
      <trkpt lat="45.94659" lon="4.73968">
        <ele>187</ele>
        <time>2017-07-21T08:37:24Z</time>
      </trkpt>
      <trkpt lat="45.94662" lon="4.73972">
        <ele>187</ele>
        <time>2017-07-21T08:37:25Z</time>
      </trkpt>
      <trkpt lat="45.94667" lon="4.73979">
        <ele>187</ele>
        <time>2017-07-21T08:37:27Z</time>
      </trkpt>
      <trkpt lat="45.9467" lon="4.73983">
        <ele>187</ele>
        <time>2017-07-21T08:37:28Z</time>
      </trkpt>
      <trkpt lat="45.94673" lon="4.73987">
        <ele>187</ele>
        <time>2017-07-21T08:37:29Z</time>
      </trkpt>
      <trkpt lat="45.94676" lon="4.73992">
        <ele>187</ele>
        <time>2017-07-21T08:37:30Z</time>
      </trkpt>
      <trkpt lat="45.9468" lon="4.73996">
        <ele>187</ele>
        <time>2017-07-21T08:37:31Z</time>
      </trkpt>
      <trkpt lat="45.94683" lon="4.74">
        <ele>187</ele>
        <time>2017-07-21T08:37:32Z</time>
      </trkpt>
      <trkpt lat="45.94689" lon="4.74008">
        <ele>187</ele>
        <time>2017-07-21T08:37:34Z</time>
      </trkpt>
      <trkpt lat="45.94693" lon="4.74008">
        <ele>187</ele>
        <time>2017-07-21T08:37:35Z</time>
      </trkpt>
      <trkpt lat="45.947" lon="4.74014">
        <ele>187</ele>
        <time>2017-07-21T08:37:37Z</time>
      </trkpt>
      <trkpt lat="45.94703" lon="4.74018">
        <ele>187</ele>
        <time>2017-07-21T08:37:38Z</time>
      </trkpt>
      <trkpt lat="45.94709" lon="4.74028">
        <ele>187</ele>
        <time>2017-07-21T08:37:40Z</time>
      </trkpt>
      <trkpt lat="45.94712" lon="4.74033">
        <ele>187</ele>
        <time>2017-07-21T08:37:41Z</time>
      </trkpt>
      <trkpt lat="45.94715" lon="4.74038">
        <ele>187</ele>
        <time>2017-07-21T08:37:42Z</time>
      </trkpt>
      <trkpt lat="45.94719" lon="4.74042">
        <ele>187</ele>
        <time>2017-07-21T08:37:43Z</time>
      </trkpt>
      <trkpt lat="45.94722" lon="4.74047">
        <ele>187</ele>
        <time>2017-07-21T08:37:44Z</time>
      </trkpt>
      <trkpt lat="45.94725" lon="4.74051">
        <ele>188</ele>
        <time>2017-07-21T08:37:45Z</time>
      </trkpt>
      <trkpt lat="45.94731" lon="4.7406">
        <ele>188</ele>
        <time>2017-07-21T08:37:47Z</time>
      </trkpt>
      <trkpt lat="45.94734" lon="4.74064">
        <ele>188</ele>
        <time>2017-07-21T08:37:48Z</time>
      </trkpt>
      <trkpt lat="45.94737" lon="4.74069">
        <ele>188</ele>
        <time>2017-07-21T08:37:49Z</time>
      </trkpt>
      <trkpt lat="45.94741" lon="4.74074">
        <ele>188</ele>
        <time>2017-07-21T08:37:50Z</time>
      </trkpt>
      <trkpt lat="45.94745" lon="4.74078">
        <ele>189</ele>
        <time>2017-07-21T08:37:51Z</time>
      </trkpt>
      <trkpt lat="45.94749" lon="4.74081">
        <ele>189</ele>
        <time>2017-07-21T08:37:52Z</time>
      </trkpt>
      <trkpt lat="45.94756" lon="4.74089">
        <ele>189</ele>
        <time>2017-07-21T08:37:54Z</time>
      </trkpt>
      <trkpt lat="45.94759" lon="4.74093">
        <ele>189</ele>
        <time>2017-07-21T08:37:55Z</time>
      </trkpt>
      <trkpt lat="45.94765" lon="4.74102">
        <ele>189</ele>
        <time>2017-07-21T08:37:57Z</time>
      </trkpt>
      <trkpt lat="45.94768" lon="4.74107">
        <ele>189</ele>
        <time>2017-07-21T08:37:58Z</time>
      </trkpt>
      <trkpt lat="45.94771" lon="4.74112">
        <ele>189</ele>
        <time>2017-07-21T08:37:59Z</time>
      </trkpt>
      <trkpt lat="45.94774" lon="4.74116">
        <ele>189</ele>
        <time>2017-07-21T08:38:00Z</time>
      </trkpt>
      <trkpt lat="45.9478" lon="4.74125">
        <ele>189</ele>
        <time>2017-07-21T08:38:02Z</time>
      </trkpt>
      <trkpt lat="45.94783" lon="4.7413">
        <ele>189</ele>
        <time>2017-07-21T08:38:03Z</time>
      </trkpt>
      <trkpt lat="45.94788" lon="4.74138">
        <ele>189</ele>
        <time>2017-07-21T08:38:05Z</time>
      </trkpt>
      <trkpt lat="45.94791" lon="4.74142">
        <ele>189</ele>
        <time>2017-07-21T08:38:06Z</time>
      </trkpt>
      <trkpt lat="45.94794" lon="4.74147">
        <ele>189</ele>
        <time>2017-07-21T08:38:07Z</time>
      </trkpt>
      <trkpt lat="45.94798" lon="4.74151">
        <ele>189</ele>
        <time>2017-07-21T08:38:08Z</time>
      </trkpt>
      <trkpt lat="45.94804" lon="4.74158">
        <ele>189</ele>
        <time>2017-07-21T08:38:10Z</time>
      </trkpt>
      <trkpt lat="45.94808" lon="4.74163">
        <ele>189</ele>
        <time>2017-07-21T08:38:11Z</time>
      </trkpt>
      <trkpt lat="45.94811" lon="4.74169">
        <ele>189</ele>
        <time>2017-07-21T08:38:12Z</time>
      </trkpt>
      <trkpt lat="45.94813" lon="4.74175">
        <ele>189</ele>
        <time>2017-07-21T08:38:13Z</time>
      </trkpt>
      <trkpt lat="45.94816" lon="4.7418">
        <ele>189</ele>
        <time>2017-07-21T08:38:14Z</time>
      </trkpt>
      <trkpt lat="45.9482" lon="4.74185">
        <ele>189</ele>
        <time>2017-07-21T08:38:15Z</time>
      </trkpt>
      <trkpt lat="45.94823" lon="4.74191">
        <ele>189</ele>
        <time>2017-07-21T08:38:16Z</time>
      </trkpt>
      <trkpt lat="45.94825" lon="4.74197">
        <ele>189</ele>
        <time>2017-07-21T08:38:17Z</time>
      </trkpt>
      <trkpt lat="45.94828" lon="4.74202">
        <ele>189</ele>
        <time>2017-07-21T08:38:18Z</time>
      </trkpt>
      <trkpt lat="45.94831" lon="4.74208">
        <ele>189</ele>
        <time>2017-07-21T08:38:19Z</time>
      </trkpt>
      <trkpt lat="45.94834" lon="4.74213">
        <ele>190</ele>
        <time>2017-07-21T08:38:20Z</time>
      </trkpt>
      <trkpt lat="45.94836" lon="4.74219">
        <ele>190</ele>
        <time>2017-07-21T08:38:21Z</time>
      </trkpt>
      <trkpt lat="45.94838" lon="4.74226">
        <ele>190</ele>
        <time>2017-07-21T08:38:22Z</time>
      </trkpt>
      <trkpt lat="45.94841" lon="4.74232">
        <ele>190</ele>
        <time>2017-07-21T08:38:23Z</time>
      </trkpt>
      <trkpt lat="45.94844" lon="4.74238">
        <ele>190</ele>
        <time>2017-07-21T08:38:24Z</time>
      </trkpt>
      <trkpt lat="45.94847" lon="4.74243">
        <ele>190</ele>
        <time>2017-07-21T08:38:25Z</time>
      </trkpt>
      <trkpt lat="45.94852" lon="4.74249">
        <ele>190</ele>
        <time>2017-07-21T08:38:27Z</time>
      </trkpt>
      <trkpt lat="45.94855" lon="4.74252">
        <ele>190</ele>
        <time>2017-07-21T08:38:28Z</time>
      </trkpt>
      <trkpt lat="45.94858" lon="4.74257">
        <ele>190</ele>
        <time>2017-07-21T08:38:29Z</time>
      </trkpt>
      <trkpt lat="45.94861" lon="4.74262">
        <ele>190</ele>
        <time>2017-07-21T08:38:30Z</time>
      </trkpt>
      <trkpt lat="45.94864" lon="4.74268">
        <ele>190</ele>
        <time>2017-07-21T08:38:31Z</time>
      </trkpt>
      <trkpt lat="45.94867" lon="4.74274">
        <ele>191</ele>
        <time>2017-07-21T08:38:32Z</time>
      </trkpt>
      <trkpt lat="45.9487" lon="4.74279">
        <ele>191</ele>
        <time>2017-07-21T08:38:33Z</time>
      </trkpt>
      <trkpt lat="45.94873" lon="4.74285">
        <ele>191</ele>
        <time>2017-07-21T08:38:34Z</time>
      </trkpt>
      <trkpt lat="45.94876" lon="4.74292">
        <ele>191</ele>
        <time>2017-07-21T08:38:35Z</time>
      </trkpt>
      <trkpt lat="45.94879" lon="4.74298">
        <ele>191</ele>
        <time>2017-07-21T08:38:36Z</time>
      </trkpt>
      <trkpt lat="45.94881" lon="4.74304">
        <ele>191</ele>
        <time>2017-07-21T08:38:37Z</time>
      </trkpt>
      <trkpt lat="45.94884" lon="4.7431">
        <ele>191</ele>
        <time>2017-07-21T08:38:38Z</time>
      </trkpt>
      <trkpt lat="45.94887" lon="4.74315">
        <ele>191</ele>
        <time>2017-07-21T08:38:39Z</time>
      </trkpt>
      <trkpt lat="45.94889" lon="4.7432">
        <ele>191</ele>
        <time>2017-07-21T08:38:40Z</time>
      </trkpt>
      <trkpt lat="45.94895" lon="4.74329">
        <ele>191</ele>
        <time>2017-07-21T08:38:42Z</time>
      </trkpt>
      <trkpt lat="45.94897" lon="4.74334">
        <ele>191</ele>
        <time>2017-07-21T08:38:43Z</time>
      </trkpt>
      <trkpt lat="45.94902" lon="4.74344">
        <ele>191</ele>
        <time>2017-07-21T08:38:45Z</time>
      </trkpt>
      <trkpt lat="45.94906" lon="4.74349">
        <ele>191</ele>
        <time>2017-07-21T08:38:46Z</time>
      </trkpt>
      <trkpt lat="45.94909" lon="4.74354">
        <ele>191</ele>
        <time>2017-07-21T08:38:47Z</time>
      </trkpt>
      <trkpt lat="45.94912" lon="4.7436">
        <ele>191</ele>
        <time>2017-07-21T08:38:48Z</time>
      </trkpt>
      <trkpt lat="45.94916" lon="4.74369">
        <ele>191</ele>
        <time>2017-07-21T08:38:50Z</time>
      </trkpt>
      <trkpt lat="45.94919" lon="4.74373">
        <ele>192</ele>
        <time>2017-07-21T08:38:51Z</time>
      </trkpt>
      <trkpt lat="45.94925" lon="4.74379">
        <ele>192</ele>
        <time>2017-07-21T08:38:53Z</time>
      </trkpt>
      <trkpt lat="45.94929" lon="4.74382">
        <ele>192</ele>
        <time>2017-07-21T08:38:54Z</time>
      </trkpt>
      <trkpt lat="45.94933" lon="4.74386">
        <ele>192</ele>
        <time>2017-07-21T08:38:55Z</time>
      </trkpt>
      <trkpt lat="45.94936" lon="4.74392">
        <ele>192</ele>
        <time>2017-07-21T08:38:56Z</time>
      </trkpt>
      <trkpt lat="45.94939" lon="4.74399">
        <ele>192</ele>
        <time>2017-07-21T08:38:57Z</time>
      </trkpt>
      <trkpt lat="45.94942" lon="4.74405">
        <ele>192</ele>
        <time>2017-07-21T08:38:58Z</time>
      </trkpt>
      <trkpt lat="45.94944" lon="4.7441">
        <ele>192</ele>
        <time>2017-07-21T08:38:59Z</time>
      </trkpt>
      <trkpt lat="45.94946" lon="4.74416">
        <ele>192</ele>
        <time>2017-07-21T08:39:00Z</time>
      </trkpt>
      <trkpt lat="45.94951" lon="4.74427">
        <ele>192</ele>
        <time>2017-07-21T08:39:02Z</time>
      </trkpt>
      <trkpt lat="45.94954" lon="4.74432">
        <ele>192</ele>
        <time>2017-07-21T08:39:03Z</time>
      </trkpt>
      <trkpt lat="45.94956" lon="4.74444">
        <ele>192</ele>
        <time>2017-07-21T08:39:05Z</time>
      </trkpt>
      <trkpt lat="45.94959" lon="4.74449">
        <ele>192</ele>
        <time>2017-07-21T08:39:06Z</time>
      </trkpt>
      <trkpt lat="45.94961" lon="4.74456">
        <ele>192</ele>
        <time>2017-07-21T08:39:07Z</time>
      </trkpt>
      <trkpt lat="45.94964" lon="4.74462">
        <ele>193</ele>
        <time>2017-07-21T08:39:08Z</time>
      </trkpt>
      <trkpt lat="45.94967" lon="4.74469">
        <ele>193</ele>
        <time>2017-07-21T08:39:09Z</time>
      </trkpt>
      <trkpt lat="45.94971" lon="4.74474">
        <ele>193</ele>
        <time>2017-07-21T08:39:10Z</time>
      </trkpt>
      <trkpt lat="45.94974" lon="4.74479">
        <ele>193</ele>
        <time>2017-07-21T08:39:11Z</time>
      </trkpt>
      <trkpt lat="45.94977" lon="4.74485">
        <ele>193</ele>
        <time>2017-07-21T08:39:12Z</time>
      </trkpt>
      <trkpt lat="45.9498" lon="4.74491">
        <ele>193</ele>
        <time>2017-07-21T08:39:13Z</time>
      </trkpt>
      <trkpt lat="45.94983" lon="4.74496">
        <ele>193</ele>
        <time>2017-07-21T08:39:14Z</time>
      </trkpt>
      <trkpt lat="45.94986" lon="4.74501">
        <ele>193</ele>
        <time>2017-07-21T08:39:15Z</time>
      </trkpt>
      <trkpt lat="45.94989" lon="4.74507">
        <ele>193</ele>
        <time>2017-07-21T08:39:16Z</time>
      </trkpt>
      <trkpt lat="45.94994" lon="4.74517">
        <ele>193</ele>
        <time>2017-07-21T08:39:18Z</time>
      </trkpt>
      <trkpt lat="45.94997" lon="4.74522">
        <ele>193</ele>
        <time>2017-07-21T08:39:19Z</time>
      </trkpt>
      <trkpt lat="45.95002" lon="4.74531">
        <ele>194</ele>
        <time>2017-07-21T08:39:21Z</time>
      </trkpt>
      <trkpt lat="45.95004" lon="4.74536">
        <ele>194</ele>
        <time>2017-07-21T08:39:22Z</time>
      </trkpt>
      <trkpt lat="45.95009" lon="4.74547">
        <ele>194</ele>
        <time>2017-07-21T08:39:24Z</time>
      </trkpt>
      <trkpt lat="45.95012" lon="4.74553">
        <ele>194</ele>
        <time>2017-07-21T08:39:25Z</time>
      </trkpt>
      <trkpt lat="45.95015" lon="4.7456">
        <ele>194</ele>
        <time>2017-07-21T08:39:26Z</time>
      </trkpt>
      <trkpt lat="45.95017" lon="4.74565">
        <ele>194</ele>
        <time>2017-07-21T08:39:27Z</time>
      </trkpt>
      <trkpt lat="45.9502" lon="4.74571">
        <ele>194</ele>
        <time>2017-07-21T08:39:28Z</time>
      </trkpt>
      <trkpt lat="45.95023" lon="4.74576">
        <ele>194</ele>
        <time>2017-07-21T08:39:29Z</time>
      </trkpt>
      <trkpt lat="45.95027" lon="4.74585">
        <ele>194</ele>
        <time>2017-07-21T08:39:31Z</time>
      </trkpt>
      <trkpt lat="45.95029" lon="4.7459">
        <ele>194</ele>
        <time>2017-07-21T08:39:32Z</time>
      </trkpt>
      <trkpt lat="45.95033" lon="4.74601">
        <ele>194</ele>
        <time>2017-07-21T08:39:34Z</time>
      </trkpt>
      <trkpt lat="45.95036" lon="4.74606">
        <ele>194</ele>
        <time>2017-07-21T08:39:35Z</time>
      </trkpt>
      <trkpt lat="45.95039" lon="4.74612">
        <ele>194</ele>
        <time>2017-07-21T08:39:36Z</time>
      </trkpt>
      <trkpt lat="45.95043" lon="4.74617">
        <ele>194</ele>
        <time>2017-07-21T08:39:37Z</time>
      </trkpt>
      <trkpt lat="45.95046" lon="4.74622">
        <ele>194</ele>
        <time>2017-07-21T08:39:38Z</time>
      </trkpt>
      <trkpt lat="45.95049" lon="4.74628">
        <ele>194</ele>
        <time>2017-07-21T08:39:39Z</time>
      </trkpt>
      <trkpt lat="45.95052" lon="4.74633">
        <ele>194</ele>
        <time>2017-07-21T08:39:40Z</time>
      </trkpt>
      <trkpt lat="45.95056" lon="4.74639">
        <ele>194</ele>
        <time>2017-07-21T08:39:41Z</time>
      </trkpt>
      <trkpt lat="45.95059" lon="4.74646">
        <ele>194</ele>
        <time>2017-07-21T08:39:42Z</time>
      </trkpt>
      <trkpt lat="45.95063" lon="4.74652">
        <ele>195</ele>
        <time>2017-07-21T08:39:43Z</time>
      </trkpt>
      <trkpt lat="45.95066" lon="4.74657">
        <ele>195</ele>
        <time>2017-07-21T08:39:44Z</time>
      </trkpt>
      <trkpt lat="45.95068" lon="4.74664">
        <ele>195</ele>
        <time>2017-07-21T08:39:45Z</time>
      </trkpt>
      <trkpt lat="45.95072" lon="4.7467">
        <ele>194</ele>
        <time>2017-07-21T08:39:46Z</time>
      </trkpt>
      <trkpt lat="45.95075" lon="4.74675">
        <ele>194</ele>
        <time>2017-07-21T08:39:47Z</time>
      </trkpt>
      <trkpt lat="45.95078" lon="4.74681">
        <ele>194</ele>
        <time>2017-07-21T08:39:48Z</time>
      </trkpt>
      <trkpt lat="45.95081" lon="4.74687">
        <ele>194</ele>
        <time>2017-07-21T08:39:49Z</time>
      </trkpt>
      <trkpt lat="45.95084" lon="4.74692">
        <ele>195</ele>
        <time>2017-07-21T08:39:50Z</time>
      </trkpt>
      <trkpt lat="45.95087" lon="4.74699">
        <ele>194</ele>
        <time>2017-07-21T08:39:51Z</time>
      </trkpt>
      <trkpt lat="45.9509" lon="4.74705">
        <ele>194</ele>
        <time>2017-07-21T08:39:52Z</time>
      </trkpt>
      <trkpt lat="45.95093" lon="4.74711">
        <ele>194</ele>
        <time>2017-07-21T08:39:53Z</time>
      </trkpt>
      <trkpt lat="45.95096" lon="4.74717">
        <ele>194</ele>
        <time>2017-07-21T08:39:54Z</time>
      </trkpt>
      <trkpt lat="45.95101" lon="4.7472">
        <ele>194</ele>
        <time>2017-07-21T08:39:55Z</time>
      </trkpt>
      <trkpt lat="45.95106" lon="4.74721">
        <ele>194</ele>
        <time>2017-07-21T08:39:56Z</time>
      </trkpt>
      <trkpt lat="45.95111" lon="4.74725">
        <ele>194</ele>
        <time>2017-07-21T08:39:57Z</time>
      </trkpt>
      <trkpt lat="45.95117" lon="4.74732">
        <ele>194</ele>
        <time>2017-07-21T08:39:59Z</time>
      </trkpt>
      <trkpt lat="45.9512" lon="4.74738">
        <ele>194</ele>
        <time>2017-07-21T08:40:00Z</time>
      </trkpt>
      <trkpt lat="45.95123" lon="4.74744">
        <ele>194</ele>
        <time>2017-07-21T08:40:01Z</time>
      </trkpt>
      <trkpt lat="45.95128" lon="4.74748">
        <ele>194</ele>
        <time>2017-07-21T08:40:02Z</time>
      </trkpt>
      <trkpt lat="45.95132" lon="4.74751">
        <ele>194</ele>
        <time>2017-07-21T08:40:03Z</time>
      </trkpt>
      <trkpt lat="45.95137" lon="4.74758">
        <ele>194</ele>
        <time>2017-07-21T08:40:04Z</time>
      </trkpt>
      <trkpt lat="45.95141" lon="4.74765">
        <ele>194</ele>
        <time>2017-07-21T08:40:05Z</time>
      </trkpt>
      <trkpt lat="45.95144" lon="4.74769">
        <ele>194</ele>
        <time>2017-07-21T08:40:06Z</time>
      </trkpt>
      <trkpt lat="45.95149" lon="4.74771">
        <ele>194</ele>
        <time>2017-07-21T08:40:07Z</time>
      </trkpt>
      <trkpt lat="45.95153" lon="4.74777">
        <ele>194</ele>
        <time>2017-07-21T08:40:08Z</time>
      </trkpt>
      <trkpt lat="45.95157" lon="4.74787">
        <ele>194</ele>
        <time>2017-07-21T08:40:10Z</time>
      </trkpt>
      <trkpt lat="45.95161" lon="4.74791">
        <ele>194</ele>
        <time>2017-07-21T08:40:11Z</time>
      </trkpt>
      <trkpt lat="45.95164" lon="4.74797">
        <ele>194</ele>
        <time>2017-07-21T08:40:12Z</time>
      </trkpt>
      <trkpt lat="45.95167" lon="4.74803">
        <ele>194</ele>
        <time>2017-07-21T08:40:13Z</time>
      </trkpt>
      <trkpt lat="45.95171" lon="4.74809">
        <ele>194</ele>
        <time>2017-07-21T08:40:14Z</time>
      </trkpt>
      <trkpt lat="45.95174" lon="4.74815">
        <ele>194</ele>
        <time>2017-07-21T08:40:15Z</time>
      </trkpt>
      <trkpt lat="45.95177" lon="4.74821">
        <ele>194</ele>
        <time>2017-07-21T08:40:16Z</time>
      </trkpt>
      <trkpt lat="45.95181" lon="4.74826">
        <ele>194</ele>
        <time>2017-07-21T08:40:17Z</time>
      </trkpt>
      <trkpt lat="45.95184" lon="4.74831">
        <ele>194</ele>
        <time>2017-07-21T08:40:18Z</time>
      </trkpt>
      <trkpt lat="45.95187" lon="4.74836">
        <ele>194</ele>
        <time>2017-07-21T08:40:19Z</time>
      </trkpt>
      <trkpt lat="45.95192" lon="4.74847">
        <ele>194</ele>
        <time>2017-07-21T08:40:21Z</time>
      </trkpt>
      <trkpt lat="45.95195" lon="4.74852">
        <ele>194</ele>
        <time>2017-07-21T08:40:22Z</time>
      </trkpt>
      <trkpt lat="45.952" lon="4.74861">
        <ele>194</ele>
        <time>2017-07-21T08:40:24Z</time>
      </trkpt>
      <trkpt lat="45.95203" lon="4.74867">
        <ele>194</ele>
        <time>2017-07-21T08:40:25Z</time>
      </trkpt>
      <trkpt lat="45.95208" lon="4.74876">
        <ele>194</ele>
        <time>2017-07-21T08:40:27Z</time>
      </trkpt>
      <trkpt lat="45.9521" lon="4.74882">
        <ele>193</ele>
        <time>2017-07-21T08:40:28Z</time>
      </trkpt>
      <trkpt lat="45.95214" lon="4.74891">
        <ele>193</ele>
        <time>2017-07-21T08:40:30Z</time>
      </trkpt>
      <trkpt lat="45.95217" lon="4.74895">
        <ele>193</ele>
        <time>2017-07-21T08:40:31Z</time>
      </trkpt>
      <trkpt lat="45.95222" lon="4.74904">
        <ele>193</ele>
        <time>2017-07-21T08:40:33Z</time>
      </trkpt>
      <trkpt lat="45.95225" lon="4.74909">
        <ele>193</ele>
        <time>2017-07-21T08:40:34Z</time>
      </trkpt>
      <trkpt lat="45.95228" lon="4.74914">
        <ele>193</ele>
        <time>2017-07-21T08:40:35Z</time>
      </trkpt>
      <trkpt lat="45.95231" lon="4.7492">
        <ele>192</ele>
        <time>2017-07-21T08:40:36Z</time>
      </trkpt>
      <trkpt lat="45.95233" lon="4.74927">
        <ele>192</ele>
        <time>2017-07-21T08:40:37Z</time>
      </trkpt>
      <trkpt lat="45.95236" lon="4.74933">
        <ele>192</ele>
        <time>2017-07-21T08:40:38Z</time>
      </trkpt>
      <trkpt lat="45.9524" lon="4.74939">
        <ele>192</ele>
        <time>2017-07-21T08:40:39Z</time>
      </trkpt>
      <trkpt lat="45.95244" lon="4.74946">
        <ele>192</ele>
        <time>2017-07-21T08:40:40Z</time>
      </trkpt>
      <trkpt lat="45.95248" lon="4.74951">
        <ele>192</ele>
        <time>2017-07-21T08:40:41Z</time>
      </trkpt>
      <trkpt lat="45.95251" lon="4.74956">
        <ele>192</ele>
        <time>2017-07-21T08:40:42Z</time>
      </trkpt>
      <trkpt lat="45.95256" lon="4.74965">
        <ele>192</ele>
        <time>2017-07-21T08:40:44Z</time>
      </trkpt>
      <trkpt lat="45.9526" lon="4.74969">
        <ele>192</ele>
        <time>2017-07-21T08:40:45Z</time>
      </trkpt>
      <trkpt lat="45.95263" lon="4.74973">
        <ele>192</ele>
        <time>2017-07-21T08:40:46Z</time>
      </trkpt>
      <trkpt lat="45.95267" lon="4.74978">
        <ele>192</ele>
        <time>2017-07-21T08:40:47Z</time>
      </trkpt>
      <trkpt lat="45.9527" lon="4.74984">
        <ele>192</ele>
        <time>2017-07-21T08:40:48Z</time>
      </trkpt>
      <trkpt lat="45.95272" lon="4.74992">
        <ele>192</ele>
        <time>2017-07-21T08:40:49Z</time>
      </trkpt>
      <trkpt lat="45.95278" lon="4.74994">
        <ele>192</ele>
        <time>2017-07-21T08:40:50Z</time>
      </trkpt>
      <trkpt lat="45.95281" lon="4.74997">
        <ele>192</ele>
        <time>2017-07-21T08:40:51Z</time>
      </trkpt>
      <trkpt lat="45.95285" lon="4.75002">
        <ele>191</ele>
        <time>2017-07-21T08:40:52Z</time>
      </trkpt>
      <trkpt lat="45.95288" lon="4.75008">
        <ele>191</ele>
        <time>2017-07-21T08:40:53Z</time>
      </trkpt>
      <trkpt lat="45.9529" lon="4.75013">
        <ele>191</ele>
        <time>2017-07-21T08:40:54Z</time>
      </trkpt>
      <trkpt lat="45.95293" lon="4.75019">
        <ele>191</ele>
        <time>2017-07-21T08:40:55Z</time>
      </trkpt>
      <trkpt lat="45.95296" lon="4.75025">
        <ele>191</ele>
        <time>2017-07-21T08:40:56Z</time>
      </trkpt>
      <trkpt lat="45.953" lon="4.7503">
        <ele>192</ele>
        <time>2017-07-21T08:40:57Z</time>
      </trkpt>
      <trkpt lat="45.95303" lon="4.75036">
        <ele>192</ele>
        <time>2017-07-21T08:40:58Z</time>
      </trkpt>
      <trkpt lat="45.95307" lon="4.75042">
        <ele>192</ele>
        <time>2017-07-21T08:40:59Z</time>
      </trkpt>
      <trkpt lat="45.9531" lon="4.75047">
        <ele>192</ele>
        <time>2017-07-21T08:41:00Z</time>
      </trkpt>
      <trkpt lat="45.95314" lon="4.75052">
        <ele>192</ele>
        <time>2017-07-21T08:41:01Z</time>
      </trkpt>
      <trkpt lat="45.95317" lon="4.75057">
        <ele>192</ele>
        <time>2017-07-21T08:41:02Z</time>
      </trkpt>
      <trkpt lat="45.9532" lon="4.75063">
        <ele>192</ele>
        <time>2017-07-21T08:41:03Z</time>
      </trkpt>
      <trkpt lat="45.95324" lon="4.75068">
        <ele>192</ele>
        <time>2017-07-21T08:41:04Z</time>
      </trkpt>
      <trkpt lat="45.95327" lon="4.75074">
        <ele>192</ele>
        <time>2017-07-21T08:41:05Z</time>
      </trkpt>
      <trkpt lat="45.9533" lon="4.7508">
        <ele>193</ele>
        <time>2017-07-21T08:41:06Z</time>
      </trkpt>
      <trkpt lat="45.95333" lon="4.75085">
        <ele>193</ele>
        <time>2017-07-21T08:41:07Z</time>
      </trkpt>
      <trkpt lat="45.95336" lon="4.75091">
        <ele>193</ele>
        <time>2017-07-21T08:41:08Z</time>
      </trkpt>
      <trkpt lat="45.95339" lon="4.75096">
        <ele>192</ele>
        <time>2017-07-21T08:41:09Z</time>
      </trkpt>
      <trkpt lat="45.95342" lon="4.75102">
        <ele>192</ele>
        <time>2017-07-21T08:41:10Z</time>
      </trkpt>
      <trkpt lat="45.95345" lon="4.75107">
        <ele>192</ele>
        <time>2017-07-21T08:41:11Z</time>
      </trkpt>
      <trkpt lat="45.95348" lon="4.75112">
        <ele>192</ele>
        <time>2017-07-21T08:41:12Z</time>
      </trkpt>
      <trkpt lat="45.95351" lon="4.75118">
        <ele>191</ele>
        <time>2017-07-21T08:41:13Z</time>
      </trkpt>
      <trkpt lat="45.95354" lon="4.75123">
        <ele>191</ele>
        <time>2017-07-21T08:41:14Z</time>
      </trkpt>
      <trkpt lat="45.95357" lon="4.75128">
        <ele>191</ele>
        <time>2017-07-21T08:41:15Z</time>
      </trkpt>
      <trkpt lat="45.95361" lon="4.75134">
        <ele>191</ele>
        <time>2017-07-21T08:41:16Z</time>
      </trkpt>
      <trkpt lat="45.95364" lon="4.75139">
        <ele>191</ele>
        <time>2017-07-21T08:41:17Z</time>
      </trkpt>
      <trkpt lat="45.95368" lon="4.75145">
        <ele>191</ele>
        <time>2017-07-21T08:41:18Z</time>
      </trkpt>
      <trkpt lat="45.9537" lon="4.75151">
        <ele>191</ele>
        <time>2017-07-21T08:41:19Z</time>
      </trkpt>
      <trkpt lat="45.95373" lon="4.7516">
        <ele>191</ele>
        <time>2017-07-21T08:41:20Z</time>
      </trkpt>
      <trkpt lat="45.95376" lon="4.75166">
        <ele>191</ele>
        <time>2017-07-21T08:41:21Z</time>
      </trkpt>
      <trkpt lat="45.95383" lon="4.75175">
        <ele>189</ele>
        <time>2017-07-21T08:41:23Z</time>
      </trkpt>
      <trkpt lat="45.95386" lon="4.75179">
        <ele>189</ele>
        <time>2017-07-21T08:41:24Z</time>
      </trkpt>
      <trkpt lat="45.9539" lon="4.75184">
        <ele>189</ele>
        <time>2017-07-21T08:41:25Z</time>
      </trkpt>
      <trkpt lat="45.95394" lon="4.75189">
        <ele>189</ele>
        <time>2017-07-21T08:41:26Z</time>
      </trkpt>
      <trkpt lat="45.95397" lon="4.75193">
        <ele>189</ele>
        <time>2017-07-21T08:41:27Z</time>
      </trkpt>
      <trkpt lat="45.95401" lon="4.75199">
        <ele>189</ele>
        <time>2017-07-21T08:41:28Z</time>
      </trkpt>
      <trkpt lat="45.95405" lon="4.75202">
        <ele>189</ele>
        <time>2017-07-21T08:41:29Z</time>
      </trkpt>
      <trkpt lat="45.95407" lon="4.75209">
        <ele>189</ele>
        <time>2017-07-21T08:41:30Z</time>
      </trkpt>
      <trkpt lat="45.95413" lon="4.75217">
        <ele>189</ele>
        <time>2017-07-21T08:41:32Z</time>
      </trkpt>
      <trkpt lat="45.95418" lon="4.75222">
        <ele>191</ele>
        <time>2017-07-21T08:41:33Z</time>
      </trkpt>
      <trkpt lat="45.95422" lon="4.75231">
        <ele>190</ele>
        <time>2017-07-21T08:41:34Z</time>
      </trkpt>
      <trkpt lat="45.95425" lon="4.75237">
        <ele>190</ele>
        <time>2017-07-21T08:41:35Z</time>
      </trkpt>
      <trkpt lat="45.95428" lon="4.75243">
        <ele>190</ele>
        <time>2017-07-21T08:41:36Z</time>
      </trkpt>
      <trkpt lat="45.95431" lon="4.75248">
        <ele>190</ele>
        <time>2017-07-21T08:41:37Z</time>
      </trkpt>
      <trkpt lat="45.95434" lon="4.75253">
        <ele>189</ele>
        <time>2017-07-21T08:41:38Z</time>
      </trkpt>
      <trkpt lat="45.95436" lon="4.75259">
        <ele>189</ele>
        <time>2017-07-21T08:41:39Z</time>
      </trkpt>
      <trkpt lat="45.95439" lon="4.75266">
        <ele>189</ele>
        <time>2017-07-21T08:41:40Z</time>
      </trkpt>
      <trkpt lat="45.95442" lon="4.75273">
        <ele>189</ele>
        <time>2017-07-21T08:41:41Z</time>
      </trkpt>
      <trkpt lat="45.95446" lon="4.75281">
        <ele>188</ele>
        <time>2017-07-21T08:41:42Z</time>
      </trkpt>
      <trkpt lat="45.95448" lon="4.75289">
        <ele>188</ele>
        <time>2017-07-21T08:41:43Z</time>
      </trkpt>
      <trkpt lat="45.95451" lon="4.75295">
        <ele>188</ele>
        <time>2017-07-21T08:41:44Z</time>
      </trkpt>
      <trkpt lat="45.95455" lon="4.75301">
        <ele>188</ele>
        <time>2017-07-21T08:41:45Z</time>
      </trkpt>
      <trkpt lat="45.95458" lon="4.75308">
        <ele>188</ele>
        <time>2017-07-21T08:41:46Z</time>
      </trkpt>
      <trkpt lat="45.95461" lon="4.75314">
        <ele>188</ele>
        <time>2017-07-21T08:41:47Z</time>
      </trkpt>
      <trkpt lat="45.95465" lon="4.75317">
        <ele>188</ele>
        <time>2017-07-21T08:41:48Z</time>
      </trkpt>
      <trkpt lat="45.95469" lon="4.75321">
        <ele>188</ele>
        <time>2017-07-21T08:41:49Z</time>
      </trkpt>
      <trkpt lat="45.95472" lon="4.75327">
        <ele>188</ele>
        <time>2017-07-21T08:41:50Z</time>
      </trkpt>
      <trkpt lat="45.95475" lon="4.75334">
        <ele>186</ele>
        <time>2017-07-21T08:41:51Z</time>
      </trkpt>
      <trkpt lat="45.95478" lon="4.75342">
        <ele>186</ele>
        <time>2017-07-21T08:41:52Z</time>
      </trkpt>
      <trkpt lat="45.9548" lon="4.75351">
        <ele>186</ele>
        <time>2017-07-21T08:41:53Z</time>
      </trkpt>
      <trkpt lat="45.95484" lon="4.75358">
        <ele>186</ele>
        <time>2017-07-21T08:41:54Z</time>
      </trkpt>
      <trkpt lat="45.95487" lon="4.75367">
        <ele>186</ele>
        <time>2017-07-21T08:41:55Z</time>
      </trkpt>
      <trkpt lat="45.9549" lon="4.75373">
        <ele>185</ele>
        <time>2017-07-21T08:41:56Z</time>
      </trkpt>
      <trkpt lat="45.95493" lon="4.7538">
        <ele>185</ele>
        <time>2017-07-21T08:41:57Z</time>
      </trkpt>
      <trkpt lat="45.95496" lon="4.75387">
        <ele>185</ele>
        <time>2017-07-21T08:41:58Z</time>
      </trkpt>
      <trkpt lat="45.95498" lon="4.75395">
        <ele>185</ele>
        <time>2017-07-21T08:41:59Z</time>
      </trkpt>
      <trkpt lat="45.95501" lon="4.75402">
        <ele>187</ele>
        <time>2017-07-21T08:42:00Z</time>
      </trkpt>
      <trkpt lat="45.95504" lon="4.7541">
        <ele>186</ele>
        <time>2017-07-21T08:42:01Z</time>
      </trkpt>
      <trkpt lat="45.95506" lon="4.75419">
        <ele>186</ele>
        <time>2017-07-21T08:42:02Z</time>
      </trkpt>
      <trkpt lat="45.95508" lon="4.75427">
        <ele>186</ele>
        <time>2017-07-21T08:42:03Z</time>
      </trkpt>
      <trkpt lat="45.95509" lon="4.75436">
        <ele>186</ele>
        <time>2017-07-21T08:42:04Z</time>
      </trkpt>
      <trkpt lat="45.9551" lon="4.75445">
        <ele>187</ele>
        <time>2017-07-21T08:42:05Z</time>
      </trkpt>
      <trkpt lat="45.9551" lon="4.75454">
        <ele>187</ele>
        <time>2017-07-21T08:42:06Z</time>
      </trkpt>
      <trkpt lat="45.9551" lon="4.75463">
        <ele>186</ele>
        <time>2017-07-21T08:42:07Z</time>
      </trkpt>
      <trkpt lat="45.95509" lon="4.75472">
        <ele>186</ele>
        <time>2017-07-21T08:42:08Z</time>
      </trkpt>
      <trkpt lat="45.95509" lon="4.75481">
        <ele>186</ele>
        <time>2017-07-21T08:42:09Z</time>
      </trkpt>
      <trkpt lat="45.95511" lon="4.7549">
        <ele>186</ele>
        <time>2017-07-21T08:42:10Z</time>
      </trkpt>
      <trkpt lat="45.95514" lon="4.75497">
        <ele>185</ele>
        <time>2017-07-21T08:42:11Z</time>
      </trkpt>
      <trkpt lat="45.9552" lon="4.75501">
        <ele>185</ele>
        <time>2017-07-21T08:42:12Z</time>
      </trkpt>
      <trkpt lat="45.95525" lon="4.75505">
        <ele>185</ele>
        <time>2017-07-21T08:42:13Z</time>
      </trkpt>
      <trkpt lat="45.9553" lon="4.75507">
        <ele>185</ele>
        <time>2017-07-21T08:42:14Z</time>
      </trkpt>
      <trkpt lat="45.95534" lon="4.75511">
        <ele>186</ele>
        <time>2017-07-21T08:42:15Z</time>
      </trkpt>
      <trkpt lat="45.95538" lon="4.75515">
        <ele>186</ele>
        <time>2017-07-21T08:42:16Z</time>
      </trkpt>
      <trkpt lat="45.95543" lon="4.7552">
        <ele>186</ele>
        <time>2017-07-21T08:42:17Z</time>
      </trkpt>
      <trkpt lat="45.95547" lon="4.75525">
        <ele>186</ele>
        <time>2017-07-21T08:42:18Z</time>
      </trkpt>
      <trkpt lat="45.95552" lon="4.75531">
        <ele>186</ele>
        <time>2017-07-21T08:42:19Z</time>
      </trkpt>
      <trkpt lat="45.95557" lon="4.75536">
        <ele>186</ele>
        <time>2017-07-21T08:42:20Z</time>
      </trkpt>
      <trkpt lat="45.95562" lon="4.7554">
        <ele>186</ele>
        <time>2017-07-21T08:42:21Z</time>
      </trkpt>
      <trkpt lat="45.95568" lon="4.75545">
        <ele>186</ele>
        <time>2017-07-21T08:42:22Z</time>
      </trkpt>
      <trkpt lat="45.95572" lon="4.7555">
        <ele>186</ele>
        <time>2017-07-21T08:42:23Z</time>
      </trkpt>
      <trkpt lat="45.95577" lon="4.75555">
        <ele>186</ele>
        <time>2017-07-21T08:42:24Z</time>
      </trkpt>
      <trkpt lat="45.95582" lon="4.7556">
        <ele>186</ele>
        <time>2017-07-21T08:42:25Z</time>
      </trkpt>
      <trkpt lat="45.95586" lon="4.75566">
        <ele>188</ele>
        <time>2017-07-21T08:42:26Z</time>
      </trkpt>
      <trkpt lat="45.9559" lon="4.75571">
        <ele>187</ele>
        <time>2017-07-21T08:42:27Z</time>
      </trkpt>
      <trkpt lat="45.95593" lon="4.75577">
        <ele>187</ele>
        <time>2017-07-21T08:42:28Z</time>
      </trkpt>
      <trkpt lat="45.95597" lon="4.75583">
        <ele>187</ele>
        <time>2017-07-21T08:42:29Z</time>
      </trkpt>
      <trkpt lat="45.95599" lon="4.75589">
        <ele>187</ele>
        <time>2017-07-21T08:42:30Z</time>
      </trkpt>
      <trkpt lat="45.95602" lon="4.75596">
        <ele>187</ele>
        <time>2017-07-21T08:42:31Z</time>
      </trkpt>
      <trkpt lat="45.95605" lon="4.75603">
        <ele>187</ele>
        <time>2017-07-21T08:42:32Z</time>
      </trkpt>
      <trkpt lat="45.95608" lon="4.75609">
        <ele>188</ele>
        <time>2017-07-21T08:42:33Z</time>
      </trkpt>
      <trkpt lat="45.95611" lon="4.75617">
        <ele>188</ele>
        <time>2017-07-21T08:42:34Z</time>
      </trkpt>
      <trkpt lat="45.95613" lon="4.75623">
        <ele>188</ele>
        <time>2017-07-21T08:42:35Z</time>
      </trkpt>
      <trkpt lat="45.95615" lon="4.7563">
        <ele>188</ele>
        <time>2017-07-21T08:42:36Z</time>
      </trkpt>
      <trkpt lat="45.95617" lon="4.75636">
        <ele>188</ele>
        <time>2017-07-21T08:42:37Z</time>
      </trkpt>
      <trkpt lat="45.95619" lon="4.75643">
        <ele>188</ele>
        <time>2017-07-21T08:42:38Z</time>
      </trkpt>
      <trkpt lat="45.9562" lon="4.7565">
        <ele>188</ele>
        <time>2017-07-21T08:42:39Z</time>
      </trkpt>
      <trkpt lat="45.95622" lon="4.75658">
        <ele>188</ele>
        <time>2017-07-21T08:42:40Z</time>
      </trkpt>
      <trkpt lat="45.95623" lon="4.75665">
        <ele>188</ele>
        <time>2017-07-21T08:42:41Z</time>
      </trkpt>
      <trkpt lat="45.95624" lon="4.75673">
        <ele>187</ele>
        <time>2017-07-21T08:42:42Z</time>
      </trkpt>
      <trkpt lat="45.95625" lon="4.7568">
        <ele>187</ele>
        <time>2017-07-21T08:42:43Z</time>
      </trkpt>
      <trkpt lat="45.95626" lon="4.75687">
        <ele>187</ele>
        <time>2017-07-21T08:42:44Z</time>
      </trkpt>
      <trkpt lat="45.95627" lon="4.75694">
        <ele>187</ele>
        <time>2017-07-21T08:42:45Z</time>
      </trkpt>
      <trkpt lat="45.95628" lon="4.75701">
        <ele>187</ele>
        <time>2017-07-21T08:42:46Z</time>
      </trkpt>
      <trkpt lat="45.95629" lon="4.75708">
        <ele>187</ele>
        <time>2017-07-21T08:42:47Z</time>
      </trkpt>
      <trkpt lat="45.9563" lon="4.75715">
        <ele>187</ele>
        <time>2017-07-21T08:42:48Z</time>
      </trkpt>
      <trkpt lat="45.95631" lon="4.75723">
        <ele>187</ele>
        <time>2017-07-21T08:42:49Z</time>
      </trkpt>
      <trkpt lat="45.95631" lon="4.7573">
        <ele>187</ele>
        <time>2017-07-21T08:42:50Z</time>
      </trkpt>
      <trkpt lat="45.95633" lon="4.75737">
        <ele>187</ele>
        <time>2017-07-21T08:42:51Z</time>
      </trkpt>
      <trkpt lat="45.95634" lon="4.75745">
        <ele>187</ele>
        <time>2017-07-21T08:42:52Z</time>
      </trkpt>
      <trkpt lat="45.95635" lon="4.75753">
        <ele>186</ele>
        <time>2017-07-21T08:42:53Z</time>
      </trkpt>
      <trkpt lat="45.95636" lon="4.75761">
        <ele>186</ele>
        <time>2017-07-21T08:42:54Z</time>
      </trkpt>
      <trkpt lat="45.95637" lon="4.75769">
        <ele>186</ele>
        <time>2017-07-21T08:42:55Z</time>
      </trkpt>
      <trkpt lat="45.95639" lon="4.75777">
        <ele>186</ele>
        <time>2017-07-21T08:42:56Z</time>
      </trkpt>
      <trkpt lat="45.9564" lon="4.75784">
        <ele>185</ele>
        <time>2017-07-21T08:42:57Z</time>
      </trkpt>
      <trkpt lat="45.95641" lon="4.75791">
        <ele>185</ele>
        <time>2017-07-21T08:42:58Z</time>
      </trkpt>
      <trkpt lat="45.95642" lon="4.75799">
        <ele>185</ele>
        <time>2017-07-21T08:42:59Z</time>
      </trkpt>
      <trkpt lat="45.95643" lon="4.75806">
        <ele>185</ele>
        <time>2017-07-21T08:43:00Z</time>
      </trkpt>
      <trkpt lat="45.95644" lon="4.75814">
        <ele>185</ele>
        <time>2017-07-21T08:43:01Z</time>
      </trkpt>
      <trkpt lat="45.95646" lon="4.75822">
        <ele>185</ele>
        <time>2017-07-21T08:43:02Z</time>
      </trkpt>
      <trkpt lat="45.95648" lon="4.7583">
        <ele>185</ele>
        <time>2017-07-21T08:43:03Z</time>
      </trkpt>
      <trkpt lat="45.9565" lon="4.75838">
        <ele>185</ele>
        <time>2017-07-21T08:43:04Z</time>
      </trkpt>
      <trkpt lat="45.95651" lon="4.75848">
        <ele>185</ele>
        <time>2017-07-21T08:43:05Z</time>
      </trkpt>
      <trkpt lat="45.95653" lon="4.75857">
        <ele>184</ele>
        <time>2017-07-21T08:43:06Z</time>
      </trkpt>
      <trkpt lat="45.95656" lon="4.75866">
        <ele>184</ele>
        <time>2017-07-21T08:43:07Z</time>
      </trkpt>
      <trkpt lat="45.95659" lon="4.75875">
        <ele>184</ele>
        <time>2017-07-21T08:43:08Z</time>
      </trkpt>
      <trkpt lat="45.95662" lon="4.75884">
        <ele>184</ele>
        <time>2017-07-21T08:43:09Z</time>
      </trkpt>
      <trkpt lat="45.95666" lon="4.75893">
        <ele>184</ele>
        <time>2017-07-21T08:43:10Z</time>
      </trkpt>
      <trkpt lat="45.95669" lon="4.75902">
        <ele>185</ele>
        <time>2017-07-21T08:43:11Z</time>
      </trkpt>
      <trkpt lat="45.95673" lon="4.7591">
        <ele>185</ele>
        <time>2017-07-21T08:43:12Z</time>
      </trkpt>
      <trkpt lat="45.95677" lon="4.75918">
        <ele>184</ele>
        <time>2017-07-21T08:43:13Z</time>
      </trkpt>
      <trkpt lat="45.95681" lon="4.75927">
        <ele>185</ele>
        <time>2017-07-21T08:43:14Z</time>
      </trkpt>
      <trkpt lat="45.95685" lon="4.75935">
        <ele>185</ele>
        <time>2017-07-21T08:43:15Z</time>
      </trkpt>
      <trkpt lat="45.95688" lon="4.75942">
        <ele>185</ele>
        <time>2017-07-21T08:43:16Z</time>
      </trkpt>
      <trkpt lat="45.95692" lon="4.7595">
        <ele>185</ele>
        <time>2017-07-21T08:43:17Z</time>
      </trkpt>
      <trkpt lat="45.95695" lon="4.75957">
        <ele>185</ele>
        <time>2017-07-21T08:43:18Z</time>
      </trkpt>
      <trkpt lat="45.95698" lon="4.75964">
        <ele>185</ele>
        <time>2017-07-21T08:43:19Z</time>
      </trkpt>
      <trkpt lat="45.95701" lon="4.75972">
        <ele>185</ele>
        <time>2017-07-21T08:43:20Z</time>
      </trkpt>
      <trkpt lat="45.95704" lon="4.75979">
        <ele>185</ele>
        <time>2017-07-21T08:43:21Z</time>
      </trkpt>
      <trkpt lat="45.95708" lon="4.75985">
        <ele>185</ele>
        <time>2017-07-21T08:43:22Z</time>
      </trkpt>
      <trkpt lat="45.95711" lon="4.75992">
        <ele>185</ele>
        <time>2017-07-21T08:43:23Z</time>
      </trkpt>
      <trkpt lat="45.95713" lon="4.75998">
        <ele>185</ele>
        <time>2017-07-21T08:43:24Z</time>
      </trkpt>
      <trkpt lat="45.95715" lon="4.76004">
        <ele>184</ele>
        <time>2017-07-21T08:43:25Z</time>
      </trkpt>
      <trkpt lat="45.95718" lon="4.7601">
        <ele>184</ele>
        <time>2017-07-21T08:43:26Z</time>
      </trkpt>
      <trkpt lat="45.9572" lon="4.76015">
        <ele>184</ele>
        <time>2017-07-21T08:43:27Z</time>
      </trkpt>
      <trkpt lat="45.95723" lon="4.76021">
        <ele>184</ele>
        <time>2017-07-21T08:43:28Z</time>
      </trkpt>
      <trkpt lat="45.95725" lon="4.76026">
        <ele>184</ele>
        <time>2017-07-21T08:43:29Z</time>
      </trkpt>
      <trkpt lat="45.95728" lon="4.76032">
        <ele>184</ele>
        <time>2017-07-21T08:43:30Z</time>
      </trkpt>
      <trkpt lat="45.95731" lon="4.76039">
        <ele>184</ele>
        <time>2017-07-21T08:43:31Z</time>
      </trkpt>
      <trkpt lat="45.95734" lon="4.76046">
        <ele>184</ele>
        <time>2017-07-21T08:43:32Z</time>
      </trkpt>
      <trkpt lat="45.95737" lon="4.76052">
        <ele>184</ele>
        <time>2017-07-21T08:43:33Z</time>
      </trkpt>
      <trkpt lat="45.9574" lon="4.76059">
        <ele>184</ele>
        <time>2017-07-21T08:43:34Z</time>
      </trkpt>
      <trkpt lat="45.95742" lon="4.76067">
        <ele>185</ele>
        <time>2017-07-21T08:43:35Z</time>
      </trkpt>
      <trkpt lat="45.95746" lon="4.76074">
        <ele>185</ele>
        <time>2017-07-21T08:43:36Z</time>
      </trkpt>
      <trkpt lat="45.95749" lon="4.76082">
        <ele>185</ele>
        <time>2017-07-21T08:43:37Z</time>
      </trkpt>
      <trkpt lat="45.95751" lon="4.76089">
        <ele>185</ele>
        <time>2017-07-21T08:43:38Z</time>
      </trkpt>
      <trkpt lat="45.95754" lon="4.76095">
        <ele>186</ele>
        <time>2017-07-21T08:43:39Z</time>
      </trkpt>
      <trkpt lat="45.95755" lon="4.76102">
        <ele>186</ele>
        <time>2017-07-21T08:43:40Z</time>
      </trkpt>
      <trkpt lat="45.95757" lon="4.76108">
        <ele>186</ele>
        <time>2017-07-21T08:43:41Z</time>
      </trkpt>
      <trkpt lat="45.95758" lon="4.76115">
        <ele>186</ele>
        <time>2017-07-21T08:43:42Z</time>
      </trkpt>
      <trkpt lat="45.95759" lon="4.76122">
        <ele>186</ele>
        <time>2017-07-21T08:43:43Z</time>
      </trkpt>
      <trkpt lat="45.9576" lon="4.76129">
        <ele>186</ele>
        <time>2017-07-21T08:43:44Z</time>
      </trkpt>
      <trkpt lat="45.9576" lon="4.76136">
        <ele>186</ele>
        <time>2017-07-21T08:43:45Z</time>
      </trkpt>
      <trkpt lat="45.95761" lon="4.76144">
        <ele>186</ele>
        <time>2017-07-21T08:43:46Z</time>
      </trkpt>
      <trkpt lat="45.95762" lon="4.76153">
        <ele>186</ele>
        <time>2017-07-21T08:43:47Z</time>
      </trkpt>
      <trkpt lat="45.95763" lon="4.76161">
        <ele>186</ele>
        <time>2017-07-21T08:43:48Z</time>
      </trkpt>
      <trkpt lat="45.95763" lon="4.76168">
        <ele>185</ele>
        <time>2017-07-21T08:43:49Z</time>
      </trkpt>
      <trkpt lat="45.95763" lon="4.76176">
        <ele>185</ele>
        <time>2017-07-21T08:43:50Z</time>
      </trkpt>
      <trkpt lat="45.95763" lon="4.76183">
        <ele>186</ele>
        <time>2017-07-21T08:43:51Z</time>
      </trkpt>
      <trkpt lat="45.95763" lon="4.7619">
        <ele>186</ele>
        <time>2017-07-21T08:43:52Z</time>
      </trkpt>
      <trkpt lat="45.95763" lon="4.76198">
        <ele>186</ele>
        <time>2017-07-21T08:43:53Z</time>
      </trkpt>
      <trkpt lat="45.95764" lon="4.76205">
        <ele>186</ele>
        <time>2017-07-21T08:43:54Z</time>
      </trkpt>
      <trkpt lat="45.95764" lon="4.76212">
        <ele>186</ele>
        <time>2017-07-21T08:43:55Z</time>
      </trkpt>
      <trkpt lat="45.95765" lon="4.76219">
        <ele>186</ele>
        <time>2017-07-21T08:43:56Z</time>
      </trkpt>
      <trkpt lat="45.95765" lon="4.76226">
        <ele>186</ele>
        <time>2017-07-21T08:43:57Z</time>
      </trkpt>
      <trkpt lat="45.95765" lon="4.76234">
        <ele>186</ele>
        <time>2017-07-21T08:43:58Z</time>
      </trkpt>
      <trkpt lat="45.95765" lon="4.76242">
        <ele>185</ele>
        <time>2017-07-21T08:43:59Z</time>
      </trkpt>
      <trkpt lat="45.95765" lon="4.7625">
        <ele>185</ele>
        <time>2017-07-21T08:44:00Z</time>
      </trkpt>
      <trkpt lat="45.95765" lon="4.76258">
        <ele>185</ele>
        <time>2017-07-21T08:44:01Z</time>
      </trkpt>
      <trkpt lat="45.95766" lon="4.76266">
        <ele>185</ele>
        <time>2017-07-21T08:44:02Z</time>
      </trkpt>
      <trkpt lat="45.95766" lon="4.76273">
        <ele>186</ele>
        <time>2017-07-21T08:44:03Z</time>
      </trkpt>
      <trkpt lat="45.95766" lon="4.7628">
        <ele>186</ele>
        <time>2017-07-21T08:44:04Z</time>
      </trkpt>
      <trkpt lat="45.95767" lon="4.76287">
        <ele>186</ele>
        <time>2017-07-21T08:44:05Z</time>
      </trkpt>
      <trkpt lat="45.95767" lon="4.76294">
        <ele>186</ele>
        <time>2017-07-21T08:44:06Z</time>
      </trkpt>
      <trkpt lat="45.95767" lon="4.76301">
        <ele>186</ele>
        <time>2017-07-21T08:44:07Z</time>
      </trkpt>
      <trkpt lat="45.95767" lon="4.76309">
        <ele>185</ele>
        <time>2017-07-21T08:44:08Z</time>
      </trkpt>
      <trkpt lat="45.95768" lon="4.76317">
        <ele>185</ele>
        <time>2017-07-21T08:44:09Z</time>
      </trkpt>
      <trkpt lat="45.95768" lon="4.76324">
        <ele>185</ele>
        <time>2017-07-21T08:44:10Z</time>
      </trkpt>
      <trkpt lat="45.95768" lon="4.76331">
        <ele>185</ele>
        <time>2017-07-21T08:44:11Z</time>
      </trkpt>
      <trkpt lat="45.95769" lon="4.76338">
        <ele>186</ele>
        <time>2017-07-21T08:44:12Z</time>
      </trkpt>
      <trkpt lat="45.9577" lon="4.76345">
        <ele>186</ele>
        <time>2017-07-21T08:44:13Z</time>
      </trkpt>
      <trkpt lat="45.95769" lon="4.76351">
        <ele>186</ele>
        <time>2017-07-21T08:44:14Z</time>
      </trkpt>
      <trkpt lat="45.9577" lon="4.76358">
        <ele>186</ele>
        <time>2017-07-21T08:44:15Z</time>
      </trkpt>
      <trkpt lat="45.9577" lon="4.76365">
        <ele>186</ele>
        <time>2017-07-21T08:44:16Z</time>
      </trkpt>
      <trkpt lat="45.95771" lon="4.76371">
        <ele>186</ele>
        <time>2017-07-21T08:44:17Z</time>
      </trkpt>
      <trkpt lat="45.95772" lon="4.76378">
        <ele>186</ele>
        <time>2017-07-21T08:44:18Z</time>
      </trkpt>
      <trkpt lat="45.95772" lon="4.76384">
        <ele>186</ele>
        <time>2017-07-21T08:44:19Z</time>
      </trkpt>
      <trkpt lat="45.95774" lon="4.76397">
        <ele>186</ele>
        <time>2017-07-21T08:44:21Z</time>
      </trkpt>
      <trkpt lat="45.95774" lon="4.76403">
        <ele>186</ele>
        <time>2017-07-21T08:44:22Z</time>
      </trkpt>
      <trkpt lat="45.95775" lon="4.7641">
        <ele>186</ele>
        <time>2017-07-21T08:44:23Z</time>
      </trkpt>
      <trkpt lat="45.95775" lon="4.76416">
        <ele>186</ele>
        <time>2017-07-21T08:44:24Z</time>
      </trkpt>
      <trkpt lat="45.95777" lon="4.76423">
        <ele>186</ele>
        <time>2017-07-21T08:44:25Z</time>
      </trkpt>
      <trkpt lat="45.95778" lon="4.76431">
        <ele>186</ele>
        <time>2017-07-21T08:44:26Z</time>
      </trkpt>
      <trkpt lat="45.95779" lon="4.76439">
        <ele>186</ele>
        <time>2017-07-21T08:44:27Z</time>
      </trkpt>
      <trkpt lat="45.9578" lon="4.76447">
        <ele>186</ele>
        <time>2017-07-21T08:44:28Z</time>
      </trkpt>
      <trkpt lat="45.95782" lon="4.76455">
        <ele>186</ele>
        <time>2017-07-21T08:44:29Z</time>
      </trkpt>
      <trkpt lat="45.95784" lon="4.76463">
        <ele>186</ele>
        <time>2017-07-21T08:44:30Z</time>
      </trkpt>
      <trkpt lat="45.95785" lon="4.7647">
        <ele>186</ele>
        <time>2017-07-21T08:44:31Z</time>
      </trkpt>
      <trkpt lat="45.95787" lon="4.76477">
        <ele>186</ele>
        <time>2017-07-21T08:44:32Z</time>
      </trkpt>
      <trkpt lat="45.95788" lon="4.76484">
        <ele>186</ele>
        <time>2017-07-21T08:44:33Z</time>
      </trkpt>
      <trkpt lat="45.95789" lon="4.76491">
        <ele>186</ele>
        <time>2017-07-21T08:44:34Z</time>
      </trkpt>
      <trkpt lat="45.9579" lon="4.76497">
        <ele>186</ele>
        <time>2017-07-21T08:44:35Z</time>
      </trkpt>
      <trkpt lat="45.95791" lon="4.76504">
        <ele>187</ele>
        <time>2017-07-21T08:44:36Z</time>
      </trkpt>
      <trkpt lat="45.95792" lon="4.76511">
        <ele>187</ele>
        <time>2017-07-21T08:44:37Z</time>
      </trkpt>
      <trkpt lat="45.95794" lon="4.76518">
        <ele>187</ele>
        <time>2017-07-21T08:44:38Z</time>
      </trkpt>
      <trkpt lat="45.95795" lon="4.76525">
        <ele>187</ele>
        <time>2017-07-21T08:44:39Z</time>
      </trkpt>
      <trkpt lat="45.95796" lon="4.76532">
        <ele>187</ele>
        <time>2017-07-21T08:44:40Z</time>
      </trkpt>
      <trkpt lat="45.95796" lon="4.7654">
        <ele>187</ele>
        <time>2017-07-21T08:44:41Z</time>
      </trkpt>
      <trkpt lat="45.95797" lon="4.76547">
        <ele>187</ele>
        <time>2017-07-21T08:44:42Z</time>
      </trkpt>
      <trkpt lat="45.95799" lon="4.76554">
        <ele>187</ele>
        <time>2017-07-21T08:44:43Z</time>
      </trkpt>
      <trkpt lat="45.958" lon="4.76561">
        <ele>187</ele>
        <time>2017-07-21T08:44:44Z</time>
      </trkpt>
      <trkpt lat="45.958" lon="4.76567">
        <ele>187</ele>
        <time>2017-07-21T08:44:45Z</time>
      </trkpt>
      <trkpt lat="45.95801" lon="4.76574">
        <ele>187</ele>
        <time>2017-07-21T08:44:46Z</time>
      </trkpt>
      <trkpt lat="45.95802" lon="4.76582">
        <ele>187</ele>
        <time>2017-07-21T08:44:47Z</time>
      </trkpt>
      <trkpt lat="45.95802" lon="4.76589">
        <ele>187</ele>
        <time>2017-07-21T08:44:48Z</time>
      </trkpt>
      <trkpt lat="45.95804" lon="4.76597">
        <ele>188</ele>
        <time>2017-07-21T08:44:49Z</time>
      </trkpt>
      <trkpt lat="45.95805" lon="4.76604">
        <ele>188</ele>
        <time>2017-07-21T08:44:50Z</time>
      </trkpt>
      <trkpt lat="45.95806" lon="4.76611">
        <ele>188</ele>
        <time>2017-07-21T08:44:51Z</time>
      </trkpt>
      <trkpt lat="45.95807" lon="4.76618">
        <ele>188</ele>
        <time>2017-07-21T08:44:52Z</time>
      </trkpt>
      <trkpt lat="45.95808" lon="4.76625">
        <ele>188</ele>
        <time>2017-07-21T08:44:53Z</time>
      </trkpt>
      <trkpt lat="45.95809" lon="4.76631">
        <ele>188</ele>
        <time>2017-07-21T08:44:54Z</time>
      </trkpt>
      <trkpt lat="45.9581" lon="4.76638">
        <ele>188</ele>
        <time>2017-07-21T08:44:55Z</time>
      </trkpt>
      <trkpt lat="45.95811" lon="4.76645">
        <ele>188</ele>
        <time>2017-07-21T08:44:56Z</time>
      </trkpt>
      <trkpt lat="45.95811" lon="4.76651">
        <ele>188</ele>
        <time>2017-07-21T08:44:57Z</time>
      </trkpt>
      <trkpt lat="45.95813" lon="4.76658">
        <ele>188</ele>
        <time>2017-07-21T08:44:58Z</time>
      </trkpt>
      <trkpt lat="45.95814" lon="4.76666">
        <ele>188</ele>
        <time>2017-07-21T08:44:59Z</time>
      </trkpt>
      <trkpt lat="45.95815" lon="4.76674">
        <ele>189</ele>
        <time>2017-07-21T08:45:00Z</time>
      </trkpt>
      <trkpt lat="45.95815" lon="4.76681">
        <ele>189</ele>
        <time>2017-07-21T08:45:01Z</time>
      </trkpt>
      <trkpt lat="45.95816" lon="4.76688">
        <ele>189</ele>
        <time>2017-07-21T08:45:02Z</time>
      </trkpt>
      <trkpt lat="45.95818" lon="4.76695">
        <ele>189</ele>
        <time>2017-07-21T08:45:03Z</time>
      </trkpt>
      <trkpt lat="45.95818" lon="4.76701">
        <ele>189</ele>
        <time>2017-07-21T08:45:04Z</time>
      </trkpt>
      <trkpt lat="45.9582" lon="4.76714">
        <ele>189</ele>
        <time>2017-07-21T08:45:06Z</time>
      </trkpt>
      <trkpt lat="45.95821" lon="4.7672">
        <ele>189</ele>
        <time>2017-07-21T08:45:07Z</time>
      </trkpt>
      <trkpt lat="45.95822" lon="4.76726">
        <ele>190</ele>
        <time>2017-07-21T08:45:08Z</time>
      </trkpt>
      <trkpt lat="45.95823" lon="4.76733">
        <ele>190</ele>
        <time>2017-07-21T08:45:09Z</time>
      </trkpt>
      <trkpt lat="45.95825" lon="4.7674">
        <ele>190</ele>
        <time>2017-07-21T08:45:10Z</time>
      </trkpt>
      <trkpt lat="45.95826" lon="4.76746">
        <ele>190</ele>
        <time>2017-07-21T08:45:11Z</time>
      </trkpt>
      <trkpt lat="45.95828" lon="4.76758">
        <ele>191</ele>
        <time>2017-07-21T08:45:13Z</time>
      </trkpt>
      <trkpt lat="45.95829" lon="4.76764">
        <ele>190</ele>
        <time>2017-07-21T08:45:14Z</time>
      </trkpt>
      <trkpt lat="45.95831" lon="4.76776">
        <ele>190</ele>
        <time>2017-07-21T08:45:16Z</time>
      </trkpt>
      <trkpt lat="45.95832" lon="4.76783">
        <ele>190</ele>
        <time>2017-07-21T08:45:17Z</time>
      </trkpt>
      <trkpt lat="45.95833" lon="4.76789">
        <ele>190</ele>
        <time>2017-07-21T08:45:18Z</time>
      </trkpt>
      <trkpt lat="45.95834" lon="4.76797">
        <ele>191</ele>
        <time>2017-07-21T08:45:19Z</time>
      </trkpt>
      <trkpt lat="45.95832" lon="4.76804">
        <ele>190</ele>
        <time>2017-07-21T08:45:20Z</time>
      </trkpt>
      <trkpt lat="45.95831" lon="4.76811">
        <ele>190</ele>
        <time>2017-07-21T08:45:21Z</time>
      </trkpt>
      <trkpt lat="45.9583" lon="4.76818">
        <ele>190</ele>
        <time>2017-07-21T08:45:22Z</time>
      </trkpt>
      <trkpt lat="45.95829" lon="4.76825">
        <ele>190</ele>
        <time>2017-07-21T08:45:23Z</time>
      </trkpt>
      <trkpt lat="45.95828" lon="4.76831">
        <ele>190</ele>
        <time>2017-07-21T08:45:24Z</time>
      </trkpt>
      <trkpt lat="45.95827" lon="4.76838">
        <ele>190</ele>
        <time>2017-07-21T08:45:25Z</time>
      </trkpt>
      <trkpt lat="45.95825" lon="4.76845">
        <ele>190</ele>
        <time>2017-07-21T08:45:26Z</time>
      </trkpt>
      <trkpt lat="45.95824" lon="4.76851">
        <ele>190</ele>
        <time>2017-07-21T08:45:27Z</time>
      </trkpt>
      <trkpt lat="45.95823" lon="4.76858">
        <ele>189</ele>
        <time>2017-07-21T08:45:28Z</time>
      </trkpt>
      <trkpt lat="45.95821" lon="4.76865">
        <ele>189</ele>
        <time>2017-07-21T08:45:29Z</time>
      </trkpt>
      <trkpt lat="45.9582" lon="4.76872">
        <ele>189</ele>
        <time>2017-07-21T08:45:30Z</time>
      </trkpt>
      <trkpt lat="45.95818" lon="4.76879">
        <ele>189</ele>
        <time>2017-07-21T08:45:31Z</time>
      </trkpt>
      <trkpt lat="45.95817" lon="4.76887">
        <ele>189</ele>
        <time>2017-07-21T08:45:32Z</time>
      </trkpt>
      <trkpt lat="45.95817" lon="4.76894">
        <ele>189</ele>
        <time>2017-07-21T08:45:33Z</time>
      </trkpt>
      <trkpt lat="45.95815" lon="4.76901">
        <ele>189</ele>
        <time>2017-07-21T08:45:34Z</time>
      </trkpt>
      <trkpt lat="45.95814" lon="4.76908">
        <ele>189</ele>
        <time>2017-07-21T08:45:35Z</time>
      </trkpt>
      <trkpt lat="45.95812" lon="4.76915">
        <ele>189</ele>
        <time>2017-07-21T08:45:36Z</time>
      </trkpt>
      <trkpt lat="45.95811" lon="4.76922">
        <ele>189</ele>
        <time>2017-07-21T08:45:37Z</time>
      </trkpt>
      <trkpt lat="45.9581" lon="4.76928">
        <ele>189</ele>
        <time>2017-07-21T08:45:38Z</time>
      </trkpt>
      <trkpt lat="45.95809" lon="4.76935">
        <ele>189</ele>
        <time>2017-07-21T08:45:39Z</time>
      </trkpt>
      <trkpt lat="45.95807" lon="4.76941">
        <ele>189</ele>
        <time>2017-07-21T08:45:40Z</time>
      </trkpt>
      <trkpt lat="45.95806" lon="4.76948">
        <ele>189</ele>
        <time>2017-07-21T08:45:41Z</time>
      </trkpt>
      <trkpt lat="45.95804" lon="4.76955">
        <ele>189</ele>
        <time>2017-07-21T08:45:42Z</time>
      </trkpt>
      <trkpt lat="45.95803" lon="4.76962">
        <ele>189</ele>
        <time>2017-07-21T08:45:43Z</time>
      </trkpt>
      <trkpt lat="45.95802" lon="4.76969">
        <ele>189</ele>
        <time>2017-07-21T08:45:44Z</time>
      </trkpt>
      <trkpt lat="45.95802" lon="4.76978">
        <ele>189</ele>
        <time>2017-07-21T08:45:45Z</time>
      </trkpt>
      <trkpt lat="45.95802" lon="4.76986">
        <ele>189</ele>
        <time>2017-07-21T08:45:46Z</time>
      </trkpt>
      <trkpt lat="45.95802" lon="4.76994">
        <ele>189</ele>
        <time>2017-07-21T08:45:47Z</time>
      </trkpt>
      <trkpt lat="45.95803" lon="4.77002">
        <ele>190</ele>
        <time>2017-07-21T08:45:48Z</time>
      </trkpt>
      <trkpt lat="45.95804" lon="4.7701">
        <ele>190</ele>
        <time>2017-07-21T08:45:49Z</time>
      </trkpt>
      <trkpt lat="45.95806" lon="4.77017">
        <ele>190</ele>
        <time>2017-07-21T08:45:50Z</time>
      </trkpt>
      <trkpt lat="45.95808" lon="4.77024">
        <ele>190</ele>
        <time>2017-07-21T08:45:51Z</time>
      </trkpt>
      <trkpt lat="45.95811" lon="4.77031">
        <ele>190</ele>
        <time>2017-07-21T08:45:52Z</time>
      </trkpt>
      <trkpt lat="45.95813" lon="4.77038">
        <ele>190</ele>
        <time>2017-07-21T08:45:53Z</time>
      </trkpt>
      <trkpt lat="45.95816" lon="4.77044">
        <ele>190</ele>
        <time>2017-07-21T08:45:54Z</time>
      </trkpt>
      <trkpt lat="45.95819" lon="4.7705">
        <ele>190</ele>
        <time>2017-07-21T08:45:55Z</time>
      </trkpt>
      <trkpt lat="45.95821" lon="4.77055">
        <ele>190</ele>
        <time>2017-07-21T08:45:56Z</time>
      </trkpt>
      <trkpt lat="45.95824" lon="4.77061">
        <ele>190</ele>
        <time>2017-07-21T08:45:57Z</time>
      </trkpt>
      <trkpt lat="45.95826" lon="4.77067">
        <ele>191</ele>
        <time>2017-07-21T08:45:58Z</time>
      </trkpt>
      <trkpt lat="45.95829" lon="4.77074">
        <ele>191</ele>
        <time>2017-07-21T08:45:59Z</time>
      </trkpt>
      <trkpt lat="45.95831" lon="4.7708">
        <ele>192</ele>
        <time>2017-07-21T08:46:00Z</time>
      </trkpt>
      <trkpt lat="45.95834" lon="4.77086">
        <ele>192</ele>
        <time>2017-07-21T08:46:01Z</time>
      </trkpt>
      <trkpt lat="45.95836" lon="4.77093">
        <ele>193</ele>
        <time>2017-07-21T08:46:02Z</time>
      </trkpt>
      <trkpt lat="45.95837" lon="4.771">
        <ele>193</ele>
        <time>2017-07-21T08:46:03Z</time>
      </trkpt>
      <trkpt lat="45.95839" lon="4.77106">
        <ele>193</ele>
        <time>2017-07-21T08:46:04Z</time>
      </trkpt>
      <trkpt lat="45.95841" lon="4.77112">
        <ele>193</ele>
        <time>2017-07-21T08:46:05Z</time>
      </trkpt>
      <trkpt lat="45.95844" lon="4.77124">
        <ele>193</ele>
        <time>2017-07-21T08:46:07Z</time>
      </trkpt>
      <trkpt lat="45.95846" lon="4.7713">
        <ele>193</ele>
        <time>2017-07-21T08:46:08Z</time>
      </trkpt>
      <trkpt lat="45.95848" lon="4.77136">
        <ele>193</ele>
        <time>2017-07-21T08:46:09Z</time>
      </trkpt>
      <trkpt lat="45.9585" lon="4.77143">
        <ele>193</ele>
        <time>2017-07-21T08:46:10Z</time>
      </trkpt>
      <trkpt lat="45.95852" lon="4.7715">
        <ele>192</ele>
        <time>2017-07-21T08:46:11Z</time>
      </trkpt>
      <trkpt lat="45.95854" lon="4.77157">
        <ele>192</ele>
        <time>2017-07-21T08:46:12Z</time>
      </trkpt>
      <trkpt lat="45.95856" lon="4.77164">
        <ele>192</ele>
        <time>2017-07-21T08:46:13Z</time>
      </trkpt>
      <trkpt lat="45.95858" lon="4.7717">
        <ele>192</ele>
        <time>2017-07-21T08:46:14Z</time>
      </trkpt>
      <trkpt lat="45.9586" lon="4.77177">
        <ele>192</ele>
        <time>2017-07-21T08:46:15Z</time>
      </trkpt>
      <trkpt lat="45.95862" lon="4.77183">
        <ele>192</ele>
        <time>2017-07-21T08:46:16Z</time>
      </trkpt>
      <trkpt lat="45.95864" lon="4.7719">
        <ele>193</ele>
        <time>2017-07-21T08:46:17Z</time>
      </trkpt>
      <trkpt lat="45.95866" lon="4.77196">
        <ele>193</ele>
        <time>2017-07-21T08:46:18Z</time>
      </trkpt>
      <trkpt lat="45.95868" lon="4.77203">
        <ele>193</ele>
        <time>2017-07-21T08:46:19Z</time>
      </trkpt>
      <trkpt lat="45.9587" lon="4.7721">
        <ele>193</ele>
        <time>2017-07-21T08:46:20Z</time>
      </trkpt>
      <trkpt lat="45.9587" lon="4.77218">
        <ele>193</ele>
        <time>2017-07-21T08:46:21Z</time>
      </trkpt>
      <trkpt lat="45.95871" lon="4.77226">
        <ele>193</ele>
        <time>2017-07-21T08:46:22Z</time>
      </trkpt>
      <trkpt lat="45.95873" lon="4.77233">
        <ele>193</ele>
        <time>2017-07-21T08:46:23Z</time>
      </trkpt>
      <trkpt lat="45.95874" lon="4.7724">
        <ele>193</ele>
        <time>2017-07-21T08:46:24Z</time>
      </trkpt>
      <trkpt lat="45.95875" lon="4.77247">
        <ele>193</ele>
        <time>2017-07-21T08:46:25Z</time>
      </trkpt>
      <trkpt lat="45.95877" lon="4.77253">
        <ele>193</ele>
        <time>2017-07-21T08:46:26Z</time>
      </trkpt>
      <trkpt lat="45.95878" lon="4.7726">
        <ele>193</ele>
        <time>2017-07-21T08:46:27Z</time>
      </trkpt>
      <trkpt lat="45.9588" lon="4.77266">
        <ele>193</ele>
        <time>2017-07-21T08:46:28Z</time>
      </trkpt>
      <trkpt lat="45.95882" lon="4.77272">
        <ele>193</ele>
        <time>2017-07-21T08:46:29Z</time>
      </trkpt>
      <trkpt lat="45.95884" lon="4.77279">
        <ele>193</ele>
        <time>2017-07-21T08:46:30Z</time>
      </trkpt>
      <trkpt lat="45.95885" lon="4.77286">
        <ele>193</ele>
        <time>2017-07-21T08:46:31Z</time>
      </trkpt>
      <trkpt lat="45.95886" lon="4.77293">
        <ele>193</ele>
        <time>2017-07-21T08:46:32Z</time>
      </trkpt>
      <trkpt lat="45.95888" lon="4.77299">
        <ele>193</ele>
        <time>2017-07-21T08:46:33Z</time>
      </trkpt>
      <trkpt lat="45.9589" lon="4.77306">
        <ele>193</ele>
        <time>2017-07-21T08:46:34Z</time>
      </trkpt>
      <trkpt lat="45.95891" lon="4.77314">
        <ele>193</ele>
        <time>2017-07-21T08:46:35Z</time>
      </trkpt>
      <trkpt lat="45.95893" lon="4.77321">
        <ele>193</ele>
        <time>2017-07-21T08:46:36Z</time>
      </trkpt>
      <trkpt lat="45.95898" lon="4.77332">
        <ele>194</ele>
        <time>2017-07-21T08:46:38Z</time>
      </trkpt>
      <trkpt lat="45.959" lon="4.77338">
        <ele>193</ele>
        <time>2017-07-21T08:46:39Z</time>
      </trkpt>
      <trkpt lat="45.95902" lon="4.77343">
        <ele>193</ele>
        <time>2017-07-21T08:46:40Z</time>
      </trkpt>
      <trkpt lat="45.95904" lon="4.77349">
        <ele>193</ele>
        <time>2017-07-21T08:46:41Z</time>
      </trkpt>
      <trkpt lat="45.95906" lon="4.77355">
        <ele>193</ele>
        <time>2017-07-21T08:46:42Z</time>
      </trkpt>
      <trkpt lat="45.95908" lon="4.77362">
        <ele>193</ele>
        <time>2017-07-21T08:46:43Z</time>
      </trkpt>
      <trkpt lat="45.95911" lon="4.77368">
        <ele>193</ele>
        <time>2017-07-21T08:46:44Z</time>
      </trkpt>
      <trkpt lat="45.95913" lon="4.77375">
        <ele>193</ele>
        <time>2017-07-21T08:46:45Z</time>
      </trkpt>
      <trkpt lat="45.95916" lon="4.77381">
        <ele>193</ele>
        <time>2017-07-21T08:46:46Z</time>
      </trkpt>
      <trkpt lat="45.95918" lon="4.77387">
        <ele>196</ele>
        <time>2017-07-21T08:46:47Z</time>
      </trkpt>
      <trkpt lat="45.95922" lon="4.77398">
        <ele>196</ele>
        <time>2017-07-21T08:46:49Z</time>
      </trkpt>
      <trkpt lat="45.95924" lon="4.77403">
        <ele>195</ele>
        <time>2017-07-21T08:46:50Z</time>
      </trkpt>
      <trkpt lat="45.95927" lon="4.77415">
        <ele>195</ele>
        <time>2017-07-21T08:46:52Z</time>
      </trkpt>
      <trkpt lat="45.95929" lon="4.7742">
        <ele>195</ele>
        <time>2017-07-21T08:46:53Z</time>
      </trkpt>
      <trkpt lat="45.95932" lon="4.77431">
        <ele>195</ele>
        <time>2017-07-21T08:46:55Z</time>
      </trkpt>
      <trkpt lat="45.95934" lon="4.77437">
        <ele>195</ele>
        <time>2017-07-21T08:46:56Z</time>
      </trkpt>
      <trkpt lat="45.95936" lon="4.77443">
        <ele>195</ele>
        <time>2017-07-21T08:46:57Z</time>
      </trkpt>
      <trkpt lat="45.95938" lon="4.77449">
        <ele>195</ele>
        <time>2017-07-21T08:46:58Z</time>
      </trkpt>
      <trkpt lat="45.95942" lon="4.7746">
        <ele>195</ele>
        <time>2017-07-21T08:47:00Z</time>
      </trkpt>
      <trkpt lat="45.95944" lon="4.77465">
        <ele>195</ele>
        <time>2017-07-21T08:47:01Z</time>
      </trkpt>
      <trkpt lat="45.95947" lon="4.77475">
        <ele>195</ele>
        <time>2017-07-21T08:47:03Z</time>
      </trkpt>
      <trkpt lat="45.9595" lon="4.7748">
        <ele>196</ele>
        <time>2017-07-21T08:47:04Z</time>
      </trkpt>
      <trkpt lat="45.95954" lon="4.77489">
        <ele>196</ele>
        <time>2017-07-21T08:47:06Z</time>
      </trkpt>
      <trkpt lat="45.95956" lon="4.77494">
        <ele>196</ele>
        <time>2017-07-21T08:47:07Z</time>
      </trkpt>
      <trkpt lat="45.95959" lon="4.77503">
        <ele>195</ele>
        <time>2017-07-21T08:47:09Z</time>
      </trkpt>
      <trkpt lat="45.95961" lon="4.77509">
        <ele>195</ele>
        <time>2017-07-21T08:47:10Z</time>
      </trkpt>
      <trkpt lat="45.95965" lon="4.77518">
        <ele>195</ele>
        <time>2017-07-21T08:47:12Z</time>
      </trkpt>
      <trkpt lat="45.95967" lon="4.77523">
        <ele>195</ele>
        <time>2017-07-21T08:47:13Z</time>
      </trkpt>
      <trkpt lat="45.95972" lon="4.77532">
        <ele>196</ele>
        <time>2017-07-21T08:47:15Z</time>
      </trkpt>
      <trkpt lat="45.95973" lon="4.77536">
        <ele>196</ele>
        <time>2017-07-21T08:47:16Z</time>
      </trkpt>
      <trkpt lat="45.95977" lon="4.77544">
        <ele>196</ele>
        <time>2017-07-21T08:47:18Z</time>
      </trkpt>
      <trkpt lat="45.95979" lon="4.77548">
        <ele>196</ele>
        <time>2017-07-21T08:47:19Z</time>
      </trkpt>
      <trkpt lat="45.95984" lon="4.77557">
        <ele>196</ele>
        <time>2017-07-21T08:47:21Z</time>
      </trkpt>
      <trkpt lat="45.95987" lon="4.77563">
        <ele>196</ele>
        <time>2017-07-21T08:47:22Z</time>
      </trkpt>
      <trkpt lat="45.9599" lon="4.77569">
        <ele>196</ele>
        <time>2017-07-21T08:47:23Z</time>
      </trkpt>
      <trkpt lat="45.95992" lon="4.77574">
        <ele>196</ele>
        <time>2017-07-21T08:47:24Z</time>
      </trkpt>
      <trkpt lat="45.95995" lon="4.77581">
        <ele>197</ele>
        <time>2017-07-21T08:47:25Z</time>
      </trkpt>
      <trkpt lat="45.95997" lon="4.77588">
        <ele>196</ele>
        <time>2017-07-21T08:47:26Z</time>
      </trkpt>
      <trkpt lat="45.96" lon="4.77594">
        <ele>196</ele>
        <time>2017-07-21T08:47:27Z</time>
      </trkpt>
      <trkpt lat="45.96003" lon="4.77599">
        <ele>198</ele>
        <time>2017-07-21T08:47:28Z</time>
      </trkpt>
      <trkpt lat="45.96007" lon="4.77603">
        <ele>198</ele>
        <time>2017-07-21T08:47:29Z</time>
      </trkpt>
      <trkpt lat="45.96011" lon="4.77606">
        <ele>199</ele>
        <time>2017-07-21T08:47:30Z</time>
      </trkpt>
      <trkpt lat="45.96015" lon="4.77611">
        <ele>199</ele>
        <time>2017-07-21T08:47:31Z</time>
      </trkpt>
      <trkpt lat="45.96018" lon="4.77616">
        <ele>199</ele>
        <time>2017-07-21T08:47:32Z</time>
      </trkpt>
      <trkpt lat="45.96022" lon="4.77621">
        <ele>199</ele>
        <time>2017-07-21T08:47:33Z</time>
      </trkpt>
      <trkpt lat="45.96025" lon="4.77625">
        <ele>199</ele>
        <time>2017-07-21T08:47:34Z</time>
      </trkpt>
      <trkpt lat="45.9603" lon="4.77631">
        <ele>199</ele>
        <time>2017-07-21T08:47:36Z</time>
      </trkpt>
      <trkpt lat="45.96032" lon="4.77635">
        <ele>199</ele>
        <time>2017-07-21T08:47:37Z</time>
      </trkpt>
      <trkpt lat="45.96036" lon="4.77643">
        <ele>199</ele>
        <time>2017-07-21T08:47:39Z</time>
      </trkpt>
      <trkpt lat="45.9604" lon="4.77648">
        <ele>199</ele>
        <time>2017-07-21T08:47:40Z</time>
      </trkpt>
      <trkpt lat="45.96046" lon="4.77657">
        <ele>199</ele>
        <time>2017-07-21T08:47:42Z</time>
      </trkpt>
      <trkpt lat="45.96049" lon="4.77661">
        <ele>200</ele>
        <time>2017-07-21T08:47:43Z</time>
      </trkpt>
      <trkpt lat="45.96054" lon="4.77665">
        <ele>200</ele>
        <time>2017-07-21T08:47:44Z</time>
      </trkpt>
      <trkpt lat="45.96059" lon="4.77669">
        <ele>198</ele>
        <time>2017-07-21T08:47:45Z</time>
      </trkpt>
      <trkpt lat="45.96062" lon="4.77673">
        <ele>198</ele>
        <time>2017-07-21T08:47:46Z</time>
      </trkpt>
      <trkpt lat="45.96065" lon="4.77677">
        <ele>198</ele>
        <time>2017-07-21T08:47:47Z</time>
      </trkpt>
      <trkpt lat="45.96069" lon="4.77682">
        <ele>198</ele>
        <time>2017-07-21T08:47:48Z</time>
      </trkpt>
      <trkpt lat="45.96072" lon="4.77686">
        <ele>198</ele>
        <time>2017-07-21T08:47:49Z</time>
      </trkpt>
      <trkpt lat="45.96076" lon="4.77691">
        <ele>198</ele>
        <time>2017-07-21T08:47:50Z</time>
      </trkpt>
      <trkpt lat="45.96079" lon="4.77696">
        <ele>197</ele>
        <time>2017-07-21T08:47:51Z</time>
      </trkpt>
      <trkpt lat="45.96082" lon="4.77701">
        <ele>197</ele>
        <time>2017-07-21T08:47:52Z</time>
      </trkpt>
      <trkpt lat="45.96086" lon="4.77706">
        <ele>200</ele>
        <time>2017-07-21T08:47:53Z</time>
      </trkpt>
      <trkpt lat="45.96089" lon="4.77712">
        <ele>200</ele>
        <time>2017-07-21T08:47:54Z</time>
      </trkpt>
      <trkpt lat="45.96092" lon="4.77717">
        <ele>199</ele>
        <time>2017-07-21T08:47:55Z</time>
      </trkpt>
      <trkpt lat="45.96098" lon="4.77726">
        <ele>199</ele>
        <time>2017-07-21T08:47:57Z</time>
      </trkpt>
      <trkpt lat="45.961" lon="4.77731">
        <ele>199</ele>
        <time>2017-07-21T08:47:58Z</time>
      </trkpt>
      <trkpt lat="45.96103" lon="4.77736">
        <ele>199</ele>
        <time>2017-07-21T08:47:59Z</time>
      </trkpt>
      <trkpt lat="45.96107" lon="4.77741">
        <ele>199</ele>
        <time>2017-07-21T08:48:00Z</time>
      </trkpt>
      <trkpt lat="45.9611" lon="4.77746">
        <ele>199</ele>
        <time>2017-07-21T08:48:01Z</time>
      </trkpt>
      <trkpt lat="45.96113" lon="4.77751">
        <ele>197</ele>
        <time>2017-07-21T08:48:02Z</time>
      </trkpt>
      <trkpt lat="45.96117" lon="4.77757">
        <ele>197</ele>
        <time>2017-07-21T08:48:03Z</time>
      </trkpt>
      <trkpt lat="45.9612" lon="4.77761">
        <ele>197</ele>
        <time>2017-07-21T08:48:04Z</time>
      </trkpt>
      <trkpt lat="45.96125" lon="4.7777">
        <ele>198</ele>
        <time>2017-07-21T08:48:06Z</time>
      </trkpt>
      <trkpt lat="45.96127" lon="4.77774">
        <ele>198</ele>
        <time>2017-07-21T08:48:07Z</time>
      </trkpt>
      <trkpt lat="45.96133" lon="4.77784">
        <ele>198</ele>
        <time>2017-07-21T08:48:09Z</time>
      </trkpt>
      <trkpt lat="45.96136" lon="4.77789">
        <ele>198</ele>
        <time>2017-07-21T08:48:10Z</time>
      </trkpt>
      <trkpt lat="45.96142" lon="4.77797">
        <ele>198</ele>
        <time>2017-07-21T08:48:12Z</time>
      </trkpt>
      <trkpt lat="45.96145" lon="4.77802">
        <ele>198</ele>
        <time>2017-07-21T08:48:13Z</time>
      </trkpt>
      <trkpt lat="45.96151" lon="4.77811">
        <ele>198</ele>
        <time>2017-07-21T08:48:15Z</time>
      </trkpt>
      <trkpt lat="45.96154" lon="4.77817">
        <ele>198</ele>
        <time>2017-07-21T08:48:16Z</time>
      </trkpt>
      <trkpt lat="45.96158" lon="4.77823">
        <ele>198</ele>
        <time>2017-07-21T08:48:17Z</time>
      </trkpt>
      <trkpt lat="45.96162" lon="4.77829">
        <ele>199</ele>
        <time>2017-07-21T08:48:18Z</time>
      </trkpt>
      <trkpt lat="45.96165" lon="4.77834">
        <ele>199</ele>
        <time>2017-07-21T08:48:19Z</time>
      </trkpt>
      <trkpt lat="45.96168" lon="4.77839">
        <ele>200</ele>
        <time>2017-07-21T08:48:20Z</time>
      </trkpt>
      <trkpt lat="45.96174" lon="4.77848">
        <ele>201</ele>
        <time>2017-07-21T08:48:22Z</time>
      </trkpt>
      <trkpt lat="45.96176" lon="4.77853">
        <ele>201</ele>
        <time>2017-07-21T08:48:23Z</time>
      </trkpt>
      <trkpt lat="45.96181" lon="4.77863">
        <ele>201</ele>
        <time>2017-07-21T08:48:25Z</time>
      </trkpt>
      <trkpt lat="45.96184" lon="4.77869">
        <ele>201</ele>
        <time>2017-07-21T08:48:26Z</time>
      </trkpt>
      <trkpt lat="45.96187" lon="4.77874">
        <ele>201</ele>
        <time>2017-07-21T08:48:27Z</time>
      </trkpt>
      <trkpt lat="45.9619" lon="4.77879">
        <ele>202</ele>
        <time>2017-07-21T08:48:28Z</time>
      </trkpt>
      <trkpt lat="45.96194" lon="4.77885">
        <ele>202</ele>
        <time>2017-07-21T08:48:29Z</time>
      </trkpt>
      <trkpt lat="45.96197" lon="4.7789">
        <ele>202</ele>
        <time>2017-07-21T08:48:30Z</time>
      </trkpt>
      <trkpt lat="45.96199" lon="4.77896">
        <ele>202</ele>
        <time>2017-07-21T08:48:31Z</time>
      </trkpt>
      <trkpt lat="45.96202" lon="4.77902">
        <ele>202</ele>
        <time>2017-07-21T08:48:32Z</time>
      </trkpt>
      <trkpt lat="45.96205" lon="4.77907">
        <ele>202</ele>
        <time>2017-07-21T08:48:33Z</time>
      </trkpt>
      <trkpt lat="45.96207" lon="4.77913">
        <ele>202</ele>
        <time>2017-07-21T08:48:34Z</time>
      </trkpt>
      <trkpt lat="45.96212" lon="4.77923">
        <ele>199</ele>
        <time>2017-07-21T08:48:36Z</time>
      </trkpt>
      <trkpt lat="45.96215" lon="4.77927">
        <ele>200</ele>
        <time>2017-07-21T08:48:37Z</time>
      </trkpt>
      <trkpt lat="45.96221" lon="4.77936">
        <ele>200</ele>
        <time>2017-07-21T08:48:39Z</time>
      </trkpt>
      <trkpt lat="45.96223" lon="4.77939">
        <ele>200</ele>
        <time>2017-07-21T08:48:40Z</time>
      </trkpt>
      <trkpt lat="45.9623" lon="4.77947">
        <ele>200</ele>
        <time>2017-07-21T08:48:42Z</time>
      </trkpt>
      <trkpt lat="45.96233" lon="4.7795">
        <ele>200</ele>
        <time>2017-07-21T08:48:43Z</time>
      </trkpt>
      <trkpt lat="45.96239" lon="4.77955">
        <ele>199</ele>
        <time>2017-07-21T08:48:45Z</time>
      </trkpt>
      <trkpt lat="45.96242" lon="4.77958">
        <ele>199</ele>
        <time>2017-07-21T08:48:46Z</time>
      </trkpt>
      <trkpt lat="45.96249" lon="4.77965">
        <ele>199</ele>
        <time>2017-07-21T08:48:48Z</time>
      </trkpt>
      <trkpt lat="45.96253" lon="4.77968">
        <ele>204</ele>
        <time>2017-07-21T08:48:49Z</time>
      </trkpt>
      <trkpt lat="45.96257" lon="4.77972">
        <ele>203</ele>
        <time>2017-07-21T08:48:50Z</time>
      </trkpt>
      <trkpt lat="45.9626" lon="4.77976">
        <ele>203</ele>
        <time>2017-07-21T08:48:51Z</time>
      </trkpt>
      <trkpt lat="45.96268" lon="4.77983">
        <ele>202</ele>
        <time>2017-07-21T08:48:53Z</time>
      </trkpt>
      <trkpt lat="45.96271" lon="4.77986">
        <ele>203</ele>
        <time>2017-07-21T08:48:54Z</time>
      </trkpt>
      <trkpt lat="45.96279" lon="4.77993">
        <ele>203</ele>
        <time>2017-07-21T08:48:56Z</time>
      </trkpt>
      <trkpt lat="45.96283" lon="4.77996">
        <ele>203</ele>
        <time>2017-07-21T08:48:57Z</time>
      </trkpt>
      <trkpt lat="45.96287" lon="4.77999">
        <ele>204</ele>
        <time>2017-07-21T08:48:58Z</time>
      </trkpt>
      <trkpt lat="45.96291" lon="4.78002">
        <ele>199</ele>
        <time>2017-07-21T08:48:59Z</time>
      </trkpt>
      <trkpt lat="45.96295" lon="4.78006">
        <ele>199</ele>
        <time>2017-07-21T08:49:00Z</time>
      </trkpt>
      <trkpt lat="45.96299" lon="4.7801">
        <ele>200</ele>
        <time>2017-07-21T08:49:01Z</time>
      </trkpt>
      <trkpt lat="45.96303" lon="4.78014">
        <ele>200</ele>
        <time>2017-07-21T08:49:02Z</time>
      </trkpt>
      <trkpt lat="45.96307" lon="4.78018">
        <ele>200</ele>
        <time>2017-07-21T08:49:03Z</time>
      </trkpt>
      <trkpt lat="45.9631" lon="4.78023">
        <ele>200</ele>
        <time>2017-07-21T08:49:04Z</time>
      </trkpt>
      <trkpt lat="45.96314" lon="4.78028">
        <ele>200</ele>
        <time>2017-07-21T08:49:05Z</time>
      </trkpt>
      <trkpt lat="45.96318" lon="4.78034">
        <ele>200</ele>
        <time>2017-07-21T08:49:06Z</time>
      </trkpt>
      <trkpt lat="45.96322" lon="4.78038">
        <ele>199</ele>
        <time>2017-07-21T08:49:07Z</time>
      </trkpt>
      <trkpt lat="45.96329" lon="4.78047">
        <ele>199</ele>
        <time>2017-07-21T08:49:09Z</time>
      </trkpt>
      <trkpt lat="45.96333" lon="4.78051">
        <ele>199</ele>
        <time>2017-07-21T08:49:10Z</time>
      </trkpt>
      <trkpt lat="45.96337" lon="4.78056">
        <ele>202</ele>
        <time>2017-07-21T08:49:11Z</time>
      </trkpt>
      <trkpt lat="45.96341" lon="4.78062">
        <ele>202</ele>
        <time>2017-07-21T08:49:12Z</time>
      </trkpt>
      <trkpt lat="45.96345" lon="4.78067">
        <ele>201</ele>
        <time>2017-07-21T08:49:13Z</time>
      </trkpt>
      <trkpt lat="45.96349" lon="4.78072">
        <ele>201</ele>
        <time>2017-07-21T08:49:14Z</time>
      </trkpt>
      <trkpt lat="45.96353" lon="4.78077">
        <ele>201</ele>
        <time>2017-07-21T08:49:15Z</time>
      </trkpt>
      <trkpt lat="45.96357" lon="4.78081">
        <ele>202</ele>
        <time>2017-07-21T08:49:16Z</time>
      </trkpt>
      <trkpt lat="45.9636" lon="4.78086">
        <ele>199</ele>
        <time>2017-07-21T08:49:17Z</time>
      </trkpt>
      <trkpt lat="45.96364" lon="4.7809">
        <ele>199</ele>
        <time>2017-07-21T08:49:18Z</time>
      </trkpt>
      <trkpt lat="45.96371" lon="4.78098">
        <ele>199</ele>
        <time>2017-07-21T08:49:20Z</time>
      </trkpt>
      <trkpt lat="45.96374" lon="4.78101">
        <ele>199</ele>
        <time>2017-07-21T08:49:21Z</time>
      </trkpt>
      <trkpt lat="45.96377" lon="4.78105">
        <ele>200</ele>
        <time>2017-07-21T08:49:22Z</time>
      </trkpt>
      <trkpt lat="45.96381" lon="4.7811">
        <ele>200</ele>
        <time>2017-07-21T08:49:23Z</time>
      </trkpt>
      <trkpt lat="45.96386" lon="4.78114">
        <ele>200</ele>
        <time>2017-07-21T08:49:24Z</time>
      </trkpt>
      <trkpt lat="45.9639" lon="4.78117">
        <ele>200</ele>
        <time>2017-07-21T08:49:25Z</time>
      </trkpt>
      <trkpt lat="45.96394" lon="4.78121">
        <ele>200</ele>
        <time>2017-07-21T08:49:26Z</time>
      </trkpt>
      <trkpt lat="45.96398" lon="4.78124">
        <ele>200</ele>
        <time>2017-07-21T08:49:27Z</time>
      </trkpt>
      <trkpt lat="45.96405" lon="4.78129">
        <ele>199</ele>
        <time>2017-07-21T08:49:29Z</time>
      </trkpt>
      <trkpt lat="45.96409" lon="4.78131">
        <ele>199</ele>
        <time>2017-07-21T08:49:30Z</time>
      </trkpt>
      <trkpt lat="45.96413" lon="4.78134">
        <ele>199</ele>
        <time>2017-07-21T08:49:31Z</time>
      </trkpt>
      <trkpt lat="45.96417" lon="4.78138">
        <ele>203</ele>
        <time>2017-07-21T08:49:32Z</time>
      </trkpt>
      <trkpt lat="45.96422" lon="4.78142">
        <ele>203</ele>
        <time>2017-07-21T08:49:33Z</time>
      </trkpt>
      <trkpt lat="45.96426" lon="4.78146">
        <ele>202</ele>
        <time>2017-07-21T08:49:34Z</time>
      </trkpt>
      <trkpt lat="45.96431" lon="4.7815">
        <ele>202</ele>
        <time>2017-07-21T08:49:35Z</time>
      </trkpt>
      <trkpt lat="45.96436" lon="4.78156">
        <ele>202</ele>
        <time>2017-07-21T08:49:36Z</time>
      </trkpt>
      <trkpt lat="45.9644" lon="4.7816">
        <ele>203</ele>
        <time>2017-07-21T08:49:37Z</time>
      </trkpt>
      <trkpt lat="45.96443" lon="4.78166">
        <ele>203</ele>
        <time>2017-07-21T08:49:38Z</time>
      </trkpt>
      <trkpt lat="45.96447" lon="4.78171">
        <ele>199</ele>
        <time>2017-07-21T08:49:39Z</time>
      </trkpt>
      <trkpt lat="45.96451" lon="4.78175">
        <ele>199</ele>
        <time>2017-07-21T08:49:40Z</time>
      </trkpt>
      <trkpt lat="45.96458" lon="4.78182">
        <ele>200</ele>
        <time>2017-07-21T08:49:42Z</time>
      </trkpt>
      <trkpt lat="45.96461" lon="4.78185">
        <ele>200</ele>
        <time>2017-07-21T08:49:43Z</time>
      </trkpt>
      <trkpt lat="45.96469" lon="4.78191">
        <ele>200</ele>
        <time>2017-07-21T08:49:45Z</time>
      </trkpt>
      <trkpt lat="45.96473" lon="4.78192">
        <ele>200</ele>
        <time>2017-07-21T08:49:46Z</time>
      </trkpt>
      <trkpt lat="45.96482" lon="4.78195">
        <ele>200</ele>
        <time>2017-07-21T08:49:48Z</time>
      </trkpt>
      <trkpt lat="45.96486" lon="4.78197">
        <ele>200</ele>
        <time>2017-07-21T08:49:49Z</time>
      </trkpt>
      <trkpt lat="45.9649" lon="4.782">
        <ele>200</ele>
        <time>2017-07-21T08:49:50Z</time>
      </trkpt>
      <trkpt lat="45.96495" lon="4.78203">
        <ele>200</ele>
        <time>2017-07-21T08:49:51Z</time>
      </trkpt>
      <trkpt lat="45.96499" lon="4.78207">
        <ele>200</ele>
        <time>2017-07-21T08:49:52Z</time>
      </trkpt>
      <trkpt lat="45.96502" lon="4.78211">
        <ele>205</ele>
        <time>2017-07-21T08:49:53Z</time>
      </trkpt>
      <trkpt lat="45.96506" lon="4.78216">
        <ele>204</ele>
        <time>2017-07-21T08:49:54Z</time>
      </trkpt>
      <trkpt lat="45.9651" lon="4.78221">
        <ele>204</ele>
        <time>2017-07-21T08:49:55Z</time>
      </trkpt>
      <trkpt lat="45.96516" lon="4.78229">
        <ele>204</ele>
        <time>2017-07-21T08:49:57Z</time>
      </trkpt>
      <trkpt lat="45.96519" lon="4.78233">
        <ele>204</ele>
        <time>2017-07-21T08:49:58Z</time>
      </trkpt>
      <trkpt lat="45.96522" lon="4.78238">
        <ele>204</ele>
        <time>2017-07-21T08:49:59Z</time>
      </trkpt>
      <trkpt lat="45.96525" lon="4.78244">
        <ele>204</ele>
        <time>2017-07-21T08:50:00Z</time>
      </trkpt>
      <trkpt lat="45.96528" lon="4.78249">
        <ele>204</ele>
        <time>2017-07-21T08:50:01Z</time>
      </trkpt>
      <trkpt lat="45.96531" lon="4.78255">
        <ele>200</ele>
        <time>2017-07-21T08:50:02Z</time>
      </trkpt>
      <trkpt lat="45.96534" lon="4.7826">
        <ele>200</ele>
        <time>2017-07-21T08:50:03Z</time>
      </trkpt>
      <trkpt lat="45.96538" lon="4.78265">
        <ele>200</ele>
        <time>2017-07-21T08:50:04Z</time>
      </trkpt>
      <trkpt lat="45.96541" lon="4.78269">
        <ele>200</ele>
        <time>2017-07-21T08:50:05Z</time>
      </trkpt>
      <trkpt lat="45.96545" lon="4.78274">
        <ele>200</ele>
        <time>2017-07-21T08:50:06Z</time>
      </trkpt>
      <trkpt lat="45.96549" lon="4.78278">
        <ele>200</ele>
        <time>2017-07-21T08:50:07Z</time>
      </trkpt>
      <trkpt lat="45.96553" lon="4.78281">
        <ele>200</ele>
        <time>2017-07-21T08:50:08Z</time>
      </trkpt>
      <trkpt lat="45.9656" lon="4.78289">
        <ele>200</ele>
        <time>2017-07-21T08:50:10Z</time>
      </trkpt>
      <trkpt lat="45.96564" lon="4.78293">
        <ele>200</ele>
        <time>2017-07-21T08:50:11Z</time>
      </trkpt>
      <trkpt lat="45.96571" lon="4.78301">
        <ele>200</ele>
        <time>2017-07-21T08:50:13Z</time>
      </trkpt>
      <trkpt lat="45.96574" lon="4.78305">
        <ele>200</ele>
        <time>2017-07-21T08:50:14Z</time>
      </trkpt>
      <trkpt lat="45.96578" lon="4.78309">
        <ele>199</ele>
        <time>2017-07-21T08:50:15Z</time>
      </trkpt>
      <trkpt lat="45.96582" lon="4.78313">
        <ele>199</ele>
        <time>2017-07-21T08:50:16Z</time>
      </trkpt>
      <trkpt lat="45.96585" lon="4.78317">
        <ele>202</ele>
        <time>2017-07-21T08:50:17Z</time>
      </trkpt>
      <trkpt lat="45.96589" lon="4.7832">
        <ele>202</ele>
        <time>2017-07-21T08:50:18Z</time>
      </trkpt>
      <trkpt lat="45.96595" lon="4.78327">
        <ele>202</ele>
        <time>2017-07-21T08:50:20Z</time>
      </trkpt>
      <trkpt lat="45.96599" lon="4.78331">
        <ele>202</ele>
        <time>2017-07-21T08:50:21Z</time>
      </trkpt>
      <trkpt lat="45.96602" lon="4.78334">
        <ele>200</ele>
        <time>2017-07-21T08:50:22Z</time>
      </trkpt>
      <trkpt lat="45.96607" lon="4.78338">
        <ele>200</ele>
        <time>2017-07-21T08:50:23Z</time>
      </trkpt>
      <trkpt lat="45.96612" lon="4.78342">
        <ele>200</ele>
        <time>2017-07-21T08:50:24Z</time>
      </trkpt>
      <trkpt lat="45.96616" lon="4.78347">
        <ele>201</ele>
        <time>2017-07-21T08:50:25Z</time>
      </trkpt>
      <trkpt lat="45.96621" lon="4.78351">
        <ele>201</ele>
        <time>2017-07-21T08:50:26Z</time>
      </trkpt>
      <trkpt lat="45.96625" lon="4.78355">
        <ele>201</ele>
        <time>2017-07-21T08:50:27Z</time>
      </trkpt>
      <trkpt lat="45.96629" lon="4.78359">
        <ele>201</ele>
        <time>2017-07-21T08:50:28Z</time>
      </trkpt>
      <trkpt lat="45.96632" lon="4.78362">
        <ele>201</ele>
        <time>2017-07-21T08:50:29Z</time>
      </trkpt>
      <trkpt lat="45.96636" lon="4.78366">
        <ele>201</ele>
        <time>2017-07-21T08:50:30Z</time>
      </trkpt>
      <trkpt lat="45.9664" lon="4.7837">
        <ele>201</ele>
        <time>2017-07-21T08:50:31Z</time>
      </trkpt>
      <trkpt lat="45.96644" lon="4.78374">
        <ele>201</ele>
        <time>2017-07-21T08:50:32Z</time>
      </trkpt>
      <trkpt lat="45.96648" lon="4.78377">
        <ele>201</ele>
        <time>2017-07-21T08:50:33Z</time>
      </trkpt>
      <trkpt lat="45.96652" lon="4.78381">
        <ele>201</ele>
        <time>2017-07-21T08:50:34Z</time>
      </trkpt>
      <trkpt lat="45.96657" lon="4.78384">
        <ele>201</ele>
        <time>2017-07-21T08:50:35Z</time>
      </trkpt>
      <trkpt lat="45.96661" lon="4.78389">
        <ele>201</ele>
        <time>2017-07-21T08:50:36Z</time>
      </trkpt>
      <trkpt lat="45.96666" lon="4.78394">
        <ele>201</ele>
        <time>2017-07-21T08:50:37Z</time>
      </trkpt>
      <trkpt lat="45.96674" lon="4.784">
        <ele>204</ele>
        <time>2017-07-21T08:50:39Z</time>
      </trkpt>
      <trkpt lat="45.96677" lon="4.78403">
        <ele>204</ele>
        <time>2017-07-21T08:50:40Z</time>
      </trkpt>
      <trkpt lat="45.96684" lon="4.78411">
        <ele>204</ele>
        <time>2017-07-21T08:50:42Z</time>
      </trkpt>
      <trkpt lat="45.96687" lon="4.78414">
        <ele>204</ele>
        <time>2017-07-21T08:50:43Z</time>
      </trkpt>
      <trkpt lat="45.96694" lon="4.7842">
        <ele>202</ele>
        <time>2017-07-21T08:50:45Z</time>
      </trkpt>
      <trkpt lat="45.96697" lon="4.78424">
        <ele>203</ele>
        <time>2017-07-21T08:50:46Z</time>
      </trkpt>
      <trkpt lat="45.96702" lon="4.7843">
        <ele>203</ele>
        <time>2017-07-21T08:50:48Z</time>
      </trkpt>
      <trkpt lat="45.96704" lon="4.78433">
        <ele>203</ele>
        <time>2017-07-21T08:50:49Z</time>
      </trkpt>
      <trkpt lat="45.9671" lon="4.78442">
        <ele>203</ele>
        <time>2017-07-21T08:50:52Z</time>
      </trkpt>
      <trkpt lat="45.96713" lon="4.78445">
        <ele>203</ele>
        <time>2017-07-21T08:50:53Z</time>
      </trkpt>
      <trkpt lat="45.96722" lon="4.78448">
        <ele>203</ele>
        <time>2017-07-21T08:50:54Z</time>
      </trkpt>
      <trkpt lat="45.96729" lon="4.78454">
        <ele>203</ele>
        <time>2017-07-21T08:50:56Z</time>
      </trkpt>
      <trkpt lat="45.96732" lon="4.78458">
        <ele>203</ele>
        <time>2017-07-21T08:50:57Z</time>
      </trkpt>
      <trkpt lat="45.96735" lon="4.78462">
        <ele>203</ele>
        <time>2017-07-21T08:50:58Z</time>
      </trkpt>
      <trkpt lat="45.96739" lon="4.78467">
        <ele>203</ele>
        <time>2017-07-21T08:50:59Z</time>
      </trkpt>
      <trkpt lat="45.96743" lon="4.7847">
        <ele>203</ele>
        <time>2017-07-21T08:51:00Z</time>
      </trkpt>
      <trkpt lat="45.96747" lon="4.78473">
        <ele>203</ele>
        <time>2017-07-21T08:51:01Z</time>
      </trkpt>
      <trkpt lat="45.96755" lon="4.78479">
        <ele>205</ele>
        <time>2017-07-21T08:51:03Z</time>
      </trkpt>
      <trkpt lat="45.96758" lon="4.78483">
        <ele>205</ele>
        <time>2017-07-21T08:51:04Z</time>
      </trkpt>
      <trkpt lat="45.96765" lon="4.7849">
        <ele>205</ele>
        <time>2017-07-21T08:51:06Z</time>
      </trkpt>
      <trkpt lat="45.96769" lon="4.78494">
        <ele>205</ele>
        <time>2017-07-21T08:51:07Z</time>
      </trkpt>
      <trkpt lat="45.96772" lon="4.78499">
        <ele>205</ele>
        <time>2017-07-21T08:51:08Z</time>
      </trkpt>
      <trkpt lat="45.96775" lon="4.78503">
        <ele>203</ele>
        <time>2017-07-21T08:51:09Z</time>
      </trkpt>
      <trkpt lat="45.96778" lon="4.78508">
        <ele>203</ele>
        <time>2017-07-21T08:51:10Z</time>
      </trkpt>
      <trkpt lat="45.9678" lon="4.78514">
        <ele>203</ele>
        <time>2017-07-21T08:51:11Z</time>
      </trkpt>
      <trkpt lat="45.96783" lon="4.7852">
        <ele>203</ele>
        <time>2017-07-21T08:51:12Z</time>
      </trkpt>
      <trkpt lat="45.96786" lon="4.78525">
        <ele>203</ele>
        <time>2017-07-21T08:51:13Z</time>
      </trkpt>
      <trkpt lat="45.96789" lon="4.78531">
        <ele>203</ele>
        <time>2017-07-21T08:51:14Z</time>
      </trkpt>
      <trkpt lat="45.96792" lon="4.78535">
        <ele>203</ele>
        <time>2017-07-21T08:51:15Z</time>
      </trkpt>
      <trkpt lat="45.96795" lon="4.78544">
        <ele>203</ele>
        <time>2017-07-21T08:51:16Z</time>
      </trkpt>
      <trkpt lat="45.96799" lon="4.7855">
        <ele>203</ele>
        <time>2017-07-21T08:51:17Z</time>
      </trkpt>
      <trkpt lat="45.96803" lon="4.78553">
        <ele>203</ele>
        <time>2017-07-21T08:51:18Z</time>
      </trkpt>
      <trkpt lat="45.96807" lon="4.78557">
        <ele>203</ele>
        <time>2017-07-21T08:51:19Z</time>
      </trkpt>
      <trkpt lat="45.96813" lon="4.78566">
        <ele>203</ele>
        <time>2017-07-21T08:51:21Z</time>
      </trkpt>
      <trkpt lat="45.96816" lon="4.7857">
        <ele>203</ele>
        <time>2017-07-21T08:51:22Z</time>
      </trkpt>
      <trkpt lat="45.96822" lon="4.78579">
        <ele>203</ele>
        <time>2017-07-21T08:51:24Z</time>
      </trkpt>
      <trkpt lat="45.96824" lon="4.78582">
        <ele>203</ele>
        <time>2017-07-21T08:51:25Z</time>
      </trkpt>
      <trkpt lat="45.96829" lon="4.78591">
        <ele>202</ele>
        <time>2017-07-21T08:51:27Z</time>
      </trkpt>
      <trkpt lat="45.96832" lon="4.78596">
        <ele>202</ele>
        <time>2017-07-21T08:51:28Z</time>
      </trkpt>
      <trkpt lat="45.96835" lon="4.78602">
        <ele>203</ele>
        <time>2017-07-21T08:51:29Z</time>
      </trkpt>
      <trkpt lat="45.96837" lon="4.78607">
        <ele>203</ele>
        <time>2017-07-21T08:51:30Z</time>
      </trkpt>
      <trkpt lat="45.96843" lon="4.78617">
        <ele>203</ele>
        <time>2017-07-21T08:51:32Z</time>
      </trkpt>
      <trkpt lat="45.96845" lon="4.78623">
        <ele>203</ele>
        <time>2017-07-21T08:51:33Z</time>
      </trkpt>
      <trkpt lat="45.96849" lon="4.78633">
        <ele>203</ele>
        <time>2017-07-21T08:51:35Z</time>
      </trkpt>
      <trkpt lat="45.96851" lon="4.78639">
        <ele>203</ele>
        <time>2017-07-21T08:51:36Z</time>
      </trkpt>
      <trkpt lat="45.96853" lon="4.78644">
        <ele>203</ele>
        <time>2017-07-21T08:51:37Z</time>
      </trkpt>
      <trkpt lat="45.96855" lon="4.7865">
        <ele>203</ele>
        <time>2017-07-21T08:51:38Z</time>
      </trkpt>
      <trkpt lat="45.96861" lon="4.7866">
        <ele>203</ele>
        <time>2017-07-21T08:51:40Z</time>
      </trkpt>
      <trkpt lat="45.96863" lon="4.78665">
        <ele>203</ele>
        <time>2017-07-21T08:51:41Z</time>
      </trkpt>
      <trkpt lat="45.96866" lon="4.78677">
        <ele>202</ele>
        <time>2017-07-21T08:51:43Z</time>
      </trkpt>
      <trkpt lat="45.96867" lon="4.78682">
        <ele>202</ele>
        <time>2017-07-21T08:51:44Z</time>
      </trkpt>
      <trkpt lat="45.96872" lon="4.78691">
        <ele>202</ele>
        <time>2017-07-21T08:51:46Z</time>
      </trkpt>
      <trkpt lat="45.96874" lon="4.78695">
        <ele>202</ele>
        <time>2017-07-21T08:51:47Z</time>
      </trkpt>
      <trkpt lat="45.96877" lon="4.78706">
        <ele>202</ele>
        <time>2017-07-21T08:51:49Z</time>
      </trkpt>
      <trkpt lat="45.96878" lon="4.78712">
        <ele>202</ele>
        <time>2017-07-21T08:51:50Z</time>
      </trkpt>
      <trkpt lat="45.96882" lon="4.78722">
        <ele>202</ele>
        <time>2017-07-21T08:51:52Z</time>
      </trkpt>
      <trkpt lat="45.96883" lon="4.78727">
        <ele>202</ele>
        <time>2017-07-21T08:51:53Z</time>
      </trkpt>
      <trkpt lat="45.96885" lon="4.78736">
        <ele>202</ele>
        <time>2017-07-21T08:51:55Z</time>
      </trkpt>
      <trkpt lat="45.96887" lon="4.78742">
        <ele>202</ele>
        <time>2017-07-21T08:51:56Z</time>
      </trkpt>
      <trkpt lat="45.96889" lon="4.78749">
        <ele>202</ele>
        <time>2017-07-21T08:51:57Z</time>
      </trkpt>
      <trkpt lat="45.96893" lon="4.78753">
        <ele>201</ele>
        <time>2017-07-21T08:51:58Z</time>
      </trkpt>
      <trkpt lat="45.96897" lon="4.7876">
        <ele>201</ele>
        <time>2017-07-21T08:51:59Z</time>
      </trkpt>
      <trkpt lat="45.96899" lon="4.78767">
        <ele>201</ele>
        <time>2017-07-21T08:52:00Z</time>
      </trkpt>
      <trkpt lat="45.96903" lon="4.78772">
        <ele>201</ele>
        <time>2017-07-21T08:52:01Z</time>
      </trkpt>
      <trkpt lat="45.96907" lon="4.78778">
        <ele>201</ele>
        <time>2017-07-21T08:52:02Z</time>
      </trkpt>
      <trkpt lat="45.9691" lon="4.78783">
        <ele>201</ele>
        <time>2017-07-21T08:52:03Z</time>
      </trkpt>
      <trkpt lat="45.96912" lon="4.78788">
        <ele>201</ele>
        <time>2017-07-21T08:52:04Z</time>
      </trkpt>
      <trkpt lat="45.96917" lon="4.78799">
        <ele>203</ele>
        <time>2017-07-21T08:52:06Z</time>
      </trkpt>
      <trkpt lat="45.96919" lon="4.78804">
        <ele>203</ele>
        <time>2017-07-21T08:52:07Z</time>
      </trkpt>
      <trkpt lat="45.96922" lon="4.7881">
        <ele>202</ele>
        <time>2017-07-21T08:52:08Z</time>
      </trkpt>
      <trkpt lat="45.96925" lon="4.78815">
        <ele>202</ele>
        <time>2017-07-21T08:52:09Z</time>
      </trkpt>
      <trkpt lat="45.96928" lon="4.7882">
        <ele>202</ele>
        <time>2017-07-21T08:52:10Z</time>
      </trkpt>
      <trkpt lat="45.96931" lon="4.78825">
        <ele>202</ele>
        <time>2017-07-21T08:52:11Z</time>
      </trkpt>
      <trkpt lat="45.96938" lon="4.78833">
        <ele>202</ele>
        <time>2017-07-21T08:52:13Z</time>
      </trkpt>
      <trkpt lat="45.96941" lon="4.78837">
        <ele>202</ele>
        <time>2017-07-21T08:52:14Z</time>
      </trkpt>
      <trkpt lat="45.96948" lon="4.78844">
        <ele>202</ele>
        <time>2017-07-21T08:52:16Z</time>
      </trkpt>
      <trkpt lat="45.96951" lon="4.78848">
        <ele>202</ele>
        <time>2017-07-21T08:52:17Z</time>
      </trkpt>
      <trkpt lat="45.96955" lon="4.78852">
        <ele>203</ele>
        <time>2017-07-21T08:52:18Z</time>
      </trkpt>
      <trkpt lat="45.96959" lon="4.78857">
        <ele>203</ele>
        <time>2017-07-21T08:52:19Z</time>
      </trkpt>
      <trkpt lat="45.96963" lon="4.78862">
        <ele>203</ele>
        <time>2017-07-21T08:52:20Z</time>
      </trkpt>
      <trkpt lat="45.96967" lon="4.78866">
        <ele>203</ele>
        <time>2017-07-21T08:52:21Z</time>
      </trkpt>
      <trkpt lat="45.96971" lon="4.7887">
        <ele>203</ele>
        <time>2017-07-21T08:52:22Z</time>
      </trkpt>
      <trkpt lat="45.96974" lon="4.78874">
        <ele>203</ele>
        <time>2017-07-21T08:52:23Z</time>
      </trkpt>
      <trkpt lat="45.96981" lon="4.78883">
        <ele>203</ele>
        <time>2017-07-21T08:52:25Z</time>
      </trkpt>
      <trkpt lat="45.96984" lon="4.78886">
        <ele>203</ele>
        <time>2017-07-21T08:52:26Z</time>
      </trkpt>
      <trkpt lat="45.9699" lon="4.78893">
        <ele>203</ele>
        <time>2017-07-21T08:52:28Z</time>
      </trkpt>
      <trkpt lat="45.96993" lon="4.78897">
        <ele>203</ele>
        <time>2017-07-21T08:52:29Z</time>
      </trkpt>
      <trkpt lat="45.97" lon="4.78905">
        <ele>206</ele>
        <time>2017-07-21T08:52:31Z</time>
      </trkpt>
      <trkpt lat="45.97004" lon="4.7891">
        <ele>205</ele>
        <time>2017-07-21T08:52:32Z</time>
      </trkpt>
      <trkpt lat="45.9701" lon="4.78919">
        <ele>204</ele>
        <time>2017-07-21T08:52:34Z</time>
      </trkpt>
      <trkpt lat="45.97013" lon="4.78923">
        <ele>205</ele>
        <time>2017-07-21T08:52:35Z</time>
      </trkpt>
      <trkpt lat="45.9702" lon="4.78931">
        <ele>205</ele>
        <time>2017-07-21T08:52:37Z</time>
      </trkpt>
      <trkpt lat="45.97022" lon="4.78935">
        <ele>205</ele>
        <time>2017-07-21T08:52:38Z</time>
      </trkpt>
      <trkpt lat="45.97028" lon="4.78944">
        <ele>205</ele>
        <time>2017-07-21T08:52:40Z</time>
      </trkpt>
      <trkpt lat="45.97031" lon="4.78947">
        <ele>205</ele>
        <time>2017-07-21T08:52:41Z</time>
      </trkpt>
      <trkpt lat="45.97036" lon="4.78956">
        <ele>205</ele>
        <time>2017-07-21T08:52:43Z</time>
      </trkpt>
      <trkpt lat="45.97038" lon="4.78961">
        <ele>205</ele>
        <time>2017-07-21T08:52:44Z</time>
      </trkpt>
      <trkpt lat="45.97043" lon="4.78971">
        <ele>205</ele>
        <time>2017-07-21T08:52:46Z</time>
      </trkpt>
      <trkpt lat="45.97045" lon="4.78976">
        <ele>205</ele>
        <time>2017-07-21T08:52:47Z</time>
      </trkpt>
      <trkpt lat="45.97049" lon="4.78986">
        <ele>205</ele>
        <time>2017-07-21T08:52:49Z</time>
      </trkpt>
      <trkpt lat="45.97051" lon="4.78991">
        <ele>205</ele>
        <time>2017-07-21T08:52:50Z</time>
      </trkpt>
      <trkpt lat="45.97056" lon="4.78999">
        <ele>205</ele>
        <time>2017-07-21T08:52:52Z</time>
      </trkpt>
      <trkpt lat="45.97058" lon="4.79004">
        <ele>204</ele>
        <time>2017-07-21T08:52:53Z</time>
      </trkpt>
      <trkpt lat="45.97063" lon="4.79013">
        <ele>204</ele>
        <time>2017-07-21T08:52:55Z</time>
      </trkpt>
      <trkpt lat="45.97064" lon="4.79019">
        <ele>204</ele>
        <time>2017-07-21T08:52:56Z</time>
      </trkpt>
      <trkpt lat="45.97067" lon="4.7903">
        <ele>204</ele>
        <time>2017-07-21T08:52:58Z</time>
      </trkpt>
      <trkpt lat="45.97068" lon="4.79036">
        <ele>203</ele>
        <time>2017-07-21T08:52:59Z</time>
      </trkpt>
      <trkpt lat="45.97069" lon="4.79048">
        <ele>203</ele>
        <time>2017-07-21T08:53:01Z</time>
      </trkpt>
      <trkpt lat="45.9707" lon="4.79054">
        <ele>203</ele>
        <time>2017-07-21T08:53:02Z</time>
      </trkpt>
      <trkpt lat="45.97073" lon="4.79066">
        <ele>204</ele>
        <time>2017-07-21T08:53:04Z</time>
      </trkpt>
      <trkpt lat="45.97075" lon="4.79072">
        <ele>204</ele>
        <time>2017-07-21T08:53:05Z</time>
      </trkpt>
      <trkpt lat="45.97077" lon="4.79084">
        <ele>204</ele>
        <time>2017-07-21T08:53:07Z</time>
      </trkpt>
      <trkpt lat="45.97079" lon="4.7909">
        <ele>204</ele>
        <time>2017-07-21T08:53:08Z</time>
      </trkpt>
      <trkpt lat="45.9708" lon="4.79096">
        <ele>204</ele>
        <time>2017-07-21T08:53:09Z</time>
      </trkpt>
      <trkpt lat="45.97082" lon="4.79103">
        <ele>204</ele>
        <time>2017-07-21T08:53:10Z</time>
      </trkpt>
      <trkpt lat="45.97085" lon="4.79109">
        <ele>206</ele>
        <time>2017-07-21T08:53:11Z</time>
      </trkpt>
      <trkpt lat="45.97087" lon="4.79115">
        <ele>206</ele>
        <time>2017-07-21T08:53:12Z</time>
      </trkpt>
      <trkpt lat="45.97092" lon="4.7912">
        <ele>206</ele>
        <time>2017-07-21T08:53:13Z</time>
      </trkpt>
      <trkpt lat="45.97095" lon="4.79125">
        <ele>206</ele>
        <time>2017-07-21T08:53:14Z</time>
      </trkpt>
      <trkpt lat="45.97098" lon="4.7913">
        <ele>206</ele>
        <time>2017-07-21T08:53:15Z</time>
      </trkpt>
      <trkpt lat="45.97102" lon="4.79135">
        <ele>206</ele>
        <time>2017-07-21T08:53:16Z</time>
      </trkpt>
      <trkpt lat="45.97107" lon="4.79145">
        <ele>206</ele>
        <time>2017-07-21T08:53:18Z</time>
      </trkpt>
      <trkpt lat="45.97109" lon="4.7915">
        <ele>206</ele>
        <time>2017-07-21T08:53:19Z</time>
      </trkpt>
      <trkpt lat="45.97114" lon="4.7916">
        <ele>207</ele>
        <time>2017-07-21T08:53:21Z</time>
      </trkpt>
      <trkpt lat="45.97116" lon="4.79166">
        <ele>207</ele>
        <time>2017-07-21T08:53:22Z</time>
      </trkpt>
      <trkpt lat="45.97118" lon="4.79173">
        <ele>206</ele>
        <time>2017-07-21T08:53:23Z</time>
      </trkpt>
      <trkpt lat="45.97123" lon="4.79185">
        <ele>206</ele>
        <time>2017-07-21T08:53:25Z</time>
      </trkpt>
      <trkpt lat="45.97125" lon="4.79192">
        <ele>206</ele>
        <time>2017-07-21T08:53:26Z</time>
      </trkpt>
      <trkpt lat="45.97127" lon="4.79198">
        <ele>206</ele>
        <time>2017-07-21T08:53:27Z</time>
      </trkpt>
      <trkpt lat="45.97129" lon="4.79204">
        <ele>206</ele>
        <time>2017-07-21T08:53:28Z</time>
      </trkpt>
      <trkpt lat="45.97131" lon="4.7921">
        <ele>206</ele>
        <time>2017-07-21T08:53:29Z</time>
      </trkpt>
      <trkpt lat="45.97134" lon="4.79216">
        <ele>206</ele>
        <time>2017-07-21T08:53:30Z</time>
      </trkpt>
      <trkpt lat="45.97137" lon="4.79223">
        <ele>205</ele>
        <time>2017-07-21T08:53:31Z</time>
      </trkpt>
      <trkpt lat="45.9714" lon="4.7923">
        <ele>205</ele>
        <time>2017-07-21T08:53:32Z</time>
      </trkpt>
      <trkpt lat="45.97143" lon="4.79236">
        <ele>205</ele>
        <time>2017-07-21T08:53:33Z</time>
      </trkpt>
      <trkpt lat="45.97146" lon="4.79242">
        <ele>205</ele>
        <time>2017-07-21T08:53:34Z</time>
      </trkpt>
      <trkpt lat="45.97149" lon="4.79249">
        <ele>205</ele>
        <time>2017-07-21T08:53:35Z</time>
      </trkpt>
      <trkpt lat="45.97152" lon="4.79255">
        <ele>205</ele>
        <time>2017-07-21T08:53:36Z</time>
      </trkpt>
      <trkpt lat="45.97154" lon="4.79261">
        <ele>205</ele>
        <time>2017-07-21T08:53:37Z</time>
      </trkpt>
      <trkpt lat="45.97158" lon="4.79271">
        <ele>204</ele>
        <time>2017-07-21T08:53:39Z</time>
      </trkpt>
      <trkpt lat="45.9716" lon="4.79277">
        <ele>204</ele>
        <time>2017-07-21T08:53:40Z</time>
      </trkpt>
      <trkpt lat="45.97164" lon="4.79288">
        <ele>204</ele>
        <time>2017-07-21T08:53:42Z</time>
      </trkpt>
      <trkpt lat="45.97167" lon="4.79296">
        <ele>204</ele>
        <time>2017-07-21T08:53:43Z</time>
      </trkpt>
      <trkpt lat="45.9717" lon="4.79302">
        <ele>207</ele>
        <time>2017-07-21T08:53:44Z</time>
      </trkpt>
      <trkpt lat="45.97173" lon="4.79308">
        <ele>207</ele>
        <time>2017-07-21T08:53:45Z</time>
      </trkpt>
      <trkpt lat="45.97175" lon="4.79315">
        <ele>207</ele>
        <time>2017-07-21T08:53:46Z</time>
      </trkpt>
      <trkpt lat="45.97178" lon="4.79321">
        <ele>207</ele>
        <time>2017-07-21T08:53:47Z</time>
      </trkpt>
      <trkpt lat="45.97182" lon="4.79327">
        <ele>207</ele>
        <time>2017-07-21T08:53:48Z</time>
      </trkpt>
      <trkpt lat="45.97183" lon="4.79333">
        <ele>207</ele>
        <time>2017-07-21T08:53:49Z</time>
      </trkpt>
      <trkpt lat="45.97188" lon="4.79343">
        <ele>207</ele>
        <time>2017-07-21T08:53:51Z</time>
      </trkpt>
      <trkpt lat="45.97189" lon="4.79348">
        <ele>207</ele>
        <time>2017-07-21T08:53:52Z</time>
      </trkpt>
      <trkpt lat="45.97191" lon="4.79353">
        <ele>207</ele>
        <time>2017-07-21T08:53:53Z</time>
      </trkpt>
      <trkpt lat="45.97194" lon="4.79359">
        <ele>207</ele>
        <time>2017-07-21T08:53:54Z</time>
      </trkpt>
      <trkpt lat="45.97196" lon="4.79366">
        <ele>207</ele>
        <time>2017-07-21T08:53:55Z</time>
      </trkpt>
      <trkpt lat="45.97198" lon="4.79372">
        <ele>207</ele>
        <time>2017-07-21T08:53:56Z</time>
      </trkpt>
      <trkpt lat="45.97201" lon="4.79379">
        <ele>207</ele>
        <time>2017-07-21T08:53:57Z</time>
      </trkpt>
      <trkpt lat="45.97204" lon="4.79384">
        <ele>208</ele>
        <time>2017-07-21T08:53:58Z</time>
      </trkpt>
      <trkpt lat="45.97207" lon="4.7939">
        <ele>208</ele>
        <time>2017-07-21T08:53:59Z</time>
      </trkpt>
      <trkpt lat="45.97209" lon="4.79396">
        <ele>208</ele>
        <time>2017-07-21T08:54:00Z</time>
      </trkpt>
      <trkpt lat="45.97211" lon="4.79402">
        <ele>208</ele>
        <time>2017-07-21T08:54:01Z</time>
      </trkpt>
      <trkpt lat="45.97213" lon="4.79408">
        <ele>208</ele>
        <time>2017-07-21T08:54:02Z</time>
      </trkpt>
      <trkpt lat="45.97218" lon="4.79418">
        <ele>208</ele>
        <time>2017-07-21T08:54:04Z</time>
      </trkpt>
      <trkpt lat="45.9722" lon="4.79423">
        <ele>208</ele>
        <time>2017-07-21T08:54:05Z</time>
      </trkpt>
      <trkpt lat="45.97224" lon="4.79433">
        <ele>209</ele>
        <time>2017-07-21T08:54:07Z</time>
      </trkpt>
      <trkpt lat="45.97226" lon="4.79439">
        <ele>209</ele>
        <time>2017-07-21T08:54:08Z</time>
      </trkpt>
      <trkpt lat="45.97228" lon="4.79445">
        <ele>209</ele>
        <time>2017-07-21T08:54:09Z</time>
      </trkpt>
      <trkpt lat="45.97231" lon="4.79452">
        <ele>209</ele>
        <time>2017-07-21T08:54:10Z</time>
      </trkpt>
      <trkpt lat="45.97233" lon="4.79459">
        <ele>209</ele>
        <time>2017-07-21T08:54:11Z</time>
      </trkpt>
      <trkpt lat="45.97235" lon="4.79465">
        <ele>209</ele>
        <time>2017-07-21T08:54:12Z</time>
      </trkpt>
      <trkpt lat="45.97239" lon="4.7947">
        <ele>209</ele>
        <time>2017-07-21T08:54:13Z</time>
      </trkpt>
      <trkpt lat="45.97241" lon="4.79474">
        <ele>209</ele>
        <time>2017-07-21T08:54:14Z</time>
      </trkpt>
      <trkpt lat="45.97246" lon="4.79484">
        <ele>210</ele>
        <time>2017-07-21T08:54:16Z</time>
      </trkpt>
      <trkpt lat="45.97248" lon="4.79489">
        <ele>210</ele>
        <time>2017-07-21T08:54:17Z</time>
      </trkpt>
      <trkpt lat="45.97247" lon="4.795">
        <ele>211</ele>
        <time>2017-07-21T08:54:19Z</time>
      </trkpt>
      <trkpt lat="45.97248" lon="4.79506">
        <ele>211</ele>
        <time>2017-07-21T08:54:20Z</time>
      </trkpt>
      <trkpt lat="45.97249" lon="4.79513">
        <ele>210</ele>
        <time>2017-07-21T08:54:21Z</time>
      </trkpt>
      <trkpt lat="45.9725" lon="4.7952">
        <ele>213</ele>
        <time>2017-07-21T08:54:22Z</time>
      </trkpt>
      <trkpt lat="45.97251" lon="4.79527">
        <ele>214</ele>
        <time>2017-07-21T08:54:23Z</time>
      </trkpt>
      <trkpt lat="45.97252" lon="4.79534">
        <ele>214</ele>
        <time>2017-07-21T08:54:24Z</time>
      </trkpt>
      <trkpt lat="45.97253" lon="4.79546">
        <ele>214</ele>
        <time>2017-07-21T08:54:26Z</time>
      </trkpt>
      <trkpt lat="45.97254" lon="4.79552">
        <ele>214</ele>
        <time>2017-07-21T08:54:27Z</time>
      </trkpt>
      <trkpt lat="45.97255" lon="4.79563">
        <ele>213</ele>
        <time>2017-07-21T08:54:29Z</time>
      </trkpt>
      <trkpt lat="45.97255" lon="4.79568">
        <ele>213</ele>
        <time>2017-07-21T08:54:30Z</time>
      </trkpt>
      <trkpt lat="45.97255" lon="4.79575">
        <ele>212</ele>
        <time>2017-07-21T08:54:31Z</time>
      </trkpt>
      <trkpt lat="45.97256" lon="4.79583">
        <ele>211</ele>
        <time>2017-07-21T08:54:32Z</time>
      </trkpt>
      <trkpt lat="45.97259" lon="4.7959">
        <ele>212</ele>
        <time>2017-07-21T08:54:33Z</time>
      </trkpt>
      <trkpt lat="45.97256" lon="4.79599">
        <ele>212</ele>
        <time>2017-07-21T08:54:34Z</time>
      </trkpt>
      <trkpt lat="45.97255" lon="4.79606">
        <ele>213</ele>
        <time>2017-07-21T08:54:35Z</time>
      </trkpt>
      <trkpt lat="45.97256" lon="4.79613">
        <ele>213</ele>
        <time>2017-07-21T08:54:36Z</time>
      </trkpt>
      <trkpt lat="45.97257" lon="4.7962">
        <ele>213</ele>
        <time>2017-07-21T08:54:37Z</time>
      </trkpt>
      <trkpt lat="45.97258" lon="4.79628">
        <ele>213</ele>
        <time>2017-07-21T08:54:38Z</time>
      </trkpt>
      <trkpt lat="45.97261" lon="4.79634">
        <ele>213</ele>
        <time>2017-07-21T08:54:39Z</time>
      </trkpt>
      <trkpt lat="45.97266" lon="4.7964">
        <ele>213</ele>
        <time>2017-07-21T08:54:40Z</time>
      </trkpt>
      <trkpt lat="45.97271" lon="4.79649">
        <ele>213</ele>
        <time>2017-07-21T08:54:41Z</time>
      </trkpt>
      <trkpt lat="45.97273" lon="4.79656">
        <ele>213</ele>
        <time>2017-07-21T08:54:42Z</time>
      </trkpt>
      <trkpt lat="45.97243" lon="4.79649">
        <ele>208</ele>
        <time>2017-07-21T08:54:43Z</time>
      </trkpt>
      <trkpt lat="45.97237" lon="4.79657">
        <ele>208</ele>
        <time>2017-07-21T08:54:46Z</time>
      </trkpt>
      <trkpt lat="45.97238" lon="4.79665">
        <ele>208</ele>
        <time>2017-07-21T08:54:47Z</time>
      </trkpt>
      <trkpt lat="45.97239" lon="4.79673">
        <ele>208</ele>
        <time>2017-07-21T08:54:48Z</time>
      </trkpt>
      <trkpt lat="45.97239" lon="4.79681">
        <ele>208</ele>
        <time>2017-07-21T08:54:49Z</time>
      </trkpt>
      <trkpt lat="45.9724" lon="4.79688">
        <ele>208</ele>
        <time>2017-07-21T08:54:50Z</time>
      </trkpt>
      <trkpt lat="45.9724" lon="4.79694">
        <ele>208</ele>
        <time>2017-07-21T08:54:51Z</time>
      </trkpt>
      <trkpt lat="45.9724" lon="4.79706">
        <ele>208</ele>
        <time>2017-07-21T08:54:53Z</time>
      </trkpt>
      <trkpt lat="45.9724" lon="4.7971">
        <ele>209</ele>
        <time>2017-07-21T08:54:54Z</time>
      </trkpt>
      <trkpt lat="45.97239" lon="4.79717">
        <ele>209</ele>
        <time>2017-07-21T08:54:55Z</time>
      </trkpt>
      <trkpt lat="45.97239" lon="4.79724">
        <ele>209</ele>
        <time>2017-07-21T08:54:56Z</time>
      </trkpt>
      <trkpt lat="45.97239" lon="4.7973">
        <ele>209</ele>
        <time>2017-07-21T08:54:57Z</time>
      </trkpt>
      <trkpt lat="45.97239" lon="4.79738">
        <ele>209</ele>
        <time>2017-07-21T08:54:58Z</time>
      </trkpt>
      <trkpt lat="45.97238" lon="4.79745">
        <ele>209</ele>
        <time>2017-07-21T08:54:59Z</time>
      </trkpt>
      <trkpt lat="45.97237" lon="4.79752">
        <ele>209</ele>
        <time>2017-07-21T08:55:00Z</time>
      </trkpt>
      <trkpt lat="45.97237" lon="4.79763">
        <ele>209</ele>
        <time>2017-07-21T08:55:02Z</time>
      </trkpt>
      <trkpt lat="45.97237" lon="4.79769">
        <ele>210</ele>
        <time>2017-07-21T08:55:03Z</time>
      </trkpt>
      <trkpt lat="45.97237" lon="4.79782">
        <ele>210</ele>
        <time>2017-07-21T08:55:05Z</time>
      </trkpt>
      <trkpt lat="45.97238" lon="4.79788">
        <ele>210</ele>
        <time>2017-07-21T08:55:06Z</time>
      </trkpt>
      <trkpt lat="45.97238" lon="4.79795">
        <ele>210</ele>
        <time>2017-07-21T08:55:07Z</time>
      </trkpt>
      <trkpt lat="45.97238" lon="4.79802">
        <ele>210</ele>
        <time>2017-07-21T08:55:08Z</time>
      </trkpt>
      <trkpt lat="45.9724" lon="4.79813">
        <ele>211</ele>
        <time>2017-07-21T08:55:10Z</time>
      </trkpt>
      <trkpt lat="45.97241" lon="4.79818">
        <ele>211</ele>
        <time>2017-07-21T08:55:11Z</time>
      </trkpt>
      <trkpt lat="45.97241" lon="4.79825">
        <ele>211</ele>
        <time>2017-07-21T08:55:12Z</time>
      </trkpt>
      <trkpt lat="45.97241" lon="4.79831">
        <ele>211</ele>
        <time>2017-07-21T08:55:13Z</time>
      </trkpt>
      <trkpt lat="45.97242" lon="4.79843">
        <ele>211</ele>
        <time>2017-07-21T08:55:15Z</time>
      </trkpt>
      <trkpt lat="45.97244" lon="4.79849">
        <ele>211</ele>
        <time>2017-07-21T08:55:16Z</time>
      </trkpt>
      <trkpt lat="45.97244" lon="4.79855">
        <ele>211</ele>
        <time>2017-07-21T08:55:17Z</time>
      </trkpt>
      <trkpt lat="45.97246" lon="4.79862">
        <ele>211</ele>
        <time>2017-07-21T08:55:18Z</time>
      </trkpt>
      <trkpt lat="45.97249" lon="4.79869">
        <ele>211</ele>
        <time>2017-07-21T08:55:19Z</time>
      </trkpt>
      <trkpt lat="45.97251" lon="4.79875">
        <ele>213</ele>
        <time>2017-07-21T08:55:20Z</time>
      </trkpt>
      <trkpt lat="45.97255" lon="4.79885">
        <ele>213</ele>
        <time>2017-07-21T08:55:22Z</time>
      </trkpt>
      <trkpt lat="45.97256" lon="4.79889">
        <ele>213</ele>
        <time>2017-07-21T08:55:23Z</time>
      </trkpt>
      <trkpt lat="45.97256" lon="4.79901">
        <ele>213</ele>
        <time>2017-07-21T08:55:26Z</time>
      </trkpt>
      <trkpt lat="45.97255" lon="4.79903">
        <ele>213</ele>
        <time>2017-07-21T08:55:27Z</time>
      </trkpt>
      <trkpt lat="45.97259" lon="4.79911">
        <ele>213</ele>
        <time>2017-07-21T08:55:30Z</time>
      </trkpt>
      <trkpt lat="45.97259" lon="4.79916">
        <ele>212</ele>
        <time>2017-07-21T08:55:31Z</time>
      </trkpt>
      <trkpt lat="45.97265" lon="4.79923">
        <ele>212</ele>
        <time>2017-07-21T08:55:34Z</time>
      </trkpt>
      <trkpt lat="45.97267" lon="4.79923">
        <ele>212</ele>
        <time>2017-07-21T08:55:35Z</time>
      </trkpt>
      <trkpt lat="45.97271" lon="4.79916">
        <ele>213</ele>
        <time>2017-07-21T08:55:38Z</time>
      </trkpt>
      <trkpt lat="45.97274" lon="4.79913">
        <ele>213</ele>
        <time>2017-07-21T08:55:39Z</time>
      </trkpt>
      <trkpt lat="45.97278" lon="4.79909">
        <ele>213</ele>
        <time>2017-07-21T08:55:41Z</time>
      </trkpt>
      <trkpt lat="45.97284" lon="4.79912">
        <ele>213</ele>
        <time>2017-07-21T08:55:42Z</time>
      </trkpt>
      <trkpt lat="45.9729" lon="4.79917">
        <ele>213</ele>
        <time>2017-07-21T08:55:43Z</time>
      </trkpt>
      <trkpt lat="45.97295" lon="4.7992">
        <ele>212</ele>
        <time>2017-07-21T08:55:44Z</time>
      </trkpt>
      <trkpt lat="45.97299" lon="4.79921">
        <ele>212</ele>
        <time>2017-07-21T08:55:45Z</time>
      </trkpt>
      <trkpt lat="45.97304" lon="4.79921">
        <ele>212</ele>
        <time>2017-07-21T08:55:46Z</time>
      </trkpt>
      <trkpt lat="45.97309" lon="4.7992">
        <ele>212</ele>
        <time>2017-07-21T08:55:47Z</time>
      </trkpt>
      <trkpt lat="45.97314" lon="4.79919">
        <ele>212</ele>
        <time>2017-07-21T08:55:48Z</time>
      </trkpt>
      <trkpt lat="45.97318" lon="4.79919">
        <ele>212</ele>
        <time>2017-07-21T08:55:49Z</time>
      </trkpt>
      <trkpt lat="45.97323" lon="4.79919">
        <ele>212</ele>
        <time>2017-07-21T08:55:50Z</time>
      </trkpt>
      <trkpt lat="45.97331" lon="4.79917">
        <ele>213</ele>
        <time>2017-07-21T08:55:52Z</time>
      </trkpt>
      <trkpt lat="45.97335" lon="4.79917">
        <ele>213</ele>
        <time>2017-07-21T08:55:53Z</time>
      </trkpt>
      <trkpt lat="45.97342" lon="4.79918">
        <ele>213</ele>
        <time>2017-07-21T08:55:55Z</time>
      </trkpt>
      <trkpt lat="45.97346" lon="4.79917">
        <ele>213</ele>
        <time>2017-07-21T08:55:56Z</time>
      </trkpt>
      <trkpt lat="45.9735" lon="4.79917">
        <ele>213</ele>
        <time>2017-07-21T08:55:57Z</time>
      </trkpt>
      <trkpt lat="45.97355" lon="4.79916">
        <ele>216</ele>
        <time>2017-07-21T08:55:58Z</time>
      </trkpt>
      <trkpt lat="45.97362" lon="4.79912">
        <ele>216</ele>
        <time>2017-07-21T08:56:00Z</time>
      </trkpt>
      <trkpt lat="45.97366" lon="4.79909">
        <ele>216</ele>
        <time>2017-07-21T08:56:01Z</time>
      </trkpt>
      <trkpt lat="45.97374" lon="4.79905">
        <ele>217</ele>
        <time>2017-07-21T08:56:03Z</time>
      </trkpt>
      <trkpt lat="45.97376" lon="4.79905">
        <ele>217</ele>
        <time>2017-07-21T08:56:04Z</time>
      </trkpt>
      <trkpt lat="45.97385" lon="4.79903">
        <ele>217</ele>
        <time>2017-07-21T08:56:07Z</time>
      </trkpt>
      <trkpt lat="45.97389" lon="4.79901">
        <ele>217</ele>
        <time>2017-07-21T08:56:08Z</time>
      </trkpt>
      <trkpt lat="45.97397" lon="4.79902">
        <ele>217</ele>
        <time>2017-07-21T08:56:10Z</time>
      </trkpt>
      <trkpt lat="45.97401" lon="4.79903">
        <ele>217</ele>
        <time>2017-07-21T08:56:11Z</time>
      </trkpt>
      <trkpt lat="45.9741" lon="4.79902">
        <ele>217</ele>
        <time>2017-07-21T08:56:13Z</time>
      </trkpt>
      <trkpt lat="45.97414" lon="4.79901">
        <ele>217</ele>
        <time>2017-07-21T08:56:14Z</time>
      </trkpt>
      <trkpt lat="45.97422" lon="4.79899">
        <ele>219</ele>
        <time>2017-07-21T08:56:16Z</time>
      </trkpt>
      <trkpt lat="45.97427" lon="4.79899">
        <ele>219</ele>
        <time>2017-07-21T08:56:17Z</time>
      </trkpt>
      <trkpt lat="45.97435" lon="4.79898">
        <ele>219</ele>
        <time>2017-07-21T08:56:19Z</time>
      </trkpt>
      <trkpt lat="45.97439" lon="4.79898">
        <ele>220</ele>
        <time>2017-07-21T08:56:20Z</time>
      </trkpt>
      <trkpt lat="45.97444" lon="4.79899">
        <ele>220</ele>
        <time>2017-07-21T08:56:21Z</time>
      </trkpt>
      <trkpt lat="45.97448" lon="4.79899">
        <ele>220</ele>
        <time>2017-07-21T08:56:22Z</time>
      </trkpt>
      <trkpt lat="45.97453" lon="4.79898">
        <ele>220</ele>
        <time>2017-07-21T08:56:23Z</time>
      </trkpt>
      <trkpt lat="45.97457" lon="4.79898">
        <ele>220</ele>
        <time>2017-07-21T08:56:24Z</time>
      </trkpt>
      <trkpt lat="45.97462" lon="4.79898">
        <ele>220</ele>
        <time>2017-07-21T08:56:25Z</time>
      </trkpt>
      <trkpt lat="45.97466" lon="4.79897">
        <ele>220</ele>
        <time>2017-07-21T08:56:26Z</time>
      </trkpt>
      <trkpt lat="45.97471" lon="4.79897">
        <ele>221</ele>
        <time>2017-07-21T08:56:27Z</time>
      </trkpt>
      <trkpt lat="45.97475" lon="4.79896">
        <ele>221</ele>
        <time>2017-07-21T08:56:28Z</time>
      </trkpt>
      <trkpt lat="45.97483" lon="4.79896">
        <ele>221</ele>
        <time>2017-07-21T08:56:30Z</time>
      </trkpt>
      <trkpt lat="45.97486" lon="4.79895">
        <ele>221</ele>
        <time>2017-07-21T08:56:31Z</time>
      </trkpt>
      <trkpt lat="45.97495" lon="4.79893">
        <ele>221</ele>
        <time>2017-07-21T08:56:33Z</time>
      </trkpt>
      <trkpt lat="45.97498" lon="4.79892">
        <ele>221</ele>
        <time>2017-07-21T08:56:34Z</time>
      </trkpt>
      <trkpt lat="45.97504" lon="4.7989">
        <ele>221</ele>
        <time>2017-07-21T08:56:36Z</time>
      </trkpt>
      <trkpt lat="45.97507" lon="4.79891">
        <ele>221</ele>
        <time>2017-07-21T08:56:37Z</time>
      </trkpt>
      <trkpt lat="45.97512" lon="4.79892">
        <ele>221</ele>
        <time>2017-07-21T08:56:39Z</time>
      </trkpt>
      <trkpt lat="45.97517" lon="4.79889">
        <ele>221</ele>
        <time>2017-07-21T08:56:40Z</time>
      </trkpt>
      <trkpt lat="45.97525" lon="4.79887">
        <ele>221</ele>
        <time>2017-07-21T08:56:42Z</time>
      </trkpt>
      <trkpt lat="45.97529" lon="4.79887">
        <ele>221</ele>
        <time>2017-07-21T08:56:43Z</time>
      </trkpt>
      <trkpt lat="45.97536" lon="4.79886">
        <ele>221</ele>
        <time>2017-07-21T08:56:45Z</time>
      </trkpt>
      <trkpt lat="45.9754" lon="4.79885">
        <ele>221</ele>
        <time>2017-07-21T08:56:46Z</time>
      </trkpt>
      <trkpt lat="45.97547" lon="4.79885">
        <ele>221</ele>
        <time>2017-07-21T08:56:48Z</time>
      </trkpt>
      <trkpt lat="45.97551" lon="4.79884">
        <ele>221</ele>
        <time>2017-07-21T08:56:49Z</time>
      </trkpt>
      <trkpt lat="45.9756" lon="4.79882">
        <ele>221</ele>
        <time>2017-07-21T08:56:51Z</time>
      </trkpt>
      <trkpt lat="45.97564" lon="4.79882">
        <ele>221</ele>
        <time>2017-07-21T08:56:52Z</time>
      </trkpt>
      <trkpt lat="45.97572" lon="4.79881">
        <ele>221</ele>
        <time>2017-07-21T08:56:54Z</time>
      </trkpt>
      <trkpt lat="45.97576" lon="4.7988">
        <ele>221</ele>
        <time>2017-07-21T08:56:55Z</time>
      </trkpt>
      <trkpt lat="45.97584" lon="4.79877">
        <ele>220</ele>
        <time>2017-07-21T08:56:57Z</time>
      </trkpt>
      <trkpt lat="45.97588" lon="4.79875">
        <ele>221</ele>
        <time>2017-07-21T08:56:58Z</time>
      </trkpt>
      <trkpt lat="45.97594" lon="4.79872">
        <ele>221</ele>
        <time>2017-07-21T08:57:00Z</time>
      </trkpt>
      <trkpt lat="45.97598" lon="4.79871">
        <ele>221</ele>
        <time>2017-07-21T08:57:01Z</time>
      </trkpt>
      <trkpt lat="45.97604" lon="4.79869">
        <ele>221</ele>
        <time>2017-07-21T08:57:03Z</time>
      </trkpt>
      <trkpt lat="45.97608" lon="4.79868">
        <ele>221</ele>
        <time>2017-07-21T08:57:04Z</time>
      </trkpt>
      <trkpt lat="45.97615" lon="4.79865">
        <ele>221</ele>
        <time>2017-07-21T08:57:06Z</time>
      </trkpt>
      <trkpt lat="45.97619" lon="4.79863">
        <ele>221</ele>
        <time>2017-07-21T08:57:07Z</time>
      </trkpt>
      <trkpt lat="45.97625" lon="4.79861">
        <ele>221</ele>
        <time>2017-07-21T08:57:09Z</time>
      </trkpt>
      <trkpt lat="45.97628" lon="4.79859">
        <ele>221</ele>
        <time>2017-07-21T08:57:10Z</time>
      </trkpt>
      <trkpt lat="45.97634" lon="4.79856">
        <ele>221</ele>
        <time>2017-07-21T08:57:12Z</time>
      </trkpt>
      <trkpt lat="45.97637" lon="4.79855">
        <ele>221</ele>
        <time>2017-07-21T08:57:13Z</time>
      </trkpt>
      <trkpt lat="45.97644" lon="4.79853">
        <ele>221</ele>
        <time>2017-07-21T08:57:15Z</time>
      </trkpt>
      <trkpt lat="45.97647" lon="4.79851">
        <ele>221</ele>
        <time>2017-07-21T08:57:16Z</time>
      </trkpt>
      <trkpt lat="45.97654" lon="4.7985">
        <ele>221</ele>
        <time>2017-07-21T08:57:18Z</time>
      </trkpt>
      <trkpt lat="45.97658" lon="4.79849">
        <ele>221</ele>
        <time>2017-07-21T08:57:19Z</time>
      </trkpt>
      <trkpt lat="45.97666" lon="4.79847">
        <ele>221</ele>
        <time>2017-07-21T08:57:21Z</time>
      </trkpt>
      <trkpt lat="45.9767" lon="4.79846">
        <ele>221</ele>
        <time>2017-07-21T08:57:22Z</time>
      </trkpt>
      <trkpt lat="45.97676" lon="4.79843">
        <ele>221</ele>
        <time>2017-07-21T08:57:24Z</time>
      </trkpt>
      <trkpt lat="45.9768" lon="4.79842">
        <ele>221</ele>
        <time>2017-07-21T08:57:25Z</time>
      </trkpt>
      <trkpt lat="45.97687" lon="4.7984">
        <ele>221</ele>
        <time>2017-07-21T08:57:27Z</time>
      </trkpt>
      <trkpt lat="45.9769" lon="4.79839">
        <ele>220</ele>
        <time>2017-07-21T08:57:28Z</time>
      </trkpt>
      <trkpt lat="45.97697" lon="4.79838">
        <ele>220</ele>
        <time>2017-07-21T08:57:30Z</time>
      </trkpt>
      <trkpt lat="45.97701" lon="4.79837">
        <ele>220</ele>
        <time>2017-07-21T08:57:31Z</time>
      </trkpt>
      <trkpt lat="45.9771" lon="4.79836">
        <ele>220</ele>
        <time>2017-07-21T08:57:33Z</time>
      </trkpt>
      <trkpt lat="45.97713" lon="4.79835">
        <ele>220</ele>
        <time>2017-07-21T08:57:34Z</time>
      </trkpt>
      <trkpt lat="45.97721" lon="4.79831">
        <ele>223</ele>
        <time>2017-07-21T08:57:36Z</time>
      </trkpt>
      <trkpt lat="45.97725" lon="4.7983">
        <ele>223</ele>
        <time>2017-07-21T08:57:37Z</time>
      </trkpt>
      <trkpt lat="45.97733" lon="4.79828">
        <ele>223</ele>
        <time>2017-07-21T08:57:39Z</time>
      </trkpt>
      <trkpt lat="45.97738" lon="4.79827">
        <ele>223</ele>
        <time>2017-07-21T08:57:40Z</time>
      </trkpt>
      <trkpt lat="45.97747" lon="4.79825">
        <ele>222</ele>
        <time>2017-07-21T08:57:42Z</time>
      </trkpt>
      <trkpt lat="45.97751" lon="4.79825">
        <ele>222</ele>
        <time>2017-07-21T08:57:43Z</time>
      </trkpt>
      <trkpt lat="45.97756" lon="4.79824">
        <ele>222</ele>
        <time>2017-07-21T08:57:44Z</time>
      </trkpt>
      <trkpt lat="45.9776" lon="4.79823">
        <ele>223</ele>
        <time>2017-07-21T08:57:45Z</time>
      </trkpt>
      <trkpt lat="45.97765" lon="4.79823">
        <ele>223</ele>
        <time>2017-07-21T08:57:46Z</time>
      </trkpt>
      <trkpt lat="45.97769" lon="4.79822">
        <ele>223</ele>
        <time>2017-07-21T08:57:47Z</time>
      </trkpt>
      <trkpt lat="45.97778" lon="4.79821">
        <ele>223</ele>
        <time>2017-07-21T08:57:49Z</time>
      </trkpt>
      <trkpt lat="45.97782" lon="4.7982">
        <ele>223</ele>
        <time>2017-07-21T08:57:50Z</time>
      </trkpt>
      <trkpt lat="45.97791" lon="4.79818">
        <ele>223</ele>
        <time>2017-07-21T08:57:52Z</time>
      </trkpt>
      <trkpt lat="45.97795" lon="4.79818">
        <ele>223</ele>
        <time>2017-07-21T08:57:53Z</time>
      </trkpt>
      <trkpt lat="45.978" lon="4.79817">
        <ele>223</ele>
        <time>2017-07-21T08:57:54Z</time>
      </trkpt>
      <trkpt lat="45.97804" lon="4.79816">
        <ele>223</ele>
        <time>2017-07-21T08:57:55Z</time>
      </trkpt>
      <trkpt lat="45.97813" lon="4.79814">
        <ele>223</ele>
        <time>2017-07-21T08:57:57Z</time>
      </trkpt>
      <trkpt lat="45.97817" lon="4.79813">
        <ele>223</ele>
        <time>2017-07-21T08:57:58Z</time>
      </trkpt>
      <trkpt lat="45.97825" lon="4.79812">
        <ele>223</ele>
        <time>2017-07-21T08:58:00Z</time>
      </trkpt>
      <trkpt lat="45.97828" lon="4.79811">
        <ele>223</ele>
        <time>2017-07-21T08:58:01Z</time>
      </trkpt>
      <trkpt lat="45.97832" lon="4.79811">
        <ele>223</ele>
        <time>2017-07-21T08:58:02Z</time>
      </trkpt>
      <trkpt lat="45.97837" lon="4.79805">
        <ele>224</ele>
        <time>2017-07-21T08:58:03Z</time>
      </trkpt>
      <trkpt lat="45.97845" lon="4.79803">
        <ele>224</ele>
        <time>2017-07-21T08:58:06Z</time>
      </trkpt>
      <trkpt lat="45.97848" lon="4.79803">
        <ele>224</ele>
        <time>2017-07-21T08:58:07Z</time>
      </trkpt>
      <trkpt lat="45.97854" lon="4.79803">
        <ele>224</ele>
        <time>2017-07-21T08:58:09Z</time>
      </trkpt>
      <trkpt lat="45.97859" lon="4.79803">
        <ele>224</ele>
        <time>2017-07-21T08:58:10Z</time>
      </trkpt>
      <trkpt lat="45.97864" lon="4.79802">
        <ele>224</ele>
        <time>2017-07-21T08:58:11Z</time>
      </trkpt>
      <trkpt lat="45.97868" lon="4.79801">
        <ele>224</ele>
        <time>2017-07-21T08:58:12Z</time>
      </trkpt>
      <trkpt lat="45.97873" lon="4.798">
        <ele>224</ele>
        <time>2017-07-21T08:58:13Z</time>
      </trkpt>
      <trkpt lat="45.97878" lon="4.798">
        <ele>224</ele>
        <time>2017-07-21T08:58:14Z</time>
      </trkpt>
      <trkpt lat="45.97882" lon="4.79799">
        <ele>224</ele>
        <time>2017-07-21T08:58:15Z</time>
      </trkpt>
      <trkpt lat="45.97888" lon="4.79801">
        <ele>224</ele>
        <time>2017-07-21T08:58:16Z</time>
      </trkpt>
      <trkpt lat="45.97892" lon="4.798">
        <ele>224</ele>
        <time>2017-07-21T08:58:17Z</time>
      </trkpt>
      <trkpt lat="45.97898" lon="4.798">
        <ele>224</ele>
        <time>2017-07-21T08:58:18Z</time>
      </trkpt>
      <trkpt lat="45.97903" lon="4.79799">
        <ele>224</ele>
        <time>2017-07-21T08:58:19Z</time>
      </trkpt>
      <trkpt lat="45.97908" lon="4.79799">
        <ele>224</ele>
        <time>2017-07-21T08:58:20Z</time>
      </trkpt>
      <trkpt lat="45.97916" lon="4.79798">
        <ele>224</ele>
        <time>2017-07-21T08:58:22Z</time>
      </trkpt>
      <trkpt lat="45.9792" lon="4.79798">
        <ele>224</ele>
        <time>2017-07-21T08:58:23Z</time>
      </trkpt>
      <trkpt lat="45.97929" lon="4.79797">
        <ele>224</ele>
        <time>2017-07-21T08:58:25Z</time>
      </trkpt>
      <trkpt lat="45.97933" lon="4.79797">
        <ele>224</ele>
        <time>2017-07-21T08:58:26Z</time>
      </trkpt>
      <trkpt lat="45.97942" lon="4.79797">
        <ele>224</ele>
        <time>2017-07-21T08:58:28Z</time>
      </trkpt>
      <trkpt lat="45.97946" lon="4.79797">
        <ele>224</ele>
        <time>2017-07-21T08:58:29Z</time>
      </trkpt>
      <trkpt lat="45.97954" lon="4.79795">
        <ele>224</ele>
        <time>2017-07-21T08:58:31Z</time>
      </trkpt>
      <trkpt lat="45.97958" lon="4.79796">
        <ele>224</ele>
        <time>2017-07-21T08:58:32Z</time>
      </trkpt>
      <trkpt lat="45.97963" lon="4.79795">
        <ele>224</ele>
        <time>2017-07-21T08:58:33Z</time>
      </trkpt>
      <trkpt lat="45.97968" lon="4.79793">
        <ele>224</ele>
        <time>2017-07-21T08:58:34Z</time>
      </trkpt>
      <trkpt lat="45.97973" lon="4.79792">
        <ele>224</ele>
        <time>2017-07-21T08:58:35Z</time>
      </trkpt>
      <trkpt lat="45.97978" lon="4.79792">
        <ele>224</ele>
        <time>2017-07-21T08:58:36Z</time>
      </trkpt>
      <trkpt lat="45.97983" lon="4.79791">
        <ele>224</ele>
        <time>2017-07-21T08:58:37Z</time>
      </trkpt>
      <trkpt lat="45.97988" lon="4.79789">
        <ele>224</ele>
        <time>2017-07-21T08:58:38Z</time>
      </trkpt>
      <trkpt lat="45.97996" lon="4.79787">
        <ele>224</ele>
        <time>2017-07-21T08:58:40Z</time>
      </trkpt>
      <trkpt lat="45.98" lon="4.79787">
        <ele>224</ele>
        <time>2017-07-21T08:58:41Z</time>
      </trkpt>
      <trkpt lat="45.98005" lon="4.79785">
        <ele>223</ele>
        <time>2017-07-21T08:58:42Z</time>
      </trkpt>
      <trkpt lat="45.98009" lon="4.79785">
        <ele>223</ele>
        <time>2017-07-21T08:58:43Z</time>
      </trkpt>
      <trkpt lat="45.98014" lon="4.79784">
        <ele>223</ele>
        <time>2017-07-21T08:58:44Z</time>
      </trkpt>
      <trkpt lat="45.98019" lon="4.79783">
        <ele>223</ele>
        <time>2017-07-21T08:58:45Z</time>
      </trkpt>
      <trkpt lat="45.98024" lon="4.79782">
        <ele>223</ele>
        <time>2017-07-21T08:58:46Z</time>
      </trkpt>
      <trkpt lat="45.9803" lon="4.79782">
        <ele>223</ele>
        <time>2017-07-21T08:58:47Z</time>
      </trkpt>
      <trkpt lat="45.98034" lon="4.79781">
        <ele>223</ele>
        <time>2017-07-21T08:58:48Z</time>
      </trkpt>
      <trkpt lat="45.98039" lon="4.79779">
        <ele>223</ele>
        <time>2017-07-21T08:58:49Z</time>
      </trkpt>
      <trkpt lat="45.98044" lon="4.79778">
        <ele>223</ele>
        <time>2017-07-21T08:58:50Z</time>
      </trkpt>
      <trkpt lat="45.98049" lon="4.79777">
        <ele>223</ele>
        <time>2017-07-21T08:58:51Z</time>
      </trkpt>
      <trkpt lat="45.98054" lon="4.79777">
        <ele>223</ele>
        <time>2017-07-21T08:58:52Z</time>
      </trkpt>
      <trkpt lat="45.98058" lon="4.79776">
        <ele>223</ele>
        <time>2017-07-21T08:58:53Z</time>
      </trkpt>
      <trkpt lat="45.98063" lon="4.79775">
        <ele>223</ele>
        <time>2017-07-21T08:58:54Z</time>
      </trkpt>
      <trkpt lat="45.98067" lon="4.79775">
        <ele>223</ele>
        <time>2017-07-21T08:58:55Z</time>
      </trkpt>
      <trkpt lat="45.98072" lon="4.79774">
        <ele>223</ele>
        <time>2017-07-21T08:58:56Z</time>
      </trkpt>
      <trkpt lat="45.98076" lon="4.79773">
        <ele>223</ele>
        <time>2017-07-21T08:58:57Z</time>
      </trkpt>
      <trkpt lat="45.98081" lon="4.79772">
        <ele>223</ele>
        <time>2017-07-21T08:58:58Z</time>
      </trkpt>
      <trkpt lat="45.98086" lon="4.79771">
        <ele>223</ele>
        <time>2017-07-21T08:58:59Z</time>
      </trkpt>
      <trkpt lat="45.98095" lon="4.7977">
        <ele>223</ele>
        <time>2017-07-21T08:59:01Z</time>
      </trkpt>
      <trkpt lat="45.98099" lon="4.7977">
        <ele>223</ele>
        <time>2017-07-21T08:59:02Z</time>
      </trkpt>
      <trkpt lat="45.98107" lon="4.79769">
        <ele>224</ele>
        <time>2017-07-21T08:59:04Z</time>
      </trkpt>
      <trkpt lat="45.98111" lon="4.79768">
        <ele>224</ele>
        <time>2017-07-21T08:59:05Z</time>
      </trkpt>
      <trkpt lat="45.98119" lon="4.79767">
        <ele>224</ele>
        <time>2017-07-21T08:59:07Z</time>
      </trkpt>
      <trkpt lat="45.98123" lon="4.79766">
        <ele>224</ele>
        <time>2017-07-21T08:59:08Z</time>
      </trkpt>
      <trkpt lat="45.98128" lon="4.79766">
        <ele>224</ele>
        <time>2017-07-21T08:59:09Z</time>
      </trkpt>
      <trkpt lat="45.98133" lon="4.79765">
        <ele>224</ele>
        <time>2017-07-21T08:59:10Z</time>
      </trkpt>
      <trkpt lat="45.98137" lon="4.79765">
        <ele>224</ele>
        <time>2017-07-21T08:59:11Z</time>
      </trkpt>
      <trkpt lat="45.98142" lon="4.79764">
        <ele>224</ele>
        <time>2017-07-21T08:59:12Z</time>
      </trkpt>
      <trkpt lat="45.98147" lon="4.79764">
        <ele>225</ele>
        <time>2017-07-21T08:59:13Z</time>
      </trkpt>
      <trkpt lat="45.98152" lon="4.79763">
        <ele>225</ele>
        <time>2017-07-21T08:59:14Z</time>
      </trkpt>
      <trkpt lat="45.9816" lon="4.79763">
        <ele>225</ele>
        <time>2017-07-21T08:59:16Z</time>
      </trkpt>
      <trkpt lat="45.98162" lon="4.79766">
        <ele>225</ele>
        <time>2017-07-21T08:59:17Z</time>
      </trkpt>
      <trkpt lat="45.98169" lon="4.79772">
        <ele>226</ele>
        <time>2017-07-21T08:59:19Z</time>
      </trkpt>
      <trkpt lat="45.98174" lon="4.79773">
        <ele>226</ele>
        <time>2017-07-21T08:59:20Z</time>
      </trkpt>
      <trkpt lat="45.98179" lon="4.79775">
        <ele>226</ele>
        <time>2017-07-21T08:59:21Z</time>
      </trkpt>
      <trkpt lat="45.98183" lon="4.79776">
        <ele>226</ele>
        <time>2017-07-21T08:59:22Z</time>
      </trkpt>
      <trkpt lat="45.98187" lon="4.79784">
        <ele>226</ele>
        <time>2017-07-21T08:59:24Z</time>
      </trkpt>
      <trkpt lat="45.98188" lon="4.7979">
        <ele>226</ele>
        <time>2017-07-21T08:59:25Z</time>
      </trkpt>
      <trkpt lat="45.98192" lon="4.79801">
        <ele>226</ele>
        <time>2017-07-21T08:59:27Z</time>
      </trkpt>
      <trkpt lat="45.98194" lon="4.79807">
        <ele>226</ele>
        <time>2017-07-21T08:59:28Z</time>
      </trkpt>
      <trkpt lat="45.98196" lon="4.79814">
        <ele>226</ele>
        <time>2017-07-21T08:59:29Z</time>
      </trkpt>
      <trkpt lat="45.98198" lon="4.79821">
        <ele>225</ele>
        <time>2017-07-21T08:59:30Z</time>
      </trkpt>
      <trkpt lat="45.982" lon="4.79829">
        <ele>225</ele>
        <time>2017-07-21T08:59:31Z</time>
      </trkpt>
      <trkpt lat="45.98203" lon="4.79837">
        <ele>225</ele>
        <time>2017-07-21T08:59:32Z</time>
      </trkpt>
      <trkpt lat="45.98206" lon="4.79844">
        <ele>225</ele>
        <time>2017-07-21T08:59:33Z</time>
      </trkpt>
      <trkpt lat="45.98209" lon="4.79852">
        <ele>225</ele>
        <time>2017-07-21T08:59:34Z</time>
      </trkpt>
      <trkpt lat="45.98214" lon="4.79858">
        <ele>225</ele>
        <time>2017-07-21T08:59:35Z</time>
      </trkpt>
      <trkpt lat="45.98219" lon="4.79866">
        <ele>225</ele>
        <time>2017-07-21T08:59:36Z</time>
      </trkpt>
      <trkpt lat="45.98224" lon="4.79874">
        <ele>225</ele>
        <time>2017-07-21T08:59:37Z</time>
      </trkpt>
      <trkpt lat="45.98227" lon="4.79881">
        <ele>225</ele>
        <time>2017-07-21T08:59:38Z</time>
      </trkpt>
      <trkpt lat="45.98229" lon="4.79889">
        <ele>225</ele>
        <time>2017-07-21T08:59:39Z</time>
      </trkpt>
      <trkpt lat="45.98232" lon="4.79896">
        <ele>225</ele>
        <time>2017-07-21T08:59:40Z</time>
      </trkpt>
      <trkpt lat="45.98234" lon="4.79903">
        <ele>225</ele>
        <time>2017-07-21T08:59:41Z</time>
      </trkpt>
      <trkpt lat="45.98236" lon="4.79911">
        <ele>225</ele>
        <time>2017-07-21T08:59:42Z</time>
      </trkpt>
      <trkpt lat="45.98239" lon="4.79918">
        <ele>226</ele>
        <time>2017-07-21T08:59:43Z</time>
      </trkpt>
      <trkpt lat="45.98242" lon="4.79925">
        <ele>226</ele>
        <time>2017-07-21T08:59:44Z</time>
      </trkpt>
      <trkpt lat="45.98244" lon="4.79931">
        <ele>225</ele>
        <time>2017-07-21T08:59:45Z</time>
      </trkpt>
      <trkpt lat="45.98247" lon="4.79937">
        <ele>225</ele>
        <time>2017-07-21T08:59:46Z</time>
      </trkpt>
      <trkpt lat="45.9825" lon="4.79943">
        <ele>225</ele>
        <time>2017-07-21T08:59:47Z</time>
      </trkpt>
      <trkpt lat="45.98252" lon="4.79949">
        <ele>228</ele>
        <time>2017-07-21T08:59:48Z</time>
      </trkpt>
      <trkpt lat="45.98256" lon="4.7996">
        <ele>228</ele>
        <time>2017-07-21T08:59:50Z</time>
      </trkpt>
      <trkpt lat="45.98257" lon="4.79968">
        <ele>228</ele>
        <time>2017-07-21T08:59:51Z</time>
      </trkpt>
      <trkpt lat="45.9826" lon="4.79981">
        <ele>228</ele>
        <time>2017-07-21T08:59:53Z</time>
      </trkpt>
      <trkpt lat="45.98262" lon="4.79988">
        <ele>228</ele>
        <time>2017-07-21T08:59:54Z</time>
      </trkpt>
      <trkpt lat="45.98264" lon="4.79995">
        <ele>228</ele>
        <time>2017-07-21T08:59:55Z</time>
      </trkpt>
      <trkpt lat="45.98266" lon="4.80003">
        <ele>228</ele>
        <time>2017-07-21T08:59:56Z</time>
      </trkpt>
      <trkpt lat="45.98268" lon="4.8001">
        <ele>228</ele>
        <time>2017-07-21T08:59:57Z</time>
      </trkpt>
      <trkpt lat="45.98271" lon="4.80016">
        <ele>228</ele>
        <time>2017-07-21T08:59:58Z</time>
      </trkpt>
      <trkpt lat="45.98273" lon="4.80022">
        <ele>229</ele>
        <time>2017-07-21T08:59:59Z</time>
      </trkpt>
      <trkpt lat="45.98276" lon="4.80028">
        <ele>229</ele>
        <time>2017-07-21T09:00:00Z</time>
      </trkpt>
      <trkpt lat="45.98279" lon="4.80034">
        <ele>229</ele>
        <time>2017-07-21T09:00:01Z</time>
      </trkpt>
      <trkpt lat="45.98281" lon="4.8004">
        <ele>229</ele>
        <time>2017-07-21T09:00:02Z</time>
      </trkpt>
      <trkpt lat="45.98283" lon="4.80046">
        <ele>229</ele>
        <time>2017-07-21T09:00:03Z</time>
      </trkpt>
      <trkpt lat="45.98285" lon="4.80053">
        <ele>229</ele>
        <time>2017-07-21T09:00:04Z</time>
      </trkpt>
      <trkpt lat="45.98288" lon="4.8006">
        <ele>229</ele>
        <time>2017-07-21T09:00:05Z</time>
      </trkpt>
      <trkpt lat="45.9829" lon="4.80067">
        <ele>229</ele>
        <time>2017-07-21T09:00:06Z</time>
      </trkpt>
      <trkpt lat="45.98293" lon="4.80074">
        <ele>229</ele>
        <time>2017-07-21T09:00:07Z</time>
      </trkpt>
      <trkpt lat="45.98294" lon="4.8008">
        <ele>229</ele>
        <time>2017-07-21T09:00:08Z</time>
      </trkpt>
      <trkpt lat="45.98299" lon="4.8009">
        <ele>229</ele>
        <time>2017-07-21T09:00:10Z</time>
      </trkpt>
      <trkpt lat="45.98299" lon="4.80095">
        <ele>229</ele>
        <time>2017-07-21T09:00:11Z</time>
      </trkpt>
      <trkpt lat="45.98302" lon="4.80107">
        <ele>228</ele>
        <time>2017-07-21T09:00:13Z</time>
      </trkpt>
      <trkpt lat="45.98304" lon="4.80113">
        <ele>228</ele>
        <time>2017-07-21T09:00:14Z</time>
      </trkpt>
      <trkpt lat="45.98306" lon="4.80119">
        <ele>228</ele>
        <time>2017-07-21T09:00:15Z</time>
      </trkpt>
      <trkpt lat="45.9831" lon="4.80124">
        <ele>228</ele>
        <time>2017-07-21T09:00:16Z</time>
      </trkpt>
      <trkpt lat="45.98313" lon="4.80136">
        <ele>228</ele>
        <time>2017-07-21T09:00:18Z</time>
      </trkpt>
      <trkpt lat="45.98315" lon="4.80141">
        <ele>228</ele>
        <time>2017-07-21T09:00:19Z</time>
      </trkpt>
      <trkpt lat="45.98316" lon="4.80152">
        <ele>228</ele>
        <time>2017-07-21T09:00:21Z</time>
      </trkpt>
      <trkpt lat="45.98318" lon="4.80157">
        <ele>228</ele>
        <time>2017-07-21T09:00:22Z</time>
      </trkpt>
      <trkpt lat="45.98323" lon="4.80168">
        <ele>227</ele>
        <time>2017-07-21T09:00:24Z</time>
      </trkpt>
      <trkpt lat="45.98325" lon="4.80174">
        <ele>227</ele>
        <time>2017-07-21T09:00:25Z</time>
      </trkpt>
      <trkpt lat="45.98327" lon="4.8018">
        <ele>227</ele>
        <time>2017-07-21T09:00:26Z</time>
      </trkpt>
      <trkpt lat="45.98328" lon="4.80186">
        <ele>227</ele>
        <time>2017-07-21T09:00:27Z</time>
      </trkpt>
      <trkpt lat="45.98332" lon="4.80197">
        <ele>227</ele>
        <time>2017-07-21T09:00:29Z</time>
      </trkpt>
      <trkpt lat="45.98334" lon="4.80202">
        <ele>230</ele>
        <time>2017-07-21T09:00:30Z</time>
      </trkpt>
      <trkpt lat="45.98337" lon="4.80212">
        <ele>230</ele>
        <time>2017-07-21T09:00:32Z</time>
      </trkpt>
      <trkpt lat="45.98337" lon="4.80217">
        <ele>230</ele>
        <time>2017-07-21T09:00:33Z</time>
      </trkpt>
      <trkpt lat="45.98336" lon="4.80228">
        <ele>230</ele>
        <time>2017-07-21T09:00:35Z</time>
      </trkpt>
      <trkpt lat="45.98335" lon="4.80233">
        <ele>230</ele>
        <time>2017-07-21T09:00:36Z</time>
      </trkpt>
      <trkpt lat="45.98332" lon="4.80239">
        <ele>229</ele>
        <time>2017-07-21T09:00:37Z</time>
      </trkpt>
      <trkpt lat="45.98331" lon="4.80245">
        <ele>229</ele>
        <time>2017-07-21T09:00:38Z</time>
      </trkpt>
      <trkpt lat="45.9833" lon="4.80251">
        <ele>229</ele>
        <time>2017-07-21T09:00:39Z</time>
      </trkpt>
      <trkpt lat="45.98328" lon="4.80258">
        <ele>228</ele>
        <time>2017-07-21T09:00:40Z</time>
      </trkpt>
      <trkpt lat="45.98326" lon="4.80265">
        <ele>228</ele>
        <time>2017-07-21T09:00:41Z</time>
      </trkpt>
      <trkpt lat="45.98323" lon="4.80272">
        <ele>227</ele>
        <time>2017-07-21T09:00:42Z</time>
      </trkpt>
      <trkpt lat="45.98321" lon="4.80279">
        <ele>227</ele>
        <time>2017-07-21T09:00:43Z</time>
      </trkpt>
      <trkpt lat="45.98318" lon="4.80288">
        <ele>226</ele>
        <time>2017-07-21T09:00:44Z</time>
      </trkpt>
      <trkpt lat="45.98315" lon="4.80295">
        <ele>226</ele>
        <time>2017-07-21T09:00:45Z</time>
      </trkpt>
      <trkpt lat="45.98313" lon="4.80303">
        <ele>226</ele>
        <time>2017-07-21T09:00:46Z</time>
      </trkpt>
      <trkpt lat="45.98311" lon="4.80312">
        <ele>226</ele>
        <time>2017-07-21T09:00:47Z</time>
      </trkpt>
      <trkpt lat="45.9831" lon="4.80321">
        <ele>226</ele>
        <time>2017-07-21T09:00:48Z</time>
      </trkpt>
      <trkpt lat="45.98308" lon="4.8033">
        <ele>226</ele>
        <time>2017-07-21T09:00:49Z</time>
      </trkpt>
      <trkpt lat="45.98306" lon="4.80339">
        <ele>226</ele>
        <time>2017-07-21T09:00:50Z</time>
      </trkpt>
      <trkpt lat="45.98304" lon="4.80347">
        <ele>225</ele>
        <time>2017-07-21T09:00:51Z</time>
      </trkpt>
      <trkpt lat="45.98302" lon="4.80354">
        <ele>225</ele>
        <time>2017-07-21T09:00:52Z</time>
      </trkpt>
      <trkpt lat="45.983" lon="4.80362">
        <ele>225</ele>
        <time>2017-07-21T09:00:53Z</time>
      </trkpt>
      <trkpt lat="45.98298" lon="4.8037">
        <ele>225</ele>
        <time>2017-07-21T09:00:54Z</time>
      </trkpt>
      <trkpt lat="45.98297" lon="4.80379">
        <ele>225</ele>
        <time>2017-07-21T09:00:55Z</time>
      </trkpt>
      <trkpt lat="45.98295" lon="4.80387">
        <ele>224</ele>
        <time>2017-07-21T09:00:56Z</time>
      </trkpt>
      <trkpt lat="45.98293" lon="4.80396">
        <ele>224</ele>
        <time>2017-07-21T09:00:57Z</time>
      </trkpt>
      <trkpt lat="45.9829" lon="4.80406">
        <ele>224</ele>
        <time>2017-07-21T09:00:58Z</time>
      </trkpt>
      <trkpt lat="45.98288" lon="4.80415">
        <ele>224</ele>
        <time>2017-07-21T09:00:59Z</time>
      </trkpt>
      <trkpt lat="45.98286" lon="4.80424">
        <ele>223</ele>
        <time>2017-07-21T09:01:00Z</time>
      </trkpt>
      <trkpt lat="45.98284" lon="4.80433">
        <ele>223</ele>
        <time>2017-07-21T09:01:01Z</time>
      </trkpt>
      <trkpt lat="45.98283" lon="4.80441">
        <ele>223</ele>
        <time>2017-07-21T09:01:02Z</time>
      </trkpt>
      <trkpt lat="45.98281" lon="4.8045">
        <ele>223</ele>
        <time>2017-07-21T09:01:03Z</time>
      </trkpt>
      <trkpt lat="45.98278" lon="4.80458">
        <ele>223</ele>
        <time>2017-07-21T09:01:04Z</time>
      </trkpt>
      <trkpt lat="45.98275" lon="4.80468">
        <ele>223</ele>
        <time>2017-07-21T09:01:05Z</time>
      </trkpt>
      <trkpt lat="45.98274" lon="4.80477">
        <ele>223</ele>
        <time>2017-07-21T09:01:06Z</time>
      </trkpt>
      <trkpt lat="45.9827" lon="4.80486">
        <ele>223</ele>
        <time>2017-07-21T09:01:07Z</time>
      </trkpt>
      <trkpt lat="45.98267" lon="4.80493">
        <ele>223</ele>
        <time>2017-07-21T09:01:08Z</time>
      </trkpt>
      <trkpt lat="45.98265" lon="4.80501">
        <ele>223</ele>
        <time>2017-07-21T09:01:09Z</time>
      </trkpt>
      <trkpt lat="45.98263" lon="4.80508">
        <ele>223</ele>
        <time>2017-07-21T09:01:10Z</time>
      </trkpt>
      <trkpt lat="45.98262" lon="4.8052">
        <ele>223</ele>
        <time>2017-07-21T09:01:12Z</time>
      </trkpt>
      <trkpt lat="45.9826" lon="4.80525">
        <ele>223</ele>
        <time>2017-07-21T09:01:13Z</time>
      </trkpt>
      <trkpt lat="45.98257" lon="4.80531">
        <ele>224</ele>
        <time>2017-07-21T09:01:14Z</time>
      </trkpt>
      <trkpt lat="45.98254" lon="4.80537">
        <ele>224</ele>
        <time>2017-07-21T09:01:15Z</time>
      </trkpt>
      <trkpt lat="45.9825" lon="4.80548">
        <ele>224</ele>
        <time>2017-07-21T09:01:17Z</time>
      </trkpt>
      <trkpt lat="45.98248" lon="4.80555">
        <ele>223</ele>
        <time>2017-07-21T09:01:18Z</time>
      </trkpt>
      <trkpt lat="45.98246" lon="4.80565">
        <ele>223</ele>
        <time>2017-07-21T09:01:20Z</time>
      </trkpt>
      <trkpt lat="45.98247" lon="4.80569">
        <ele>224</ele>
        <time>2017-07-21T09:01:21Z</time>
      </trkpt>
      <trkpt lat="45.98244" lon="4.8058">
        <ele>224</ele>
        <time>2017-07-21T09:01:23Z</time>
      </trkpt>
      <trkpt lat="45.98244" lon="4.80586">
        <ele>224</ele>
        <time>2017-07-21T09:01:24Z</time>
      </trkpt>
      <trkpt lat="45.9824" lon="4.80595">
        <ele>224</ele>
        <time>2017-07-21T09:01:25Z</time>
      </trkpt>
      <trkpt lat="45.98238" lon="4.80602">
        <ele>224</ele>
        <time>2017-07-21T09:01:26Z</time>
      </trkpt>
      <trkpt lat="45.98236" lon="4.80609">
        <ele>224</ele>
        <time>2017-07-21T09:01:27Z</time>
      </trkpt>
      <trkpt lat="45.98234" lon="4.80615">
        <ele>224</ele>
        <time>2017-07-21T09:01:28Z</time>
      </trkpt>
      <trkpt lat="45.98231" lon="4.80626">
        <ele>224</ele>
        <time>2017-07-21T09:01:30Z</time>
      </trkpt>
      <trkpt lat="45.98229" lon="4.80632">
        <ele>224</ele>
        <time>2017-07-21T09:01:31Z</time>
      </trkpt>
      <trkpt lat="45.98224" lon="4.80642">
        <ele>224</ele>
        <time>2017-07-21T09:01:33Z</time>
      </trkpt>
      <trkpt lat="45.98221" lon="4.80648">
        <ele>224</ele>
        <time>2017-07-21T09:01:34Z</time>
      </trkpt>
      <trkpt lat="45.98218" lon="4.80653">
        <ele>224</ele>
        <time>2017-07-21T09:01:35Z</time>
      </trkpt>
      <trkpt lat="45.98214" lon="4.80658">
        <ele>224</ele>
        <time>2017-07-21T09:01:36Z</time>
      </trkpt>
      <trkpt lat="45.9821" lon="4.80661">
        <ele>224</ele>
        <time>2017-07-21T09:01:37Z</time>
      </trkpt>
      <trkpt lat="45.98206" lon="4.80664">
        <ele>224</ele>
        <time>2017-07-21T09:01:38Z</time>
      </trkpt>
      <trkpt lat="45.982" lon="4.80673">
        <ele>225</ele>
        <time>2017-07-21T09:01:42Z</time>
      </trkpt>
      <trkpt lat="45.98198" lon="4.80675">
        <ele>225</ele>
        <time>2017-07-21T09:01:43Z</time>
      </trkpt>
      <trkpt lat="45.98193" lon="4.80678">
        <ele>225</ele>
        <time>2017-07-21T09:01:44Z</time>
      </trkpt>
      <trkpt lat="45.98187" lon="4.80681">
        <ele>225</ele>
        <time>2017-07-21T09:01:45Z</time>
      </trkpt>
      <trkpt lat="45.98182" lon="4.80682">
        <ele>225</ele>
        <time>2017-07-21T09:01:46Z</time>
      </trkpt>
      <trkpt lat="45.98177" lon="4.80683">
        <ele>225</ele>
        <time>2017-07-21T09:01:47Z</time>
      </trkpt>
      <trkpt lat="45.98171" lon="4.80684">
        <ele>225</ele>
        <time>2017-07-21T09:01:48Z</time>
      </trkpt>
      <trkpt lat="45.98166" lon="4.80684">
        <ele>227</ele>
        <time>2017-07-21T09:01:49Z</time>
      </trkpt>
      <trkpt lat="45.9816" lon="4.80686">
        <ele>227</ele>
        <time>2017-07-21T09:01:50Z</time>
      </trkpt>
      <trkpt lat="45.98155" lon="4.80686">
        <ele>227</ele>
        <time>2017-07-21T09:01:51Z</time>
      </trkpt>
      <trkpt lat="45.9815" lon="4.80687">
        <ele>227</ele>
        <time>2017-07-21T09:01:52Z</time>
      </trkpt>
      <trkpt lat="45.98146" lon="4.80687">
        <ele>228</ele>
        <time>2017-07-21T09:01:53Z</time>
      </trkpt>
      <trkpt lat="45.98137" lon="4.80687">
        <ele>228</ele>
        <time>2017-07-21T09:01:55Z</time>
      </trkpt>
      <trkpt lat="45.98132" lon="4.80687">
        <ele>228</ele>
        <time>2017-07-21T09:01:56Z</time>
      </trkpt>
      <trkpt lat="45.98125" lon="4.80687">
        <ele>228</ele>
        <time>2017-07-21T09:01:58Z</time>
      </trkpt>
      <trkpt lat="45.98121" lon="4.80687">
        <ele>228</ele>
        <time>2017-07-21T09:01:59Z</time>
      </trkpt>
      <trkpt lat="45.98113" lon="4.80688">
        <ele>228</ele>
        <time>2017-07-21T09:02:01Z</time>
      </trkpt>
      <trkpt lat="45.98109" lon="4.80688">
        <ele>228</ele>
        <time>2017-07-21T09:02:02Z</time>
      </trkpt>
      <trkpt lat="45.98103" lon="4.80691">
        <ele>228</ele>
        <time>2017-07-21T09:02:04Z</time>
      </trkpt>
      <trkpt lat="45.981" lon="4.80692">
        <ele>228</ele>
        <time>2017-07-21T09:02:05Z</time>
      </trkpt>
      <trkpt lat="45.98094" lon="4.80691">
        <ele>228</ele>
        <time>2017-07-21T09:02:07Z</time>
      </trkpt>
      <trkpt lat="45.9809" lon="4.80691">
        <ele>228</ele>
        <time>2017-07-21T09:02:08Z</time>
      </trkpt>
      <trkpt lat="45.98083" lon="4.80692">
        <ele>230</ele>
        <time>2017-07-21T09:02:10Z</time>
      </trkpt>
      <trkpt lat="45.98079" lon="4.80692">
        <ele>230</ele>
        <time>2017-07-21T09:02:11Z</time>
      </trkpt>
      <trkpt lat="45.98071" lon="4.80692">
        <ele>230</ele>
        <time>2017-07-21T09:02:13Z</time>
      </trkpt>
      <trkpt lat="45.98068" lon="4.80692">
        <ele>230</ele>
        <time>2017-07-21T09:02:14Z</time>
      </trkpt>
      <trkpt lat="45.98061" lon="4.80693">
        <ele>230</ele>
        <time>2017-07-21T09:02:16Z</time>
      </trkpt>
      <trkpt lat="45.98056" lon="4.80694">
        <ele>230</ele>
        <time>2017-07-21T09:02:17Z</time>
      </trkpt>
      <trkpt lat="45.98049" lon="4.80695">
        <ele>230</ele>
        <time>2017-07-21T09:02:19Z</time>
      </trkpt>
      <trkpt lat="45.98046" lon="4.80695">
        <ele>230</ele>
        <time>2017-07-21T09:02:20Z</time>
      </trkpt>
      <trkpt lat="45.98039" lon="4.80699">
        <ele>230</ele>
        <time>2017-07-21T09:02:22Z</time>
      </trkpt>
      <trkpt lat="45.98038" lon="4.80703">
        <ele>230</ele>
        <time>2017-07-21T09:02:23Z</time>
      </trkpt>
      <trkpt lat="45.98036" lon="4.80713">
        <ele>231</ele>
        <time>2017-07-21T09:02:25Z</time>
      </trkpt>
      <trkpt lat="45.98037" lon="4.80718">
        <ele>231</ele>
        <time>2017-07-21T09:02:26Z</time>
      </trkpt>
      <trkpt lat="45.98039" lon="4.80726">
        <ele>231</ele>
        <time>2017-07-21T09:02:28Z</time>
      </trkpt>
      <trkpt lat="45.98041" lon="4.8073">
        <ele>231</ele>
        <time>2017-07-21T09:02:29Z</time>
      </trkpt>
      <trkpt lat="45.98044" lon="4.80741">
        <ele>231</ele>
        <time>2017-07-21T09:02:32Z</time>
      </trkpt>
      <trkpt lat="45.98044" lon="4.80746">
        <ele>231</ele>
        <time>2017-07-21T09:02:33Z</time>
      </trkpt>
      <trkpt lat="45.98046" lon="4.80754">
        <ele>233</ele>
        <time>2017-07-21T09:02:35Z</time>
      </trkpt>
      <trkpt lat="45.98047" lon="4.80759">
        <ele>233</ele>
        <time>2017-07-21T09:02:36Z</time>
      </trkpt>
      <trkpt lat="45.9805" lon="4.80768">
        <ele>233</ele>
        <time>2017-07-21T09:02:38Z</time>
      </trkpt>
      <trkpt lat="45.98052" lon="4.80772">
        <ele>233</ele>
        <time>2017-07-21T09:02:39Z</time>
      </trkpt>
      <trkpt lat="45.98054" lon="4.80784">
        <ele>233</ele>
        <time>2017-07-21T09:02:42Z</time>
      </trkpt>
      <trkpt lat="45.98055" lon="4.80789">
        <ele>233</ele>
        <time>2017-07-21T09:02:43Z</time>
      </trkpt>
      <trkpt lat="45.98055" lon="4.80798">
        <ele>233</ele>
        <time>2017-07-21T09:02:45Z</time>
      </trkpt>
      <trkpt lat="45.98055" lon="4.80802">
        <ele>234</ele>
        <time>2017-07-21T09:02:46Z</time>
      </trkpt>
      <trkpt lat="45.98054" lon="4.80812">
        <ele>234</ele>
        <time>2017-07-21T09:02:48Z</time>
      </trkpt>
      <trkpt lat="45.98055" lon="4.80816">
        <ele>234</ele>
        <time>2017-07-21T09:02:49Z</time>
      </trkpt>
      <trkpt lat="45.98058" lon="4.80825">
        <ele>234</ele>
        <time>2017-07-21T09:02:51Z</time>
      </trkpt>
      <trkpt lat="45.98059" lon="4.80828">
        <ele>234</ele>
        <time>2017-07-21T09:02:52Z</time>
      </trkpt>
      <trkpt lat="45.98062" lon="4.80838">
        <ele>236</ele>
        <time>2017-07-21T09:02:55Z</time>
      </trkpt>
      <trkpt lat="45.98062" lon="4.80842">
        <ele>236</ele>
        <time>2017-07-21T09:02:56Z</time>
      </trkpt>
      <trkpt lat="45.98065" lon="4.80852">
        <ele>236</ele>
        <time>2017-07-21T09:02:58Z</time>
      </trkpt>
      <trkpt lat="45.98066" lon="4.80856">
        <ele>236</ele>
        <time>2017-07-21T09:02:59Z</time>
      </trkpt>
      <trkpt lat="45.98069" lon="4.80865">
        <ele>237</ele>
        <time>2017-07-21T09:03:01Z</time>
      </trkpt>
      <trkpt lat="45.98071" lon="4.80869">
        <ele>237</ele>
        <time>2017-07-21T09:03:02Z</time>
      </trkpt>
      <trkpt lat="45.98073" lon="4.8088">
        <ele>237</ele>
        <time>2017-07-21T09:03:05Z</time>
      </trkpt>
      <trkpt lat="45.98073" lon="4.80884">
        <ele>237</ele>
        <time>2017-07-21T09:03:06Z</time>
      </trkpt>
      <trkpt lat="45.98076" lon="4.80896">
        <ele>238</ele>
        <time>2017-07-21T09:03:09Z</time>
      </trkpt>
      <trkpt lat="45.98078" lon="4.809">
        <ele>238</ele>
        <time>2017-07-21T09:03:10Z</time>
      </trkpt>
      <trkpt lat="45.9808" lon="4.80909">
        <ele>238</ele>
        <time>2017-07-21T09:03:12Z</time>
      </trkpt>
      <trkpt lat="45.9808" lon="4.80913">
        <ele>239</ele>
        <time>2017-07-21T09:03:13Z</time>
      </trkpt>
      <trkpt lat="45.98084" lon="4.80924">
        <ele>239</ele>
        <time>2017-07-21T09:03:16Z</time>
      </trkpt>
      <trkpt lat="45.98085" lon="4.80928">
        <ele>238</ele>
        <time>2017-07-21T09:03:17Z</time>
      </trkpt>
      <trkpt lat="45.98088" lon="4.80937">
        <ele>238</ele>
        <time>2017-07-21T09:03:19Z</time>
      </trkpt>
      <trkpt lat="45.98088" lon="4.80942">
        <ele>238</ele>
        <time>2017-07-21T09:03:20Z</time>
      </trkpt>
      <trkpt lat="45.9809" lon="4.80952">
        <ele>238</ele>
        <time>2017-07-21T09:03:22Z</time>
      </trkpt>
      <trkpt lat="45.98091" lon="4.80956">
        <ele>238</ele>
        <time>2017-07-21T09:03:23Z</time>
      </trkpt>
      <trkpt lat="45.98094" lon="4.80965">
        <ele>239</ele>
        <time>2017-07-21T09:03:25Z</time>
      </trkpt>
      <trkpt lat="45.98095" lon="4.8097">
        <ele>239</ele>
        <time>2017-07-21T09:03:26Z</time>
      </trkpt>
      <trkpt lat="45.98097" lon="4.8098">
        <ele>239</ele>
        <time>2017-07-21T09:03:28Z</time>
      </trkpt>
      <trkpt lat="45.98098" lon="4.80984">
        <ele>239</ele>
        <time>2017-07-21T09:03:29Z</time>
      </trkpt>
      <trkpt lat="45.981" lon="4.80994">
        <ele>240</ele>
        <time>2017-07-21T09:03:32Z</time>
      </trkpt>
      <trkpt lat="45.98101" lon="4.80998">
        <ele>240</ele>
        <time>2017-07-21T09:03:33Z</time>
      </trkpt>
      <trkpt lat="45.98103" lon="4.81006">
        <ele>242</ele>
        <time>2017-07-21T09:03:35Z</time>
      </trkpt>
      <trkpt lat="45.98105" lon="4.81011">
        <ele>242</ele>
        <time>2017-07-21T09:03:36Z</time>
      </trkpt>
      <trkpt lat="45.98109" lon="4.8102">
        <ele>242</ele>
        <time>2017-07-21T09:03:38Z</time>
      </trkpt>
      <trkpt lat="45.98111" lon="4.81024">
        <ele>242</ele>
        <time>2017-07-21T09:03:39Z</time>
      </trkpt>
      <trkpt lat="45.98113" lon="4.81033">
        <ele>242</ele>
        <time>2017-07-21T09:03:41Z</time>
      </trkpt>
      <trkpt lat="45.98114" lon="4.81037">
        <ele>242</ele>
        <time>2017-07-21T09:03:42Z</time>
      </trkpt>
      <trkpt lat="45.98116" lon="4.81046">
        <ele>242</ele>
        <time>2017-07-21T09:03:44Z</time>
      </trkpt>
      <trkpt lat="45.98117" lon="4.8105">
        <ele>243</ele>
        <time>2017-07-21T09:03:45Z</time>
      </trkpt>
      <trkpt lat="45.9812" lon="4.81058">
        <ele>243</ele>
        <time>2017-07-21T09:03:47Z</time>
      </trkpt>
      <trkpt lat="45.98124" lon="4.81061">
        <ele>243</ele>
        <time>2017-07-21T09:03:48Z</time>
      </trkpt>
      <trkpt lat="45.98128" lon="4.8107">
        <ele>243</ele>
        <time>2017-07-21T09:03:50Z</time>
      </trkpt>
      <trkpt lat="45.98131" lon="4.81074">
        <ele>243</ele>
        <time>2017-07-21T09:03:51Z</time>
      </trkpt>
      <trkpt lat="45.98134" lon="4.81082">
        <ele>243</ele>
        <time>2017-07-21T09:03:53Z</time>
      </trkpt>
      <trkpt lat="45.98134" lon="4.81086">
        <ele>245</ele>
        <time>2017-07-21T09:03:54Z</time>
      </trkpt>
      <trkpt lat="45.98138" lon="4.81094">
        <ele>245</ele>
        <time>2017-07-21T09:03:56Z</time>
      </trkpt>
      <trkpt lat="45.98139" lon="4.81099">
        <ele>245</ele>
        <time>2017-07-21T09:03:57Z</time>
      </trkpt>
      <trkpt lat="45.98143" lon="4.81108">
        <ele>245</ele>
        <time>2017-07-21T09:03:59Z</time>
      </trkpt>
      <trkpt lat="45.98145" lon="4.81113">
        <ele>245</ele>
        <time>2017-07-21T09:04:00Z</time>
      </trkpt>
      <trkpt lat="45.98149" lon="4.81122">
        <ele>245</ele>
        <time>2017-07-21T09:04:02Z</time>
      </trkpt>
      <trkpt lat="45.98151" lon="4.81125">
        <ele>245</ele>
        <time>2017-07-21T09:04:03Z</time>
      </trkpt>
      <trkpt lat="45.98151" lon="4.81135">
        <ele>245</ele>
        <time>2017-07-21T09:04:05Z</time>
      </trkpt>
      <trkpt lat="45.98153" lon="4.8114">
        <ele>245</ele>
        <time>2017-07-21T09:04:06Z</time>
      </trkpt>
      <trkpt lat="45.98158" lon="4.81149">
        <ele>245</ele>
        <time>2017-07-21T09:04:08Z</time>
      </trkpt>
      <trkpt lat="45.98161" lon="4.81154">
        <ele>245</ele>
        <time>2017-07-21T09:04:09Z</time>
      </trkpt>
      <trkpt lat="45.98164" lon="4.8116">
        <ele>245</ele>
        <time>2017-07-21T09:04:10Z</time>
      </trkpt>
      <trkpt lat="45.98166" lon="4.81165">
        <ele>245</ele>
        <time>2017-07-21T09:04:11Z</time>
      </trkpt>
      <trkpt lat="45.98169" lon="4.81174">
        <ele>245</ele>
        <time>2017-07-21T09:04:13Z</time>
      </trkpt>
      <trkpt lat="45.9817" lon="4.81179">
        <ele>245</ele>
        <time>2017-07-21T09:04:14Z</time>
      </trkpt>
      <trkpt lat="45.98171" lon="4.81187">
        <ele>245</ele>
        <time>2017-07-21T09:04:16Z</time>
      </trkpt>
      <trkpt lat="45.98172" lon="4.81191">
        <ele>245</ele>
        <time>2017-07-21T09:04:17Z</time>
      </trkpt>
      <trkpt lat="45.98172" lon="4.81201">
        <ele>245</ele>
        <time>2017-07-21T09:04:19Z</time>
      </trkpt>
      <trkpt lat="45.98173" lon="4.81205">
        <ele>245</ele>
        <time>2017-07-21T09:04:20Z</time>
      </trkpt>
      <trkpt lat="45.98174" lon="4.81216">
        <ele>246</ele>
        <time>2017-07-21T09:04:22Z</time>
      </trkpt>
      <trkpt lat="45.98174" lon="4.81221">
        <ele>246</ele>
        <time>2017-07-21T09:04:23Z</time>
      </trkpt>
      <trkpt lat="45.98176" lon="4.81231">
        <ele>246</ele>
        <time>2017-07-21T09:04:25Z</time>
      </trkpt>
      <trkpt lat="45.98177" lon="4.81237">
        <ele>246</ele>
        <time>2017-07-21T09:04:26Z</time>
      </trkpt>
      <trkpt lat="45.98178" lon="4.81249">
        <ele>247</ele>
        <time>2017-07-21T09:04:28Z</time>
      </trkpt>
      <trkpt lat="45.98179" lon="4.81254">
        <ele>247</ele>
        <time>2017-07-21T09:04:29Z</time>
      </trkpt>
      <trkpt lat="45.9818" lon="4.81265">
        <ele>247</ele>
        <time>2017-07-21T09:04:31Z</time>
      </trkpt>
      <trkpt lat="45.9818" lon="4.8127">
        <ele>247</ele>
        <time>2017-07-21T09:04:32Z</time>
      </trkpt>
      <trkpt lat="45.98182" lon="4.81281">
        <ele>247</ele>
        <time>2017-07-21T09:04:34Z</time>
      </trkpt>
      <trkpt lat="45.9818" lon="4.81286">
        <ele>247</ele>
        <time>2017-07-21T09:04:35Z</time>
      </trkpt>
      <trkpt lat="45.98181" lon="4.81293">
        <ele>247</ele>
        <time>2017-07-21T09:04:36Z</time>
      </trkpt>
      <trkpt lat="45.98183" lon="4.81299">
        <ele>247</ele>
        <time>2017-07-21T09:04:37Z</time>
      </trkpt>
      <trkpt lat="45.98184" lon="4.81307">
        <ele>247</ele>
        <time>2017-07-21T09:04:38Z</time>
      </trkpt>
      <trkpt lat="45.98185" lon="4.81313">
        <ele>247</ele>
        <time>2017-07-21T09:04:39Z</time>
      </trkpt>
      <trkpt lat="45.98188" lon="4.81324">
        <ele>247</ele>
        <time>2017-07-21T09:04:41Z</time>
      </trkpt>
      <trkpt lat="45.9819" lon="4.81329">
        <ele>247</ele>
        <time>2017-07-21T09:04:42Z</time>
      </trkpt>
      <trkpt lat="45.98193" lon="4.8134">
        <ele>248</ele>
        <time>2017-07-21T09:04:44Z</time>
      </trkpt>
      <trkpt lat="45.98195" lon="4.81345">
        <ele>248</ele>
        <time>2017-07-21T09:04:45Z</time>
      </trkpt>
      <trkpt lat="45.98198" lon="4.81356">
        <ele>248</ele>
        <time>2017-07-21T09:04:47Z</time>
      </trkpt>
      <trkpt lat="45.982" lon="4.81362">
        <ele>248</ele>
        <time>2017-07-21T09:04:48Z</time>
      </trkpt>
      <trkpt lat="45.98202" lon="4.81373">
        <ele>248</ele>
        <time>2017-07-21T09:04:50Z</time>
      </trkpt>
      <trkpt lat="45.98204" lon="4.81377">
        <ele>248</ele>
        <time>2017-07-21T09:04:51Z</time>
      </trkpt>
      <trkpt lat="45.98207" lon="4.81386">
        <ele>248</ele>
        <time>2017-07-21T09:04:53Z</time>
      </trkpt>
      <trkpt lat="45.98208" lon="4.8139">
        <ele>248</ele>
        <time>2017-07-21T09:04:54Z</time>
      </trkpt>
      <trkpt lat="45.98211" lon="4.814">
        <ele>248</ele>
        <time>2017-07-21T09:04:56Z</time>
      </trkpt>
      <trkpt lat="45.98213" lon="4.81405">
        <ele>248</ele>
        <time>2017-07-21T09:04:57Z</time>
      </trkpt>
      <trkpt lat="45.98216" lon="4.81416">
        <ele>248</ele>
        <time>2017-07-21T09:04:59Z</time>
      </trkpt>
      <trkpt lat="45.98218" lon="4.81422">
        <ele>249</ele>
        <time>2017-07-21T09:05:00Z</time>
      </trkpt>
      <trkpt lat="45.98221" lon="4.81431">
        <ele>249</ele>
        <time>2017-07-21T09:05:02Z</time>
      </trkpt>
      <trkpt lat="45.98222" lon="4.81436">
        <ele>249</ele>
        <time>2017-07-21T09:05:03Z</time>
      </trkpt>
      <trkpt lat="45.98225" lon="4.81445">
        <ele>249</ele>
        <time>2017-07-21T09:05:05Z</time>
      </trkpt>
      <trkpt lat="45.98226" lon="4.8145">
        <ele>249</ele>
        <time>2017-07-21T09:05:06Z</time>
      </trkpt>
      <trkpt lat="45.98229" lon="4.8146">
        <ele>249</ele>
        <time>2017-07-21T09:05:08Z</time>
      </trkpt>
      <trkpt lat="45.98231" lon="4.81465">
        <ele>249</ele>
        <time>2017-07-21T09:05:09Z</time>
      </trkpt>
      <trkpt lat="45.98235" lon="4.81474">
        <ele>249</ele>
        <time>2017-07-21T09:05:11Z</time>
      </trkpt>
      <trkpt lat="45.98237" lon="4.81479">
        <ele>249</ele>
        <time>2017-07-21T09:05:12Z</time>
      </trkpt>
      <trkpt lat="45.98241" lon="4.81489">
        <ele>249</ele>
        <time>2017-07-21T09:05:14Z</time>
      </trkpt>
      <trkpt lat="45.98242" lon="4.81495">
        <ele>249</ele>
        <time>2017-07-21T09:05:15Z</time>
      </trkpt>
      <trkpt lat="45.98246" lon="4.81506">
        <ele>249</ele>
        <time>2017-07-21T09:05:17Z</time>
      </trkpt>
      <trkpt lat="45.98248" lon="4.81511">
        <ele>249</ele>
        <time>2017-07-21T09:05:18Z</time>
      </trkpt>
      <trkpt lat="45.98251" lon="4.81523">
        <ele>247</ele>
        <time>2017-07-21T09:05:20Z</time>
      </trkpt>
      <trkpt lat="45.98252" lon="4.81529">
        <ele>247</ele>
        <time>2017-07-21T09:05:21Z</time>
      </trkpt>
      <trkpt lat="45.98257" lon="4.81541">
        <ele>247</ele>
        <time>2017-07-21T09:05:23Z</time>
      </trkpt>
      <trkpt lat="45.98259" lon="4.81546">
        <ele>247</ele>
        <time>2017-07-21T09:05:24Z</time>
      </trkpt>
      <trkpt lat="45.98262" lon="4.81557">
        <ele>247</ele>
        <time>2017-07-21T09:05:26Z</time>
      </trkpt>
      <trkpt lat="45.98264" lon="4.81562">
        <ele>247</ele>
        <time>2017-07-21T09:05:27Z</time>
      </trkpt>
      <trkpt lat="45.98267" lon="4.81573">
        <ele>247</ele>
        <time>2017-07-21T09:05:29Z</time>
      </trkpt>
      <trkpt lat="45.98268" lon="4.81578">
        <ele>247</ele>
        <time>2017-07-21T09:05:30Z</time>
      </trkpt>
      <trkpt lat="45.98271" lon="4.81588">
        <ele>247</ele>
        <time>2017-07-21T09:05:32Z</time>
      </trkpt>
      <trkpt lat="45.98273" lon="4.81594">
        <ele>247</ele>
        <time>2017-07-21T09:05:33Z</time>
      </trkpt>
      <trkpt lat="45.98275" lon="4.81599">
        <ele>247</ele>
        <time>2017-07-21T09:05:34Z</time>
      </trkpt>
      <trkpt lat="45.98278" lon="4.81605">
        <ele>247</ele>
        <time>2017-07-21T09:05:35Z</time>
      </trkpt>
      <trkpt lat="45.98279" lon="4.81612">
        <ele>247</ele>
        <time>2017-07-21T09:05:36Z</time>
      </trkpt>
      <trkpt lat="45.98282" lon="4.81617">
        <ele>247</ele>
        <time>2017-07-21T09:05:37Z</time>
      </trkpt>
      <trkpt lat="45.98285" lon="4.81622">
        <ele>247</ele>
        <time>2017-07-21T09:05:38Z</time>
      </trkpt>
      <trkpt lat="45.98288" lon="4.81627">
        <ele>247</ele>
        <time>2017-07-21T09:05:39Z</time>
      </trkpt>
      <trkpt lat="45.98292" lon="4.81631">
        <ele>247</ele>
        <time>2017-07-21T09:05:40Z</time>
      </trkpt>
      <trkpt lat="45.98295" lon="4.81636">
        <ele>247</ele>
        <time>2017-07-21T09:05:41Z</time>
      </trkpt>
      <trkpt lat="45.98299" lon="4.8164">
        <ele>247</ele>
        <time>2017-07-21T09:05:42Z</time>
      </trkpt>
      <trkpt lat="45.98303" lon="4.81644">
        <ele>246</ele>
        <time>2017-07-21T09:05:43Z</time>
      </trkpt>
      <trkpt lat="45.9831" lon="4.81651">
        <ele>246</ele>
        <time>2017-07-21T09:05:45Z</time>
      </trkpt>
      <trkpt lat="45.98313" lon="4.81654">
        <ele>246</ele>
        <time>2017-07-21T09:05:46Z</time>
      </trkpt>
      <trkpt lat="45.98318" lon="4.81658">
        <ele>246</ele>
        <time>2017-07-21T09:05:47Z</time>
      </trkpt>
      <trkpt lat="45.98322" lon="4.81661">
        <ele>246</ele>
        <time>2017-07-21T09:05:48Z</time>
      </trkpt>
      <trkpt lat="45.98326" lon="4.81664">
        <ele>246</ele>
        <time>2017-07-21T09:05:49Z</time>
      </trkpt>
      <trkpt lat="45.9833" lon="4.81666">
        <ele>246</ele>
        <time>2017-07-21T09:05:50Z</time>
      </trkpt>
      <trkpt lat="45.98335" lon="4.81669">
        <ele>246</ele>
        <time>2017-07-21T09:05:51Z</time>
      </trkpt>
      <trkpt lat="45.9834" lon="4.81671">
        <ele>245</ele>
        <time>2017-07-21T09:05:52Z</time>
      </trkpt>
      <trkpt lat="45.98344" lon="4.81672">
        <ele>245</ele>
        <time>2017-07-21T09:05:53Z</time>
      </trkpt>
      <trkpt lat="45.98349" lon="4.81673">
        <ele>245</ele>
        <time>2017-07-21T09:05:54Z</time>
      </trkpt>
      <trkpt lat="45.98354" lon="4.81674">
        <ele>245</ele>
        <time>2017-07-21T09:05:55Z</time>
      </trkpt>
      <trkpt lat="45.9836" lon="4.81675">
        <ele>244</ele>
        <time>2017-07-21T09:05:56Z</time>
      </trkpt>
      <trkpt lat="45.98365" lon="4.81675">
        <ele>244</ele>
        <time>2017-07-21T09:05:57Z</time>
      </trkpt>
      <trkpt lat="45.9837" lon="4.81674">
        <ele>244</ele>
        <time>2017-07-21T09:05:58Z</time>
      </trkpt>
      <trkpt lat="45.98375" lon="4.81673">
        <ele>244</ele>
        <time>2017-07-21T09:05:59Z</time>
      </trkpt>
      <trkpt lat="45.9838" lon="4.81673">
        <ele>244</ele>
        <time>2017-07-21T09:06:00Z</time>
      </trkpt>
      <trkpt lat="45.98385" lon="4.81671">
        <ele>243</ele>
        <time>2017-07-21T09:06:01Z</time>
      </trkpt>
      <trkpt lat="45.9839" lon="4.8167">
        <ele>243</ele>
        <time>2017-07-21T09:06:02Z</time>
      </trkpt>
      <trkpt lat="45.98395" lon="4.81669">
        <ele>243</ele>
        <time>2017-07-21T09:06:03Z</time>
      </trkpt>
      <trkpt lat="45.98399" lon="4.81668">
        <ele>243</ele>
        <time>2017-07-21T09:06:04Z</time>
      </trkpt>
      <trkpt lat="45.98404" lon="4.81667">
        <ele>242</ele>
        <time>2017-07-21T09:06:05Z</time>
      </trkpt>
      <trkpt lat="45.98408" lon="4.81667">
        <ele>241</ele>
        <time>2017-07-21T09:06:06Z</time>
      </trkpt>
      <trkpt lat="45.98413" lon="4.81666">
        <ele>241</ele>
        <time>2017-07-21T09:06:07Z</time>
      </trkpt>
      <trkpt lat="45.98418" lon="4.81665">
        <ele>241</ele>
        <time>2017-07-21T09:06:08Z</time>
      </trkpt>
      <trkpt lat="45.98426" lon="4.81664">
        <ele>240</ele>
        <time>2017-07-21T09:06:10Z</time>
      </trkpt>
      <trkpt lat="45.98428" lon="4.81665">
        <ele>240</ele>
        <time>2017-07-21T09:06:11Z</time>
      </trkpt>
      <trkpt lat="45.98436" lon="4.81669">
        <ele>240</ele>
        <time>2017-07-21T09:06:13Z</time>
      </trkpt>
      <trkpt lat="45.9844" lon="4.81672">
        <ele>240</ele>
        <time>2017-07-21T09:06:14Z</time>
      </trkpt>
      <trkpt lat="45.98444" lon="4.81676">
        <ele>239</ele>
        <time>2017-07-21T09:06:15Z</time>
      </trkpt>
      <trkpt lat="45.98447" lon="4.81681">
        <ele>239</ele>
        <time>2017-07-21T09:06:16Z</time>
      </trkpt>
      <trkpt lat="45.98449" lon="4.81686">
        <ele>239</ele>
        <time>2017-07-21T09:06:17Z</time>
      </trkpt>
      <trkpt lat="45.98452" lon="4.81691">
        <ele>239</ele>
        <time>2017-07-21T09:06:18Z</time>
      </trkpt>
      <trkpt lat="45.98455" lon="4.81697">
        <ele>239</ele>
        <time>2017-07-21T09:06:19Z</time>
      </trkpt>
      <trkpt lat="45.98458" lon="4.81703">
        <ele>239</ele>
        <time>2017-07-21T09:06:20Z</time>
      </trkpt>
      <trkpt lat="45.98462" lon="4.81709">
        <ele>239</ele>
        <time>2017-07-21T09:06:21Z</time>
      </trkpt>
      <trkpt lat="45.98466" lon="4.81715">
        <ele>239</ele>
        <time>2017-07-21T09:06:22Z</time>
      </trkpt>
      <trkpt lat="45.98471" lon="4.8172">
        <ele>239</ele>
        <time>2017-07-21T09:06:23Z</time>
      </trkpt>
      <trkpt lat="45.98476" lon="4.81726">
        <ele>239</ele>
        <time>2017-07-21T09:06:24Z</time>
      </trkpt>
      <trkpt lat="45.98482" lon="4.81731">
        <ele>238</ele>
        <time>2017-07-21T09:06:25Z</time>
      </trkpt>
      <trkpt lat="45.98488" lon="4.81736">
        <ele>238</ele>
        <time>2017-07-21T09:06:26Z</time>
      </trkpt>
      <trkpt lat="45.98494" lon="4.81742">
        <ele>238</ele>
        <time>2017-07-21T09:06:27Z</time>
      </trkpt>
      <trkpt lat="45.985" lon="4.81749">
        <ele>237</ele>
        <time>2017-07-21T09:06:28Z</time>
      </trkpt>
      <trkpt lat="45.98506" lon="4.81757">
        <ele>237</ele>
        <time>2017-07-21T09:06:29Z</time>
      </trkpt>
      <trkpt lat="45.98512" lon="4.81765">
        <ele>237</ele>
        <time>2017-07-21T09:06:30Z</time>
      </trkpt>
      <trkpt lat="45.98517" lon="4.81774">
        <ele>238</ele>
        <time>2017-07-21T09:06:31Z</time>
      </trkpt>
      <trkpt lat="45.98523" lon="4.81783">
        <ele>238</ele>
        <time>2017-07-21T09:06:32Z</time>
      </trkpt>
      <trkpt lat="45.98528" lon="4.81791">
        <ele>238</ele>
        <time>2017-07-21T09:06:33Z</time>
      </trkpt>
      <trkpt lat="45.98533" lon="4.81799">
        <ele>238</ele>
        <time>2017-07-21T09:06:34Z</time>
      </trkpt>
      <trkpt lat="45.98539" lon="4.81804">
        <ele>238</ele>
        <time>2017-07-21T09:06:35Z</time>
      </trkpt>
      <trkpt lat="45.98545" lon="4.81809">
        <ele>238</ele>
        <time>2017-07-21T09:06:36Z</time>
      </trkpt>
      <trkpt lat="45.98552" lon="4.81812">
        <ele>238</ele>
        <time>2017-07-21T09:06:37Z</time>
      </trkpt>
      <trkpt lat="45.98558" lon="4.8181">
        <ele>238</ele>
        <time>2017-07-21T09:06:38Z</time>
      </trkpt>
      <trkpt lat="45.98564" lon="4.81805">
        <ele>238</ele>
        <time>2017-07-21T09:06:39Z</time>
      </trkpt>
      <trkpt lat="45.98569" lon="4.818">
        <ele>238</ele>
        <time>2017-07-21T09:06:40Z</time>
      </trkpt>
      <trkpt lat="45.98574" lon="4.81794">
        <ele>238</ele>
        <time>2017-07-21T09:06:41Z</time>
      </trkpt>
      <trkpt lat="45.98579" lon="4.81788">
        <ele>238</ele>
        <time>2017-07-21T09:06:42Z</time>
      </trkpt>
      <trkpt lat="45.98583" lon="4.81783">
        <ele>238</ele>
        <time>2017-07-21T09:06:43Z</time>
      </trkpt>
      <trkpt lat="45.98586" lon="4.81778">
        <ele>238</ele>
        <time>2017-07-21T09:06:44Z</time>
      </trkpt>
      <trkpt lat="45.9859" lon="4.81774">
        <ele>238</ele>
        <time>2017-07-21T09:06:45Z</time>
      </trkpt>
      <trkpt lat="45.98594" lon="4.81771">
        <ele>238</ele>
        <time>2017-07-21T09:06:46Z</time>
      </trkpt>
      <trkpt lat="45.98601" lon="4.81767">
        <ele>238</ele>
        <time>2017-07-21T09:06:48Z</time>
      </trkpt>
      <trkpt lat="45.98605" lon="4.81765">
        <ele>238</ele>
        <time>2017-07-21T09:06:49Z</time>
      </trkpt>
      <trkpt lat="45.98614" lon="4.81762">
        <ele>238</ele>
        <time>2017-07-21T09:06:51Z</time>
      </trkpt>
      <trkpt lat="45.98618" lon="4.81761">
        <ele>238</ele>
        <time>2017-07-21T09:06:52Z</time>
      </trkpt>
      <trkpt lat="45.98623" lon="4.81759">
        <ele>238</ele>
        <time>2017-07-21T09:06:53Z</time>
      </trkpt>
      <trkpt lat="45.98627" lon="4.81758">
        <ele>238</ele>
        <time>2017-07-21T09:06:54Z</time>
      </trkpt>
      <trkpt lat="45.98632" lon="4.81756">
        <ele>238</ele>
        <time>2017-07-21T09:06:55Z</time>
      </trkpt>
      <trkpt lat="45.98636" lon="4.81755">
        <ele>238</ele>
        <time>2017-07-21T09:06:56Z</time>
      </trkpt>
      <trkpt lat="45.98644" lon="4.81752">
        <ele>238</ele>
        <time>2017-07-21T09:06:58Z</time>
      </trkpt>
      <trkpt lat="45.98647" lon="4.81751">
        <ele>238</ele>
        <time>2017-07-21T09:06:59Z</time>
      </trkpt>
      <trkpt lat="45.98656" lon="4.81748">
        <ele>237</ele>
        <time>2017-07-21T09:07:01Z</time>
      </trkpt>
      <trkpt lat="45.9866" lon="4.81747">
        <ele>238</ele>
        <time>2017-07-21T09:07:02Z</time>
      </trkpt>
      <trkpt lat="45.98668" lon="4.81745">
        <ele>238</ele>
        <time>2017-07-21T09:07:04Z</time>
      </trkpt>
      <trkpt lat="45.98672" lon="4.81744">
        <ele>238</ele>
        <time>2017-07-21T09:07:05Z</time>
      </trkpt>
      <trkpt lat="45.9868" lon="4.8174">
        <ele>238</ele>
        <time>2017-07-21T09:07:07Z</time>
      </trkpt>
      <trkpt lat="45.98683" lon="4.81739">
        <ele>238</ele>
        <time>2017-07-21T09:07:08Z</time>
      </trkpt>
      <trkpt lat="45.9869" lon="4.81737">
        <ele>238</ele>
        <time>2017-07-21T09:07:10Z</time>
      </trkpt>
      <trkpt lat="45.98693" lon="4.81736">
        <ele>238</ele>
        <time>2017-07-21T09:07:11Z</time>
      </trkpt>
      <trkpt lat="45.987" lon="4.81733">
        <ele>239</ele>
        <time>2017-07-21T09:07:13Z</time>
      </trkpt>
      <trkpt lat="45.98705" lon="4.81732">
        <ele>239</ele>
        <time>2017-07-21T09:07:14Z</time>
      </trkpt>
      <trkpt lat="45.98711" lon="4.81731">
        <ele>239</ele>
        <time>2017-07-21T09:07:15Z</time>
      </trkpt>
      <trkpt lat="45.98717" lon="4.81731">
        <ele>239</ele>
        <time>2017-07-21T09:07:16Z</time>
      </trkpt>
      <trkpt lat="45.98722" lon="4.8173">
        <ele>239</ele>
        <time>2017-07-21T09:07:17Z</time>
      </trkpt>
      <trkpt lat="45.98727" lon="4.81731">
        <ele>239</ele>
        <time>2017-07-21T09:07:18Z</time>
      </trkpt>
      <trkpt lat="45.98734" lon="4.81737">
        <ele>240</ele>
        <time>2017-07-21T09:07:20Z</time>
      </trkpt>
      <trkpt lat="45.98737" lon="4.81741">
        <ele>240</ele>
        <time>2017-07-21T09:07:21Z</time>
      </trkpt>
      <trkpt lat="45.98744" lon="4.81749">
        <ele>240</ele>
        <time>2017-07-21T09:07:23Z</time>
      </trkpt>
      <trkpt lat="45.98747" lon="4.81753">
        <ele>241</ele>
        <time>2017-07-21T09:07:24Z</time>
      </trkpt>
      <trkpt lat="45.98749" lon="4.81758">
        <ele>241</ele>
        <time>2017-07-21T09:07:25Z</time>
      </trkpt>
      <trkpt lat="45.98752" lon="4.81763">
        <ele>241</ele>
        <time>2017-07-21T09:07:26Z</time>
      </trkpt>
      <trkpt lat="45.98755" lon="4.81769">
        <ele>241</ele>
        <time>2017-07-21T09:07:27Z</time>
      </trkpt>
      <trkpt lat="45.98758" lon="4.81775">
        <ele>241</ele>
        <time>2017-07-21T09:07:28Z</time>
      </trkpt>
      <trkpt lat="45.9876" lon="4.81781">
        <ele>241</ele>
        <time>2017-07-21T09:07:29Z</time>
      </trkpt>
      <trkpt lat="45.98763" lon="4.81787">
        <ele>241</ele>
        <time>2017-07-21T09:07:30Z</time>
      </trkpt>
      <trkpt lat="45.98766" lon="4.81793">
        <ele>241</ele>
        <time>2017-07-21T09:07:31Z</time>
      </trkpt>
      <trkpt lat="45.98768" lon="4.81799">
        <ele>240</ele>
        <time>2017-07-21T09:07:32Z</time>
      </trkpt>
      <trkpt lat="45.98771" lon="4.81805">
        <ele>240</ele>
        <time>2017-07-21T09:07:33Z</time>
      </trkpt>
      <trkpt lat="45.98773" lon="4.81812">
        <ele>240</ele>
        <time>2017-07-21T09:07:34Z</time>
      </trkpt>
      <trkpt lat="45.98776" lon="4.81818">
        <ele>240</ele>
        <time>2017-07-21T09:07:35Z</time>
      </trkpt>
      <trkpt lat="45.98779" lon="4.81825">
        <ele>240</ele>
        <time>2017-07-21T09:07:36Z</time>
      </trkpt>
      <trkpt lat="45.98782" lon="4.81831">
        <ele>240</ele>
        <time>2017-07-21T09:07:37Z</time>
      </trkpt>
      <trkpt lat="45.98785" lon="4.81838">
        <ele>239</ele>
        <time>2017-07-21T09:07:38Z</time>
      </trkpt>
      <trkpt lat="45.98788" lon="4.81845">
        <ele>239</ele>
        <time>2017-07-21T09:07:39Z</time>
      </trkpt>
      <trkpt lat="45.98791" lon="4.81851">
        <ele>239</ele>
        <time>2017-07-21T09:07:40Z</time>
      </trkpt>
      <trkpt lat="45.98794" lon="4.81858">
        <ele>239</ele>
        <time>2017-07-21T09:07:41Z</time>
      </trkpt>
      <trkpt lat="45.98797" lon="4.81866">
        <ele>239</ele>
        <time>2017-07-21T09:07:42Z</time>
      </trkpt>
      <trkpt lat="45.98799" lon="4.81874">
        <ele>239</ele>
        <time>2017-07-21T09:07:43Z</time>
      </trkpt>
      <trkpt lat="45.98801" lon="4.81882">
        <ele>239</ele>
        <time>2017-07-21T09:07:44Z</time>
      </trkpt>
      <trkpt lat="45.98803" lon="4.8189">
        <ele>239</ele>
        <time>2017-07-21T09:07:45Z</time>
      </trkpt>
      <trkpt lat="45.98806" lon="4.81898">
        <ele>239</ele>
        <time>2017-07-21T09:07:46Z</time>
      </trkpt>
      <trkpt lat="45.98808" lon="4.81906">
        <ele>239</ele>
        <time>2017-07-21T09:07:47Z</time>
      </trkpt>
      <trkpt lat="45.98809" lon="4.81913">
        <ele>239</ele>
        <time>2017-07-21T09:07:48Z</time>
      </trkpt>
      <trkpt lat="45.98811" lon="4.81921">
        <ele>239</ele>
        <time>2017-07-21T09:07:49Z</time>
      </trkpt>
      <trkpt lat="45.98812" lon="4.81928">
        <ele>239</ele>
        <time>2017-07-21T09:07:50Z</time>
      </trkpt>
      <trkpt lat="45.98813" lon="4.81935">
        <ele>239</ele>
        <time>2017-07-21T09:07:51Z</time>
      </trkpt>
      <trkpt lat="45.98814" lon="4.81942">
        <ele>239</ele>
        <time>2017-07-21T09:07:52Z</time>
      </trkpt>
      <trkpt lat="45.98814" lon="4.81949">
        <ele>239</ele>
        <time>2017-07-21T09:07:53Z</time>
      </trkpt>
      <trkpt lat="45.98815" lon="4.81956">
        <ele>239</ele>
        <time>2017-07-21T09:07:54Z</time>
      </trkpt>
      <trkpt lat="45.98815" lon="4.81963">
        <ele>239</ele>
        <time>2017-07-21T09:07:55Z</time>
      </trkpt>
      <trkpt lat="45.98816" lon="4.81969">
        <ele>239</ele>
        <time>2017-07-21T09:07:56Z</time>
      </trkpt>
      <trkpt lat="45.98817" lon="4.81976">
        <ele>239</ele>
        <time>2017-07-21T09:07:57Z</time>
      </trkpt>
      <trkpt lat="45.98818" lon="4.81982">
        <ele>238</ele>
        <time>2017-07-21T09:07:58Z</time>
      </trkpt>
      <trkpt lat="45.9882" lon="4.81989">
        <ele>238</ele>
        <time>2017-07-21T09:07:59Z</time>
      </trkpt>
      <trkpt lat="45.98821" lon="4.81995">
        <ele>238</ele>
        <time>2017-07-21T09:08:00Z</time>
      </trkpt>
      <trkpt lat="45.98822" lon="4.82001">
        <ele>238</ele>
        <time>2017-07-21T09:08:01Z</time>
      </trkpt>
      <trkpt lat="45.98823" lon="4.82008">
        <ele>238</ele>
        <time>2017-07-21T09:08:02Z</time>
      </trkpt>
      <trkpt lat="45.98823" lon="4.82015">
        <ele>238</ele>
        <time>2017-07-21T09:08:03Z</time>
      </trkpt>
      <trkpt lat="45.98824" lon="4.82023">
        <ele>238</ele>
        <time>2017-07-21T09:08:04Z</time>
      </trkpt>
      <trkpt lat="45.98824" lon="4.8203">
        <ele>238</ele>
        <time>2017-07-21T09:08:05Z</time>
      </trkpt>
      <trkpt lat="45.98825" lon="4.82037">
        <ele>238</ele>
        <time>2017-07-21T09:08:06Z</time>
      </trkpt>
      <trkpt lat="45.98826" lon="4.82043">
        <ele>238</ele>
        <time>2017-07-21T09:08:07Z</time>
      </trkpt>
      <trkpt lat="45.98827" lon="4.8205">
        <ele>238</ele>
        <time>2017-07-21T09:08:08Z</time>
      </trkpt>
      <trkpt lat="45.9883" lon="4.82062">
        <ele>237</ele>
        <time>2017-07-21T09:08:10Z</time>
      </trkpt>
      <trkpt lat="45.98831" lon="4.82068">
        <ele>237</ele>
        <time>2017-07-21T09:08:11Z</time>
      </trkpt>
      <trkpt lat="45.98833" lon="4.82074">
        <ele>237</ele>
        <time>2017-07-21T09:08:12Z</time>
      </trkpt>
      <trkpt lat="45.98834" lon="4.82081">
        <ele>236</ele>
        <time>2017-07-21T09:08:13Z</time>
      </trkpt>
      <trkpt lat="45.98836" lon="4.82088">
        <ele>236</ele>
        <time>2017-07-21T09:08:14Z</time>
      </trkpt>
      <trkpt lat="45.98838" lon="4.82094">
        <ele>236</ele>
        <time>2017-07-21T09:08:15Z</time>
      </trkpt>
      <trkpt lat="45.98839" lon="4.82101">
        <ele>236</ele>
        <time>2017-07-21T09:08:16Z</time>
      </trkpt>
      <trkpt lat="45.9884" lon="4.82108">
        <ele>235</ele>
        <time>2017-07-21T09:08:17Z</time>
      </trkpt>
      <trkpt lat="45.98841" lon="4.82115">
        <ele>235</ele>
        <time>2017-07-21T09:08:18Z</time>
      </trkpt>
      <trkpt lat="45.98842" lon="4.82122">
        <ele>235</ele>
        <time>2017-07-21T09:08:19Z</time>
      </trkpt>
      <trkpt lat="45.98843" lon="4.82128">
        <ele>236</ele>
        <time>2017-07-21T09:08:20Z</time>
      </trkpt>
      <trkpt lat="45.98844" lon="4.82134">
        <ele>236</ele>
        <time>2017-07-21T09:08:21Z</time>
      </trkpt>
      <trkpt lat="45.98845" lon="4.82147">
        <ele>236</ele>
        <time>2017-07-21T09:08:23Z</time>
      </trkpt>
      <trkpt lat="45.98846" lon="4.82153">
        <ele>236</ele>
        <time>2017-07-21T09:08:24Z</time>
      </trkpt>
      <trkpt lat="45.98847" lon="4.8216">
        <ele>236</ele>
        <time>2017-07-21T09:08:25Z</time>
      </trkpt>
      <trkpt lat="45.98849" lon="4.82167">
        <ele>236</ele>
        <time>2017-07-21T09:08:26Z</time>
      </trkpt>
      <trkpt lat="45.98851" lon="4.82174">
        <ele>236</ele>
        <time>2017-07-21T09:08:27Z</time>
      </trkpt>
      <trkpt lat="45.98853" lon="4.8218">
        <ele>236</ele>
        <time>2017-07-21T09:08:28Z</time>
      </trkpt>
      <trkpt lat="45.98856" lon="4.82187">
        <ele>236</ele>
        <time>2017-07-21T09:08:29Z</time>
      </trkpt>
      <trkpt lat="45.98859" lon="4.82194">
        <ele>236</ele>
        <time>2017-07-21T09:08:30Z</time>
      </trkpt>
      <trkpt lat="45.98861" lon="4.82201">
        <ele>236</ele>
        <time>2017-07-21T09:08:31Z</time>
      </trkpt>
      <trkpt lat="45.98864" lon="4.82207">
        <ele>236</ele>
        <time>2017-07-21T09:08:32Z</time>
      </trkpt>
      <trkpt lat="45.98867" lon="4.82213">
        <ele>236</ele>
        <time>2017-07-21T09:08:33Z</time>
      </trkpt>
      <trkpt lat="45.98869" lon="4.8222">
        <ele>236</ele>
        <time>2017-07-21T09:08:34Z</time>
      </trkpt>
      <trkpt lat="45.98872" lon="4.82226">
        <ele>236</ele>
        <time>2017-07-21T09:08:35Z</time>
      </trkpt>
      <trkpt lat="45.98874" lon="4.82232">
        <ele>236</ele>
        <time>2017-07-21T09:08:36Z</time>
      </trkpt>
      <trkpt lat="45.9888" lon="4.82242">
        <ele>236</ele>
        <time>2017-07-21T09:08:38Z</time>
      </trkpt>
      <trkpt lat="45.98882" lon="4.82247">
        <ele>236</ele>
        <time>2017-07-21T09:08:39Z</time>
      </trkpt>
      <trkpt lat="45.98888" lon="4.82257">
        <ele>236</ele>
        <time>2017-07-21T09:08:41Z</time>
      </trkpt>
      <trkpt lat="45.98891" lon="4.82262">
        <ele>236</ele>
        <time>2017-07-21T09:08:42Z</time>
      </trkpt>
      <trkpt lat="45.98894" lon="4.82268">
        <ele>236</ele>
        <time>2017-07-21T09:08:43Z</time>
      </trkpt>
      <trkpt lat="45.98898" lon="4.82273">
        <ele>236</ele>
        <time>2017-07-21T09:08:44Z</time>
      </trkpt>
      <trkpt lat="45.98902" lon="4.82279">
        <ele>236</ele>
        <time>2017-07-21T09:08:45Z</time>
      </trkpt>
      <trkpt lat="45.98907" lon="4.82285">
        <ele>236</ele>
        <time>2017-07-21T09:08:46Z</time>
      </trkpt>
      <trkpt lat="45.98911" lon="4.8229">
        <ele>236</ele>
        <time>2017-07-21T09:08:47Z</time>
      </trkpt>
      <trkpt lat="45.98915" lon="4.82295">
        <ele>236</ele>
        <time>2017-07-21T09:08:48Z</time>
      </trkpt>
      <trkpt lat="45.98919" lon="4.82299">
        <ele>234</ele>
        <time>2017-07-21T09:08:49Z</time>
      </trkpt>
      <trkpt lat="45.98923" lon="4.82303">
        <ele>234</ele>
        <time>2017-07-21T09:08:50Z</time>
      </trkpt>
      <trkpt lat="45.98926" lon="4.82308">
        <ele>234</ele>
        <time>2017-07-21T09:08:51Z</time>
      </trkpt>
      <trkpt lat="45.9893" lon="4.82312">
        <ele>235</ele>
        <time>2017-07-21T09:08:52Z</time>
      </trkpt>
      <trkpt lat="45.98933" lon="4.82318">
        <ele>235</ele>
        <time>2017-07-21T09:08:53Z</time>
      </trkpt>
      <trkpt lat="45.98937" lon="4.82323">
        <ele>235</ele>
        <time>2017-07-21T09:08:54Z</time>
      </trkpt>
      <trkpt lat="45.9894" lon="4.82328">
        <ele>234</ele>
        <time>2017-07-21T09:08:55Z</time>
      </trkpt>
      <trkpt lat="45.98943" lon="4.82332">
        <ele>234</ele>
        <time>2017-07-21T09:08:56Z</time>
      </trkpt>
      <trkpt lat="45.98946" lon="4.82337">
        <ele>235</ele>
        <time>2017-07-21T09:08:57Z</time>
      </trkpt>
      <trkpt lat="45.9895" lon="4.82342">
        <ele>235</ele>
        <time>2017-07-21T09:08:58Z</time>
      </trkpt>
      <trkpt lat="45.98952" lon="4.82347">
        <ele>235</ele>
        <time>2017-07-21T09:08:59Z</time>
      </trkpt>
      <trkpt lat="45.98955" lon="4.82353">
        <ele>235</ele>
        <time>2017-07-21T09:09:00Z</time>
      </trkpt>
      <trkpt lat="45.98959" lon="4.82364">
        <ele>235</ele>
        <time>2017-07-21T09:09:02Z</time>
      </trkpt>
      <trkpt lat="45.98961" lon="4.82368">
        <ele>235</ele>
        <time>2017-07-21T09:09:03Z</time>
      </trkpt>
      <trkpt lat="45.98965" lon="4.82379">
        <ele>235</ele>
        <time>2017-07-21T09:09:05Z</time>
      </trkpt>
      <trkpt lat="45.98967" lon="4.82384">
        <ele>235</ele>
        <time>2017-07-21T09:09:06Z</time>
      </trkpt>
      <trkpt lat="45.98968" lon="4.82391">
        <ele>235</ele>
        <time>2017-07-21T09:09:07Z</time>
      </trkpt>
      <trkpt lat="45.9897" lon="4.82397">
        <ele>235</ele>
        <time>2017-07-21T09:09:08Z</time>
      </trkpt>
      <trkpt lat="45.98971" lon="4.82403">
        <ele>235</ele>
        <time>2017-07-21T09:09:09Z</time>
      </trkpt>
      <trkpt lat="45.98972" lon="4.8241">
        <ele>235</ele>
        <time>2017-07-21T09:09:10Z</time>
      </trkpt>
      <trkpt lat="45.98974" lon="4.82417">
        <ele>236</ele>
        <time>2017-07-21T09:09:11Z</time>
      </trkpt>
      <trkpt lat="45.98976" lon="4.82424">
        <ele>236</ele>
        <time>2017-07-21T09:09:12Z</time>
      </trkpt>
      <trkpt lat="45.98978" lon="4.8243">
        <ele>236</ele>
        <time>2017-07-21T09:09:13Z</time>
      </trkpt>
      <trkpt lat="45.98979" lon="4.82436">
        <ele>236</ele>
        <time>2017-07-21T09:09:14Z</time>
      </trkpt>
      <trkpt lat="45.98981" lon="4.82443">
        <ele>236</ele>
        <time>2017-07-21T09:09:15Z</time>
      </trkpt>
      <trkpt lat="45.98982" lon="4.82449">
        <ele>236</ele>
        <time>2017-07-21T09:09:16Z</time>
      </trkpt>
      <trkpt lat="45.98983" lon="4.82461">
        <ele>236</ele>
        <time>2017-07-21T09:09:18Z</time>
      </trkpt>
      <trkpt lat="45.98985" lon="4.82467">
        <ele>236</ele>
        <time>2017-07-21T09:09:19Z</time>
      </trkpt>
      <trkpt lat="45.98988" lon="4.82477">
        <ele>236</ele>
        <time>2017-07-21T09:09:21Z</time>
      </trkpt>
      <trkpt lat="45.9899" lon="4.82482">
        <ele>236</ele>
        <time>2017-07-21T09:09:22Z</time>
      </trkpt>
      <trkpt lat="45.98992" lon="4.82492">
        <ele>236</ele>
        <time>2017-07-21T09:09:24Z</time>
      </trkpt>
      <trkpt lat="45.98994" lon="4.82496">
        <ele>235</ele>
        <time>2017-07-21T09:09:25Z</time>
      </trkpt>
      <trkpt lat="45.98998" lon="4.82504">
        <ele>236</ele>
        <time>2017-07-21T09:09:27Z</time>
      </trkpt>
      <trkpt lat="45.99" lon="4.82509">
        <ele>236</ele>
        <time>2017-07-21T09:09:28Z</time>
      </trkpt>
      <trkpt lat="45.99002" lon="4.82515">
        <ele>235</ele>
        <time>2017-07-21T09:09:29Z</time>
      </trkpt>
      <trkpt lat="45.99004" lon="4.8252">
        <ele>235</ele>
        <time>2017-07-21T09:09:30Z</time>
      </trkpt>
      <trkpt lat="45.99009" lon="4.82526">
        <ele>235</ele>
        <time>2017-07-21T09:09:31Z</time>
      </trkpt>
      <trkpt lat="45.99013" lon="4.82532">
        <ele>235</ele>
        <time>2017-07-21T09:09:32Z</time>
      </trkpt>
      <trkpt lat="45.99017" lon="4.82537">
        <ele>235</ele>
        <time>2017-07-21T09:09:33Z</time>
      </trkpt>
      <trkpt lat="45.99021" lon="4.82542">
        <ele>235</ele>
        <time>2017-07-21T09:09:34Z</time>
      </trkpt>
      <trkpt lat="45.99025" lon="4.82547">
        <ele>235</ele>
        <time>2017-07-21T09:09:35Z</time>
      </trkpt>
      <trkpt lat="45.99031" lon="4.82551">
        <ele>235</ele>
        <time>2017-07-21T09:09:36Z</time>
      </trkpt>
      <trkpt lat="45.99035" lon="4.82555">
        <ele>235</ele>
        <time>2017-07-21T09:09:37Z</time>
      </trkpt>
      <trkpt lat="45.99039" lon="4.82559">
        <ele>235</ele>
        <time>2017-07-21T09:09:38Z</time>
      </trkpt>
      <trkpt lat="45.99044" lon="4.82562">
        <ele>235</ele>
        <time>2017-07-21T09:09:39Z</time>
      </trkpt>
      <trkpt lat="45.99048" lon="4.82565">
        <ele>235</ele>
        <time>2017-07-21T09:09:40Z</time>
      </trkpt>
      <trkpt lat="45.99053" lon="4.82567">
        <ele>235</ele>
        <time>2017-07-21T09:09:41Z</time>
      </trkpt>
      <trkpt lat="45.99057" lon="4.82568">
        <ele>235</ele>
        <time>2017-07-21T09:09:42Z</time>
      </trkpt>
      <trkpt lat="45.99066" lon="4.8257">
        <ele>235</ele>
        <time>2017-07-21T09:09:44Z</time>
      </trkpt>
      <trkpt lat="45.9907" lon="4.82572">
        <ele>235</ele>
        <time>2017-07-21T09:09:45Z</time>
      </trkpt>
      <trkpt lat="45.99076" lon="4.8258">
        <ele>235</ele>
        <time>2017-07-21T09:09:48Z</time>
      </trkpt>
      <trkpt lat="45.99077" lon="4.82584">
        <ele>235</ele>
        <time>2017-07-21T09:09:49Z</time>
      </trkpt>
      <trkpt lat="45.99075" lon="4.82591">
        <ele>235</ele>
        <time>2017-07-21T09:09:51Z</time>
      </trkpt>
      <trkpt lat="45.99073" lon="4.82596">
        <ele>235</ele>
        <time>2017-07-21T09:09:52Z</time>
      </trkpt>
      <trkpt lat="45.9907" lon="4.82605">
        <ele>236</ele>
        <time>2017-07-21T09:09:54Z</time>
      </trkpt>
      <trkpt lat="45.99068" lon="4.82608">
        <ele>236</ele>
        <time>2017-07-21T09:09:55Z</time>
      </trkpt>
      <trkpt lat="45.99064" lon="4.82617">
        <ele>236</ele>
        <time>2017-07-21T09:09:57Z</time>
      </trkpt>
      <trkpt lat="45.99062" lon="4.82621">
        <ele>236</ele>
        <time>2017-07-21T09:09:58Z</time>
      </trkpt>
      <trkpt lat="45.99059" lon="4.82629">
        <ele>236</ele>
        <time>2017-07-21T09:10:00Z</time>
      </trkpt>
      <trkpt lat="45.99057" lon="4.82633">
        <ele>236</ele>
        <time>2017-07-21T09:10:01Z</time>
      </trkpt>
      <trkpt lat="45.99053" lon="4.82641">
        <ele>236</ele>
        <time>2017-07-21T09:10:03Z</time>
      </trkpt>
      <trkpt lat="45.99051" lon="4.82644">
        <ele>236</ele>
        <time>2017-07-21T09:10:04Z</time>
      </trkpt>
      <trkpt lat="45.99047" lon="4.82653">
        <ele>236</ele>
        <time>2017-07-21T09:10:06Z</time>
      </trkpt>
      <trkpt lat="45.99045" lon="4.82657">
        <ele>236</ele>
        <time>2017-07-21T09:10:07Z</time>
      </trkpt>
      <trkpt lat="45.99042" lon="4.82666">
        <ele>236</ele>
        <time>2017-07-21T09:10:09Z</time>
      </trkpt>
      <trkpt lat="45.99038" lon="4.82668">
        <ele>238</ele>
        <time>2017-07-21T09:10:10Z</time>
      </trkpt>
      <trkpt lat="45.99034" lon="4.82675">
        <ele>238</ele>
        <time>2017-07-21T09:10:12Z</time>
      </trkpt>
      <trkpt lat="45.99032" lon="4.82679">
        <ele>238</ele>
        <time>2017-07-21T09:10:13Z</time>
      </trkpt>
      <trkpt lat="45.99029" lon="4.82687">
        <ele>238</ele>
        <time>2017-07-21T09:10:15Z</time>
      </trkpt>
      <trkpt lat="45.99027" lon="4.82691">
        <ele>238</ele>
        <time>2017-07-21T09:10:16Z</time>
      </trkpt>
      <trkpt lat="45.99023" lon="4.82698">
        <ele>238</ele>
        <time>2017-07-21T09:10:18Z</time>
      </trkpt>
      <trkpt lat="45.99021" lon="4.82702">
        <ele>238</ele>
        <time>2017-07-21T09:10:19Z</time>
      </trkpt>
      <trkpt lat="45.99018" lon="4.82711">
        <ele>239</ele>
        <time>2017-07-21T09:10:21Z</time>
      </trkpt>
      <trkpt lat="45.99016" lon="4.82714">
        <ele>239</ele>
        <time>2017-07-21T09:10:22Z</time>
      </trkpt>
      <trkpt lat="45.99014" lon="4.82723">
        <ele>239</ele>
        <time>2017-07-21T09:10:24Z</time>
      </trkpt>
      <trkpt lat="45.99012" lon="4.82725">
        <ele>239</ele>
        <time>2017-07-21T09:10:25Z</time>
      </trkpt>
      <trkpt lat="45.99007" lon="4.82736">
        <ele>240</ele>
        <time>2017-07-21T09:10:28Z</time>
      </trkpt>
      <trkpt lat="45.99005" lon="4.82739">
        <ele>240</ele>
        <time>2017-07-21T09:10:29Z</time>
      </trkpt>
      <trkpt lat="45.99" lon="4.82749">
        <ele>241</ele>
        <time>2017-07-21T09:10:32Z</time>
      </trkpt>
      <trkpt lat="45.98999" lon="4.82752">
        <ele>242</ele>
        <time>2017-07-21T09:10:33Z</time>
      </trkpt>
      <trkpt lat="45.98994" lon="4.82761">
        <ele>244</ele>
        <time>2017-07-21T09:10:36Z</time>
      </trkpt>
      <trkpt lat="45.98993" lon="4.82764">
        <ele>245</ele>
        <time>2017-07-21T09:10:37Z</time>
      </trkpt>
      <trkpt lat="45.98988" lon="4.82773">
        <ele>246</ele>
        <time>2017-07-21T09:10:40Z</time>
      </trkpt>
      <trkpt lat="45.98987" lon="4.82776">
        <ele>246</ele>
        <time>2017-07-21T09:10:41Z</time>
      </trkpt>
      <trkpt lat="45.98985" lon="4.82784">
        <ele>247</ele>
        <time>2017-07-21T09:10:43Z</time>
      </trkpt>
      <trkpt lat="45.98983" lon="4.82788">
        <ele>247</ele>
        <time>2017-07-21T09:10:44Z</time>
      </trkpt>
      <trkpt lat="45.9898" lon="4.82798">
        <ele>248</ele>
        <time>2017-07-21T09:10:47Z</time>
      </trkpt>
      <trkpt lat="45.98979" lon="4.82802">
        <ele>248</ele>
        <time>2017-07-21T09:10:48Z</time>
      </trkpt>
      <trkpt lat="45.98976" lon="4.82811">
        <ele>248</ele>
        <time>2017-07-21T09:10:51Z</time>
      </trkpt>
      <trkpt lat="45.98975" lon="4.82814">
        <ele>248</ele>
        <time>2017-07-21T09:10:52Z</time>
      </trkpt>
      <trkpt lat="45.98972" lon="4.8282">
        <ele>249</ele>
        <time>2017-07-21T09:10:54Z</time>
      </trkpt>
      <trkpt lat="45.9897" lon="4.82824">
        <ele>249</ele>
        <time>2017-07-21T09:10:55Z</time>
      </trkpt>
      <trkpt lat="45.98965" lon="4.82831">
        <ele>249</ele>
        <time>2017-07-21T09:10:57Z</time>
      </trkpt>
      <trkpt lat="45.98963" lon="4.82834">
        <ele>252</ele>
        <time>2017-07-21T09:10:58Z</time>
      </trkpt>
      <trkpt lat="45.98958" lon="4.82843">
        <ele>252</ele>
        <time>2017-07-21T09:11:01Z</time>
      </trkpt>
      <trkpt lat="45.98957" lon="4.82846">
        <ele>252</ele>
        <time>2017-07-21T09:11:02Z</time>
      </trkpt>
      <trkpt lat="45.98952" lon="4.82856">
        <ele>252</ele>
        <time>2017-07-21T09:11:06Z</time>
      </trkpt>
      <trkpt lat="45.98951" lon="4.82859">
        <ele>252</ele>
        <time>2017-07-21T09:11:07Z</time>
      </trkpt>
      <trkpt lat="45.98946" lon="4.82867">
        <ele>253</ele>
        <time>2017-07-21T09:11:11Z</time>
      </trkpt>
      <trkpt lat="45.98945" lon="4.8287">
        <ele>253</ele>
        <time>2017-07-21T09:11:12Z</time>
      </trkpt>
      <trkpt lat="45.98941" lon="4.82879">
        <ele>253</ele>
        <time>2017-07-21T09:11:15Z</time>
      </trkpt>
      <trkpt lat="45.9894" lon="4.82881">
        <ele>253</ele>
        <time>2017-07-21T09:11:16Z</time>
      </trkpt>
      <trkpt lat="45.98935" lon="4.82892">
        <ele>253</ele>
        <time>2017-07-21T09:11:20Z</time>
      </trkpt>
      <trkpt lat="45.98934" lon="4.82895">
        <ele>253</ele>
        <time>2017-07-21T09:11:21Z</time>
      </trkpt>
      <trkpt lat="45.98928" lon="4.82905">
        <ele>254</ele>
        <time>2017-07-21T09:11:25Z</time>
      </trkpt>
      <trkpt lat="45.98928" lon="4.82907">
        <ele>254</ele>
        <time>2017-07-21T09:11:26Z</time>
      </trkpt>
      <trkpt lat="45.98922" lon="4.82917">
        <ele>255</ele>
        <time>2017-07-21T09:11:31Z</time>
      </trkpt>
      <trkpt lat="45.98921" lon="4.82919">
        <ele>255</ele>
        <time>2017-07-21T09:11:32Z</time>
      </trkpt>
      <trkpt lat="45.98917" lon="4.8293">
        <ele>257</ele>
        <time>2017-07-21T09:11:37Z</time>
      </trkpt>
      <trkpt lat="45.98916" lon="4.82932">
        <ele>257</ele>
        <time>2017-07-21T09:11:38Z</time>
      </trkpt>
      <trkpt lat="45.98915" lon="4.82935">
        <ele>257</ele>
        <time>2017-07-21T09:11:39Z</time>
      </trkpt>
      <trkpt lat="45.98915" lon="4.82937">
        <ele>258</ele>
        <time>2017-07-21T09:11:40Z</time>
      </trkpt>
      <trkpt lat="45.98913" lon="4.82938">
        <ele>258</ele>
        <time>2017-07-21T09:11:41Z</time>
      </trkpt>
      <trkpt lat="45.98909" lon="4.82947">
        <ele>258</ele>
        <time>2017-07-21T09:11:44Z</time>
      </trkpt>
      <trkpt lat="45.98908" lon="4.8295">
        <ele>258</ele>
        <time>2017-07-21T09:11:45Z</time>
      </trkpt>
      <trkpt lat="45.98902" lon="4.82959">
        <ele>259</ele>
        <time>2017-07-21T09:11:49Z</time>
      </trkpt>
      <trkpt lat="45.98901" lon="4.82961">
        <ele>259</ele>
        <time>2017-07-21T09:11:50Z</time>
      </trkpt>
      <trkpt lat="45.98894" lon="4.8297">
        <ele>259</ele>
        <time>2017-07-21T09:11:54Z</time>
      </trkpt>
      <trkpt lat="45.98893" lon="4.82971">
        <ele>259</ele>
        <time>2017-07-21T09:11:55Z</time>
      </trkpt>
      <trkpt lat="45.98885" lon="4.82976">
        <ele>259</ele>
        <time>2017-07-21T09:11:59Z</time>
      </trkpt>
      <trkpt lat="45.98884" lon="4.82978">
        <ele>259</ele>
        <time>2017-07-21T09:12:00Z</time>
      </trkpt>
      <trkpt lat="45.98878" lon="4.82984">
        <ele>260</ele>
        <time>2017-07-21T09:12:03Z</time>
      </trkpt>
      <trkpt lat="45.98876" lon="4.82986">
        <ele>260</ele>
        <time>2017-07-21T09:12:04Z</time>
      </trkpt>
      <trkpt lat="45.9887" lon="4.82994">
        <ele>260</ele>
        <time>2017-07-21T09:12:08Z</time>
      </trkpt>
      <trkpt lat="45.98868" lon="4.82996">
        <ele>260</ele>
        <time>2017-07-21T09:12:09Z</time>
      </trkpt>
      <trkpt lat="45.98861" lon="4.83001">
        <ele>261</ele>
        <time>2017-07-21T09:12:13Z</time>
      </trkpt>
      <trkpt lat="45.98858" lon="4.83002">
        <ele>261</ele>
        <time>2017-07-21T09:12:14Z</time>
      </trkpt>
      <trkpt lat="45.98852" lon="4.83007">
        <ele>261</ele>
        <time>2017-07-21T09:12:18Z</time>
      </trkpt>
      <trkpt lat="45.9885" lon="4.83009">
        <ele>261</ele>
        <time>2017-07-21T09:12:19Z</time>
      </trkpt>
      <trkpt lat="45.98843" lon="4.83015">
        <ele>261</ele>
        <time>2017-07-21T09:12:23Z</time>
      </trkpt>
      <trkpt lat="45.98841" lon="4.83016">
        <ele>261</ele>
        <time>2017-07-21T09:12:24Z</time>
      </trkpt>
      <trkpt lat="45.98834" lon="4.83021">
        <ele>261</ele>
        <time>2017-07-21T09:12:28Z</time>
      </trkpt>
      <trkpt lat="45.98832" lon="4.83023">
        <ele>264</ele>
        <time>2017-07-21T09:12:29Z</time>
      </trkpt>
      <trkpt lat="45.98826" lon="4.83028">
        <ele>264</ele>
        <time>2017-07-21T09:12:32Z</time>
      </trkpt>
      <trkpt lat="45.98824" lon="4.83029">
        <ele>264</ele>
        <time>2017-07-21T09:12:33Z</time>
      </trkpt>
      <trkpt lat="45.98817" lon="4.83034">
        <ele>264</ele>
        <time>2017-07-21T09:12:36Z</time>
      </trkpt>
      <trkpt lat="45.98815" lon="4.83036">
        <ele>264</ele>
        <time>2017-07-21T09:12:37Z</time>
      </trkpt>
      <trkpt lat="45.98808" lon="4.83042">
        <ele>264</ele>
        <time>2017-07-21T09:12:41Z</time>
      </trkpt>
      <trkpt lat="45.98805" lon="4.83042">
        <ele>264</ele>
        <time>2017-07-21T09:12:42Z</time>
      </trkpt>
      <trkpt lat="45.98798" lon="4.83049">
        <ele>264</ele>
        <time>2017-07-21T09:12:45Z</time>
      </trkpt>
      <trkpt lat="45.98796" lon="4.83052">
        <ele>265</ele>
        <time>2017-07-21T09:12:46Z</time>
      </trkpt>
      <trkpt lat="45.98788" lon="4.83057">
        <ele>265</ele>
        <time>2017-07-21T09:12:49Z</time>
      </trkpt>
      <trkpt lat="45.98786" lon="4.83059">
        <ele>265</ele>
        <time>2017-07-21T09:12:50Z</time>
      </trkpt>
      <trkpt lat="45.9878" lon="4.83064">
        <ele>265</ele>
        <time>2017-07-21T09:12:53Z</time>
      </trkpt>
      <trkpt lat="45.98777" lon="4.83065">
        <ele>265</ele>
        <time>2017-07-21T09:12:54Z</time>
      </trkpt>
      <trkpt lat="45.98772" lon="4.8307">
        <ele>265</ele>
        <time>2017-07-21T09:12:56Z</time>
      </trkpt>
      <trkpt lat="45.9877" lon="4.83072">
        <ele>266</ele>
        <time>2017-07-21T09:12:57Z</time>
      </trkpt>
      <trkpt lat="45.98763" lon="4.83077">
        <ele>266</ele>
        <time>2017-07-21T09:12:59Z</time>
      </trkpt>
      <trkpt lat="45.98761" lon="4.8308">
        <ele>266</ele>
        <time>2017-07-21T09:13:00Z</time>
      </trkpt>
      <trkpt lat="45.98754" lon="4.83086">
        <ele>266</ele>
        <time>2017-07-21T09:13:03Z</time>
      </trkpt>
      <trkpt lat="45.98752" lon="4.83088">
        <ele>266</ele>
        <time>2017-07-21T09:13:04Z</time>
      </trkpt>
      <trkpt lat="45.98744" lon="4.83094">
        <ele>267</ele>
        <time>2017-07-21T09:13:07Z</time>
      </trkpt>
      <trkpt lat="45.98741" lon="4.83096">
        <ele>267</ele>
        <time>2017-07-21T09:13:08Z</time>
      </trkpt>
      <trkpt lat="45.98736" lon="4.83101">
        <ele>267</ele>
        <time>2017-07-21T09:13:10Z</time>
      </trkpt>
      <trkpt lat="45.98733" lon="4.83103">
        <ele>267</ele>
        <time>2017-07-21T09:13:11Z</time>
      </trkpt>
      <trkpt lat="45.98725" lon="4.83108">
        <ele>267</ele>
        <time>2017-07-21T09:13:14Z</time>
      </trkpt>
      <trkpt lat="45.98723" lon="4.83111">
        <ele>267</ele>
        <time>2017-07-21T09:13:15Z</time>
      </trkpt>
      <trkpt lat="45.98717" lon="4.83116">
        <ele>267</ele>
        <time>2017-07-21T09:13:17Z</time>
      </trkpt>
      <trkpt lat="45.98713" lon="4.83118">
        <ele>267</ele>
        <time>2017-07-21T09:13:18Z</time>
      </trkpt>
      <trkpt lat="45.98707" lon="4.83123">
        <ele>267</ele>
        <time>2017-07-21T09:13:20Z</time>
      </trkpt>
      <trkpt lat="45.98705" lon="4.83125">
        <ele>267</ele>
        <time>2017-07-21T09:13:21Z</time>
      </trkpt>
      <trkpt lat="45.98698" lon="4.8313">
        <ele>267</ele>
        <time>2017-07-21T09:13:23Z</time>
      </trkpt>
      <trkpt lat="45.98695" lon="4.83132">
        <ele>266</ele>
        <time>2017-07-21T09:13:24Z</time>
      </trkpt>
      <trkpt lat="45.98688" lon="4.83138">
        <ele>266</ele>
        <time>2017-07-21T09:13:26Z</time>
      </trkpt>
      <trkpt lat="45.98685" lon="4.8314">
        <ele>266</ele>
        <time>2017-07-21T09:13:27Z</time>
      </trkpt>
      <trkpt lat="45.98679" lon="4.83144">
        <ele>266</ele>
        <time>2017-07-21T09:13:29Z</time>
      </trkpt>
      <trkpt lat="45.98677" lon="4.83146">
        <ele>266</ele>
        <time>2017-07-21T09:13:30Z</time>
      </trkpt>
      <trkpt lat="45.98671" lon="4.83151">
        <ele>266</ele>
        <time>2017-07-21T09:13:32Z</time>
      </trkpt>
      <trkpt lat="45.98667" lon="4.83154">
        <ele>266</ele>
        <time>2017-07-21T09:13:33Z</time>
      </trkpt>
      <trkpt lat="45.98661" lon="4.83159">
        <ele>267</ele>
        <time>2017-07-21T09:13:35Z</time>
      </trkpt>
      <trkpt lat="45.98658" lon="4.83162">
        <ele>267</ele>
        <time>2017-07-21T09:13:36Z</time>
      </trkpt>
      <trkpt lat="45.98651" lon="4.83166">
        <ele>267</ele>
        <time>2017-07-21T09:13:38Z</time>
      </trkpt>
      <trkpt lat="45.98648" lon="4.83169">
        <ele>267</ele>
        <time>2017-07-21T09:13:39Z</time>
      </trkpt>
      <trkpt lat="45.98643" lon="4.83174">
        <ele>267</ele>
        <time>2017-07-21T09:13:41Z</time>
      </trkpt>
      <trkpt lat="45.9864" lon="4.83177">
        <ele>267</ele>
        <time>2017-07-21T09:13:42Z</time>
      </trkpt>
      <trkpt lat="45.98633" lon="4.83181">
        <ele>267</ele>
        <time>2017-07-21T09:13:44Z</time>
      </trkpt>
      <trkpt lat="45.9863" lon="4.83185">
        <ele>267</ele>
        <time>2017-07-21T09:13:45Z</time>
      </trkpt>
      <trkpt lat="45.98624" lon="4.83193">
        <ele>267</ele>
        <time>2017-07-21T09:13:47Z</time>
      </trkpt>
      <trkpt lat="45.98621" lon="4.83197">
        <ele>267</ele>
        <time>2017-07-21T09:13:48Z</time>
      </trkpt>
      <trkpt lat="45.98614" lon="4.83204">
        <ele>267</ele>
        <time>2017-07-21T09:13:50Z</time>
      </trkpt>
      <trkpt lat="45.98611" lon="4.83208">
        <ele>267</ele>
        <time>2017-07-21T09:13:51Z</time>
      </trkpt>
      <trkpt lat="45.98608" lon="4.83213">
        <ele>267</ele>
        <time>2017-07-21T09:13:52Z</time>
      </trkpt>
      <trkpt lat="45.98604" lon="4.83218">
        <ele>267</ele>
        <time>2017-07-21T09:13:53Z</time>
      </trkpt>
      <trkpt lat="45.98598" lon="4.83226">
        <ele>268</ele>
        <time>2017-07-21T09:13:55Z</time>
      </trkpt>
      <trkpt lat="45.98596" lon="4.8323">
        <ele>268</ele>
        <time>2017-07-21T09:13:56Z</time>
      </trkpt>
      <trkpt lat="45.98589" lon="4.83236">
        <ele>268</ele>
        <time>2017-07-21T09:13:58Z</time>
      </trkpt>
      <trkpt lat="45.98586" lon="4.83239">
        <ele>268</ele>
        <time>2017-07-21T09:13:59Z</time>
      </trkpt>
      <trkpt lat="45.98582" lon="4.83244">
        <ele>268</ele>
        <time>2017-07-21T09:14:00Z</time>
      </trkpt>
      <trkpt lat="45.98579" lon="4.83249">
        <ele>268</ele>
        <time>2017-07-21T09:14:01Z</time>
      </trkpt>
      <trkpt lat="45.98575" lon="4.83254">
        <ele>268</ele>
        <time>2017-07-21T09:14:02Z</time>
      </trkpt>
      <trkpt lat="45.98572" lon="4.83258">
        <ele>269</ele>
        <time>2017-07-21T09:14:03Z</time>
      </trkpt>
      <trkpt lat="45.98566" lon="4.83266">
        <ele>269</ele>
        <time>2017-07-21T09:14:05Z</time>
      </trkpt>
      <trkpt lat="45.98563" lon="4.83269">
        <ele>269</ele>
        <time>2017-07-21T09:14:06Z</time>
      </trkpt>
      <trkpt lat="45.98558" lon="4.83276">
        <ele>269</ele>
        <time>2017-07-21T09:14:08Z</time>
      </trkpt>
      <trkpt lat="45.98555" lon="4.8328">
        <ele>269</ele>
        <time>2017-07-21T09:14:09Z</time>
      </trkpt>
      <trkpt lat="45.98549" lon="4.83288">
        <ele>269</ele>
        <time>2017-07-21T09:14:11Z</time>
      </trkpt>
      <trkpt lat="45.98545" lon="4.83292">
        <ele>269</ele>
        <time>2017-07-21T09:14:12Z</time>
      </trkpt>
      <trkpt lat="45.98539" lon="4.83299">
        <ele>269</ele>
        <time>2017-07-21T09:14:14Z</time>
      </trkpt>
      <trkpt lat="45.98537" lon="4.83304">
        <ele>269</ele>
        <time>2017-07-21T09:14:15Z</time>
      </trkpt>
      <trkpt lat="45.98531" lon="4.83312">
        <ele>269</ele>
        <time>2017-07-21T09:14:17Z</time>
      </trkpt>
      <trkpt lat="45.98529" lon="4.83316">
        <ele>269</ele>
        <time>2017-07-21T09:14:18Z</time>
      </trkpt>
      <trkpt lat="45.98523" lon="4.83323">
        <ele>270</ele>
        <time>2017-07-21T09:14:20Z</time>
      </trkpt>
      <trkpt lat="45.98521" lon="4.83326">
        <ele>270</ele>
        <time>2017-07-21T09:14:21Z</time>
      </trkpt>
      <trkpt lat="45.98515" lon="4.83333">
        <ele>270</ele>
        <time>2017-07-21T09:14:23Z</time>
      </trkpt>
      <trkpt lat="45.98512" lon="4.83338">
        <ele>270</ele>
        <time>2017-07-21T09:14:24Z</time>
      </trkpt>
      <trkpt lat="45.98509" lon="4.83342">
        <ele>270</ele>
        <time>2017-07-21T09:14:25Z</time>
      </trkpt>
      <trkpt lat="45.98505" lon="4.83346">
        <ele>270</ele>
        <time>2017-07-21T09:14:26Z</time>
      </trkpt>
      <trkpt lat="45.98502" lon="4.83353">
        <ele>270</ele>
        <time>2017-07-21T09:14:27Z</time>
      </trkpt>
      <trkpt lat="45.98498" lon="4.83358">
        <ele>270</ele>
        <time>2017-07-21T09:14:28Z</time>
      </trkpt>
      <trkpt lat="45.98494" lon="4.83362">
        <ele>270</ele>
        <time>2017-07-21T09:14:29Z</time>
      </trkpt>
      <trkpt lat="45.98491" lon="4.83368">
        <ele>270</ele>
        <time>2017-07-21T09:14:30Z</time>
      </trkpt>
      <trkpt lat="45.98487" lon="4.83373">
        <ele>270</ele>
        <time>2017-07-21T09:14:31Z</time>
      </trkpt>
      <trkpt lat="45.98483" lon="4.83379">
        <ele>269</ele>
        <time>2017-07-21T09:14:32Z</time>
      </trkpt>
      <trkpt lat="45.9848" lon="4.83385">
        <ele>269</ele>
        <time>2017-07-21T09:14:33Z</time>
      </trkpt>
      <trkpt lat="45.98476" lon="4.8339">
        <ele>269</ele>
        <time>2017-07-21T09:14:34Z</time>
      </trkpt>
      <trkpt lat="45.98473" lon="4.83395">
        <ele>269</ele>
        <time>2017-07-21T09:14:35Z</time>
      </trkpt>
      <trkpt lat="45.9847" lon="4.834">
        <ele>269</ele>
        <time>2017-07-21T09:14:36Z</time>
      </trkpt>
      <trkpt lat="45.98466" lon="4.83406">
        <ele>269</ele>
        <time>2017-07-21T09:14:37Z</time>
      </trkpt>
      <trkpt lat="45.98463" lon="4.83411">
        <ele>269</ele>
        <time>2017-07-21T09:14:38Z</time>
      </trkpt>
      <trkpt lat="45.98457" lon="4.83419">
        <ele>269</ele>
        <time>2017-07-21T09:14:40Z</time>
      </trkpt>
      <trkpt lat="45.98454" lon="4.83423">
        <ele>269</ele>
        <time>2017-07-21T09:14:41Z</time>
      </trkpt>
      <trkpt lat="45.98448" lon="4.83431">
        <ele>269</ele>
        <time>2017-07-21T09:14:43Z</time>
      </trkpt>
      <trkpt lat="45.98444" lon="4.83433">
        <ele>268</ele>
        <time>2017-07-21T09:14:44Z</time>
      </trkpt>
      <trkpt lat="45.98439" lon="4.83441">
        <ele>268</ele>
        <time>2017-07-21T09:14:46Z</time>
      </trkpt>
      <trkpt lat="45.98436" lon="4.83445">
        <ele>268</ele>
        <time>2017-07-21T09:14:47Z</time>
      </trkpt>
      <trkpt lat="45.9843" lon="4.83455">
        <ele>268</ele>
        <time>2017-07-21T09:14:49Z</time>
      </trkpt>
      <trkpt lat="45.98426" lon="4.83459">
        <ele>268</ele>
        <time>2017-07-21T09:14:50Z</time>
      </trkpt>
      <trkpt lat="45.98423" lon="4.83463">
        <ele>268</ele>
        <time>2017-07-21T09:14:51Z</time>
      </trkpt>
      <trkpt lat="45.98419" lon="4.83468">
        <ele>268</ele>
        <time>2017-07-21T09:14:52Z</time>
      </trkpt>
      <trkpt lat="45.98416" lon="4.83472">
        <ele>269</ele>
        <time>2017-07-21T09:14:53Z</time>
      </trkpt>
      <trkpt lat="45.98412" lon="4.83476">
        <ele>269</ele>
        <time>2017-07-21T09:14:54Z</time>
      </trkpt>
      <trkpt lat="45.98408" lon="4.83481">
        <ele>269</ele>
        <time>2017-07-21T09:14:55Z</time>
      </trkpt>
      <trkpt lat="45.98404" lon="4.83487">
        <ele>269</ele>
        <time>2017-07-21T09:14:56Z</time>
      </trkpt>
      <trkpt lat="45.984" lon="4.83493">
        <ele>269</ele>
        <time>2017-07-21T09:14:57Z</time>
      </trkpt>
      <trkpt lat="45.98395" lon="4.83499">
        <ele>269</ele>
        <time>2017-07-21T09:14:58Z</time>
      </trkpt>
      <trkpt lat="45.9839" lon="4.83504">
        <ele>269</ele>
        <time>2017-07-21T09:14:59Z</time>
      </trkpt>
      <trkpt lat="45.98385" lon="4.83509">
        <ele>269</ele>
        <time>2017-07-21T09:15:00Z</time>
      </trkpt>
      <trkpt lat="45.98382" lon="4.83515">
        <ele>269</ele>
        <time>2017-07-21T09:15:01Z</time>
      </trkpt>
      <trkpt lat="45.98378" lon="4.8352">
        <ele>269</ele>
        <time>2017-07-21T09:15:02Z</time>
      </trkpt>
      <trkpt lat="45.98374" lon="4.83525">
        <ele>269</ele>
        <time>2017-07-21T09:15:03Z</time>
      </trkpt>
      <trkpt lat="45.98371" lon="4.8353">
        <ele>269</ele>
        <time>2017-07-21T09:15:04Z</time>
      </trkpt>
      <trkpt lat="45.98364" lon="4.83539">
        <ele>269</ele>
        <time>2017-07-21T09:15:06Z</time>
      </trkpt>
      <trkpt lat="45.98361" lon="4.83543">
        <ele>269</ele>
        <time>2017-07-21T09:15:07Z</time>
      </trkpt>
      <trkpt lat="45.98355" lon="4.83551">
        <ele>269</ele>
        <time>2017-07-21T09:15:09Z</time>
      </trkpt>
      <trkpt lat="45.98351" lon="4.83555">
        <ele>269</ele>
        <time>2017-07-21T09:15:10Z</time>
      </trkpt>
      <trkpt lat="45.98348" lon="4.83559">
        <ele>269</ele>
        <time>2017-07-21T09:15:11Z</time>
      </trkpt>
      <trkpt lat="45.98344" lon="4.83564">
        <ele>269</ele>
        <time>2017-07-21T09:15:12Z</time>
      </trkpt>
      <trkpt lat="45.98341" lon="4.83569">
        <ele>270</ele>
        <time>2017-07-21T09:15:13Z</time>
      </trkpt>
      <trkpt lat="45.98337" lon="4.83574">
        <ele>270</ele>
        <time>2017-07-21T09:15:14Z</time>
      </trkpt>
      <trkpt lat="45.98333" lon="4.8358">
        <ele>270</ele>
        <time>2017-07-21T09:15:15Z</time>
      </trkpt>
      <trkpt lat="45.98329" lon="4.83585">
        <ele>270</ele>
        <time>2017-07-21T09:15:16Z</time>
      </trkpt>
      <trkpt lat="45.98325" lon="4.8359">
        <ele>270</ele>
        <time>2017-07-21T09:15:17Z</time>
      </trkpt>
      <trkpt lat="45.98321" lon="4.83595">
        <ele>271</ele>
        <time>2017-07-21T09:15:18Z</time>
      </trkpt>
      <trkpt lat="45.98318" lon="4.836">
        <ele>271</ele>
        <time>2017-07-21T09:15:19Z</time>
      </trkpt>
      <trkpt lat="45.98315" lon="4.83605">
        <ele>271</ele>
        <time>2017-07-21T09:15:20Z</time>
      </trkpt>
      <trkpt lat="45.9831" lon="4.83614">
        <ele>271</ele>
        <time>2017-07-21T09:15:22Z</time>
      </trkpt>
      <trkpt lat="45.98307" lon="4.83618">
        <ele>271</ele>
        <time>2017-07-21T09:15:23Z</time>
      </trkpt>
      <trkpt lat="45.98302" lon="4.83628">
        <ele>271</ele>
        <time>2017-07-21T09:15:25Z</time>
      </trkpt>
      <trkpt lat="45.98299" lon="4.83635">
        <ele>271</ele>
        <time>2017-07-21T09:15:26Z</time>
      </trkpt>
      <trkpt lat="45.98296" lon="4.83641">
        <ele>271</ele>
        <time>2017-07-21T09:15:27Z</time>
      </trkpt>
      <trkpt lat="45.98293" lon="4.83648">
        <ele>271</ele>
        <time>2017-07-21T09:15:28Z</time>
      </trkpt>
      <trkpt lat="45.98289" lon="4.83655">
        <ele>272</ele>
        <time>2017-07-21T09:15:29Z</time>
      </trkpt>
      <trkpt lat="45.98286" lon="4.83662">
        <ele>272</ele>
        <time>2017-07-21T09:15:30Z</time>
      </trkpt>
      <trkpt lat="45.98284" lon="4.83669">
        <ele>272</ele>
        <time>2017-07-21T09:15:31Z</time>
      </trkpt>
      <trkpt lat="45.98281" lon="4.83676">
        <ele>272</ele>
        <time>2017-07-21T09:15:32Z</time>
      </trkpt>
      <trkpt lat="45.98279" lon="4.83683">
        <ele>272</ele>
        <time>2017-07-21T09:15:33Z</time>
      </trkpt>
      <trkpt lat="45.98277" lon="4.83689">
        <ele>272</ele>
        <time>2017-07-21T09:15:34Z</time>
      </trkpt>
      <trkpt lat="45.98275" lon="4.83695">
        <ele>272</ele>
        <time>2017-07-21T09:15:35Z</time>
      </trkpt>
      <trkpt lat="45.98273" lon="4.83701">
        <ele>272</ele>
        <time>2017-07-21T09:15:36Z</time>
      </trkpt>
      <trkpt lat="45.9827" lon="4.83713">
        <ele>272</ele>
        <time>2017-07-21T09:15:38Z</time>
      </trkpt>
      <trkpt lat="45.98269" lon="4.83718">
        <ele>272</ele>
        <time>2017-07-21T09:15:39Z</time>
      </trkpt>
      <trkpt lat="45.98265" lon="4.83729">
        <ele>272</ele>
        <time>2017-07-21T09:15:41Z</time>
      </trkpt>
      <trkpt lat="45.98264" lon="4.83735">
        <ele>272</ele>
        <time>2017-07-21T09:15:42Z</time>
      </trkpt>
      <trkpt lat="45.98263" lon="4.83742">
        <ele>272</ele>
        <time>2017-07-21T09:15:43Z</time>
      </trkpt>
      <trkpt lat="45.9826" lon="4.83749">
        <ele>272</ele>
        <time>2017-07-21T09:15:44Z</time>
      </trkpt>
      <trkpt lat="45.98257" lon="4.83755">
        <ele>272</ele>
        <time>2017-07-21T09:15:45Z</time>
      </trkpt>
      <trkpt lat="45.98255" lon="4.83763">
        <ele>272</ele>
        <time>2017-07-21T09:15:46Z</time>
      </trkpt>
      <trkpt lat="45.98252" lon="4.8377">
        <ele>272</ele>
        <time>2017-07-21T09:15:47Z</time>
      </trkpt>
      <trkpt lat="45.9825" lon="4.83777">
        <ele>272</ele>
        <time>2017-07-21T09:15:48Z</time>
      </trkpt>
      <trkpt lat="45.98248" lon="4.83784">
        <ele>272</ele>
        <time>2017-07-21T09:15:49Z</time>
      </trkpt>
      <trkpt lat="45.98246" lon="4.8379">
        <ele>272</ele>
        <time>2017-07-21T09:15:50Z</time>
      </trkpt>
      <trkpt lat="45.98241" lon="4.83801">
        <ele>272</ele>
        <time>2017-07-21T09:15:52Z</time>
      </trkpt>
      <trkpt lat="45.98239" lon="4.83806">
        <ele>272</ele>
        <time>2017-07-21T09:15:53Z</time>
      </trkpt>
      <trkpt lat="45.98235" lon="4.83817">
        <ele>272</ele>
        <time>2017-07-21T09:15:55Z</time>
      </trkpt>
      <trkpt lat="45.98234" lon="4.83823">
        <ele>272</ele>
        <time>2017-07-21T09:15:56Z</time>
      </trkpt>
      <trkpt lat="45.9823" lon="4.83833">
        <ele>272</ele>
        <time>2017-07-21T09:15:58Z</time>
      </trkpt>
      <trkpt lat="45.98228" lon="4.83838">
        <ele>272</ele>
        <time>2017-07-21T09:15:59Z</time>
      </trkpt>
      <trkpt lat="45.98225" lon="4.83849">
        <ele>272</ele>
        <time>2017-07-21T09:16:01Z</time>
      </trkpt>
      <trkpt lat="45.98223" lon="4.83855">
        <ele>272</ele>
        <time>2017-07-21T09:16:02Z</time>
      </trkpt>
      <trkpt lat="45.98218" lon="4.83865">
        <ele>272</ele>
        <time>2017-07-21T09:16:04Z</time>
      </trkpt>
      <trkpt lat="45.98216" lon="4.83871">
        <ele>272</ele>
        <time>2017-07-21T09:16:05Z</time>
      </trkpt>
      <trkpt lat="45.98212" lon="4.83882">
        <ele>273</ele>
        <time>2017-07-21T09:16:07Z</time>
      </trkpt>
      <trkpt lat="45.9821" lon="4.83887">
        <ele>273</ele>
        <time>2017-07-21T09:16:08Z</time>
      </trkpt>
      <trkpt lat="45.98207" lon="4.83898">
        <ele>273</ele>
        <time>2017-07-21T09:16:10Z</time>
      </trkpt>
      <trkpt lat="45.98205" lon="4.83902">
        <ele>273</ele>
        <time>2017-07-21T09:16:11Z</time>
      </trkpt>
      <trkpt lat="45.98201" lon="4.83912">
        <ele>273</ele>
        <time>2017-07-21T09:16:13Z</time>
      </trkpt>
      <trkpt lat="45.98199" lon="4.83917">
        <ele>273</ele>
        <time>2017-07-21T09:16:14Z</time>
      </trkpt>
      <trkpt lat="45.98196" lon="4.83922">
        <ele>273</ele>
        <time>2017-07-21T09:16:15Z</time>
      </trkpt>
      <trkpt lat="45.98194" lon="4.83929">
        <ele>273</ele>
        <time>2017-07-21T09:16:16Z</time>
      </trkpt>
      <trkpt lat="45.98192" lon="4.83937">
        <ele>273</ele>
        <time>2017-07-21T09:16:17Z</time>
      </trkpt>
      <trkpt lat="45.98189" lon="4.83944">
        <ele>273</ele>
        <time>2017-07-21T09:16:18Z</time>
      </trkpt>
      <trkpt lat="45.98187" lon="4.8395">
        <ele>273</ele>
        <time>2017-07-21T09:16:19Z</time>
      </trkpt>
      <trkpt lat="45.98184" lon="4.83957">
        <ele>273</ele>
        <time>2017-07-21T09:16:20Z</time>
      </trkpt>
      <trkpt lat="45.98182" lon="4.83962">
        <ele>273</ele>
        <time>2017-07-21T09:16:21Z</time>
      </trkpt>
      <trkpt lat="45.98179" lon="4.83968">
        <ele>273</ele>
        <time>2017-07-21T09:16:22Z</time>
      </trkpt>
      <trkpt lat="45.98175" lon="4.83979">
        <ele>273</ele>
        <time>2017-07-21T09:16:24Z</time>
      </trkpt>
      <trkpt lat="45.98173" lon="4.83985">
        <ele>273</ele>
        <time>2017-07-21T09:16:25Z</time>
      </trkpt>
      <trkpt lat="45.9817" lon="4.8399">
        <ele>273</ele>
        <time>2017-07-21T09:16:26Z</time>
      </trkpt>
      <trkpt lat="45.98168" lon="4.83996">
        <ele>273</ele>
        <time>2017-07-21T09:16:27Z</time>
      </trkpt>
      <trkpt lat="45.98166" lon="4.84002">
        <ele>273</ele>
        <time>2017-07-21T09:16:28Z</time>
      </trkpt>
      <trkpt lat="45.98163" lon="4.84007">
        <ele>273</ele>
        <time>2017-07-21T09:16:29Z</time>
      </trkpt>
      <trkpt lat="45.98159" lon="4.84012">
        <ele>273</ele>
        <time>2017-07-21T09:16:30Z</time>
      </trkpt>
      <trkpt lat="45.98156" lon="4.84018">
        <ele>273</ele>
        <time>2017-07-21T09:16:31Z</time>
      </trkpt>
      <trkpt lat="45.98152" lon="4.84025">
        <ele>273</ele>
        <time>2017-07-21T09:16:32Z</time>
      </trkpt>
      <trkpt lat="45.98148" lon="4.84032">
        <ele>273</ele>
        <time>2017-07-21T09:16:33Z</time>
      </trkpt>
      <trkpt lat="45.98144" lon="4.84039">
        <ele>273</ele>
        <time>2017-07-21T09:16:34Z</time>
      </trkpt>
      <trkpt lat="45.9814" lon="4.84045">
        <ele>273</ele>
        <time>2017-07-21T09:16:35Z</time>
      </trkpt>
      <trkpt lat="45.98137" lon="4.84051">
        <ele>273</ele>
        <time>2017-07-21T09:16:36Z</time>
      </trkpt>
      <trkpt lat="45.98133" lon="4.84057">
        <ele>273</ele>
        <time>2017-07-21T09:16:37Z</time>
      </trkpt>
      <trkpt lat="45.98129" lon="4.84062">
        <ele>273</ele>
        <time>2017-07-21T09:16:38Z</time>
      </trkpt>
      <trkpt lat="45.98126" lon="4.84067">
        <ele>273</ele>
        <time>2017-07-21T09:16:39Z</time>
      </trkpt>
      <trkpt lat="45.98123" lon="4.84072">
        <ele>273</ele>
        <time>2017-07-21T09:16:40Z</time>
      </trkpt>
      <trkpt lat="45.98119" lon="4.84077">
        <ele>273</ele>
        <time>2017-07-21T09:16:41Z</time>
      </trkpt>
      <trkpt lat="45.98113" lon="4.84085">
        <ele>273</ele>
        <time>2017-07-21T09:16:43Z</time>
      </trkpt>
      <trkpt lat="45.9811" lon="4.84089">
        <ele>273</ele>
        <time>2017-07-21T09:16:44Z</time>
      </trkpt>
      <trkpt lat="45.98103" lon="4.84095">
        <ele>273</ele>
        <time>2017-07-21T09:16:46Z</time>
      </trkpt>
      <trkpt lat="45.98099" lon="4.84099">
        <ele>273</ele>
        <time>2017-07-21T09:16:47Z</time>
      </trkpt>
      <trkpt lat="45.98095" lon="4.84103">
        <ele>273</ele>
        <time>2017-07-21T09:16:48Z</time>
      </trkpt>
      <trkpt lat="45.98091" lon="4.84107">
        <ele>273</ele>
        <time>2017-07-21T09:16:49Z</time>
      </trkpt>
      <trkpt lat="45.98087" lon="4.84111">
        <ele>273</ele>
        <time>2017-07-21T09:16:50Z</time>
      </trkpt>
      <trkpt lat="45.98082" lon="4.84115">
        <ele>273</ele>
        <time>2017-07-21T09:16:51Z</time>
      </trkpt>
      <trkpt lat="45.98077" lon="4.8412">
        <ele>273</ele>
        <time>2017-07-21T09:16:52Z</time>
      </trkpt>
      <trkpt lat="45.98073" lon="4.84124">
        <ele>273</ele>
        <time>2017-07-21T09:16:53Z</time>
      </trkpt>
      <trkpt lat="45.98069" lon="4.84128">
        <ele>273</ele>
        <time>2017-07-21T09:16:54Z</time>
      </trkpt>
      <trkpt lat="45.98065" lon="4.84132">
        <ele>273</ele>
        <time>2017-07-21T09:16:55Z</time>
      </trkpt>
      <trkpt lat="45.98061" lon="4.84136">
        <ele>273</ele>
        <time>2017-07-21T09:16:56Z</time>
      </trkpt>
      <trkpt lat="45.98056" lon="4.8414">
        <ele>273</ele>
        <time>2017-07-21T09:16:57Z</time>
      </trkpt>
      <trkpt lat="45.98053" lon="4.84143">
        <ele>273</ele>
        <time>2017-07-21T09:16:58Z</time>
      </trkpt>
      <trkpt lat="45.98049" lon="4.84147">
        <ele>273</ele>
        <time>2017-07-21T09:16:59Z</time>
      </trkpt>
      <trkpt lat="45.98042" lon="4.84154">
        <ele>273</ele>
        <time>2017-07-21T09:17:01Z</time>
      </trkpt>
      <trkpt lat="45.98039" lon="4.84158">
        <ele>273</ele>
        <time>2017-07-21T09:17:02Z</time>
      </trkpt>
      <trkpt lat="45.98034" lon="4.84161">
        <ele>273</ele>
        <time>2017-07-21T09:17:03Z</time>
      </trkpt>
      <trkpt lat="45.9803" lon="4.84163">
        <ele>273</ele>
        <time>2017-07-21T09:17:04Z</time>
      </trkpt>
      <trkpt lat="45.98025" lon="4.84167">
        <ele>274</ele>
        <time>2017-07-21T09:17:05Z</time>
      </trkpt>
      <trkpt lat="45.9802" lon="4.84172">
        <ele>274</ele>
        <time>2017-07-21T09:17:06Z</time>
      </trkpt>
      <trkpt lat="45.98015" lon="4.84176">
        <ele>274</ele>
        <time>2017-07-21T09:17:07Z</time>
      </trkpt>
      <trkpt lat="45.98011" lon="4.84181">
        <ele>274</ele>
        <time>2017-07-21T09:17:08Z</time>
      </trkpt>
      <trkpt lat="45.98006" lon="4.84185">
        <ele>274</ele>
        <time>2017-07-21T09:17:09Z</time>
      </trkpt>
      <trkpt lat="45.98002" lon="4.84188">
        <ele>274</ele>
        <time>2017-07-21T09:17:10Z</time>
      </trkpt>
      <trkpt lat="45.97998" lon="4.84193">
        <ele>274</ele>
        <time>2017-07-21T09:17:11Z</time>
      </trkpt>
      <trkpt lat="45.97994" lon="4.84197">
        <ele>274</ele>
        <time>2017-07-21T09:17:12Z</time>
      </trkpt>
      <trkpt lat="45.9799" lon="4.842">
        <ele>274</ele>
        <time>2017-07-21T09:17:13Z</time>
      </trkpt>
      <trkpt lat="45.97986" lon="4.84204">
        <ele>274</ele>
        <time>2017-07-21T09:17:14Z</time>
      </trkpt>
      <trkpt lat="45.97982" lon="4.84208">
        <ele>274</ele>
        <time>2017-07-21T09:17:15Z</time>
      </trkpt>
      <trkpt lat="45.97977" lon="4.84211">
        <ele>274</ele>
        <time>2017-07-21T09:17:16Z</time>
      </trkpt>
      <trkpt lat="45.97974" lon="4.84216">
        <ele>274</ele>
        <time>2017-07-21T09:17:17Z</time>
      </trkpt>
      <trkpt lat="45.9797" lon="4.8422">
        <ele>274</ele>
        <time>2017-07-21T09:17:18Z</time>
      </trkpt>
      <trkpt lat="45.97965" lon="4.84223">
        <ele>274</ele>
        <time>2017-07-21T09:17:19Z</time>
      </trkpt>
      <trkpt lat="45.9796" lon="4.84228">
        <ele>274</ele>
        <time>2017-07-21T09:17:20Z</time>
      </trkpt>
      <trkpt lat="45.97955" lon="4.84232">
        <ele>275</ele>
        <time>2017-07-21T09:17:21Z</time>
      </trkpt>
      <trkpt lat="45.9795" lon="4.84237">
        <ele>275</ele>
        <time>2017-07-21T09:17:22Z</time>
      </trkpt>
      <trkpt lat="45.97945" lon="4.84241">
        <ele>275</ele>
        <time>2017-07-21T09:17:23Z</time>
      </trkpt>
      <trkpt lat="45.9794" lon="4.84245">
        <ele>275</ele>
        <time>2017-07-21T09:17:24Z</time>
      </trkpt>
      <trkpt lat="45.97936" lon="4.8425">
        <ele>275</ele>
        <time>2017-07-21T09:17:25Z</time>
      </trkpt>
      <trkpt lat="45.97932" lon="4.84255">
        <ele>275</ele>
        <time>2017-07-21T09:17:26Z</time>
      </trkpt>
      <trkpt lat="45.97928" lon="4.84259">
        <ele>275</ele>
        <time>2017-07-21T09:17:27Z</time>
      </trkpt>
      <trkpt lat="45.97924" lon="4.84263">
        <ele>275</ele>
        <time>2017-07-21T09:17:28Z</time>
      </trkpt>
      <trkpt lat="45.9792" lon="4.84267">
        <ele>275</ele>
        <time>2017-07-21T09:17:29Z</time>
      </trkpt>
      <trkpt lat="45.97916" lon="4.84272">
        <ele>275</ele>
        <time>2017-07-21T09:17:30Z</time>
      </trkpt>
      <trkpt lat="45.97912" lon="4.84275">
        <ele>275</ele>
        <time>2017-07-21T09:17:31Z</time>
      </trkpt>
      <trkpt lat="45.97908" lon="4.8428">
        <ele>275</ele>
        <time>2017-07-21T09:17:32Z</time>
      </trkpt>
      <trkpt lat="45.97902" lon="4.84288">
        <ele>275</ele>
        <time>2017-07-21T09:17:34Z</time>
      </trkpt>
      <trkpt lat="45.97898" lon="4.84293">
        <ele>275</ele>
        <time>2017-07-21T09:17:35Z</time>
      </trkpt>
      <trkpt lat="45.97895" lon="4.84298">
        <ele>275</ele>
        <time>2017-07-21T09:17:36Z</time>
      </trkpt>
      <trkpt lat="45.97892" lon="4.84303">
        <ele>275</ele>
        <time>2017-07-21T09:17:37Z</time>
      </trkpt>
      <trkpt lat="45.97889" lon="4.84308">
        <ele>275</ele>
        <time>2017-07-21T09:17:38Z</time>
      </trkpt>
      <trkpt lat="45.97886" lon="4.84313">
        <ele>275</ele>
        <time>2017-07-21T09:17:39Z</time>
      </trkpt>
      <trkpt lat="45.97882" lon="4.84318">
        <ele>275</ele>
        <time>2017-07-21T09:17:40Z</time>
      </trkpt>
      <trkpt lat="45.97879" lon="4.84322">
        <ele>275</ele>
        <time>2017-07-21T09:17:41Z</time>
      </trkpt>
      <trkpt lat="45.97876" lon="4.84328">
        <ele>275</ele>
        <time>2017-07-21T09:17:42Z</time>
      </trkpt>
      <trkpt lat="45.97873" lon="4.84333">
        <ele>275</ele>
        <time>2017-07-21T09:17:43Z</time>
      </trkpt>
      <trkpt lat="45.9787" lon="4.84338">
        <ele>276</ele>
        <time>2017-07-21T09:17:44Z</time>
      </trkpt>
      <trkpt lat="45.97867" lon="4.84344">
        <ele>276</ele>
        <time>2017-07-21T09:17:45Z</time>
      </trkpt>
      <trkpt lat="45.97864" lon="4.84349">
        <ele>276</ele>
        <time>2017-07-21T09:17:46Z</time>
      </trkpt>
      <trkpt lat="45.97861" lon="4.84354">
        <ele>276</ele>
        <time>2017-07-21T09:17:47Z</time>
      </trkpt>
      <trkpt lat="45.97856" lon="4.84363">
        <ele>276</ele>
        <time>2017-07-21T09:17:49Z</time>
      </trkpt>
      <trkpt lat="45.97852" lon="4.84367">
        <ele>276</ele>
        <time>2017-07-21T09:17:50Z</time>
      </trkpt>
      <trkpt lat="45.97849" lon="4.84372">
        <ele>276</ele>
        <time>2017-07-21T09:17:51Z</time>
      </trkpt>
      <trkpt lat="45.97845" lon="4.84377">
        <ele>276</ele>
        <time>2017-07-21T09:17:52Z</time>
      </trkpt>
      <trkpt lat="45.97841" lon="4.84382">
        <ele>276</ele>
        <time>2017-07-21T09:17:53Z</time>
      </trkpt>
      <trkpt lat="45.97837" lon="4.84386">
        <ele>276</ele>
        <time>2017-07-21T09:17:54Z</time>
      </trkpt>
      <trkpt lat="45.97833" lon="4.8439">
        <ele>276</ele>
        <time>2017-07-21T09:17:55Z</time>
      </trkpt>
      <trkpt lat="45.9783" lon="4.84394">
        <ele>276</ele>
        <time>2017-07-21T09:17:56Z</time>
      </trkpt>
      <trkpt lat="45.97823" lon="4.84401">
        <ele>276</ele>
        <time>2017-07-21T09:17:58Z</time>
      </trkpt>
      <trkpt lat="45.97819" lon="4.84404">
        <ele>276</ele>
        <time>2017-07-21T09:17:59Z</time>
      </trkpt>
      <trkpt lat="45.97811" lon="4.84409">
        <ele>277</ele>
        <time>2017-07-21T09:18:01Z</time>
      </trkpt>
      <trkpt lat="45.97807" lon="4.84413">
        <ele>277</ele>
        <time>2017-07-21T09:18:02Z</time>
      </trkpt>
      <trkpt lat="45.97802" lon="4.84416">
        <ele>277</ele>
        <time>2017-07-21T09:18:03Z</time>
      </trkpt>
      <trkpt lat="45.97797" lon="4.84419">
        <ele>277</ele>
        <time>2017-07-21T09:18:04Z</time>
      </trkpt>
      <trkpt lat="45.97791" lon="4.84421">
        <ele>277</ele>
        <time>2017-07-21T09:18:05Z</time>
      </trkpt>
      <trkpt lat="45.97786" lon="4.84423">
        <ele>277</ele>
        <time>2017-07-21T09:18:06Z</time>
      </trkpt>
      <trkpt lat="45.97781" lon="4.84426">
        <ele>277</ele>
        <time>2017-07-21T09:18:07Z</time>
      </trkpt>
      <trkpt lat="45.97776" lon="4.84428">
        <ele>277</ele>
        <time>2017-07-21T09:18:08Z</time>
      </trkpt>
      <trkpt lat="45.97772" lon="4.8443">
        <ele>277</ele>
        <time>2017-07-21T09:18:09Z</time>
      </trkpt>
      <trkpt lat="45.97767" lon="4.84432">
        <ele>277</ele>
        <time>2017-07-21T09:18:10Z</time>
      </trkpt>
      <trkpt lat="45.97762" lon="4.84434">
        <ele>277</ele>
        <time>2017-07-21T09:18:11Z</time>
      </trkpt>
      <trkpt lat="45.97758" lon="4.84436">
        <ele>277</ele>
        <time>2017-07-21T09:18:12Z</time>
      </trkpt>
      <trkpt lat="45.97753" lon="4.84437">
        <ele>277</ele>
        <time>2017-07-21T09:18:13Z</time>
      </trkpt>
      <trkpt lat="45.97749" lon="4.84439">
        <ele>277</ele>
        <time>2017-07-21T09:18:14Z</time>
      </trkpt>
      <trkpt lat="45.97744" lon="4.84441">
        <ele>277</ele>
        <time>2017-07-21T09:18:15Z</time>
      </trkpt>
      <trkpt lat="45.97739" lon="4.84442">
        <ele>277</ele>
        <time>2017-07-21T09:18:16Z</time>
      </trkpt>
      <trkpt lat="45.97734" lon="4.84443">
        <ele>277</ele>
        <time>2017-07-21T09:18:17Z</time>
      </trkpt>
      <trkpt lat="45.97729" lon="4.84445">
        <ele>277</ele>
        <time>2017-07-21T09:18:18Z</time>
      </trkpt>
      <trkpt lat="45.97724" lon="4.84446">
        <ele>277</ele>
        <time>2017-07-21T09:18:19Z</time>
      </trkpt>
      <trkpt lat="45.97719" lon="4.84448">
        <ele>277</ele>
        <time>2017-07-21T09:18:20Z</time>
      </trkpt>
      <trkpt lat="45.97713" lon="4.8445">
        <ele>277</ele>
        <time>2017-07-21T09:18:21Z</time>
      </trkpt>
      <trkpt lat="45.97707" lon="4.84452">
        <ele>277</ele>
        <time>2017-07-21T09:18:22Z</time>
      </trkpt>
      <trkpt lat="45.97701" lon="4.84454">
        <ele>277</ele>
        <time>2017-07-21T09:18:23Z</time>
      </trkpt>
      <trkpt lat="45.97695" lon="4.84457">
        <ele>277</ele>
        <time>2017-07-21T09:18:24Z</time>
      </trkpt>
      <trkpt lat="45.97689" lon="4.8446">
        <ele>277</ele>
        <time>2017-07-21T09:18:25Z</time>
      </trkpt>
      <trkpt lat="45.97683" lon="4.84463">
        <ele>277</ele>
        <time>2017-07-21T09:18:26Z</time>
      </trkpt>
      <trkpt lat="45.97678" lon="4.84466">
        <ele>277</ele>
        <time>2017-07-21T09:18:27Z</time>
      </trkpt>
      <trkpt lat="45.97672" lon="4.84469">
        <ele>277</ele>
        <time>2017-07-21T09:18:28Z</time>
      </trkpt>
      <trkpt lat="45.97667" lon="4.84473">
        <ele>276</ele>
        <time>2017-07-21T09:18:29Z</time>
      </trkpt>
      <trkpt lat="45.97662" lon="4.84477">
        <ele>276</ele>
        <time>2017-07-21T09:18:30Z</time>
      </trkpt>
      <trkpt lat="45.97657" lon="4.84481">
        <ele>276</ele>
        <time>2017-07-21T09:18:31Z</time>
      </trkpt>
      <trkpt lat="45.97652" lon="4.84485">
        <ele>275</ele>
        <time>2017-07-21T09:18:32Z</time>
      </trkpt>
      <trkpt lat="45.97647" lon="4.8449">
        <ele>275</ele>
        <time>2017-07-21T09:18:33Z</time>
      </trkpt>
      <trkpt lat="45.97643" lon="4.84496">
        <ele>275</ele>
        <time>2017-07-21T09:18:34Z</time>
      </trkpt>
      <trkpt lat="45.97639" lon="4.845">
        <ele>275</ele>
        <time>2017-07-21T09:18:35Z</time>
      </trkpt>
      <trkpt lat="45.97635" lon="4.84505">
        <ele>275</ele>
        <time>2017-07-21T09:18:36Z</time>
      </trkpt>
      <trkpt lat="45.97631" lon="4.8451">
        <ele>275</ele>
        <time>2017-07-21T09:18:37Z</time>
      </trkpt>
      <trkpt lat="45.97627" lon="4.84514">
        <ele>275</ele>
        <time>2017-07-21T09:18:38Z</time>
      </trkpt>
      <trkpt lat="45.97623" lon="4.84519">
        <ele>275</ele>
        <time>2017-07-21T09:18:39Z</time>
      </trkpt>
      <trkpt lat="45.9762" lon="4.84523">
        <ele>275</ele>
        <time>2017-07-21T09:18:40Z</time>
      </trkpt>
      <trkpt lat="45.97616" lon="4.84528">
        <ele>275</ele>
        <time>2017-07-21T09:18:41Z</time>
      </trkpt>
      <trkpt lat="45.97613" lon="4.84532">
        <ele>275</ele>
        <time>2017-07-21T09:18:42Z</time>
      </trkpt>
      <trkpt lat="45.97609" lon="4.84536">
        <ele>275</ele>
        <time>2017-07-21T09:18:43Z</time>
      </trkpt>
      <trkpt lat="45.97604" lon="4.84541">
        <ele>275</ele>
        <time>2017-07-21T09:18:44Z</time>
      </trkpt>
      <trkpt lat="45.976" lon="4.84545">
        <ele>275</ele>
        <time>2017-07-21T09:18:45Z</time>
      </trkpt>
      <trkpt lat="45.97596" lon="4.84551">
        <ele>275</ele>
        <time>2017-07-21T09:18:46Z</time>
      </trkpt>
      <trkpt lat="45.97592" lon="4.84555">
        <ele>275</ele>
        <time>2017-07-21T09:18:47Z</time>
      </trkpt>
      <trkpt lat="45.97588" lon="4.84559">
        <ele>274</ele>
        <time>2017-07-21T09:18:48Z</time>
      </trkpt>
      <trkpt lat="45.97585" lon="4.84564">
        <ele>274</ele>
        <time>2017-07-21T09:18:49Z</time>
      </trkpt>
      <trkpt lat="45.97581" lon="4.84569">
        <ele>274</ele>
        <time>2017-07-21T09:18:50Z</time>
      </trkpt>
      <trkpt lat="45.97578" lon="4.84574">
        <ele>274</ele>
        <time>2017-07-21T09:18:51Z</time>
      </trkpt>
      <trkpt lat="45.97575" lon="4.84578">
        <ele>274</ele>
        <time>2017-07-21T09:18:52Z</time>
      </trkpt>
      <trkpt lat="45.97567" lon="4.84586">
        <ele>274</ele>
        <time>2017-07-21T09:18:54Z</time>
      </trkpt>
      <trkpt lat="45.97564" lon="4.8459">
        <ele>274</ele>
        <time>2017-07-21T09:18:55Z</time>
      </trkpt>
      <trkpt lat="45.9756" lon="4.84594">
        <ele>274</ele>
        <time>2017-07-21T09:18:56Z</time>
      </trkpt>
      <trkpt lat="45.97555" lon="4.84599">
        <ele>274</ele>
        <time>2017-07-21T09:18:57Z</time>
      </trkpt>
      <trkpt lat="45.97551" lon="4.84604">
        <ele>274</ele>
        <time>2017-07-21T09:18:58Z</time>
      </trkpt>
      <trkpt lat="45.97547" lon="4.84608">
        <ele>274</ele>
        <time>2017-07-21T09:18:59Z</time>
      </trkpt>
      <trkpt lat="45.97542" lon="4.84613">
        <ele>274</ele>
        <time>2017-07-21T09:19:00Z</time>
      </trkpt>
      <trkpt lat="45.97538" lon="4.84617">
        <ele>275</ele>
        <time>2017-07-21T09:19:01Z</time>
      </trkpt>
      <trkpt lat="45.97534" lon="4.84621">
        <ele>275</ele>
        <time>2017-07-21T09:19:02Z</time>
      </trkpt>
      <trkpt lat="45.9753" lon="4.84625">
        <ele>275</ele>
        <time>2017-07-21T09:19:03Z</time>
      </trkpt>
      <trkpt lat="45.97526" lon="4.84629">
        <ele>275</ele>
        <time>2017-07-21T09:19:04Z</time>
      </trkpt>
      <trkpt lat="45.97523" lon="4.84632">
        <ele>275</ele>
        <time>2017-07-21T09:19:05Z</time>
      </trkpt>
      <trkpt lat="45.97515" lon="4.84638">
        <ele>275</ele>
        <time>2017-07-21T09:19:07Z</time>
      </trkpt>
      <trkpt lat="45.97512" lon="4.84641">
        <ele>275</ele>
        <time>2017-07-21T09:19:08Z</time>
      </trkpt>
      <trkpt lat="45.97507" lon="4.84644">
        <ele>275</ele>
        <time>2017-07-21T09:19:09Z</time>
      </trkpt>
      <trkpt lat="45.97502" lon="4.84647">
        <ele>275</ele>
        <time>2017-07-21T09:19:10Z</time>
      </trkpt>
      <trkpt lat="45.97498" lon="4.8465">
        <ele>275</ele>
        <time>2017-07-21T09:19:11Z</time>
      </trkpt>
      <trkpt lat="45.97493" lon="4.84654">
        <ele>275</ele>
        <time>2017-07-21T09:19:12Z</time>
      </trkpt>
      <trkpt lat="45.97488" lon="4.84657">
        <ele>275</ele>
        <time>2017-07-21T09:19:13Z</time>
      </trkpt>
      <trkpt lat="45.97483" lon="4.8466">
        <ele>276</ele>
        <time>2017-07-21T09:19:14Z</time>
      </trkpt>
      <trkpt lat="45.97478" lon="4.84664">
        <ele>276</ele>
        <time>2017-07-21T09:19:15Z</time>
      </trkpt>
      <trkpt lat="45.97473" lon="4.84667">
        <ele>276</ele>
        <time>2017-07-21T09:19:16Z</time>
      </trkpt>
      <trkpt lat="45.97469" lon="4.8467">
        <ele>276</ele>
        <time>2017-07-21T09:19:17Z</time>
      </trkpt>
      <trkpt lat="45.97464" lon="4.84673">
        <ele>276</ele>
        <time>2017-07-21T09:19:18Z</time>
      </trkpt>
      <trkpt lat="45.9746" lon="4.84676">
        <ele>276</ele>
        <time>2017-07-21T09:19:19Z</time>
      </trkpt>
      <trkpt lat="45.97456" lon="4.84679">
        <ele>276</ele>
        <time>2017-07-21T09:19:20Z</time>
      </trkpt>
      <trkpt lat="45.97448" lon="4.84685">
        <ele>276</ele>
        <time>2017-07-21T09:19:22Z</time>
      </trkpt>
      <trkpt lat="45.97443" lon="4.84687">
        <ele>276</ele>
        <time>2017-07-21T09:19:23Z</time>
      </trkpt>
      <trkpt lat="45.97439" lon="4.84689">
        <ele>276</ele>
        <time>2017-07-21T09:19:24Z</time>
      </trkpt>
      <trkpt lat="45.97434" lon="4.84692">
        <ele>276</ele>
        <time>2017-07-21T09:19:25Z</time>
      </trkpt>
      <trkpt lat="45.9743" lon="4.84696">
        <ele>276</ele>
        <time>2017-07-21T09:19:26Z</time>
      </trkpt>
      <trkpt lat="45.97426" lon="4.84699">
        <ele>276</ele>
        <time>2017-07-21T09:19:27Z</time>
      </trkpt>
      <trkpt lat="45.97418" lon="4.84705">
        <ele>276</ele>
        <time>2017-07-21T09:19:29Z</time>
      </trkpt>
      <trkpt lat="45.97414" lon="4.84707">
        <ele>278</ele>
        <time>2017-07-21T09:19:30Z</time>
      </trkpt>
      <trkpt lat="45.97407" lon="4.84712">
        <ele>278</ele>
        <time>2017-07-21T09:19:32Z</time>
      </trkpt>
      <trkpt lat="45.97403" lon="4.84714">
        <ele>278</ele>
        <time>2017-07-21T09:19:33Z</time>
      </trkpt>
      <trkpt lat="45.97396" lon="4.84717">
        <ele>278</ele>
        <time>2017-07-21T09:19:35Z</time>
      </trkpt>
      <trkpt lat="45.97393" lon="4.84719">
        <ele>278</ele>
        <time>2017-07-21T09:19:36Z</time>
      </trkpt>
      <trkpt lat="45.97386" lon="4.84726">
        <ele>278</ele>
        <time>2017-07-21T09:19:38Z</time>
      </trkpt>
      <trkpt lat="45.97383" lon="4.8473">
        <ele>278</ele>
        <time>2017-07-21T09:19:39Z</time>
      </trkpt>
      <trkpt lat="45.9738" lon="4.84735">
        <ele>278</ele>
        <time>2017-07-21T09:19:40Z</time>
      </trkpt>
      <trkpt lat="45.97377" lon="4.8474">
        <ele>278</ele>
        <time>2017-07-21T09:19:41Z</time>
      </trkpt>
      <trkpt lat="45.97375" lon="4.84747">
        <ele>278</ele>
        <time>2017-07-21T09:19:42Z</time>
      </trkpt>
      <trkpt lat="45.97373" lon="4.84752">
        <ele>278</ele>
        <time>2017-07-21T09:19:43Z</time>
      </trkpt>
      <trkpt lat="45.97368" lon="4.84763">
        <ele>278</ele>
        <time>2017-07-21T09:19:45Z</time>
      </trkpt>
      <trkpt lat="45.97366" lon="4.84769">
        <ele>278</ele>
        <time>2017-07-21T09:19:46Z</time>
      </trkpt>
      <trkpt lat="45.97363" lon="4.84775">
        <ele>278</ele>
        <time>2017-07-21T09:19:47Z</time>
      </trkpt>
      <trkpt lat="45.97361" lon="4.84782">
        <ele>278</ele>
        <time>2017-07-21T09:19:48Z</time>
      </trkpt>
      <trkpt lat="45.97358" lon="4.84788">
        <ele>278</ele>
        <time>2017-07-21T09:19:49Z</time>
      </trkpt>
      <trkpt lat="45.97355" lon="4.84795">
        <ele>278</ele>
        <time>2017-07-21T09:19:50Z</time>
      </trkpt>
      <trkpt lat="45.97353" lon="4.84801">
        <ele>278</ele>
        <time>2017-07-21T09:19:51Z</time>
      </trkpt>
      <trkpt lat="45.9735" lon="4.84807">
        <ele>278</ele>
        <time>2017-07-21T09:19:52Z</time>
      </trkpt>
      <trkpt lat="45.97347" lon="4.84812">
        <ele>278</ele>
        <time>2017-07-21T09:19:53Z</time>
      </trkpt>
      <trkpt lat="45.97345" lon="4.84818">
        <ele>278</ele>
        <time>2017-07-21T09:19:54Z</time>
      </trkpt>
      <trkpt lat="45.97342" lon="4.84822">
        <ele>278</ele>
        <time>2017-07-21T09:19:55Z</time>
      </trkpt>
      <trkpt lat="45.97339" lon="4.84828">
        <ele>278</ele>
        <time>2017-07-21T09:19:56Z</time>
      </trkpt>
      <trkpt lat="45.97336" lon="4.84833">
        <ele>278</ele>
        <time>2017-07-21T09:19:57Z</time>
      </trkpt>
      <trkpt lat="45.97333" lon="4.84839">
        <ele>278</ele>
        <time>2017-07-21T09:19:58Z</time>
      </trkpt>
      <trkpt lat="45.97331" lon="4.84845">
        <ele>278</ele>
        <time>2017-07-21T09:19:59Z</time>
      </trkpt>
      <trkpt lat="45.97327" lon="4.84851">
        <ele>278</ele>
        <time>2017-07-21T09:20:00Z</time>
      </trkpt>
      <trkpt lat="45.97324" lon="4.84857">
        <ele>278</ele>
        <time>2017-07-21T09:20:01Z</time>
      </trkpt>
      <trkpt lat="45.97321" lon="4.84864">
        <ele>278</ele>
        <time>2017-07-21T09:20:02Z</time>
      </trkpt>
      <trkpt lat="45.97318" lon="4.8487">
        <ele>278</ele>
        <time>2017-07-21T09:20:03Z</time>
      </trkpt>
      <trkpt lat="45.97315" lon="4.84875">
        <ele>278</ele>
        <time>2017-07-21T09:20:04Z</time>
      </trkpt>
      <trkpt lat="45.97311" lon="4.8488">
        <ele>278</ele>
        <time>2017-07-21T09:20:05Z</time>
      </trkpt>
      <trkpt lat="45.97309" lon="4.84886">
        <ele>278</ele>
        <time>2017-07-21T09:20:06Z</time>
      </trkpt>
      <trkpt lat="45.97305" lon="4.84891">
        <ele>278</ele>
        <time>2017-07-21T09:20:07Z</time>
      </trkpt>
      <trkpt lat="45.97302" lon="4.84897">
        <ele>278</ele>
        <time>2017-07-21T09:20:08Z</time>
      </trkpt>
      <trkpt lat="45.97299" lon="4.84903">
        <ele>279</ele>
        <time>2017-07-21T09:20:09Z</time>
      </trkpt>
      <trkpt lat="45.97295" lon="4.84907">
        <ele>279</ele>
        <time>2017-07-21T09:20:10Z</time>
      </trkpt>
      <trkpt lat="45.97292" lon="4.84913">
        <ele>279</ele>
        <time>2017-07-21T09:20:11Z</time>
      </trkpt>
      <trkpt lat="45.97288" lon="4.84918">
        <ele>278</ele>
        <time>2017-07-21T09:20:12Z</time>
      </trkpt>
      <trkpt lat="45.97285" lon="4.84924">
        <ele>279</ele>
        <time>2017-07-21T09:20:13Z</time>
      </trkpt>
      <trkpt lat="45.97281" lon="4.84929">
        <ele>279</ele>
        <time>2017-07-21T09:20:14Z</time>
      </trkpt>
      <trkpt lat="45.97278" lon="4.84935">
        <ele>279</ele>
        <time>2017-07-21T09:20:15Z</time>
      </trkpt>
      <trkpt lat="45.97275" lon="4.8494">
        <ele>279</ele>
        <time>2017-07-21T09:20:16Z</time>
      </trkpt>
      <trkpt lat="45.97272" lon="4.84945">
        <ele>279</ele>
        <time>2017-07-21T09:20:17Z</time>
      </trkpt>
      <trkpt lat="45.97269" lon="4.84951">
        <ele>279</ele>
        <time>2017-07-21T09:20:18Z</time>
      </trkpt>
      <trkpt lat="45.97264" lon="4.84961">
        <ele>279</ele>
        <time>2017-07-21T09:20:20Z</time>
      </trkpt>
      <trkpt lat="45.97262" lon="4.84966">
        <ele>279</ele>
        <time>2017-07-21T09:20:21Z</time>
      </trkpt>
      <trkpt lat="45.97257" lon="4.84976">
        <ele>279</ele>
        <time>2017-07-21T09:20:23Z</time>
      </trkpt>
      <trkpt lat="45.97255" lon="4.84982">
        <ele>279</ele>
        <time>2017-07-21T09:20:24Z</time>
      </trkpt>
      <trkpt lat="45.97252" lon="4.84987">
        <ele>279</ele>
        <time>2017-07-21T09:20:25Z</time>
      </trkpt>
      <trkpt lat="45.97249" lon="4.84994">
        <ele>279</ele>
        <time>2017-07-21T09:20:26Z</time>
      </trkpt>
      <trkpt lat="45.97247" lon="4.85001">
        <ele>279</ele>
        <time>2017-07-21T09:20:27Z</time>
      </trkpt>
      <trkpt lat="45.97244" lon="4.85008">
        <ele>279</ele>
        <time>2017-07-21T09:20:28Z</time>
      </trkpt>
      <trkpt lat="45.97241" lon="4.85015">
        <ele>279</ele>
        <time>2017-07-21T09:20:29Z</time>
      </trkpt>
      <trkpt lat="45.97239" lon="4.85021">
        <ele>279</ele>
        <time>2017-07-21T09:20:30Z</time>
      </trkpt>
      <trkpt lat="45.97237" lon="4.85027">
        <ele>279</ele>
        <time>2017-07-21T09:20:31Z</time>
      </trkpt>
      <trkpt lat="45.97234" lon="4.85032">
        <ele>279</ele>
        <time>2017-07-21T09:20:32Z</time>
      </trkpt>
      <trkpt lat="45.97231" lon="4.85038">
        <ele>279</ele>
        <time>2017-07-21T09:20:33Z</time>
      </trkpt>
      <trkpt lat="45.97229" lon="4.85044">
        <ele>279</ele>
        <time>2017-07-21T09:20:34Z</time>
      </trkpt>
      <trkpt lat="45.97224" lon="4.85055">
        <ele>279</ele>
        <time>2017-07-21T09:20:36Z</time>
      </trkpt>
      <trkpt lat="45.97222" lon="4.8506">
        <ele>279</ele>
        <time>2017-07-21T09:20:37Z</time>
      </trkpt>
      <trkpt lat="45.97219" lon="4.85067">
        <ele>279</ele>
        <time>2017-07-21T09:20:38Z</time>
      </trkpt>
      <trkpt lat="45.97216" lon="4.85073">
        <ele>278</ele>
        <time>2017-07-21T09:20:39Z</time>
      </trkpt>
      <trkpt lat="45.97213" lon="4.85079">
        <ele>278</ele>
        <time>2017-07-21T09:20:40Z</time>
      </trkpt>
      <trkpt lat="45.9721" lon="4.85084">
        <ele>278</ele>
        <time>2017-07-21T09:20:41Z</time>
      </trkpt>
      <trkpt lat="45.97208" lon="4.85091">
        <ele>278</ele>
        <time>2017-07-21T09:20:42Z</time>
      </trkpt>
      <trkpt lat="45.97205" lon="4.85097">
        <ele>278</ele>
        <time>2017-07-21T09:20:43Z</time>
      </trkpt>
      <trkpt lat="45.97202" lon="4.85103">
        <ele>278</ele>
        <time>2017-07-21T09:20:44Z</time>
      </trkpt>
      <trkpt lat="45.972" lon="4.85109">
        <ele>278</ele>
        <time>2017-07-21T09:20:45Z</time>
      </trkpt>
      <trkpt lat="45.97197" lon="4.85115">
        <ele>278</ele>
        <time>2017-07-21T09:20:46Z</time>
      </trkpt>
      <trkpt lat="45.97195" lon="4.8512">
        <ele>278</ele>
        <time>2017-07-21T09:20:47Z</time>
      </trkpt>
      <trkpt lat="45.97192" lon="4.85126">
        <ele>278</ele>
        <time>2017-07-21T09:20:48Z</time>
      </trkpt>
      <trkpt lat="45.97189" lon="4.85131">
        <ele>278</ele>
        <time>2017-07-21T09:20:49Z</time>
      </trkpt>
      <trkpt lat="45.97186" lon="4.85137">
        <ele>278</ele>
        <time>2017-07-21T09:20:50Z</time>
      </trkpt>
      <trkpt lat="45.97183" lon="4.85143">
        <ele>278</ele>
        <time>2017-07-21T09:20:51Z</time>
      </trkpt>
      <trkpt lat="45.9718" lon="4.85149">
        <ele>278</ele>
        <time>2017-07-21T09:20:52Z</time>
      </trkpt>
      <trkpt lat="45.97177" lon="4.85155">
        <ele>278</ele>
        <time>2017-07-21T09:20:53Z</time>
      </trkpt>
      <trkpt lat="45.97174" lon="4.85161">
        <ele>278</ele>
        <time>2017-07-21T09:20:54Z</time>
      </trkpt>
      <trkpt lat="45.97171" lon="4.85166">
        <ele>278</ele>
        <time>2017-07-21T09:20:55Z</time>
      </trkpt>
      <trkpt lat="45.97168" lon="4.85172">
        <ele>278</ele>
        <time>2017-07-21T09:20:56Z</time>
      </trkpt>
      <trkpt lat="45.97166" lon="4.85177">
        <ele>278</ele>
        <time>2017-07-21T09:20:57Z</time>
      </trkpt>
      <trkpt lat="45.97162" lon="4.85188">
        <ele>279</ele>
        <time>2017-07-21T09:20:59Z</time>
      </trkpt>
      <trkpt lat="45.9716" lon="4.85193">
        <ele>279</ele>
        <time>2017-07-21T09:21:00Z</time>
      </trkpt>
      <trkpt lat="45.97155" lon="4.85204">
        <ele>279</ele>
        <time>2017-07-21T09:21:02Z</time>
      </trkpt>
      <trkpt lat="45.97152" lon="4.8521">
        <ele>279</ele>
        <time>2017-07-21T09:21:03Z</time>
      </trkpt>
      <trkpt lat="45.9715" lon="4.85216">
        <ele>279</ele>
        <time>2017-07-21T09:21:04Z</time>
      </trkpt>
      <trkpt lat="45.97146" lon="4.85222">
        <ele>279</ele>
        <time>2017-07-21T09:21:05Z</time>
      </trkpt>
      <trkpt lat="45.97143" lon="4.85227">
        <ele>279</ele>
        <time>2017-07-21T09:21:06Z</time>
      </trkpt>
      <trkpt lat="45.9714" lon="4.85232">
        <ele>279</ele>
        <time>2017-07-21T09:21:07Z</time>
      </trkpt>
      <trkpt lat="45.97135" lon="4.85243">
        <ele>279</ele>
        <time>2017-07-21T09:21:09Z</time>
      </trkpt>
      <trkpt lat="45.97133" lon="4.85247">
        <ele>279</ele>
        <time>2017-07-21T09:21:10Z</time>
      </trkpt>
      <trkpt lat="45.97127" lon="4.85254">
        <ele>279</ele>
        <time>2017-07-21T09:21:12Z</time>
      </trkpt>
      <trkpt lat="45.97126" lon="4.85259">
        <ele>279</ele>
        <time>2017-07-21T09:21:13Z</time>
      </trkpt>
      <trkpt lat="45.97121" lon="4.85271">
        <ele>280</ele>
        <time>2017-07-21T09:21:15Z</time>
      </trkpt>
      <trkpt lat="45.97119" lon="4.85276">
        <ele>280</ele>
        <time>2017-07-21T09:21:16Z</time>
      </trkpt>
      <trkpt lat="45.97116" lon="4.85281">
        <ele>280</ele>
        <time>2017-07-21T09:21:17Z</time>
      </trkpt>
      <trkpt lat="45.97113" lon="4.85286">
        <ele>280</ele>
        <time>2017-07-21T09:21:18Z</time>
      </trkpt>
      <trkpt lat="45.9711" lon="4.85292">
        <ele>280</ele>
        <time>2017-07-21T09:21:19Z</time>
      </trkpt>
      <trkpt lat="45.97107" lon="4.85299">
        <ele>280</ele>
        <time>2017-07-21T09:21:20Z</time>
      </trkpt>
      <trkpt lat="45.97104" lon="4.85305">
        <ele>280</ele>
        <time>2017-07-21T09:21:21Z</time>
      </trkpt>
      <trkpt lat="45.97101" lon="4.85312">
        <ele>280</ele>
        <time>2017-07-21T09:21:22Z</time>
      </trkpt>
      <trkpt lat="45.97098" lon="4.85319">
        <ele>280</ele>
        <time>2017-07-21T09:21:23Z</time>
      </trkpt>
      <trkpt lat="45.97096" lon="4.85325">
        <ele>280</ele>
        <time>2017-07-21T09:21:24Z</time>
      </trkpt>
      <trkpt lat="45.97094" lon="4.85331">
        <ele>280</ele>
        <time>2017-07-21T09:21:25Z</time>
      </trkpt>
      <trkpt lat="45.9709" lon="4.85336">
        <ele>281</ele>
        <time>2017-07-21T09:21:26Z</time>
      </trkpt>
      <trkpt lat="45.97087" lon="4.85347">
        <ele>280</ele>
        <time>2017-07-21T09:21:28Z</time>
      </trkpt>
      <trkpt lat="45.97085" lon="4.85352">
        <ele>280</ele>
        <time>2017-07-21T09:21:29Z</time>
      </trkpt>
      <trkpt lat="45.97082" lon="4.85363">
        <ele>281</ele>
        <time>2017-07-21T09:21:31Z</time>
      </trkpt>
      <trkpt lat="45.9708" lon="4.85369">
        <ele>281</ele>
        <time>2017-07-21T09:21:32Z</time>
      </trkpt>
      <trkpt lat="45.97079" lon="4.85376">
        <ele>281</ele>
        <time>2017-07-21T09:21:33Z</time>
      </trkpt>
      <trkpt lat="45.97077" lon="4.85382">
        <ele>281</ele>
        <time>2017-07-21T09:21:34Z</time>
      </trkpt>
      <trkpt lat="45.97075" lon="4.85388">
        <ele>281</ele>
        <time>2017-07-21T09:21:35Z</time>
      </trkpt>
      <trkpt lat="45.97073" lon="4.85394">
        <ele>281</ele>
        <time>2017-07-21T09:21:36Z</time>
      </trkpt>
      <trkpt lat="45.9707" lon="4.85401">
        <ele>281</ele>
        <time>2017-07-21T09:21:37Z</time>
      </trkpt>
      <trkpt lat="45.97068" lon="4.85408">
        <ele>281</ele>
        <time>2017-07-21T09:21:38Z</time>
      </trkpt>
      <trkpt lat="45.97066" lon="4.85415">
        <ele>281</ele>
        <time>2017-07-21T09:21:39Z</time>
      </trkpt>
      <trkpt lat="45.97064" lon="4.85421">
        <ele>281</ele>
        <time>2017-07-21T09:21:40Z</time>
      </trkpt>
      <trkpt lat="45.9706" lon="4.85432">
        <ele>281</ele>
        <time>2017-07-21T09:21:42Z</time>
      </trkpt>
      <trkpt lat="45.97059" lon="4.85437">
        <ele>281</ele>
        <time>2017-07-21T09:21:43Z</time>
      </trkpt>
      <trkpt lat="45.97055" lon="4.85448">
        <ele>281</ele>
        <time>2017-07-21T09:21:45Z</time>
      </trkpt>
      <trkpt lat="45.97053" lon="4.85454">
        <ele>281</ele>
        <time>2017-07-21T09:21:46Z</time>
      </trkpt>
      <trkpt lat="45.97052" lon="4.8546">
        <ele>281</ele>
        <time>2017-07-21T09:21:47Z</time>
      </trkpt>
      <trkpt lat="45.9705" lon="4.85466">
        <ele>281</ele>
        <time>2017-07-21T09:21:48Z</time>
      </trkpt>
      <trkpt lat="45.97048" lon="4.85472">
        <ele>281</ele>
        <time>2017-07-21T09:21:49Z</time>
      </trkpt>
      <trkpt lat="45.97045" lon="4.85478">
        <ele>281</ele>
        <time>2017-07-21T09:21:50Z</time>
      </trkpt>
      <trkpt lat="45.97043" lon="4.85485">
        <ele>281</ele>
        <time>2017-07-21T09:21:51Z</time>
      </trkpt>
      <trkpt lat="45.97041" lon="4.85492">
        <ele>282</ele>
        <time>2017-07-21T09:21:52Z</time>
      </trkpt>
      <trkpt lat="45.97039" lon="4.85499">
        <ele>282</ele>
        <time>2017-07-21T09:21:53Z</time>
      </trkpt>
      <trkpt lat="45.97036" lon="4.85505">
        <ele>282</ele>
        <time>2017-07-21T09:21:54Z</time>
      </trkpt>
      <trkpt lat="45.97034" lon="4.85511">
        <ele>282</ele>
        <time>2017-07-21T09:21:55Z</time>
      </trkpt>
      <trkpt lat="45.97033" lon="4.85517">
        <ele>282</ele>
        <time>2017-07-21T09:21:56Z</time>
      </trkpt>
      <trkpt lat="45.97029" lon="4.85528">
        <ele>283</ele>
        <time>2017-07-21T09:21:58Z</time>
      </trkpt>
      <trkpt lat="45.97027" lon="4.85533">
        <ele>283</ele>
        <time>2017-07-21T09:21:59Z</time>
      </trkpt>
      <trkpt lat="45.97025" lon="4.85539">
        <ele>283</ele>
        <time>2017-07-21T09:22:00Z</time>
      </trkpt>
      <trkpt lat="45.97023" lon="4.85545">
        <ele>283</ele>
        <time>2017-07-21T09:22:01Z</time>
      </trkpt>
      <trkpt lat="45.97022" lon="4.85551">
        <ele>283</ele>
        <time>2017-07-21T09:22:02Z</time>
      </trkpt>
      <trkpt lat="45.9702" lon="4.85558">
        <ele>283</ele>
        <time>2017-07-21T09:22:03Z</time>
      </trkpt>
      <trkpt lat="45.97018" lon="4.85564">
        <ele>283</ele>
        <time>2017-07-21T09:22:04Z</time>
      </trkpt>
      <trkpt lat="45.97016" lon="4.8557">
        <ele>283</ele>
        <time>2017-07-21T09:22:05Z</time>
      </trkpt>
      <trkpt lat="45.97015" lon="4.85576">
        <ele>284</ele>
        <time>2017-07-21T09:22:06Z</time>
      </trkpt>
      <trkpt lat="45.97013" lon="4.85583">
        <ele>284</ele>
        <time>2017-07-21T09:22:07Z</time>
      </trkpt>
      <trkpt lat="45.97011" lon="4.85589">
        <ele>284</ele>
        <time>2017-07-21T09:22:08Z</time>
      </trkpt>
      <trkpt lat="45.97009" lon="4.85595">
        <ele>284</ele>
        <time>2017-07-21T09:22:09Z</time>
      </trkpt>
      <trkpt lat="45.97007" lon="4.85602">
        <ele>284</ele>
        <time>2017-07-21T09:22:10Z</time>
      </trkpt>
      <trkpt lat="45.97006" lon="4.85609">
        <ele>284</ele>
        <time>2017-07-21T09:22:11Z</time>
      </trkpt>
      <trkpt lat="45.97004" lon="4.85615">
        <ele>284</ele>
        <time>2017-07-21T09:22:12Z</time>
      </trkpt>
      <trkpt lat="45.97003" lon="4.85622">
        <ele>284</ele>
        <time>2017-07-21T09:22:13Z</time>
      </trkpt>
      <trkpt lat="45.97001" lon="4.85628">
        <ele>284</ele>
        <time>2017-07-21T09:22:14Z</time>
      </trkpt>
      <trkpt lat="45.96999" lon="4.85634">
        <ele>286</ele>
        <time>2017-07-21T09:22:15Z</time>
      </trkpt>
      <trkpt lat="45.96997" lon="4.85645">
        <ele>286</ele>
        <time>2017-07-21T09:22:17Z</time>
      </trkpt>
      <trkpt lat="45.96996" lon="4.8565">
        <ele>286</ele>
        <time>2017-07-21T09:22:18Z</time>
      </trkpt>
      <trkpt lat="45.96993" lon="4.85661">
        <ele>286</ele>
        <time>2017-07-21T09:22:20Z</time>
      </trkpt>
      <trkpt lat="45.96992" lon="4.85667">
        <ele>286</ele>
        <time>2017-07-21T09:22:21Z</time>
      </trkpt>
      <trkpt lat="45.96989" lon="4.85679">
        <ele>286</ele>
        <time>2017-07-21T09:22:23Z</time>
      </trkpt>
      <trkpt lat="45.96987" lon="4.85684">
        <ele>285</ele>
        <time>2017-07-21T09:22:24Z</time>
      </trkpt>
      <trkpt lat="45.96985" lon="4.85695">
        <ele>285</ele>
        <time>2017-07-21T09:22:26Z</time>
      </trkpt>
      <trkpt lat="45.96983" lon="4.857">
        <ele>285</ele>
        <time>2017-07-21T09:22:27Z</time>
      </trkpt>
      <trkpt lat="45.9698" lon="4.8571">
        <ele>285</ele>
        <time>2017-07-21T09:22:29Z</time>
      </trkpt>
      <trkpt lat="45.96979" lon="4.85715">
        <ele>285</ele>
        <time>2017-07-21T09:22:30Z</time>
      </trkpt>
      <trkpt lat="45.96975" lon="4.85726">
        <ele>285</ele>
        <time>2017-07-21T09:22:32Z</time>
      </trkpt>
      <trkpt lat="45.96974" lon="4.85732">
        <ele>285</ele>
        <time>2017-07-21T09:22:33Z</time>
      </trkpt>
      <trkpt lat="45.96972" lon="4.85738">
        <ele>285</ele>
        <time>2017-07-21T09:22:34Z</time>
      </trkpt>
      <trkpt lat="45.96971" lon="4.85746">
        <ele>285</ele>
        <time>2017-07-21T09:22:35Z</time>
      </trkpt>
      <trkpt lat="45.9697" lon="4.85753">
        <ele>285</ele>
        <time>2017-07-21T09:22:36Z</time>
      </trkpt>
      <trkpt lat="45.96969" lon="4.85759">
        <ele>285</ele>
        <time>2017-07-21T09:22:37Z</time>
      </trkpt>
      <trkpt lat="45.96966" lon="4.85771">
        <ele>285</ele>
        <time>2017-07-21T09:22:39Z</time>
      </trkpt>
      <trkpt lat="45.96964" lon="4.85777">
        <ele>285</ele>
        <time>2017-07-21T09:22:40Z</time>
      </trkpt>
      <trkpt lat="45.9696" lon="4.85788">
        <ele>285</ele>
        <time>2017-07-21T09:22:42Z</time>
      </trkpt>
      <trkpt lat="45.96959" lon="4.85794">
        <ele>285</ele>
        <time>2017-07-21T09:22:43Z</time>
      </trkpt>
      <trkpt lat="45.96958" lon="4.858">
        <ele>285</ele>
        <time>2017-07-21T09:22:44Z</time>
      </trkpt>
      <trkpt lat="45.96957" lon="4.85806">
        <ele>285</ele>
        <time>2017-07-21T09:22:45Z</time>
      </trkpt>
      <trkpt lat="45.96955" lon="4.85813">
        <ele>285</ele>
        <time>2017-07-21T09:22:46Z</time>
      </trkpt>
      <trkpt lat="45.96953" lon="4.85819">
        <ele>285</ele>
        <time>2017-07-21T09:22:47Z</time>
      </trkpt>
      <trkpt lat="45.96952" lon="4.85826">
        <ele>285</ele>
        <time>2017-07-21T09:22:48Z</time>
      </trkpt>
      <trkpt lat="45.9695" lon="4.85831">
        <ele>285</ele>
        <time>2017-07-21T09:22:49Z</time>
      </trkpt>
      <trkpt lat="45.96946" lon="4.85843">
        <ele>285</ele>
        <time>2017-07-21T09:22:51Z</time>
      </trkpt>
      <trkpt lat="45.96944" lon="4.85848">
        <ele>285</ele>
        <time>2017-07-21T09:22:52Z</time>
      </trkpt>
      <trkpt lat="45.96941" lon="4.8586">
        <ele>285</ele>
        <time>2017-07-21T09:22:54Z</time>
      </trkpt>
      <trkpt lat="45.9694" lon="4.85866">
        <ele>285</ele>
        <time>2017-07-21T09:22:55Z</time>
      </trkpt>
      <trkpt lat="45.96938" lon="4.85873">
        <ele>285</ele>
        <time>2017-07-21T09:22:56Z</time>
      </trkpt>
      <trkpt lat="45.96936" lon="4.8588">
        <ele>285</ele>
        <time>2017-07-21T09:22:57Z</time>
      </trkpt>
      <trkpt lat="45.96934" lon="4.85886">
        <ele>285</ele>
        <time>2017-07-21T09:22:58Z</time>
      </trkpt>
      <trkpt lat="45.96932" lon="4.85893">
        <ele>285</ele>
        <time>2017-07-21T09:22:59Z</time>
      </trkpt>
      <trkpt lat="45.96931" lon="4.859">
        <ele>286</ele>
        <time>2017-07-21T09:23:00Z</time>
      </trkpt>
      <trkpt lat="45.96929" lon="4.85907">
        <ele>286</ele>
        <time>2017-07-21T09:23:01Z</time>
      </trkpt>
      <trkpt lat="45.96927" lon="4.85914">
        <ele>286</ele>
        <time>2017-07-21T09:23:02Z</time>
      </trkpt>
      <trkpt lat="45.96926" lon="4.8592">
        <ele>286</ele>
        <time>2017-07-21T09:23:03Z</time>
      </trkpt>
      <trkpt lat="45.96923" lon="4.85931">
        <ele>286</ele>
        <time>2017-07-21T09:23:05Z</time>
      </trkpt>
      <trkpt lat="45.96921" lon="4.85936">
        <ele>286</ele>
        <time>2017-07-21T09:23:06Z</time>
      </trkpt>
      <trkpt lat="45.96918" lon="4.85948">
        <ele>287</ele>
        <time>2017-07-21T09:23:08Z</time>
      </trkpt>
      <trkpt lat="45.96916" lon="4.85954">
        <ele>288</ele>
        <time>2017-07-21T09:23:09Z</time>
      </trkpt>
      <trkpt lat="45.96914" lon="4.8596">
        <ele>288</ele>
        <time>2017-07-21T09:23:10Z</time>
      </trkpt>
      <trkpt lat="45.96912" lon="4.85966">
        <ele>288</ele>
        <time>2017-07-21T09:23:11Z</time>
      </trkpt>
      <trkpt lat="45.9691" lon="4.85973">
        <ele>288</ele>
        <time>2017-07-21T09:23:12Z</time>
      </trkpt>
      <trkpt lat="45.96908" lon="4.85979">
        <ele>288</ele>
        <time>2017-07-21T09:23:13Z</time>
      </trkpt>
      <trkpt lat="45.96907" lon="4.85986">
        <ele>288</ele>
        <time>2017-07-21T09:23:14Z</time>
      </trkpt>
      <trkpt lat="45.96905" lon="4.85994">
        <ele>288</ele>
        <time>2017-07-21T09:23:15Z</time>
      </trkpt>
      <trkpt lat="45.96904" lon="4.86002">
        <ele>289</ele>
        <time>2017-07-21T09:23:16Z</time>
      </trkpt>
      <trkpt lat="45.96903" lon="4.86009">
        <ele>289</ele>
        <time>2017-07-21T09:23:17Z</time>
      </trkpt>
      <trkpt lat="45.96902" lon="4.86016">
        <ele>289</ele>
        <time>2017-07-21T09:23:18Z</time>
      </trkpt>
      <trkpt lat="45.96902" lon="4.86023">
        <ele>289</ele>
        <time>2017-07-21T09:23:19Z</time>
      </trkpt>
      <trkpt lat="45.96901" lon="4.8603">
        <ele>289</ele>
        <time>2017-07-21T09:23:20Z</time>
      </trkpt>
      <trkpt lat="45.969" lon="4.86036">
        <ele>289</ele>
        <time>2017-07-21T09:23:21Z</time>
      </trkpt>
      <trkpt lat="45.969" lon="4.86043">
        <ele>289</ele>
        <time>2017-07-21T09:23:22Z</time>
      </trkpt>
      <trkpt lat="45.96899" lon="4.8605">
        <ele>289</ele>
        <time>2017-07-21T09:23:23Z</time>
      </trkpt>
      <trkpt lat="45.96899" lon="4.86062">
        <ele>289</ele>
        <time>2017-07-21T09:23:25Z</time>
      </trkpt>
      <trkpt lat="45.96898" lon="4.86068">
        <ele>288</ele>
        <time>2017-07-21T09:23:26Z</time>
      </trkpt>
      <trkpt lat="45.96896" lon="4.86078">
        <ele>288</ele>
        <time>2017-07-21T09:23:28Z</time>
      </trkpt>
      <trkpt lat="45.96896" lon="4.86084">
        <ele>288</ele>
        <time>2017-07-21T09:23:29Z</time>
      </trkpt>
      <trkpt lat="45.96895" lon="4.86096">
        <ele>289</ele>
        <time>2017-07-21T09:23:31Z</time>
      </trkpt>
      <trkpt lat="45.96894" lon="4.86102">
        <ele>289</ele>
        <time>2017-07-21T09:23:32Z</time>
      </trkpt>
      <trkpt lat="45.96893" lon="4.86108">
        <ele>289</ele>
        <time>2017-07-21T09:23:33Z</time>
      </trkpt>
      <trkpt lat="45.96892" lon="4.86115">
        <ele>289</ele>
        <time>2017-07-21T09:23:34Z</time>
      </trkpt>
      <trkpt lat="45.96891" lon="4.86122">
        <ele>289</ele>
        <time>2017-07-21T09:23:35Z</time>
      </trkpt>
      <trkpt lat="45.96889" lon="4.86128">
        <ele>289</ele>
        <time>2017-07-21T09:23:36Z</time>
      </trkpt>
      <trkpt lat="45.96889" lon="4.86135">
        <ele>289</ele>
        <time>2017-07-21T09:23:37Z</time>
      </trkpt>
      <trkpt lat="45.96888" lon="4.86142">
        <ele>289</ele>
        <time>2017-07-21T09:23:38Z</time>
      </trkpt>
      <trkpt lat="45.96886" lon="4.86149">
        <ele>289</ele>
        <time>2017-07-21T09:23:39Z</time>
      </trkpt>
      <trkpt lat="45.96885" lon="4.86156">
        <ele>289</ele>
        <time>2017-07-21T09:23:40Z</time>
      </trkpt>
      <trkpt lat="45.96884" lon="4.86162">
        <ele>289</ele>
        <time>2017-07-21T09:23:41Z</time>
      </trkpt>
      <trkpt lat="45.96883" lon="4.86169">
        <ele>289</ele>
        <time>2017-07-21T09:23:42Z</time>
      </trkpt>
      <trkpt lat="45.96882" lon="4.86174">
        <ele>289</ele>
        <time>2017-07-21T09:23:43Z</time>
      </trkpt>
      <trkpt lat="45.96881" lon="4.86181">
        <ele>289</ele>
        <time>2017-07-21T09:23:44Z</time>
      </trkpt>
      <trkpt lat="45.9688" lon="4.86188">
        <ele>289</ele>
        <time>2017-07-21T09:23:45Z</time>
      </trkpt>
      <trkpt lat="45.96879" lon="4.86196">
        <ele>289</ele>
        <time>2017-07-21T09:23:46Z</time>
      </trkpt>
      <trkpt lat="45.96879" lon="4.86203">
        <ele>289</ele>
        <time>2017-07-21T09:23:47Z</time>
      </trkpt>
      <trkpt lat="45.96878" lon="4.86209">
        <ele>289</ele>
        <time>2017-07-21T09:23:48Z</time>
      </trkpt>
      <trkpt lat="45.96876" lon="4.86219">
        <ele>289</ele>
        <time>2017-07-21T09:23:50Z</time>
      </trkpt>
      <trkpt lat="45.96876" lon="4.86224">
        <ele>289</ele>
        <time>2017-07-21T09:23:51Z</time>
      </trkpt>
      <trkpt lat="45.96876" lon="4.86233">
        <ele>289</ele>
        <time>2017-07-21T09:23:53Z</time>
      </trkpt>
      <trkpt lat="45.96875" lon="4.86238">
        <ele>289</ele>
        <time>2017-07-21T09:23:54Z</time>
      </trkpt>
      <trkpt lat="45.96872" lon="4.86249">
        <ele>289</ele>
        <time>2017-07-21T09:23:56Z</time>
      </trkpt>
      <trkpt lat="45.96871" lon="4.86255">
        <ele>289</ele>
        <time>2017-07-21T09:23:57Z</time>
      </trkpt>
      <trkpt lat="45.9687" lon="4.86266">
        <ele>289</ele>
        <time>2017-07-21T09:23:59Z</time>
      </trkpt>
      <trkpt lat="45.9687" lon="4.86272">
        <ele>289</ele>
        <time>2017-07-21T09:24:00Z</time>
      </trkpt>
      <trkpt lat="45.96869" lon="4.86283">
        <ele>289</ele>
        <time>2017-07-21T09:24:02Z</time>
      </trkpt>
      <trkpt lat="45.96869" lon="4.86288">
        <ele>289</ele>
        <time>2017-07-21T09:24:03Z</time>
      </trkpt>
      <trkpt lat="45.96868" lon="4.86298">
        <ele>289</ele>
        <time>2017-07-21T09:24:05Z</time>
      </trkpt>
      <trkpt lat="45.96867" lon="4.86304">
        <ele>289</ele>
        <time>2017-07-21T09:24:06Z</time>
      </trkpt>
      <trkpt lat="45.96865" lon="4.86315">
        <ele>289</ele>
        <time>2017-07-21T09:24:08Z</time>
      </trkpt>
      <trkpt lat="45.96864" lon="4.86321">
        <ele>289</ele>
        <time>2017-07-21T09:24:09Z</time>
      </trkpt>
      <trkpt lat="45.96863" lon="4.86328">
        <ele>289</ele>
        <time>2017-07-21T09:24:10Z</time>
      </trkpt>
      <trkpt lat="45.96862" lon="4.86334">
        <ele>290</ele>
        <time>2017-07-21T09:24:11Z</time>
      </trkpt>
      <trkpt lat="45.96861" lon="4.86341">
        <ele>290</ele>
        <time>2017-07-21T09:24:12Z</time>
      </trkpt>
      <trkpt lat="45.96861" lon="4.86348">
        <ele>290</ele>
        <time>2017-07-21T09:24:13Z</time>
      </trkpt>
      <trkpt lat="45.96859" lon="4.86355">
        <ele>290</ele>
        <time>2017-07-21T09:24:14Z</time>
      </trkpt>
      <trkpt lat="45.96859" lon="4.86362">
        <ele>290</ele>
        <time>2017-07-21T09:24:15Z</time>
      </trkpt>
      <trkpt lat="45.96859" lon="4.86369">
        <ele>290</ele>
        <time>2017-07-21T09:24:16Z</time>
      </trkpt>
      <trkpt lat="45.96858" lon="4.86375">
        <ele>290</ele>
        <time>2017-07-21T09:24:17Z</time>
      </trkpt>
      <trkpt lat="45.96855" lon="4.86385">
        <ele>290</ele>
        <time>2017-07-21T09:24:19Z</time>
      </trkpt>
      <trkpt lat="45.96854" lon="4.86391">
        <ele>290</ele>
        <time>2017-07-21T09:24:20Z</time>
      </trkpt>
      <trkpt lat="45.96853" lon="4.86403">
        <ele>291</ele>
        <time>2017-07-21T09:24:22Z</time>
      </trkpt>
      <trkpt lat="45.96853" lon="4.86409">
        <ele>291</ele>
        <time>2017-07-21T09:24:23Z</time>
      </trkpt>
      <trkpt lat="45.96851" lon="4.8642">
        <ele>290</ele>
        <time>2017-07-21T09:24:25Z</time>
      </trkpt>
      <trkpt lat="45.9685" lon="4.86426">
        <ele>290</ele>
        <time>2017-07-21T09:24:26Z</time>
      </trkpt>
      <trkpt lat="45.96847" lon="4.86438">
        <ele>290</ele>
        <time>2017-07-21T09:24:28Z</time>
      </trkpt>
      <trkpt lat="45.96845" lon="4.86443">
        <ele>290</ele>
        <time>2017-07-21T09:24:29Z</time>
      </trkpt>
      <trkpt lat="45.96844" lon="4.86449">
        <ele>290</ele>
        <time>2017-07-21T09:24:30Z</time>
      </trkpt>
      <trkpt lat="45.96843" lon="4.86456">
        <ele>289</ele>
        <time>2017-07-21T09:24:31Z</time>
      </trkpt>
      <trkpt lat="45.96841" lon="4.86463">
        <ele>289</ele>
        <time>2017-07-21T09:24:32Z</time>
      </trkpt>
      <trkpt lat="45.96839" lon="4.8647">
        <ele>289</ele>
        <time>2017-07-21T09:24:33Z</time>
      </trkpt>
      <trkpt lat="45.96836" lon="4.86477">
        <ele>289</ele>
        <time>2017-07-21T09:24:34Z</time>
      </trkpt>
      <trkpt lat="45.96834" lon="4.86484">
        <ele>289</ele>
        <time>2017-07-21T09:24:35Z</time>
      </trkpt>
      <trkpt lat="45.96832" lon="4.86491">
        <ele>290</ele>
        <time>2017-07-21T09:24:36Z</time>
      </trkpt>
      <trkpt lat="45.9683" lon="4.86498">
        <ele>289</ele>
        <time>2017-07-21T09:24:37Z</time>
      </trkpt>
      <trkpt lat="45.96827" lon="4.86504">
        <ele>289</ele>
        <time>2017-07-21T09:24:38Z</time>
      </trkpt>
      <trkpt lat="45.96825" lon="4.8651">
        <ele>289</ele>
        <time>2017-07-21T09:24:39Z</time>
      </trkpt>
      <trkpt lat="45.96822" lon="4.86515">
        <ele>289</ele>
        <time>2017-07-21T09:24:40Z</time>
      </trkpt>
      <trkpt lat="45.96819" lon="4.86521">
        <ele>289</ele>
        <time>2017-07-21T09:24:41Z</time>
      </trkpt>
      <trkpt lat="45.96817" lon="4.86527">
        <ele>290</ele>
        <time>2017-07-21T09:24:42Z</time>
      </trkpt>
      <trkpt lat="45.96813" lon="4.86533">
        <ele>290</ele>
        <time>2017-07-21T09:24:43Z</time>
      </trkpt>
      <trkpt lat="45.96809" lon="4.86539">
        <ele>290</ele>
        <time>2017-07-21T09:24:44Z</time>
      </trkpt>
      <trkpt lat="45.96806" lon="4.86545">
        <ele>290</ele>
        <time>2017-07-21T09:24:45Z</time>
      </trkpt>
      <trkpt lat="45.96803" lon="4.8655">
        <ele>290</ele>
        <time>2017-07-21T09:24:46Z</time>
      </trkpt>
      <trkpt lat="45.96799" lon="4.86556">
        <ele>290</ele>
        <time>2017-07-21T09:24:47Z</time>
      </trkpt>
      <trkpt lat="45.96796" lon="4.86562">
        <ele>290</ele>
        <time>2017-07-21T09:24:48Z</time>
      </trkpt>
      <trkpt lat="45.96792" lon="4.86567">
        <ele>290</ele>
        <time>2017-07-21T09:24:49Z</time>
      </trkpt>
      <trkpt lat="45.96787" lon="4.86577">
        <ele>290</ele>
        <time>2017-07-21T09:24:51Z</time>
      </trkpt>
      <trkpt lat="45.96784" lon="4.86581">
        <ele>290</ele>
        <time>2017-07-21T09:24:52Z</time>
      </trkpt>
      <trkpt lat="45.96778" lon="4.86591">
        <ele>289</ele>
        <time>2017-07-21T09:24:54Z</time>
      </trkpt>
      <trkpt lat="45.96775" lon="4.86596">
        <ele>289</ele>
        <time>2017-07-21T09:24:55Z</time>
      </trkpt>
      <trkpt lat="45.9677" lon="4.86605">
        <ele>290</ele>
        <time>2017-07-21T09:24:57Z</time>
      </trkpt>
      <trkpt lat="45.96767" lon="4.8661">
        <ele>290</ele>
        <time>2017-07-21T09:24:58Z</time>
      </trkpt>
      <trkpt lat="45.96763" lon="4.86614">
        <ele>290</ele>
        <time>2017-07-21T09:24:59Z</time>
      </trkpt>
      <trkpt lat="45.9676" lon="4.8662">
        <ele>290</ele>
        <time>2017-07-21T09:25:00Z</time>
      </trkpt>
      <trkpt lat="45.96757" lon="4.86627">
        <ele>290</ele>
        <time>2017-07-21T09:25:01Z</time>
      </trkpt>
      <trkpt lat="45.96753" lon="4.86633">
        <ele>290</ele>
        <time>2017-07-21T09:25:02Z</time>
      </trkpt>
      <trkpt lat="45.9675" lon="4.86639">
        <ele>290</ele>
        <time>2017-07-21T09:25:03Z</time>
      </trkpt>
      <trkpt lat="45.96747" lon="4.86645">
        <ele>290</ele>
        <time>2017-07-21T09:25:04Z</time>
      </trkpt>
      <trkpt lat="45.96744" lon="4.86651">
        <ele>290</ele>
        <time>2017-07-21T09:25:05Z</time>
      </trkpt>
      <trkpt lat="45.96741" lon="4.86657">
        <ele>290</ele>
        <time>2017-07-21T09:25:06Z</time>
      </trkpt>
      <trkpt lat="45.96738" lon="4.86663">
        <ele>290</ele>
        <time>2017-07-21T09:25:07Z</time>
      </trkpt>
      <trkpt lat="45.96734" lon="4.86669">
        <ele>290</ele>
        <time>2017-07-21T09:25:08Z</time>
      </trkpt>
      <trkpt lat="45.96731" lon="4.86675">
        <ele>290</ele>
        <time>2017-07-21T09:25:09Z</time>
      </trkpt>
      <trkpt lat="45.96727" lon="4.86681">
        <ele>289</ele>
        <time>2017-07-21T09:25:10Z</time>
      </trkpt>
      <trkpt lat="45.96724" lon="4.86688">
        <ele>289</ele>
        <time>2017-07-21T09:25:11Z</time>
      </trkpt>
      <trkpt lat="45.9672" lon="4.86694">
        <ele>289</ele>
        <time>2017-07-21T09:25:12Z</time>
      </trkpt>
      <trkpt lat="45.96716" lon="4.867">
        <ele>289</ele>
        <time>2017-07-21T09:25:13Z</time>
      </trkpt>
      <trkpt lat="45.96711" lon="4.86707">
        <ele>289</ele>
        <time>2017-07-21T09:25:14Z</time>
      </trkpt>
      <trkpt lat="45.96707" lon="4.86713">
        <ele>289</ele>
        <time>2017-07-21T09:25:15Z</time>
      </trkpt>
      <trkpt lat="45.96704" lon="4.8672">
        <ele>289</ele>
        <time>2017-07-21T09:25:16Z</time>
      </trkpt>
      <trkpt lat="45.967" lon="4.86727">
        <ele>289</ele>
        <time>2017-07-21T09:25:17Z</time>
      </trkpt>
      <trkpt lat="45.96695" lon="4.86733">
        <ele>289</ele>
        <time>2017-07-21T09:25:18Z</time>
      </trkpt>
      <trkpt lat="45.96691" lon="4.8674">
        <ele>289</ele>
        <time>2017-07-21T09:25:19Z</time>
      </trkpt>
      <trkpt lat="45.96687" lon="4.86747">
        <ele>289</ele>
        <time>2017-07-21T09:25:20Z</time>
      </trkpt>
      <trkpt lat="45.96683" lon="4.86753">
        <ele>289</ele>
        <time>2017-07-21T09:25:21Z</time>
      </trkpt>
      <trkpt lat="45.96679" lon="4.8676">
        <ele>289</ele>
        <time>2017-07-21T09:25:22Z</time>
      </trkpt>
      <trkpt lat="45.96676" lon="4.86766">
        <ele>289</ele>
        <time>2017-07-21T09:25:23Z</time>
      </trkpt>
      <trkpt lat="45.96672" lon="4.86772">
        <ele>289</ele>
        <time>2017-07-21T09:25:24Z</time>
      </trkpt>
      <trkpt lat="45.96668" lon="4.86779">
        <ele>289</ele>
        <time>2017-07-21T09:25:25Z</time>
      </trkpt>
      <trkpt lat="45.96664" lon="4.86784">
        <ele>288</ele>
        <time>2017-07-21T09:25:26Z</time>
      </trkpt>
      <trkpt lat="45.96661" lon="4.8679">
        <ele>288</ele>
        <time>2017-07-21T09:25:27Z</time>
      </trkpt>
      <trkpt lat="45.96657" lon="4.86796">
        <ele>288</ele>
        <time>2017-07-21T09:25:28Z</time>
      </trkpt>
      <trkpt lat="45.96654" lon="4.86802">
        <ele>288</ele>
        <time>2017-07-21T09:25:29Z</time>
      </trkpt>
      <trkpt lat="45.96649" lon="4.86808">
        <ele>288</ele>
        <time>2017-07-21T09:25:30Z</time>
      </trkpt>
      <trkpt lat="45.96646" lon="4.86815">
        <ele>288</ele>
        <time>2017-07-21T09:25:31Z</time>
      </trkpt>
      <trkpt lat="45.96642" lon="4.86821">
        <ele>288</ele>
        <time>2017-07-21T09:25:32Z</time>
      </trkpt>
      <trkpt lat="45.96638" lon="4.86828">
        <ele>288</ele>
        <time>2017-07-21T09:25:33Z</time>
      </trkpt>
      <trkpt lat="45.96635" lon="4.86834">
        <ele>287</ele>
        <time>2017-07-21T09:25:34Z</time>
      </trkpt>
      <trkpt lat="45.96632" lon="4.86839">
        <ele>287</ele>
        <time>2017-07-21T09:25:35Z</time>
      </trkpt>
      <trkpt lat="45.96628" lon="4.86844">
        <ele>287</ele>
        <time>2017-07-21T09:25:36Z</time>
      </trkpt>
      <trkpt lat="45.96625" lon="4.8685">
        <ele>287</ele>
        <time>2017-07-21T09:25:37Z</time>
      </trkpt>
      <trkpt lat="45.96621" lon="4.86856">
        <ele>287</ele>
        <time>2017-07-21T09:25:38Z</time>
      </trkpt>
      <trkpt lat="45.96618" lon="4.86861">
        <ele>287</ele>
        <time>2017-07-21T09:25:39Z</time>
      </trkpt>
      <trkpt lat="45.96615" lon="4.86866">
        <ele>287</ele>
        <time>2017-07-21T09:25:40Z</time>
      </trkpt>
      <trkpt lat="45.96611" lon="4.86871">
        <ele>287</ele>
        <time>2017-07-21T09:25:41Z</time>
      </trkpt>
      <trkpt lat="45.96607" lon="4.86876">
        <ele>287</ele>
        <time>2017-07-21T09:25:42Z</time>
      </trkpt>
      <trkpt lat="45.96604" lon="4.86882">
        <ele>287</ele>
        <time>2017-07-21T09:25:43Z</time>
      </trkpt>
      <trkpt lat="45.96599" lon="4.86888">
        <ele>287</ele>
        <time>2017-07-21T09:25:44Z</time>
      </trkpt>
      <trkpt lat="45.96595" lon="4.86894">
        <ele>286</ele>
        <time>2017-07-21T09:25:45Z</time>
      </trkpt>
      <trkpt lat="45.9659" lon="4.86899">
        <ele>286</ele>
        <time>2017-07-21T09:25:46Z</time>
      </trkpt>
      <trkpt lat="45.96586" lon="4.86903">
        <ele>286</ele>
        <time>2017-07-21T09:25:47Z</time>
      </trkpt>
      <trkpt lat="45.96581" lon="4.86909">
        <ele>285</ele>
        <time>2017-07-21T09:25:48Z</time>
      </trkpt>
      <trkpt lat="45.96577" lon="4.86915">
        <ele>285</ele>
        <time>2017-07-21T09:25:49Z</time>
      </trkpt>
      <trkpt lat="45.96573" lon="4.86922">
        <ele>284</ele>
        <time>2017-07-21T09:25:50Z</time>
      </trkpt>
      <trkpt lat="45.96569" lon="4.86929">
        <ele>284</ele>
        <time>2017-07-21T09:25:51Z</time>
      </trkpt>
      <trkpt lat="45.96565" lon="4.86935">
        <ele>284</ele>
        <time>2017-07-21T09:25:52Z</time>
      </trkpt>
      <trkpt lat="45.96561" lon="4.86943">
        <ele>284</ele>
        <time>2017-07-21T09:25:53Z</time>
      </trkpt>
      <trkpt lat="45.96558" lon="4.8695">
        <ele>283</ele>
        <time>2017-07-21T09:25:54Z</time>
      </trkpt>
      <trkpt lat="45.96555" lon="4.86956">
        <ele>283</ele>
        <time>2017-07-21T09:25:55Z</time>
      </trkpt>
      <trkpt lat="45.96552" lon="4.86962">
        <ele>283</ele>
        <time>2017-07-21T09:25:56Z</time>
      </trkpt>
      <trkpt lat="45.96546" lon="4.8697">
        <ele>283</ele>
        <time>2017-07-21T09:25:58Z</time>
      </trkpt>
      <trkpt lat="45.96544" lon="4.86972">
        <ele>283</ele>
        <time>2017-07-21T09:25:59Z</time>
      </trkpt>
      <trkpt lat="45.96542" lon="4.86985">
        <ele>283</ele>
        <time>2017-07-21T09:26:04Z</time>
      </trkpt>
      <trkpt lat="45.96541" lon="4.86989">
        <ele>283</ele>
        <time>2017-07-21T09:26:05Z</time>
      </trkpt>
      <trkpt lat="45.96536" lon="4.86998">
        <ele>283</ele>
        <time>2017-07-21T09:26:07Z</time>
      </trkpt>
      <trkpt lat="45.96536" lon="4.87001">
        <ele>283</ele>
        <time>2017-07-21T09:26:08Z</time>
      </trkpt>
      <trkpt lat="45.96539" lon="4.87011">
        <ele>283</ele>
        <time>2017-07-21T09:26:13Z</time>
      </trkpt>
      <trkpt lat="45.9654" lon="4.87013">
        <ele>283</ele>
        <time>2017-07-21T09:26:14Z</time>
      </trkpt>
      <trkpt lat="45.96544" lon="4.87019">
        <ele>283</ele>
        <time>2017-07-21T09:26:16Z</time>
      </trkpt>
      <trkpt lat="45.96544" lon="4.87019">
        <ele>283</ele>
        <time>2017-07-21T09:26:17Z</time>
      </trkpt>
      <trkpt lat="45.96543" lon="4.8702">
        <ele>283</ele>
        <time>2017-07-21T09:32:51Z</time>
      </trkpt>
      <trkpt lat="45.96547" lon="4.87028">
        <ele>283</ele>
        <time>2017-07-21T09:32:52Z</time>
      </trkpt>
      <trkpt lat="45.96553" lon="4.87036">
        <ele>283</ele>
        <time>2017-07-21T09:33:01Z</time>
      </trkpt>
      <trkpt lat="45.96554" lon="4.87039">
        <ele>283</ele>
        <time>2017-07-21T09:33:02Z</time>
      </trkpt>
      <trkpt lat="45.96557" lon="4.87051">
        <ele>283</ele>
        <time>2017-07-21T09:33:05Z</time>
      </trkpt>
      <trkpt lat="45.96557" lon="4.87055">
        <ele>283</ele>
        <time>2017-07-21T09:33:06Z</time>
      </trkpt>
      <trkpt lat="45.96559" lon="4.87066">
        <ele>283</ele>
        <time>2017-07-21T09:33:09Z</time>
      </trkpt>
      <trkpt lat="45.96557" lon="4.87069">
        <ele>283</ele>
        <time>2017-07-21T09:33:10Z</time>
      </trkpt>
      <trkpt lat="45.9655" lon="4.87069">
        <ele>283</ele>
        <time>2017-07-21T09:33:16Z</time>
      </trkpt>
      <trkpt lat="45.96547" lon="4.87067">
        <ele>283</ele>
        <time>2017-07-21T09:33:17Z</time>
      </trkpt>
      <trkpt lat="45.96544" lon="4.87057">
        <ele>283</ele>
        <time>2017-07-21T09:33:21Z</time>
      </trkpt>
      <trkpt lat="45.96538" lon="4.8706">
        <ele>283</ele>
        <time>2017-07-21T09:33:22Z</time>
      </trkpt>
      <trkpt lat="45.96532" lon="4.87054">
        <ele>283</ele>
        <time>2017-07-21T09:33:25Z</time>
      </trkpt>
      <trkpt lat="45.96531" lon="4.87052">
        <ele>283</ele>
        <time>2017-07-21T09:33:26Z</time>
      </trkpt>
      <trkpt lat="45.96528" lon="4.87042">
        <ele>283</ele>
        <time>2017-07-21T09:33:29Z</time>
      </trkpt>
      <trkpt lat="45.96524" lon="4.8704">
        <ele>283</ele>
        <time>2017-07-21T09:33:30Z</time>
      </trkpt>
      <trkpt lat="45.96519" lon="4.87039">
        <ele>283</ele>
        <time>2017-07-21T09:33:31Z</time>
      </trkpt>
      <trkpt lat="45.96515" lon="4.8704">
        <ele>283</ele>
        <time>2017-07-21T09:33:32Z</time>
      </trkpt>
      <trkpt lat="45.9651" lon="4.87041">
        <ele>283</ele>
        <time>2017-07-21T09:33:33Z</time>
      </trkpt>
      <trkpt lat="45.96505" lon="4.87043">
        <ele>282</ele>
        <time>2017-07-21T09:33:34Z</time>
      </trkpt>
      <trkpt lat="45.96501" lon="4.87047">
        <ele>282</ele>
        <time>2017-07-21T09:33:35Z</time>
      </trkpt>
      <trkpt lat="45.96496" lon="4.87051">
        <ele>281</ele>
        <time>2017-07-21T09:33:36Z</time>
      </trkpt>
      <trkpt lat="45.96491" lon="4.87055">
        <ele>281</ele>
        <time>2017-07-21T09:33:37Z</time>
      </trkpt>
      <trkpt lat="45.96487" lon="4.87059">
        <ele>281</ele>
        <time>2017-07-21T09:33:38Z</time>
      </trkpt>
      <trkpt lat="45.96483" lon="4.87065">
        <ele>281</ele>
        <time>2017-07-21T09:33:39Z</time>
      </trkpt>
      <trkpt lat="45.96479" lon="4.8707">
        <ele>281</ele>
        <time>2017-07-21T09:33:40Z</time>
      </trkpt>
      <trkpt lat="45.96475" lon="4.87075">
        <ele>281</ele>
        <time>2017-07-21T09:33:41Z</time>
      </trkpt>
      <trkpt lat="45.96471" lon="4.87079">
        <ele>281</ele>
        <time>2017-07-21T09:33:42Z</time>
      </trkpt>
      <trkpt lat="45.96467" lon="4.87084">
        <ele>282</ele>
        <time>2017-07-21T09:33:43Z</time>
      </trkpt>
      <trkpt lat="45.96463" lon="4.87089">
        <ele>282</ele>
        <time>2017-07-21T09:33:44Z</time>
      </trkpt>
      <trkpt lat="45.9646" lon="4.87094">
        <ele>282</ele>
        <time>2017-07-21T09:33:45Z</time>
      </trkpt>
      <trkpt lat="45.96456" lon="4.87099">
        <ele>281</ele>
        <time>2017-07-21T09:33:46Z</time>
      </trkpt>
      <trkpt lat="45.96452" lon="4.87104">
        <ele>281</ele>
        <time>2017-07-21T09:33:47Z</time>
      </trkpt>
      <trkpt lat="45.96449" lon="4.87108">
        <ele>281</ele>
        <time>2017-07-21T09:33:48Z</time>
      </trkpt>
      <trkpt lat="45.96445" lon="4.87113">
        <ele>281</ele>
        <time>2017-07-21T09:33:49Z</time>
      </trkpt>
      <trkpt lat="45.96441" lon="4.87117">
        <ele>281</ele>
        <time>2017-07-21T09:33:50Z</time>
      </trkpt>
      <trkpt lat="45.96438" lon="4.87122">
        <ele>281</ele>
        <time>2017-07-21T09:33:51Z</time>
      </trkpt>
      <trkpt lat="45.96434" lon="4.87127">
        <ele>281</ele>
        <time>2017-07-21T09:33:52Z</time>
      </trkpt>
      <trkpt lat="45.9643" lon="4.87131">
        <ele>281</ele>
        <time>2017-07-21T09:33:53Z</time>
      </trkpt>
      <trkpt lat="45.96427" lon="4.87136">
        <ele>281</ele>
        <time>2017-07-21T09:33:54Z</time>
      </trkpt>
      <trkpt lat="45.96423" lon="4.87141">
        <ele>281</ele>
        <time>2017-07-21T09:33:55Z</time>
      </trkpt>
      <trkpt lat="45.96419" lon="4.87145">
        <ele>281</ele>
        <time>2017-07-21T09:33:56Z</time>
      </trkpt>
      <trkpt lat="45.96415" lon="4.8715">
        <ele>281</ele>
        <time>2017-07-21T09:33:57Z</time>
      </trkpt>
      <trkpt lat="45.96411" lon="4.87156">
        <ele>281</ele>
        <time>2017-07-21T09:33:58Z</time>
      </trkpt>
      <trkpt lat="45.96406" lon="4.87161">
        <ele>281</ele>
        <time>2017-07-21T09:33:59Z</time>
      </trkpt>
      <trkpt lat="45.96401" lon="4.87165">
        <ele>281</ele>
        <time>2017-07-21T09:34:00Z</time>
      </trkpt>
      <trkpt lat="45.96397" lon="4.87171">
        <ele>282</ele>
        <time>2017-07-21T09:34:01Z</time>
      </trkpt>
      <trkpt lat="45.96393" lon="4.87177">
        <ele>282</ele>
        <time>2017-07-21T09:34:02Z</time>
      </trkpt>
      <trkpt lat="45.96388" lon="4.87183">
        <ele>282</ele>
        <time>2017-07-21T09:34:03Z</time>
      </trkpt>
      <trkpt lat="45.96384" lon="4.87189">
        <ele>282</ele>
        <time>2017-07-21T09:34:04Z</time>
      </trkpt>
      <trkpt lat="45.96379" lon="4.87194">
        <ele>282</ele>
        <time>2017-07-21T09:34:05Z</time>
      </trkpt>
      <trkpt lat="45.96374" lon="4.872">
        <ele>282</ele>
        <time>2017-07-21T09:34:06Z</time>
      </trkpt>
      <trkpt lat="45.9637" lon="4.87205">
        <ele>282</ele>
        <time>2017-07-21T09:34:07Z</time>
      </trkpt>
      <trkpt lat="45.96365" lon="4.87211">
        <ele>282</ele>
        <time>2017-07-21T09:34:08Z</time>
      </trkpt>
      <trkpt lat="45.96362" lon="4.87217">
        <ele>282</ele>
        <time>2017-07-21T09:34:09Z</time>
      </trkpt>
      <trkpt lat="45.96358" lon="4.87223">
        <ele>282</ele>
        <time>2017-07-21T09:34:10Z</time>
      </trkpt>
      <trkpt lat="45.96354" lon="4.87228">
        <ele>282</ele>
        <time>2017-07-21T09:34:11Z</time>
      </trkpt>
      <trkpt lat="45.9635" lon="4.87233">
        <ele>282</ele>
        <time>2017-07-21T09:34:12Z</time>
      </trkpt>
      <trkpt lat="45.96346" lon="4.87237">
        <ele>282</ele>
        <time>2017-07-21T09:34:13Z</time>
      </trkpt>
      <trkpt lat="45.96343" lon="4.87242">
        <ele>283</ele>
        <time>2017-07-21T09:34:14Z</time>
      </trkpt>
      <trkpt lat="45.96336" lon="4.87249">
        <ele>283</ele>
        <time>2017-07-21T09:34:16Z</time>
      </trkpt>
      <trkpt lat="45.96333" lon="4.87253">
        <ele>283</ele>
        <time>2017-07-21T09:34:17Z</time>
      </trkpt>
      <trkpt lat="45.9633" lon="4.87258">
        <ele>283</ele>
        <time>2017-07-21T09:34:18Z</time>
      </trkpt>
      <trkpt lat="45.96326" lon="4.87262">
        <ele>283</ele>
        <time>2017-07-21T09:34:19Z</time>
      </trkpt>
      <trkpt lat="45.96323" lon="4.87267">
        <ele>283</ele>
        <time>2017-07-21T09:34:20Z</time>
      </trkpt>
      <trkpt lat="45.9632" lon="4.87272">
        <ele>283</ele>
        <time>2017-07-21T09:34:21Z</time>
      </trkpt>
      <trkpt lat="45.96316" lon="4.87277">
        <ele>283</ele>
        <time>2017-07-21T09:34:22Z</time>
      </trkpt>
      <trkpt lat="45.96313" lon="4.87282">
        <ele>283</ele>
        <time>2017-07-21T09:34:23Z</time>
      </trkpt>
      <trkpt lat="45.96309" lon="4.87287">
        <ele>283</ele>
        <time>2017-07-21T09:34:24Z</time>
      </trkpt>
      <trkpt lat="45.96305" lon="4.87292">
        <ele>283</ele>
        <time>2017-07-21T09:34:25Z</time>
      </trkpt>
      <trkpt lat="45.96301" lon="4.87297">
        <ele>283</ele>
        <time>2017-07-21T09:34:26Z</time>
      </trkpt>
      <trkpt lat="45.96297" lon="4.87303">
        <ele>283</ele>
        <time>2017-07-21T09:34:27Z</time>
      </trkpt>
      <trkpt lat="45.96292" lon="4.87308">
        <ele>283</ele>
        <time>2017-07-21T09:34:28Z</time>
      </trkpt>
      <trkpt lat="45.96288" lon="4.87315">
        <ele>283</ele>
        <time>2017-07-21T09:34:29Z</time>
      </trkpt>
      <trkpt lat="45.96284" lon="4.87319">
        <ele>283</ele>
        <time>2017-07-21T09:34:30Z</time>
      </trkpt>
      <trkpt lat="45.9628" lon="4.87324">
        <ele>283</ele>
        <time>2017-07-21T09:34:31Z</time>
      </trkpt>
      <trkpt lat="45.96277" lon="4.87328">
        <ele>283</ele>
        <time>2017-07-21T09:34:32Z</time>
      </trkpt>
      <trkpt lat="45.96273" lon="4.87332">
        <ele>283</ele>
        <time>2017-07-21T09:34:33Z</time>
      </trkpt>
      <trkpt lat="45.9627" lon="4.87337">
        <ele>283</ele>
        <time>2017-07-21T09:34:34Z</time>
      </trkpt>
      <trkpt lat="45.96266" lon="4.87341">
        <ele>283</ele>
        <time>2017-07-21T09:34:35Z</time>
      </trkpt>
      <trkpt lat="45.96259" lon="4.87348">
        <ele>283</ele>
        <time>2017-07-21T09:34:37Z</time>
      </trkpt>
      <trkpt lat="45.96256" lon="4.87353">
        <ele>283</ele>
        <time>2017-07-21T09:34:38Z</time>
      </trkpt>
      <trkpt lat="45.9625" lon="4.87362">
        <ele>283</ele>
        <time>2017-07-21T09:34:40Z</time>
      </trkpt>
      <trkpt lat="45.96246" lon="4.87366">
        <ele>283</ele>
        <time>2017-07-21T09:34:41Z</time>
      </trkpt>
      <trkpt lat="45.96242" lon="4.8737">
        <ele>283</ele>
        <time>2017-07-21T09:34:42Z</time>
      </trkpt>
      <trkpt lat="45.96238" lon="4.87375">
        <ele>283</ele>
        <time>2017-07-21T09:34:43Z</time>
      </trkpt>
      <trkpt lat="45.96234" lon="4.87381">
        <ele>283</ele>
        <time>2017-07-21T09:34:44Z</time>
      </trkpt>
      <trkpt lat="45.96229" lon="4.87385">
        <ele>283</ele>
        <time>2017-07-21T09:34:45Z</time>
      </trkpt>
      <trkpt lat="45.96225" lon="4.8739">
        <ele>283</ele>
        <time>2017-07-21T09:34:46Z</time>
      </trkpt>
      <trkpt lat="45.96221" lon="4.87395">
        <ele>283</ele>
        <time>2017-07-21T09:34:47Z</time>
      </trkpt>
      <trkpt lat="45.96217" lon="4.87399">
        <ele>283</ele>
        <time>2017-07-21T09:34:48Z</time>
      </trkpt>
      <trkpt lat="45.96213" lon="4.87404">
        <ele>283</ele>
        <time>2017-07-21T09:34:49Z</time>
      </trkpt>
      <trkpt lat="45.96209" lon="4.87409">
        <ele>283</ele>
        <time>2017-07-21T09:34:50Z</time>
      </trkpt>
      <trkpt lat="45.96205" lon="4.87413">
        <ele>283</ele>
        <time>2017-07-21T09:34:51Z</time>
      </trkpt>
      <trkpt lat="45.96202" lon="4.87417">
        <ele>284</ele>
        <time>2017-07-21T09:34:52Z</time>
      </trkpt>
      <trkpt lat="45.96198" lon="4.87421">
        <ele>284</ele>
        <time>2017-07-21T09:34:53Z</time>
      </trkpt>
      <trkpt lat="45.96191" lon="4.87429">
        <ele>284</ele>
        <time>2017-07-21T09:34:55Z</time>
      </trkpt>
      <trkpt lat="45.96188" lon="4.87433">
        <ele>284</ele>
        <time>2017-07-21T09:34:56Z</time>
      </trkpt>
      <trkpt lat="45.96184" lon="4.87437">
        <ele>284</ele>
        <time>2017-07-21T09:34:57Z</time>
      </trkpt>
      <trkpt lat="45.9618" lon="4.87441">
        <ele>284</ele>
        <time>2017-07-21T09:34:58Z</time>
      </trkpt>
      <trkpt lat="45.96176" lon="4.87446">
        <ele>284</ele>
        <time>2017-07-21T09:34:59Z</time>
      </trkpt>
      <trkpt lat="45.96172" lon="4.8745">
        <ele>284</ele>
        <time>2017-07-21T09:35:00Z</time>
      </trkpt>
      <trkpt lat="45.96169" lon="4.87455">
        <ele>284</ele>
        <time>2017-07-21T09:35:01Z</time>
      </trkpt>
      <trkpt lat="45.96165" lon="4.8746">
        <ele>285</ele>
        <time>2017-07-21T09:35:02Z</time>
      </trkpt>
      <trkpt lat="45.96161" lon="4.87464">
        <ele>285</ele>
        <time>2017-07-21T09:35:03Z</time>
      </trkpt>
      <trkpt lat="45.96157" lon="4.87469">
        <ele>285</ele>
        <time>2017-07-21T09:35:04Z</time>
      </trkpt>
      <trkpt lat="45.96153" lon="4.87473">
        <ele>285</ele>
        <time>2017-07-21T09:35:05Z</time>
      </trkpt>
      <trkpt lat="45.9615" lon="4.87477">
        <ele>285</ele>
        <time>2017-07-21T09:35:06Z</time>
      </trkpt>
      <trkpt lat="45.96146" lon="4.87481">
        <ele>285</ele>
        <time>2017-07-21T09:35:07Z</time>
      </trkpt>
      <trkpt lat="45.96142" lon="4.87485">
        <ele>285</ele>
        <time>2017-07-21T09:35:08Z</time>
      </trkpt>
      <trkpt lat="45.96138" lon="4.8749">
        <ele>285</ele>
        <time>2017-07-21T09:35:09Z</time>
      </trkpt>
      <trkpt lat="45.96134" lon="4.87494">
        <ele>285</ele>
        <time>2017-07-21T09:35:10Z</time>
      </trkpt>
      <trkpt lat="45.9613" lon="4.87499">
        <ele>285</ele>
        <time>2017-07-21T09:35:11Z</time>
      </trkpt>
      <trkpt lat="45.96126" lon="4.87503">
        <ele>286</ele>
        <time>2017-07-21T09:35:12Z</time>
      </trkpt>
      <trkpt lat="45.96121" lon="4.87508">
        <ele>286</ele>
        <time>2017-07-21T09:35:13Z</time>
      </trkpt>
      <trkpt lat="45.96117" lon="4.87512">
        <ele>286</ele>
        <time>2017-07-21T09:35:14Z</time>
      </trkpt>
      <trkpt lat="45.96113" lon="4.87516">
        <ele>287</ele>
        <time>2017-07-21T09:35:15Z</time>
      </trkpt>
      <trkpt lat="45.96109" lon="4.8752">
        <ele>287</ele>
        <time>2017-07-21T09:35:16Z</time>
      </trkpt>
      <trkpt lat="45.96105" lon="4.87525">
        <ele>287</ele>
        <time>2017-07-21T09:35:17Z</time>
      </trkpt>
      <trkpt lat="45.96101" lon="4.8753">
        <ele>287</ele>
        <time>2017-07-21T09:35:18Z</time>
      </trkpt>
      <trkpt lat="45.96098" lon="4.87534">
        <ele>287</ele>
        <time>2017-07-21T09:35:19Z</time>
      </trkpt>
      <trkpt lat="45.96094" lon="4.87539">
        <ele>287</ele>
        <time>2017-07-21T09:35:20Z</time>
      </trkpt>
      <trkpt lat="45.9609" lon="4.87544">
        <ele>287</ele>
        <time>2017-07-21T09:35:21Z</time>
      </trkpt>
      <trkpt lat="45.96085" lon="4.87549">
        <ele>287</ele>
        <time>2017-07-21T09:35:22Z</time>
      </trkpt>
      <trkpt lat="45.96081" lon="4.87553">
        <ele>288</ele>
        <time>2017-07-21T09:35:23Z</time>
      </trkpt>
      <trkpt lat="45.96077" lon="4.87557">
        <ele>288</ele>
        <time>2017-07-21T09:35:24Z</time>
      </trkpt>
      <trkpt lat="45.96073" lon="4.87562">
        <ele>288</ele>
        <time>2017-07-21T09:35:25Z</time>
      </trkpt>
      <trkpt lat="45.9607" lon="4.87566">
        <ele>288</ele>
        <time>2017-07-21T09:35:26Z</time>
      </trkpt>
      <trkpt lat="45.96063" lon="4.87573">
        <ele>288</ele>
        <time>2017-07-21T09:35:28Z</time>
      </trkpt>
      <trkpt lat="45.96059" lon="4.87577">
        <ele>288</ele>
        <time>2017-07-21T09:35:29Z</time>
      </trkpt>
      <trkpt lat="45.96055" lon="4.8758">
        <ele>288</ele>
        <time>2017-07-21T09:35:30Z</time>
      </trkpt>
      <trkpt lat="45.96051" lon="4.87583">
        <ele>288</ele>
        <time>2017-07-21T09:35:31Z</time>
      </trkpt>
      <trkpt lat="45.96047" lon="4.87587">
        <ele>288</ele>
        <time>2017-07-21T09:35:32Z</time>
      </trkpt>
      <trkpt lat="45.96044" lon="4.87591">
        <ele>288</ele>
        <time>2017-07-21T09:35:33Z</time>
      </trkpt>
      <trkpt lat="45.96038" lon="4.87599">
        <ele>289</ele>
        <time>2017-07-21T09:35:35Z</time>
      </trkpt>
      <trkpt lat="45.96035" lon="4.87602">
        <ele>289</ele>
        <time>2017-07-21T09:35:36Z</time>
      </trkpt>
      <trkpt lat="45.9603" lon="4.87609">
        <ele>289</ele>
        <time>2017-07-21T09:35:38Z</time>
      </trkpt>
      <trkpt lat="45.96027" lon="4.87613">
        <ele>289</ele>
        <time>2017-07-21T09:35:39Z</time>
      </trkpt>
      <trkpt lat="45.96021" lon="4.87619">
        <ele>289</ele>
        <time>2017-07-21T09:35:41Z</time>
      </trkpt>
      <trkpt lat="45.96017" lon="4.87623">
        <ele>289</ele>
        <time>2017-07-21T09:35:42Z</time>
      </trkpt>
      <trkpt lat="45.96014" lon="4.87628">
        <ele>289</ele>
        <time>2017-07-21T09:35:43Z</time>
      </trkpt>
      <trkpt lat="45.9601" lon="4.87632">
        <ele>289</ele>
        <time>2017-07-21T09:35:44Z</time>
      </trkpt>
      <trkpt lat="45.96006" lon="4.87636">
        <ele>289</ele>
        <time>2017-07-21T09:35:45Z</time>
      </trkpt>
      <trkpt lat="45.96002" lon="4.8764">
        <ele>289</ele>
        <time>2017-07-21T09:35:46Z</time>
      </trkpt>
      <trkpt lat="45.95998" lon="4.87644">
        <ele>289</ele>
        <time>2017-07-21T09:35:47Z</time>
      </trkpt>
      <trkpt lat="45.95995" lon="4.87649">
        <ele>289</ele>
        <time>2017-07-21T09:35:48Z</time>
      </trkpt>
      <trkpt lat="45.95989" lon="4.87657">
        <ele>289</ele>
        <time>2017-07-21T09:35:50Z</time>
      </trkpt>
      <trkpt lat="45.95986" lon="4.87661">
        <ele>289</ele>
        <time>2017-07-21T09:35:51Z</time>
      </trkpt>
      <trkpt lat="45.95979" lon="4.87668">
        <ele>289</ele>
        <time>2017-07-21T09:35:53Z</time>
      </trkpt>
      <trkpt lat="45.95975" lon="4.87672">
        <ele>289</ele>
        <time>2017-07-21T09:35:54Z</time>
      </trkpt>
      <trkpt lat="45.95972" lon="4.87676">
        <ele>289</ele>
        <time>2017-07-21T09:35:55Z</time>
      </trkpt>
      <trkpt lat="45.95968" lon="4.8768">
        <ele>289</ele>
        <time>2017-07-21T09:35:56Z</time>
      </trkpt>
      <trkpt lat="45.95964" lon="4.87684">
        <ele>289</ele>
        <time>2017-07-21T09:35:57Z</time>
      </trkpt>
      <trkpt lat="45.9596" lon="4.87689">
        <ele>289</ele>
        <time>2017-07-21T09:35:58Z</time>
      </trkpt>
      <trkpt lat="45.95956" lon="4.87694">
        <ele>289</ele>
        <time>2017-07-21T09:35:59Z</time>
      </trkpt>
      <trkpt lat="45.95953" lon="4.87698">
        <ele>289</ele>
        <time>2017-07-21T09:36:00Z</time>
      </trkpt>
      <trkpt lat="45.95946" lon="4.87705">
        <ele>289</ele>
        <time>2017-07-21T09:36:02Z</time>
      </trkpt>
      <trkpt lat="45.95943" lon="4.87709">
        <ele>289</ele>
        <time>2017-07-21T09:36:03Z</time>
      </trkpt>
      <trkpt lat="45.95937" lon="4.87718">
        <ele>289</ele>
        <time>2017-07-21T09:36:05Z</time>
      </trkpt>
      <trkpt lat="45.95935" lon="4.87723">
        <ele>289</ele>
        <time>2017-07-21T09:36:06Z</time>
      </trkpt>
      <trkpt lat="45.95929" lon="4.87732">
        <ele>288</ele>
        <time>2017-07-21T09:36:08Z</time>
      </trkpt>
      <trkpt lat="45.95926" lon="4.87736">
        <ele>288</ele>
        <time>2017-07-21T09:36:09Z</time>
      </trkpt>
      <trkpt lat="45.95923" lon="4.8774">
        <ele>288</ele>
        <time>2017-07-21T09:36:10Z</time>
      </trkpt>
      <trkpt lat="45.9592" lon="4.87745">
        <ele>288</ele>
        <time>2017-07-21T09:36:11Z</time>
      </trkpt>
      <trkpt lat="45.95917" lon="4.8775">
        <ele>288</ele>
        <time>2017-07-21T09:36:12Z</time>
      </trkpt>
      <trkpt lat="45.95914" lon="4.87755">
        <ele>288</ele>
        <time>2017-07-21T09:36:13Z</time>
      </trkpt>
      <trkpt lat="45.95911" lon="4.8776">
        <ele>288</ele>
        <time>2017-07-21T09:36:14Z</time>
      </trkpt>
      <trkpt lat="45.95908" lon="4.87765">
        <ele>288</ele>
        <time>2017-07-21T09:36:15Z</time>
      </trkpt>
      <trkpt lat="45.95905" lon="4.87771">
        <ele>288</ele>
        <time>2017-07-21T09:36:16Z</time>
      </trkpt>
      <trkpt lat="45.95902" lon="4.87776">
        <ele>288</ele>
        <time>2017-07-21T09:36:17Z</time>
      </trkpt>
      <trkpt lat="45.95898" lon="4.87781">
        <ele>288</ele>
        <time>2017-07-21T09:36:18Z</time>
      </trkpt>
      <trkpt lat="45.95895" lon="4.87787">
        <ele>288</ele>
        <time>2017-07-21T09:36:19Z</time>
      </trkpt>
      <trkpt lat="45.95892" lon="4.87792">
        <ele>288</ele>
        <time>2017-07-21T09:36:20Z</time>
      </trkpt>
      <trkpt lat="45.95889" lon="4.87797">
        <ele>288</ele>
        <time>2017-07-21T09:36:21Z</time>
      </trkpt>
      <trkpt lat="45.95886" lon="4.87803">
        <ele>288</ele>
        <time>2017-07-21T09:36:22Z</time>
      </trkpt>
      <trkpt lat="45.95882" lon="4.87809">
        <ele>288</ele>
        <time>2017-07-21T09:36:23Z</time>
      </trkpt>
      <trkpt lat="45.95879" lon="4.87814">
        <ele>288</ele>
        <time>2017-07-21T09:36:24Z</time>
      </trkpt>
      <trkpt lat="45.95876" lon="4.87819">
        <ele>288</ele>
        <time>2017-07-21T09:36:25Z</time>
      </trkpt>
      <trkpt lat="45.95869" lon="4.87827">
        <ele>288</ele>
        <time>2017-07-21T09:36:27Z</time>
      </trkpt>
      <trkpt lat="45.95865" lon="4.8783">
        <ele>288</ele>
        <time>2017-07-21T09:36:28Z</time>
      </trkpt>
      <trkpt lat="45.95857" lon="4.87833">
        <ele>288</ele>
        <time>2017-07-21T09:36:30Z</time>
      </trkpt>
      <trkpt lat="45.95854" lon="4.87834">
        <ele>289</ele>
        <time>2017-07-21T09:36:31Z</time>
      </trkpt>
      <trkpt lat="45.95846" lon="4.87835">
        <ele>288</ele>
        <time>2017-07-21T09:36:33Z</time>
      </trkpt>
      <trkpt lat="45.95843" lon="4.87836">
        <ele>288</ele>
        <time>2017-07-21T09:36:34Z</time>
      </trkpt>
      <trkpt lat="45.95837" lon="4.87838">
        <ele>288</ele>
        <time>2017-07-21T09:36:37Z</time>
      </trkpt>
      <trkpt lat="45.95834" lon="4.87839">
        <ele>288</ele>
        <time>2017-07-21T09:36:38Z</time>
      </trkpt>
      <trkpt lat="45.95827" lon="4.87844">
        <ele>287</ele>
        <time>2017-07-21T09:36:40Z</time>
      </trkpt>
      <trkpt lat="45.95824" lon="4.87849">
        <ele>287</ele>
        <time>2017-07-21T09:36:41Z</time>
      </trkpt>
      <trkpt lat="45.95821" lon="4.87854">
        <ele>287</ele>
        <time>2017-07-21T09:36:42Z</time>
      </trkpt>
      <trkpt lat="45.95818" lon="4.87859">
        <ele>287</ele>
        <time>2017-07-21T09:36:43Z</time>
      </trkpt>
      <trkpt lat="45.95814" lon="4.87863">
        <ele>287</ele>
        <time>2017-07-21T09:36:44Z</time>
      </trkpt>
      <trkpt lat="45.95811" lon="4.87867">
        <ele>287</ele>
        <time>2017-07-21T09:36:45Z</time>
      </trkpt>
      <trkpt lat="45.95807" lon="4.87871">
        <ele>287</ele>
        <time>2017-07-21T09:36:46Z</time>
      </trkpt>
      <trkpt lat="45.95804" lon="4.87875">
        <ele>287</ele>
        <time>2017-07-21T09:36:47Z</time>
      </trkpt>
      <trkpt lat="45.958" lon="4.87879">
        <ele>286</ele>
        <time>2017-07-21T09:36:48Z</time>
      </trkpt>
      <trkpt lat="45.95795" lon="4.87882">
        <ele>286</ele>
        <time>2017-07-21T09:36:49Z</time>
      </trkpt>
      <trkpt lat="45.95791" lon="4.87886">
        <ele>286</ele>
        <time>2017-07-21T09:36:50Z</time>
      </trkpt>
      <trkpt lat="45.95786" lon="4.87889">
        <ele>286</ele>
        <time>2017-07-21T09:36:51Z</time>
      </trkpt>
      <trkpt lat="45.95781" lon="4.87892">
        <ele>286</ele>
        <time>2017-07-21T09:36:52Z</time>
      </trkpt>
      <trkpt lat="45.95776" lon="4.87895">
        <ele>286</ele>
        <time>2017-07-21T09:36:53Z</time>
      </trkpt>
      <trkpt lat="45.9577" lon="4.87898">
        <ele>286</ele>
        <time>2017-07-21T09:36:54Z</time>
      </trkpt>
      <trkpt lat="45.95764" lon="4.87902">
        <ele>286</ele>
        <time>2017-07-21T09:36:55Z</time>
      </trkpt>
      <trkpt lat="45.95759" lon="4.87906">
        <ele>285</ele>
        <time>2017-07-21T09:36:56Z</time>
      </trkpt>
      <trkpt lat="45.95753" lon="4.87911">
        <ele>285</ele>
        <time>2017-07-21T09:36:57Z</time>
      </trkpt>
      <trkpt lat="45.95747" lon="4.87915">
        <ele>285</ele>
        <time>2017-07-21T09:36:58Z</time>
      </trkpt>
      <trkpt lat="45.95741" lon="4.8792">
        <ele>284</ele>
        <time>2017-07-21T09:36:59Z</time>
      </trkpt>
      <trkpt lat="45.95735" lon="4.87925">
        <ele>284</ele>
        <time>2017-07-21T09:37:00Z</time>
      </trkpt>
      <trkpt lat="45.95729" lon="4.8793">
        <ele>283</ele>
        <time>2017-07-21T09:37:01Z</time>
      </trkpt>
      <trkpt lat="45.95723" lon="4.87936">
        <ele>283</ele>
        <time>2017-07-21T09:37:02Z</time>
      </trkpt>
      <trkpt lat="45.95717" lon="4.87942">
        <ele>283</ele>
        <time>2017-07-21T09:37:03Z</time>
      </trkpt>
      <trkpt lat="45.9571" lon="4.87948">
        <ele>283</ele>
        <time>2017-07-21T09:37:04Z</time>
      </trkpt>
      <trkpt lat="45.95703" lon="4.87954">
        <ele>283</ele>
        <time>2017-07-21T09:37:05Z</time>
      </trkpt>
      <trkpt lat="45.95695" lon="4.8796">
        <ele>282</ele>
        <time>2017-07-21T09:37:06Z</time>
      </trkpt>
      <trkpt lat="45.95688" lon="4.87966">
        <ele>282</ele>
        <time>2017-07-21T09:37:07Z</time>
      </trkpt>
      <trkpt lat="45.95681" lon="4.87973">
        <ele>282</ele>
        <time>2017-07-21T09:37:08Z</time>
      </trkpt>
      <trkpt lat="45.95674" lon="4.87979">
        <ele>282</ele>
        <time>2017-07-21T09:37:09Z</time>
      </trkpt>
      <trkpt lat="45.95666" lon="4.87985">
        <ele>280</ele>
        <time>2017-07-21T09:37:10Z</time>
      </trkpt>
      <trkpt lat="45.95659" lon="4.87992">
        <ele>280</ele>
        <time>2017-07-21T09:37:11Z</time>
      </trkpt>
      <trkpt lat="45.95651" lon="4.87998">
        <ele>279</ele>
        <time>2017-07-21T09:37:12Z</time>
      </trkpt>
      <trkpt lat="45.95644" lon="4.88005">
        <ele>279</ele>
        <time>2017-07-21T09:37:13Z</time>
      </trkpt>
      <trkpt lat="45.95636" lon="4.88012">
        <ele>279</ele>
        <time>2017-07-21T09:37:14Z</time>
      </trkpt>
      <trkpt lat="45.95629" lon="4.88019">
        <ele>279</ele>
        <time>2017-07-21T09:37:15Z</time>
      </trkpt>
      <trkpt lat="45.95621" lon="4.88026">
        <ele>278</ele>
        <time>2017-07-21T09:37:16Z</time>
      </trkpt>
      <trkpt lat="45.95614" lon="4.88033">
        <ele>278</ele>
        <time>2017-07-21T09:37:17Z</time>
      </trkpt>
      <trkpt lat="45.95607" lon="4.88039">
        <ele>278</ele>
        <time>2017-07-21T09:37:18Z</time>
      </trkpt>
      <trkpt lat="45.95599" lon="4.88046">
        <ele>278</ele>
        <time>2017-07-21T09:37:19Z</time>
      </trkpt>
      <trkpt lat="45.95592" lon="4.88054">
        <ele>278</ele>
        <time>2017-07-21T09:37:20Z</time>
      </trkpt>
      <trkpt lat="45.95585" lon="4.88061">
        <ele>278</ele>
        <time>2017-07-21T09:37:21Z</time>
      </trkpt>
      <trkpt lat="45.95578" lon="4.88067">
        <ele>276</ele>
        <time>2017-07-21T09:37:22Z</time>
      </trkpt>
      <trkpt lat="45.9557" lon="4.88072">
        <ele>276</ele>
        <time>2017-07-21T09:37:23Z</time>
      </trkpt>
      <trkpt lat="45.95562" lon="4.88078">
        <ele>276</ele>
        <time>2017-07-21T09:37:24Z</time>
      </trkpt>
      <trkpt lat="45.95555" lon="4.88083">
        <ele>276</ele>
        <time>2017-07-21T09:37:25Z</time>
      </trkpt>
      <trkpt lat="45.95548" lon="4.88087">
        <ele>277</ele>
        <time>2017-07-21T09:37:26Z</time>
      </trkpt>
      <trkpt lat="45.9554" lon="4.8809">
        <ele>277</ele>
        <time>2017-07-21T09:37:27Z</time>
      </trkpt>
      <trkpt lat="45.95532" lon="4.88094">
        <ele>277</ele>
        <time>2017-07-21T09:37:28Z</time>
      </trkpt>
      <trkpt lat="45.95525" lon="4.88097">
        <ele>277</ele>
        <time>2017-07-21T09:37:29Z</time>
      </trkpt>
      <trkpt lat="45.95518" lon="4.881">
        <ele>276</ele>
        <time>2017-07-21T09:37:30Z</time>
      </trkpt>
      <trkpt lat="45.9551" lon="4.88103">
        <ele>276</ele>
        <time>2017-07-21T09:37:31Z</time>
      </trkpt>
      <trkpt lat="45.95503" lon="4.88106">
        <ele>276</ele>
        <time>2017-07-21T09:37:32Z</time>
      </trkpt>
      <trkpt lat="45.95496" lon="4.88109">
        <ele>276</ele>
        <time>2017-07-21T09:37:33Z</time>
      </trkpt>
      <trkpt lat="45.9549" lon="4.88111">
        <ele>276</ele>
        <time>2017-07-21T09:37:34Z</time>
      </trkpt>
      <trkpt lat="45.95484" lon="4.88115">
        <ele>276</ele>
        <time>2017-07-21T09:37:35Z</time>
      </trkpt>
      <trkpt lat="45.95477" lon="4.88118">
        <ele>276</ele>
        <time>2017-07-21T09:37:36Z</time>
      </trkpt>
      <trkpt lat="45.95471" lon="4.88122">
        <ele>276</ele>
        <time>2017-07-21T09:37:37Z</time>
      </trkpt>
      <trkpt lat="45.95464" lon="4.88126">
        <ele>276</ele>
        <time>2017-07-21T09:37:38Z</time>
      </trkpt>
      <trkpt lat="45.95457" lon="4.88129">
        <ele>276</ele>
        <time>2017-07-21T09:37:39Z</time>
      </trkpt>
      <trkpt lat="45.95451" lon="4.88131">
        <ele>276</ele>
        <time>2017-07-21T09:37:40Z</time>
      </trkpt>
      <trkpt lat="45.95445" lon="4.88134">
        <ele>276</ele>
        <time>2017-07-21T09:37:41Z</time>
      </trkpt>
      <trkpt lat="45.95438" lon="4.88137">
        <ele>276</ele>
        <time>2017-07-21T09:37:42Z</time>
      </trkpt>
      <trkpt lat="45.95432" lon="4.8814">
        <ele>276</ele>
        <time>2017-07-21T09:37:43Z</time>
      </trkpt>
      <trkpt lat="45.95426" lon="4.88142">
        <ele>276</ele>
        <time>2017-07-21T09:37:44Z</time>
      </trkpt>
      <trkpt lat="45.9542" lon="4.88145">
        <ele>276</ele>
        <time>2017-07-21T09:37:45Z</time>
      </trkpt>
      <trkpt lat="45.95414" lon="4.88148">
        <ele>276</ele>
        <time>2017-07-21T09:37:46Z</time>
      </trkpt>
      <trkpt lat="45.95408" lon="4.88151">
        <ele>276</ele>
        <time>2017-07-21T09:37:47Z</time>
      </trkpt>
      <trkpt lat="45.95402" lon="4.88152">
        <ele>276</ele>
        <time>2017-07-21T09:37:48Z</time>
      </trkpt>
      <trkpt lat="45.95397" lon="4.88154">
        <ele>276</ele>
        <time>2017-07-21T09:37:49Z</time>
      </trkpt>
      <trkpt lat="45.95392" lon="4.88156">
        <ele>276</ele>
        <time>2017-07-21T09:37:50Z</time>
      </trkpt>
      <trkpt lat="45.95386" lon="4.88158">
        <ele>276</ele>
        <time>2017-07-21T09:37:51Z</time>
      </trkpt>
      <trkpt lat="45.9538" lon="4.8816">
        <ele>276</ele>
        <time>2017-07-21T09:37:52Z</time>
      </trkpt>
      <trkpt lat="45.95374" lon="4.88161">
        <ele>276</ele>
        <time>2017-07-21T09:37:53Z</time>
      </trkpt>
      <trkpt lat="45.95369" lon="4.88163">
        <ele>276</ele>
        <time>2017-07-21T09:37:54Z</time>
      </trkpt>
      <trkpt lat="45.95364" lon="4.88164">
        <ele>276</ele>
        <time>2017-07-21T09:37:55Z</time>
      </trkpt>
      <trkpt lat="45.95358" lon="4.88164">
        <ele>277</ele>
        <time>2017-07-21T09:37:56Z</time>
      </trkpt>
      <trkpt lat="45.95354" lon="4.88165">
        <ele>277</ele>
        <time>2017-07-21T09:37:57Z</time>
      </trkpt>
      <trkpt lat="45.95349" lon="4.88166">
        <ele>277</ele>
        <time>2017-07-21T09:37:58Z</time>
      </trkpt>
      <trkpt lat="45.95343" lon="4.88167">
        <ele>277</ele>
        <time>2017-07-21T09:37:59Z</time>
      </trkpt>
      <trkpt lat="45.95338" lon="4.88166">
        <ele>278</ele>
        <time>2017-07-21T09:38:00Z</time>
      </trkpt>
      <trkpt lat="45.95332" lon="4.88167">
        <ele>278</ele>
        <time>2017-07-21T09:38:01Z</time>
      </trkpt>
      <trkpt lat="45.95327" lon="4.88167">
        <ele>278</ele>
        <time>2017-07-21T09:38:02Z</time>
      </trkpt>
      <trkpt lat="45.95322" lon="4.88167">
        <ele>279</ele>
        <time>2017-07-21T09:38:03Z</time>
      </trkpt>
      <trkpt lat="45.95318" lon="4.88167">
        <ele>280</ele>
        <time>2017-07-21T09:38:04Z</time>
      </trkpt>
      <trkpt lat="45.95313" lon="4.88168">
        <ele>280</ele>
        <time>2017-07-21T09:38:05Z</time>
      </trkpt>
      <trkpt lat="45.95307" lon="4.88168">
        <ele>280</ele>
        <time>2017-07-21T09:38:06Z</time>
      </trkpt>
      <trkpt lat="45.95301" lon="4.88167">
        <ele>281</ele>
        <time>2017-07-21T09:38:07Z</time>
      </trkpt>
      <trkpt lat="45.95294" lon="4.88167">
        <ele>281</ele>
        <time>2017-07-21T09:38:08Z</time>
      </trkpt>
      <trkpt lat="45.95289" lon="4.88166">
        <ele>279</ele>
        <time>2017-07-21T09:38:09Z</time>
      </trkpt>
      <trkpt lat="45.95284" lon="4.88166">
        <ele>279</ele>
        <time>2017-07-21T09:38:10Z</time>
      </trkpt>
      <trkpt lat="45.95279" lon="4.88165">
        <ele>279</ele>
        <time>2017-07-21T09:38:11Z</time>
      </trkpt>
      <trkpt lat="45.95273" lon="4.88164">
        <ele>279</ele>
        <time>2017-07-21T09:38:12Z</time>
      </trkpt>
      <trkpt lat="45.95268" lon="4.88164">
        <ele>280</ele>
        <time>2017-07-21T09:38:13Z</time>
      </trkpt>
      <trkpt lat="45.95263" lon="4.88164">
        <ele>280</ele>
        <time>2017-07-21T09:38:14Z</time>
      </trkpt>
      <trkpt lat="45.95259" lon="4.88164">
        <ele>280</ele>
        <time>2017-07-21T09:38:15Z</time>
      </trkpt>
      <trkpt lat="45.9525" lon="4.88163">
        <ele>281</ele>
        <time>2017-07-21T09:38:17Z</time>
      </trkpt>
      <trkpt lat="45.95246" lon="4.88163">
        <ele>281</ele>
        <time>2017-07-21T09:38:18Z</time>
      </trkpt>
      <trkpt lat="45.95238" lon="4.88164">
        <ele>281</ele>
        <time>2017-07-21T09:38:20Z</time>
      </trkpt>
      <trkpt lat="45.95233" lon="4.88164">
        <ele>281</ele>
        <time>2017-07-21T09:38:21Z</time>
      </trkpt>
      <trkpt lat="45.95228" lon="4.88164">
        <ele>282</ele>
        <time>2017-07-21T09:38:22Z</time>
      </trkpt>
      <trkpt lat="45.95223" lon="4.88163">
        <ele>282</ele>
        <time>2017-07-21T09:38:23Z</time>
      </trkpt>
      <trkpt lat="45.95218" lon="4.88163">
        <ele>282</ele>
        <time>2017-07-21T09:38:24Z</time>
      </trkpt>
      <trkpt lat="45.95213" lon="4.88163">
        <ele>282</ele>
        <time>2017-07-21T09:38:25Z</time>
      </trkpt>
      <trkpt lat="45.95208" lon="4.88164">
        <ele>282</ele>
        <time>2017-07-21T09:38:26Z</time>
      </trkpt>
      <trkpt lat="45.95203" lon="4.88164">
        <ele>282</ele>
        <time>2017-07-21T09:38:27Z</time>
      </trkpt>
      <trkpt lat="45.95198" lon="4.88164">
        <ele>283</ele>
        <time>2017-07-21T09:38:28Z</time>
      </trkpt>
      <trkpt lat="45.95194" lon="4.88166">
        <ele>283</ele>
        <time>2017-07-21T09:38:29Z</time>
      </trkpt>
      <trkpt lat="45.95186" lon="4.88166">
        <ele>283</ele>
        <time>2017-07-21T09:38:31Z</time>
      </trkpt>
      <trkpt lat="45.95182" lon="4.88167">
        <ele>285</ele>
        <time>2017-07-21T09:38:32Z</time>
      </trkpt>
      <trkpt lat="45.95175" lon="4.88167">
        <ele>285</ele>
        <time>2017-07-21T09:38:34Z</time>
      </trkpt>
      <trkpt lat="45.95173" lon="4.88162">
        <ele>284</ele>
        <time>2017-07-21T09:38:35Z</time>
      </trkpt>
      <trkpt lat="45.95173" lon="4.88154">
        <ele>284</ele>
        <time>2017-07-21T09:38:37Z</time>
      </trkpt>
      <trkpt lat="45.95175" lon="4.88149">
        <ele>283</ele>
        <time>2017-07-21T09:38:38Z</time>
      </trkpt>
      <trkpt lat="45.95178" lon="4.88139">
        <ele>283</ele>
        <time>2017-07-21T09:38:40Z</time>
      </trkpt>
      <trkpt lat="45.95182" lon="4.88137">
        <ele>283</ele>
        <time>2017-07-21T09:38:41Z</time>
      </trkpt>
      <trkpt lat="45.95184" lon="4.88126">
        <ele>282</ele>
        <time>2017-07-21T09:38:43Z</time>
      </trkpt>
      <trkpt lat="45.95186" lon="4.8812">
        <ele>282</ele>
        <time>2017-07-21T09:38:44Z</time>
      </trkpt>
      <trkpt lat="45.95189" lon="4.88108">
        <ele>282</ele>
        <time>2017-07-21T09:38:46Z</time>
      </trkpt>
      <trkpt lat="45.9519" lon="4.88101">
        <ele>282</ele>
        <time>2017-07-21T09:38:47Z</time>
      </trkpt>
      <trkpt lat="45.95191" lon="4.88093">
        <ele>282</ele>
        <time>2017-07-21T09:38:48Z</time>
      </trkpt>
      <trkpt lat="45.95193" lon="4.88086">
        <ele>282</ele>
        <time>2017-07-21T09:38:49Z</time>
      </trkpt>
      <trkpt lat="45.95194" lon="4.88078">
        <ele>281</ele>
        <time>2017-07-21T09:38:50Z</time>
      </trkpt>
      <trkpt lat="45.95196" lon="4.88071">
        <ele>281</ele>
        <time>2017-07-21T09:38:51Z</time>
      </trkpt>
      <trkpt lat="45.95197" lon="4.88064">
        <ele>281</ele>
        <time>2017-07-21T09:38:52Z</time>
      </trkpt>
      <trkpt lat="45.95199" lon="4.88057">
        <ele>281</ele>
        <time>2017-07-21T09:38:53Z</time>
      </trkpt>
      <trkpt lat="45.95201" lon="4.8805">
        <ele>281</ele>
        <time>2017-07-21T09:38:54Z</time>
      </trkpt>
      <trkpt lat="45.95204" lon="4.88044">
        <ele>281</ele>
        <time>2017-07-21T09:38:55Z</time>
      </trkpt>
      <trkpt lat="45.95209" lon="4.88036">
        <ele>281</ele>
        <time>2017-07-21T09:38:57Z</time>
      </trkpt>
      <trkpt lat="45.95211" lon="4.88032">
        <ele>281</ele>
        <time>2017-07-21T09:38:58Z</time>
      </trkpt>
      <trkpt lat="45.95215" lon="4.88027">
        <ele>281</ele>
        <time>2017-07-21T09:38:59Z</time>
      </trkpt>
      <trkpt lat="45.95218" lon="4.88022">
        <ele>281</ele>
        <time>2017-07-21T09:39:00Z</time>
      </trkpt>
      <trkpt lat="45.95222" lon="4.88017">
        <ele>281</ele>
        <time>2017-07-21T09:39:01Z</time>
      </trkpt>
      <trkpt lat="45.95225" lon="4.88011">
        <ele>281</ele>
        <time>2017-07-21T09:39:02Z</time>
      </trkpt>
      <trkpt lat="45.95228" lon="4.88006">
        <ele>280</ele>
        <time>2017-07-21T09:39:03Z</time>
      </trkpt>
      <trkpt lat="45.95232" lon="4.88001">
        <ele>280</ele>
        <time>2017-07-21T09:39:04Z</time>
      </trkpt>
      <trkpt lat="45.95235" lon="4.87997">
        <ele>281</ele>
        <time>2017-07-21T09:39:05Z</time>
      </trkpt>
      <trkpt lat="45.95239" lon="4.87991">
        <ele>281</ele>
        <time>2017-07-21T09:39:06Z</time>
      </trkpt>
      <trkpt lat="45.95242" lon="4.87986">
        <ele>281</ele>
        <time>2017-07-21T09:39:07Z</time>
      </trkpt>
      <trkpt lat="45.95245" lon="4.87981">
        <ele>281</ele>
        <time>2017-07-21T09:39:08Z</time>
      </trkpt>
      <trkpt lat="45.95248" lon="4.87976">
        <ele>282</ele>
        <time>2017-07-21T09:39:09Z</time>
      </trkpt>
      <trkpt lat="45.95251" lon="4.87971">
        <ele>280</ele>
        <time>2017-07-21T09:39:10Z</time>
      </trkpt>
      <trkpt lat="45.95257" lon="4.87962">
        <ele>280</ele>
        <time>2017-07-21T09:39:12Z</time>
      </trkpt>
      <trkpt lat="45.9526" lon="4.87957">
        <ele>280</ele>
        <time>2017-07-21T09:39:13Z</time>
      </trkpt>
      <trkpt lat="45.95264" lon="4.87947">
        <ele>280</ele>
        <time>2017-07-21T09:39:15Z</time>
      </trkpt>
      <trkpt lat="45.95266" lon="4.87942">
        <ele>280</ele>
        <time>2017-07-21T09:39:16Z</time>
      </trkpt>
      <trkpt lat="45.95267" lon="4.8793">
        <ele>280</ele>
        <time>2017-07-21T09:39:18Z</time>
      </trkpt>
      <trkpt lat="45.95267" lon="4.87924">
        <ele>281</ele>
        <time>2017-07-21T09:39:19Z</time>
      </trkpt>
      <trkpt lat="45.95267" lon="4.87911">
        <ele>281</ele>
        <time>2017-07-21T09:39:21Z</time>
      </trkpt>
      <trkpt lat="45.95266" lon="4.87905">
        <ele>281</ele>
        <time>2017-07-21T09:39:22Z</time>
      </trkpt>
      <trkpt lat="45.95266" lon="4.87893">
        <ele>281</ele>
        <time>2017-07-21T09:39:24Z</time>
      </trkpt>
      <trkpt lat="45.95266" lon="4.87888">
        <ele>281</ele>
        <time>2017-07-21T09:39:25Z</time>
      </trkpt>
      <trkpt lat="45.95265" lon="4.87876">
        <ele>280</ele>
        <time>2017-07-21T09:39:27Z</time>
      </trkpt>
      <trkpt lat="45.95263" lon="4.87871">
        <ele>280</ele>
        <time>2017-07-21T09:39:28Z</time>
      </trkpt>
      <trkpt lat="45.95259" lon="4.8786">
        <ele>281</ele>
        <time>2017-07-21T09:39:30Z</time>
      </trkpt>
      <trkpt lat="45.95257" lon="4.87853">
        <ele>281</ele>
        <time>2017-07-21T09:39:31Z</time>
      </trkpt>
      <trkpt lat="45.95255" lon="4.87846">
        <ele>281</ele>
        <time>2017-07-21T09:39:32Z</time>
      </trkpt>
      <trkpt lat="45.95253" lon="4.87839">
        <ele>281</ele>
        <time>2017-07-21T09:39:33Z</time>
      </trkpt>
      <trkpt lat="45.95252" lon="4.87832">
        <ele>282</ele>
        <time>2017-07-21T09:39:34Z</time>
      </trkpt>
      <trkpt lat="45.95251" lon="4.87824">
        <ele>281</ele>
        <time>2017-07-21T09:39:35Z</time>
      </trkpt>
      <trkpt lat="45.9525" lon="4.87817">
        <ele>280</ele>
        <time>2017-07-21T09:39:36Z</time>
      </trkpt>
      <trkpt lat="45.95249" lon="4.87808">
        <ele>282</ele>
        <time>2017-07-21T09:39:37Z</time>
      </trkpt>
      <trkpt lat="45.95249" lon="4.878">
        <ele>282</ele>
        <time>2017-07-21T09:39:38Z</time>
      </trkpt>
      <trkpt lat="45.95248" lon="4.87792">
        <ele>282</ele>
        <time>2017-07-21T09:39:39Z</time>
      </trkpt>
      <trkpt lat="45.95247" lon="4.87784">
        <ele>282</ele>
        <time>2017-07-21T09:39:40Z</time>
      </trkpt>
      <trkpt lat="45.95245" lon="4.87776">
        <ele>282</ele>
        <time>2017-07-21T09:39:41Z</time>
      </trkpt>
      <trkpt lat="45.95244" lon="4.87768">
        <ele>281</ele>
        <time>2017-07-21T09:39:42Z</time>
      </trkpt>
      <trkpt lat="45.95243" lon="4.87759">
        <ele>281</ele>
        <time>2017-07-21T09:39:43Z</time>
      </trkpt>
      <trkpt lat="45.95241" lon="4.87751">
        <ele>281</ele>
        <time>2017-07-21T09:39:44Z</time>
      </trkpt>
      <trkpt lat="45.9524" lon="4.87743">
        <ele>280</ele>
        <time>2017-07-21T09:39:45Z</time>
      </trkpt>
      <trkpt lat="45.95238" lon="4.87735">
        <ele>280</ele>
        <time>2017-07-21T09:39:46Z</time>
      </trkpt>
      <trkpt lat="45.95236" lon="4.87726">
        <ele>280</ele>
        <time>2017-07-21T09:39:47Z</time>
      </trkpt>
      <trkpt lat="45.95235" lon="4.87718">
        <ele>279</ele>
        <time>2017-07-21T09:39:48Z</time>
      </trkpt>
      <trkpt lat="45.95233" lon="4.87711">
        <ele>279</ele>
        <time>2017-07-21T09:39:49Z</time>
      </trkpt>
      <trkpt lat="45.95233" lon="4.87702">
        <ele>279</ele>
        <time>2017-07-21T09:39:50Z</time>
      </trkpt>
      <trkpt lat="45.95231" lon="4.87693">
        <ele>279</ele>
        <time>2017-07-21T09:39:51Z</time>
      </trkpt>
      <trkpt lat="45.9523" lon="4.87682">
        <ele>278</ele>
        <time>2017-07-21T09:39:52Z</time>
      </trkpt>
      <trkpt lat="45.95229" lon="4.87672">
        <ele>278</ele>
        <time>2017-07-21T09:39:53Z</time>
      </trkpt>
      <trkpt lat="45.95228" lon="4.87662">
        <ele>276</ele>
        <time>2017-07-21T09:39:54Z</time>
      </trkpt>
      <trkpt lat="45.95227" lon="4.87651">
        <ele>276</ele>
        <time>2017-07-21T09:39:55Z</time>
      </trkpt>
      <trkpt lat="45.95225" lon="4.87641">
        <ele>276</ele>
        <time>2017-07-21T09:39:56Z</time>
      </trkpt>
      <trkpt lat="45.95224" lon="4.8763">
        <ele>276</ele>
        <time>2017-07-21T09:39:57Z</time>
      </trkpt>
      <trkpt lat="45.95223" lon="4.87619">
        <ele>276</ele>
        <time>2017-07-21T09:39:58Z</time>
      </trkpt>
      <trkpt lat="45.95222" lon="4.87606">
        <ele>276</ele>
        <time>2017-07-21T09:39:59Z</time>
      </trkpt>
      <trkpt lat="45.9522" lon="4.87594">
        <ele>276</ele>
        <time>2017-07-21T09:40:00Z</time>
      </trkpt>
      <trkpt lat="45.9522" lon="4.87581">
        <ele>274</ele>
        <time>2017-07-21T09:40:01Z</time>
      </trkpt>
      <trkpt lat="45.9522" lon="4.87569">
        <ele>274</ele>
        <time>2017-07-21T09:40:02Z</time>
      </trkpt>
      <trkpt lat="45.95221" lon="4.87557">
        <ele>274</ele>
        <time>2017-07-21T09:40:03Z</time>
      </trkpt>
      <trkpt lat="45.9522" lon="4.87545">
        <ele>274</ele>
        <time>2017-07-21T09:40:04Z</time>
      </trkpt>
      <trkpt lat="45.95218" lon="4.87532">
        <ele>274</ele>
        <time>2017-07-21T09:40:05Z</time>
      </trkpt>
      <trkpt lat="45.95217" lon="4.8752">
        <ele>273</ele>
        <time>2017-07-21T09:40:06Z</time>
      </trkpt>
      <trkpt lat="45.95214" lon="4.87509">
        <ele>273</ele>
        <time>2017-07-21T09:40:07Z</time>
      </trkpt>
      <trkpt lat="45.95211" lon="4.87497">
        <ele>272</ele>
        <time>2017-07-21T09:40:08Z</time>
      </trkpt>
      <trkpt lat="45.95208" lon="4.87485">
        <ele>272</ele>
        <time>2017-07-21T09:40:09Z</time>
      </trkpt>
      <trkpt lat="45.95205" lon="4.87475">
        <ele>272</ele>
        <time>2017-07-21T09:40:10Z</time>
      </trkpt>
      <trkpt lat="45.95202" lon="4.87464">
        <ele>272</ele>
        <time>2017-07-21T09:40:11Z</time>
      </trkpt>
      <trkpt lat="45.95198" lon="4.87453">
        <ele>272</ele>
        <time>2017-07-21T09:40:12Z</time>
      </trkpt>
      <trkpt lat="45.95194" lon="4.87443">
        <ele>272</ele>
        <time>2017-07-21T09:40:13Z</time>
      </trkpt>
      <trkpt lat="45.95191" lon="4.87433">
        <ele>272</ele>
        <time>2017-07-21T09:40:14Z</time>
      </trkpt>
      <trkpt lat="45.95188" lon="4.87424">
        <ele>271</ele>
        <time>2017-07-21T09:40:15Z</time>
      </trkpt>
      <trkpt lat="45.95185" lon="4.87414">
        <ele>271</ele>
        <time>2017-07-21T09:40:16Z</time>
      </trkpt>
      <trkpt lat="45.95183" lon="4.87405">
        <ele>271</ele>
        <time>2017-07-21T09:40:17Z</time>
      </trkpt>
      <trkpt lat="45.95181" lon="4.87397">
        <ele>271</ele>
        <time>2017-07-21T09:40:18Z</time>
      </trkpt>
      <trkpt lat="45.95178" lon="4.87389">
        <ele>271</ele>
        <time>2017-07-21T09:40:19Z</time>
      </trkpt>
      <trkpt lat="45.95176" lon="4.87381">
        <ele>271</ele>
        <time>2017-07-21T09:40:20Z</time>
      </trkpt>
      <trkpt lat="45.95174" lon="4.87373">
        <ele>271</ele>
        <time>2017-07-21T09:40:21Z</time>
      </trkpt>
      <trkpt lat="45.95172" lon="4.87364">
        <ele>271</ele>
        <time>2017-07-21T09:40:22Z</time>
      </trkpt>
      <trkpt lat="45.9517" lon="4.87358">
        <ele>271</ele>
        <time>2017-07-21T09:40:23Z</time>
      </trkpt>
      <trkpt lat="45.95168" lon="4.8735">
        <ele>271</ele>
        <time>2017-07-21T09:40:24Z</time>
      </trkpt>
      <trkpt lat="45.95165" lon="4.87341">
        <ele>272</ele>
        <time>2017-07-21T09:40:25Z</time>
      </trkpt>
      <trkpt lat="45.95161" lon="4.87332">
        <ele>272</ele>
        <time>2017-07-21T09:40:26Z</time>
      </trkpt>
      <trkpt lat="45.95159" lon="4.87322">
        <ele>273</ele>
        <time>2017-07-21T09:40:27Z</time>
      </trkpt>
      <trkpt lat="45.95156" lon="4.87313">
        <ele>273</ele>
        <time>2017-07-21T09:40:28Z</time>
      </trkpt>
      <trkpt lat="45.95153" lon="4.87304">
        <ele>274</ele>
        <time>2017-07-21T09:40:29Z</time>
      </trkpt>
      <trkpt lat="45.9515" lon="4.87294">
        <ele>274</ele>
        <time>2017-07-21T09:40:30Z</time>
      </trkpt>
      <trkpt lat="45.95149" lon="4.87284">
        <ele>274</ele>
        <time>2017-07-21T09:40:31Z</time>
      </trkpt>
      <trkpt lat="45.95146" lon="4.87275">
        <ele>274</ele>
        <time>2017-07-21T09:40:32Z</time>
      </trkpt>
      <trkpt lat="45.95144" lon="4.87266">
        <ele>274</ele>
        <time>2017-07-21T09:40:33Z</time>
      </trkpt>
      <trkpt lat="45.95142" lon="4.87257">
        <ele>274</ele>
        <time>2017-07-21T09:40:34Z</time>
      </trkpt>
      <trkpt lat="45.95141" lon="4.87249">
        <ele>275</ele>
        <time>2017-07-21T09:40:35Z</time>
      </trkpt>
      <trkpt lat="45.95139" lon="4.8724">
        <ele>275</ele>
        <time>2017-07-21T09:40:36Z</time>
      </trkpt>
      <trkpt lat="45.95138" lon="4.87232">
        <ele>276</ele>
        <time>2017-07-21T09:40:37Z</time>
      </trkpt>
      <trkpt lat="45.95136" lon="4.87223">
        <ele>276</ele>
        <time>2017-07-21T09:40:38Z</time>
      </trkpt>
      <trkpt lat="45.95135" lon="4.87214">
        <ele>276</ele>
        <time>2017-07-21T09:40:39Z</time>
      </trkpt>
      <trkpt lat="45.95133" lon="4.87206">
        <ele>276</ele>
        <time>2017-07-21T09:40:40Z</time>
      </trkpt>
      <trkpt lat="45.95131" lon="4.87198">
        <ele>276</ele>
        <time>2017-07-21T09:40:41Z</time>
      </trkpt>
      <trkpt lat="45.95129" lon="4.8719">
        <ele>276</ele>
        <time>2017-07-21T09:40:42Z</time>
      </trkpt>
      <trkpt lat="45.95127" lon="4.87182">
        <ele>276</ele>
        <time>2017-07-21T09:40:43Z</time>
      </trkpt>
      <trkpt lat="45.95126" lon="4.87174">
        <ele>276</ele>
        <time>2017-07-21T09:40:44Z</time>
      </trkpt>
      <trkpt lat="45.95125" lon="4.87166">
        <ele>276</ele>
        <time>2017-07-21T09:40:45Z</time>
      </trkpt>
      <trkpt lat="45.95123" lon="4.87157">
        <ele>276</ele>
        <time>2017-07-21T09:40:46Z</time>
      </trkpt>
      <trkpt lat="45.95122" lon="4.87149">
        <ele>276</ele>
        <time>2017-07-21T09:40:47Z</time>
      </trkpt>
      <trkpt lat="45.95121" lon="4.87141">
        <ele>276</ele>
        <time>2017-07-21T09:40:48Z</time>
      </trkpt>
      <trkpt lat="45.95119" lon="4.87134">
        <ele>276</ele>
        <time>2017-07-21T09:40:49Z</time>
      </trkpt>
      <trkpt lat="45.95118" lon="4.87127">
        <ele>276</ele>
        <time>2017-07-21T09:40:50Z</time>
      </trkpt>
      <trkpt lat="45.95117" lon="4.87121">
        <ele>276</ele>
        <time>2017-07-21T09:40:51Z</time>
      </trkpt>
      <trkpt lat="45.95114" lon="4.87109">
        <ele>277</ele>
        <time>2017-07-21T09:40:53Z</time>
      </trkpt>
      <trkpt lat="45.95111" lon="4.87102">
        <ele>277</ele>
        <time>2017-07-21T09:40:54Z</time>
      </trkpt>
      <trkpt lat="45.95107" lon="4.87093">
        <ele>277</ele>
        <time>2017-07-21T09:40:56Z</time>
      </trkpt>
      <trkpt lat="45.95105" lon="4.87088">
        <ele>277</ele>
        <time>2017-07-21T09:40:57Z</time>
      </trkpt>
      <trkpt lat="45.95103" lon="4.87083">
        <ele>277</ele>
        <time>2017-07-21T09:40:58Z</time>
      </trkpt>
      <trkpt lat="45.951" lon="4.87077">
        <ele>277</ele>
        <time>2017-07-21T09:40:59Z</time>
      </trkpt>
      <trkpt lat="45.95098" lon="4.87071">
        <ele>277</ele>
        <time>2017-07-21T09:41:00Z</time>
      </trkpt>
      <trkpt lat="45.95094" lon="4.87064">
        <ele>277</ele>
        <time>2017-07-21T09:41:01Z</time>
      </trkpt>
      <trkpt lat="45.95091" lon="4.87058">
        <ele>277</ele>
        <time>2017-07-21T09:41:02Z</time>
      </trkpt>
      <trkpt lat="45.9509" lon="4.87053">
        <ele>277</ele>
        <time>2017-07-21T09:41:03Z</time>
      </trkpt>
      <trkpt lat="45.95087" lon="4.87047">
        <ele>277</ele>
        <time>2017-07-21T09:41:04Z</time>
      </trkpt>
      <trkpt lat="45.95082" lon="4.87042">
        <ele>277</ele>
        <time>2017-07-21T09:41:05Z</time>
      </trkpt>
      <trkpt lat="45.95078" lon="4.87036">
        <ele>277</ele>
        <time>2017-07-21T09:41:06Z</time>
      </trkpt>
      <trkpt lat="45.95075" lon="4.8703">
        <ele>277</ele>
        <time>2017-07-21T09:41:07Z</time>
      </trkpt>
      <trkpt lat="45.95072" lon="4.87025">
        <ele>277</ele>
        <time>2017-07-21T09:41:08Z</time>
      </trkpt>
      <trkpt lat="45.95069" lon="4.87019">
        <ele>277</ele>
        <time>2017-07-21T09:41:09Z</time>
      </trkpt>
      <trkpt lat="45.95065" lon="4.87013">
        <ele>277</ele>
        <time>2017-07-21T09:41:10Z</time>
      </trkpt>
      <trkpt lat="45.95061" lon="4.87008">
        <ele>277</ele>
        <time>2017-07-21T09:41:11Z</time>
      </trkpt>
      <trkpt lat="45.95058" lon="4.87001">
        <ele>277</ele>
        <time>2017-07-21T09:41:12Z</time>
      </trkpt>
      <trkpt lat="45.95055" lon="4.86994">
        <ele>276</ele>
        <time>2017-07-21T09:41:13Z</time>
      </trkpt>
      <trkpt lat="45.95053" lon="4.86987">
        <ele>276</ele>
        <time>2017-07-21T09:41:14Z</time>
      </trkpt>
      <trkpt lat="45.95051" lon="4.8698">
        <ele>276</ele>
        <time>2017-07-21T09:41:15Z</time>
      </trkpt>
      <trkpt lat="45.95048" lon="4.86972">
        <ele>276</ele>
        <time>2017-07-21T09:41:16Z</time>
      </trkpt>
      <trkpt lat="45.95046" lon="4.86965">
        <ele>276</ele>
        <time>2017-07-21T09:41:17Z</time>
      </trkpt>
      <trkpt lat="45.95043" lon="4.86957">
        <ele>276</ele>
        <time>2017-07-21T09:41:18Z</time>
      </trkpt>
      <trkpt lat="45.95042" lon="4.86949">
        <ele>276</ele>
        <time>2017-07-21T09:41:19Z</time>
      </trkpt>
      <trkpt lat="45.95041" lon="4.86941">
        <ele>276</ele>
        <time>2017-07-21T09:41:20Z</time>
      </trkpt>
      <trkpt lat="45.95038" lon="4.86934">
        <ele>276</ele>
        <time>2017-07-21T09:41:21Z</time>
      </trkpt>
      <trkpt lat="45.95036" lon="4.86927">
        <ele>276</ele>
        <time>2017-07-21T09:41:22Z</time>
      </trkpt>
      <trkpt lat="45.95034" lon="4.86919">
        <ele>276</ele>
        <time>2017-07-21T09:41:23Z</time>
      </trkpt>
      <trkpt lat="45.95031" lon="4.86913">
        <ele>275</ele>
        <time>2017-07-21T09:41:24Z</time>
      </trkpt>
      <trkpt lat="45.9503" lon="4.86905">
        <ele>275</ele>
        <time>2017-07-21T09:41:25Z</time>
      </trkpt>
      <trkpt lat="45.95028" lon="4.86899">
        <ele>275</ele>
        <time>2017-07-21T09:41:26Z</time>
      </trkpt>
      <trkpt lat="45.95025" lon="4.86893">
        <ele>275</ele>
        <time>2017-07-21T09:41:27Z</time>
      </trkpt>
      <trkpt lat="45.95023" lon="4.86886">
        <ele>275</ele>
        <time>2017-07-21T09:41:28Z</time>
      </trkpt>
      <trkpt lat="45.95021" lon="4.8688">
        <ele>275</ele>
        <time>2017-07-21T09:41:29Z</time>
      </trkpt>
      <trkpt lat="45.95018" lon="4.86868">
        <ele>275</ele>
        <time>2017-07-21T09:41:31Z</time>
      </trkpt>
      <trkpt lat="45.95017" lon="4.86862">
        <ele>275</ele>
        <time>2017-07-21T09:41:32Z</time>
      </trkpt>
      <trkpt lat="45.95015" lon="4.86857">
        <ele>275</ele>
        <time>2017-07-21T09:41:33Z</time>
      </trkpt>
      <trkpt lat="45.95013" lon="4.8685">
        <ele>275</ele>
        <time>2017-07-21T09:41:34Z</time>
      </trkpt>
      <trkpt lat="45.9501" lon="4.86844">
        <ele>276</ele>
        <time>2017-07-21T09:41:35Z</time>
      </trkpt>
      <trkpt lat="45.95008" lon="4.86836">
        <ele>276</ele>
        <time>2017-07-21T09:41:36Z</time>
      </trkpt>
      <trkpt lat="45.95005" lon="4.86829">
        <ele>276</ele>
        <time>2017-07-21T09:41:37Z</time>
      </trkpt>
      <trkpt lat="45.95002" lon="4.86822">
        <ele>275</ele>
        <time>2017-07-21T09:41:38Z</time>
      </trkpt>
      <trkpt lat="45.94999" lon="4.86816">
        <ele>276</ele>
        <time>2017-07-21T09:41:39Z</time>
      </trkpt>
      <trkpt lat="45.94997" lon="4.86809">
        <ele>276</ele>
        <time>2017-07-21T09:41:40Z</time>
      </trkpt>
      <trkpt lat="45.94994" lon="4.86803">
        <ele>276</ele>
        <time>2017-07-21T09:41:41Z</time>
      </trkpt>
      <trkpt lat="45.9499" lon="4.86798">
        <ele>276</ele>
        <time>2017-07-21T09:41:42Z</time>
      </trkpt>
      <trkpt lat="45.94986" lon="4.86793">
        <ele>276</ele>
        <time>2017-07-21T09:41:43Z</time>
      </trkpt>
      <trkpt lat="45.94983" lon="4.86789">
        <ele>275</ele>
        <time>2017-07-21T09:41:44Z</time>
      </trkpt>
      <trkpt lat="45.9498" lon="4.86784">
        <ele>275</ele>
        <time>2017-07-21T09:41:45Z</time>
      </trkpt>
      <trkpt lat="45.94977" lon="4.86779">
        <ele>275</ele>
        <time>2017-07-21T09:41:46Z</time>
      </trkpt>
      <trkpt lat="45.94974" lon="4.86773">
        <ele>275</ele>
        <time>2017-07-21T09:41:47Z</time>
      </trkpt>
      <trkpt lat="45.94971" lon="4.86768">
        <ele>275</ele>
        <time>2017-07-21T09:41:48Z</time>
      </trkpt>
      <trkpt lat="45.94968" lon="4.86762">
        <ele>275</ele>
        <time>2017-07-21T09:41:49Z</time>
      </trkpt>
      <trkpt lat="45.94964" lon="4.86756">
        <ele>275</ele>
        <time>2017-07-21T09:41:50Z</time>
      </trkpt>
      <trkpt lat="45.94962" lon="4.8675">
        <ele>275</ele>
        <time>2017-07-21T09:41:51Z</time>
      </trkpt>
      <trkpt lat="45.94959" lon="4.86744">
        <ele>275</ele>
        <time>2017-07-21T09:41:52Z</time>
      </trkpt>
      <trkpt lat="45.94956" lon="4.86738">
        <ele>275</ele>
        <time>2017-07-21T09:41:53Z</time>
      </trkpt>
      <trkpt lat="45.94954" lon="4.86732">
        <ele>275</ele>
        <time>2017-07-21T09:41:54Z</time>
      </trkpt>
      <trkpt lat="45.94951" lon="4.86725">
        <ele>275</ele>
        <time>2017-07-21T09:41:55Z</time>
      </trkpt>
      <trkpt lat="45.9495" lon="4.86719">
        <ele>275</ele>
        <time>2017-07-21T09:41:56Z</time>
      </trkpt>
      <trkpt lat="45.94948" lon="4.86713">
        <ele>275</ele>
        <time>2017-07-21T09:41:57Z</time>
      </trkpt>
      <trkpt lat="45.94947" lon="4.86706">
        <ele>275</ele>
        <time>2017-07-21T09:41:58Z</time>
      </trkpt>
      <trkpt lat="45.94946" lon="4.86694">
        <ele>276</ele>
        <time>2017-07-21T09:42:00Z</time>
      </trkpt>
      <trkpt lat="45.94945" lon="4.86689">
        <ele>276</ele>
        <time>2017-07-21T09:42:01Z</time>
      </trkpt>
      <trkpt lat="45.94946" lon="4.86678">
        <ele>276</ele>
        <time>2017-07-21T09:42:03Z</time>
      </trkpt>
      <trkpt lat="45.94946" lon="4.86673">
        <ele>276</ele>
        <time>2017-07-21T09:42:04Z</time>
      </trkpt>
      <trkpt lat="45.94947" lon="4.8666">
        <ele>276</ele>
        <time>2017-07-21T09:42:06Z</time>
      </trkpt>
      <trkpt lat="45.94949" lon="4.86654">
        <ele>276</ele>
        <time>2017-07-21T09:42:07Z</time>
      </trkpt>
      <trkpt lat="45.94951" lon="4.86648">
        <ele>276</ele>
        <time>2017-07-21T09:42:08Z</time>
      </trkpt>
      <trkpt lat="45.94954" lon="4.86642">
        <ele>276</ele>
        <time>2017-07-21T09:42:09Z</time>
      </trkpt>
      <trkpt lat="45.94957" lon="4.86637">
        <ele>276</ele>
        <time>2017-07-21T09:42:10Z</time>
      </trkpt>
      <trkpt lat="45.94961" lon="4.86632">
        <ele>275</ele>
        <time>2017-07-21T09:42:11Z</time>
      </trkpt>
      <trkpt lat="45.94965" lon="4.86628">
        <ele>275</ele>
        <time>2017-07-21T09:42:12Z</time>
      </trkpt>
      <trkpt lat="45.94969" lon="4.86625">
        <ele>275</ele>
        <time>2017-07-21T09:42:13Z</time>
      </trkpt>
      <trkpt lat="45.94977" lon="4.8662">
        <ele>275</ele>
        <time>2017-07-21T09:42:15Z</time>
      </trkpt>
      <trkpt lat="45.94981" lon="4.86619">
        <ele>275</ele>
        <time>2017-07-21T09:42:16Z</time>
      </trkpt>
      <trkpt lat="45.94986" lon="4.86618">
        <ele>275</ele>
        <time>2017-07-21T09:42:17Z</time>
      </trkpt>
      <trkpt lat="45.94991" lon="4.86618">
        <ele>275</ele>
        <time>2017-07-21T09:42:18Z</time>
      </trkpt>
      <trkpt lat="45.94995" lon="4.86617">
        <ele>275</ele>
        <time>2017-07-21T09:42:19Z</time>
      </trkpt>
      <trkpt lat="45.95" lon="4.86617">
        <ele>273</ele>
        <time>2017-07-21T09:42:20Z</time>
      </trkpt>
      <trkpt lat="45.95005" lon="4.86616">
        <ele>273</ele>
        <time>2017-07-21T09:42:21Z</time>
      </trkpt>
      <trkpt lat="45.9501" lon="4.86615">
        <ele>273</ele>
        <time>2017-07-21T09:42:22Z</time>
      </trkpt>
      <trkpt lat="45.95015" lon="4.86615">
        <ele>273</ele>
        <time>2017-07-21T09:42:23Z</time>
      </trkpt>
      <trkpt lat="45.95021" lon="4.86614">
        <ele>273</ele>
        <time>2017-07-21T09:42:24Z</time>
      </trkpt>
      <trkpt lat="45.95026" lon="4.86612">
        <ele>273</ele>
        <time>2017-07-21T09:42:25Z</time>
      </trkpt>
      <trkpt lat="45.95032" lon="4.86611">
        <ele>273</ele>
        <time>2017-07-21T09:42:26Z</time>
      </trkpt>
      <trkpt lat="45.95037" lon="4.8661">
        <ele>273</ele>
        <time>2017-07-21T09:42:27Z</time>
      </trkpt>
      <trkpt lat="45.95043" lon="4.86608">
        <ele>272</ele>
        <time>2017-07-21T09:42:28Z</time>
      </trkpt>
      <trkpt lat="45.95048" lon="4.86606">
        <ele>272</ele>
        <time>2017-07-21T09:42:29Z</time>
      </trkpt>
      <trkpt lat="45.95054" lon="4.86604">
        <ele>272</ele>
        <time>2017-07-21T09:42:30Z</time>
      </trkpt>
      <trkpt lat="45.95059" lon="4.86602">
        <ele>272</ele>
        <time>2017-07-21T09:42:31Z</time>
      </trkpt>
      <trkpt lat="45.95064" lon="4.866">
        <ele>272</ele>
        <time>2017-07-21T09:42:32Z</time>
      </trkpt>
      <trkpt lat="45.9507" lon="4.86598">
        <ele>272</ele>
        <time>2017-07-21T09:42:33Z</time>
      </trkpt>
      <trkpt lat="45.95075" lon="4.86596">
        <ele>272</ele>
        <time>2017-07-21T09:42:34Z</time>
      </trkpt>
      <trkpt lat="45.95081" lon="4.86593">
        <ele>271</ele>
        <time>2017-07-21T09:42:35Z</time>
      </trkpt>
      <trkpt lat="45.95086" lon="4.86591">
        <ele>271</ele>
        <time>2017-07-21T09:42:36Z</time>
      </trkpt>
      <trkpt lat="45.95092" lon="4.86589">
        <ele>271</ele>
        <time>2017-07-21T09:42:37Z</time>
      </trkpt>
      <trkpt lat="45.95098" lon="4.86588">
        <ele>271</ele>
        <time>2017-07-21T09:42:38Z</time>
      </trkpt>
      <trkpt lat="45.95104" lon="4.86587">
        <ele>271</ele>
        <time>2017-07-21T09:42:39Z</time>
      </trkpt>
      <trkpt lat="45.9511" lon="4.86586">
        <ele>271</ele>
        <time>2017-07-21T09:42:40Z</time>
      </trkpt>
      <trkpt lat="45.95116" lon="4.86586">
        <ele>270</ele>
        <time>2017-07-21T09:42:41Z</time>
      </trkpt>
      <trkpt lat="45.95122" lon="4.86585">
        <ele>270</ele>
        <time>2017-07-21T09:42:42Z</time>
      </trkpt>
      <trkpt lat="45.95128" lon="4.86584">
        <ele>270</ele>
        <time>2017-07-21T09:42:43Z</time>
      </trkpt>
      <trkpt lat="45.95135" lon="4.86583">
        <ele>270</ele>
        <time>2017-07-21T09:42:44Z</time>
      </trkpt>
      <trkpt lat="45.95141" lon="4.86582">
        <ele>270</ele>
        <time>2017-07-21T09:42:45Z</time>
      </trkpt>
      <trkpt lat="45.95147" lon="4.86582">
        <ele>270</ele>
        <time>2017-07-21T09:42:46Z</time>
      </trkpt>
      <trkpt lat="45.95154" lon="4.86581">
        <ele>269</ele>
        <time>2017-07-21T09:42:47Z</time>
      </trkpt>
      <trkpt lat="45.9516" lon="4.8658">
        <ele>269</ele>
        <time>2017-07-21T09:42:48Z</time>
      </trkpt>
      <trkpt lat="45.95166" lon="4.86579">
        <ele>269</ele>
        <time>2017-07-21T09:42:49Z</time>
      </trkpt>
      <trkpt lat="45.95173" lon="4.86579">
        <ele>269</ele>
        <time>2017-07-21T09:42:50Z</time>
      </trkpt>
      <trkpt lat="45.95179" lon="4.86578">
        <ele>269</ele>
        <time>2017-07-21T09:42:51Z</time>
      </trkpt>
      <trkpt lat="45.95185" lon="4.86578">
        <ele>269</ele>
        <time>2017-07-21T09:42:52Z</time>
      </trkpt>
      <trkpt lat="45.95192" lon="4.86578">
        <ele>269</ele>
        <time>2017-07-21T09:42:53Z</time>
      </trkpt>
      <trkpt lat="45.95199" lon="4.86578">
        <ele>268</ele>
        <time>2017-07-21T09:42:54Z</time>
      </trkpt>
      <trkpt lat="45.95205" lon="4.86578">
        <ele>268</ele>
        <time>2017-07-21T09:42:55Z</time>
      </trkpt>
      <trkpt lat="45.95212" lon="4.8658">
        <ele>268</ele>
        <time>2017-07-21T09:42:56Z</time>
      </trkpt>
      <trkpt lat="45.95219" lon="4.8658">
        <ele>268</ele>
        <time>2017-07-21T09:42:57Z</time>
      </trkpt>
      <trkpt lat="45.95227" lon="4.8658">
        <ele>268</ele>
        <time>2017-07-21T09:42:58Z</time>
      </trkpt>
      <trkpt lat="45.95234" lon="4.86581">
        <ele>268</ele>
        <time>2017-07-21T09:42:59Z</time>
      </trkpt>
      <trkpt lat="45.95241" lon="4.86583">
        <ele>268</ele>
        <time>2017-07-21T09:43:00Z</time>
      </trkpt>
      <trkpt lat="45.95248" lon="4.86583">
        <ele>268</ele>
        <time>2017-07-21T09:43:01Z</time>
      </trkpt>
      <trkpt lat="45.95253" lon="4.86582">
        <ele>268</ele>
        <time>2017-07-21T09:43:02Z</time>
      </trkpt>
      <trkpt lat="45.95261" lon="4.86579">
        <ele>268</ele>
        <time>2017-07-21T09:43:04Z</time>
      </trkpt>
      <trkpt lat="45.95262" lon="4.86578">
        <ele>267</ele>
        <time>2017-07-21T09:43:05Z</time>
      </trkpt>
      <trkpt lat="45.95267" lon="4.86577">
        <ele>267</ele>
        <time>2017-07-21T09:43:08Z</time>
      </trkpt>
      <trkpt lat="45.95267" lon="4.86577">
        <ele>267</ele>
        <time>2017-07-21T09:43:09Z</time>
      </trkpt>
      <trkpt lat="45.95267" lon="4.86572">
        <ele>267</ele>
        <time>2017-07-21T09:43:16Z</time>
      </trkpt>
      <trkpt lat="45.95267" lon="4.8657">
        <ele>267</ele>
        <time>2017-07-21T09:43:17Z</time>
      </trkpt>
      <trkpt lat="45.95263" lon="4.86561">
        <ele>267</ele>
        <time>2017-07-21T09:43:20Z</time>
      </trkpt>
      <trkpt lat="45.95261" lon="4.86558">
        <ele>267</ele>
        <time>2017-07-21T09:43:21Z</time>
      </trkpt>
      <trkpt lat="45.95256" lon="4.86551">
        <ele>267</ele>
        <time>2017-07-21T09:43:23Z</time>
      </trkpt>
      <trkpt lat="45.95253" lon="4.86547">
        <ele>267</ele>
        <time>2017-07-21T09:43:24Z</time>
      </trkpt>
      <trkpt lat="45.95247" lon="4.86539">
        <ele>268</ele>
        <time>2017-07-21T09:43:26Z</time>
      </trkpt>
      <trkpt lat="45.95245" lon="4.86536">
        <ele>268</ele>
        <time>2017-07-21T09:43:27Z</time>
      </trkpt>
      <trkpt lat="45.95238" lon="4.86529">
        <ele>268</ele>
        <time>2017-07-21T09:43:29Z</time>
      </trkpt>
      <trkpt lat="45.95234" lon="4.86525">
        <ele>268</ele>
        <time>2017-07-21T09:43:30Z</time>
      </trkpt>
      <trkpt lat="45.95231" lon="4.86521">
        <ele>268</ele>
        <time>2017-07-21T09:43:31Z</time>
      </trkpt>
      <trkpt lat="45.95228" lon="4.86516">
        <ele>268</ele>
        <time>2017-07-21T09:43:32Z</time>
      </trkpt>
      <trkpt lat="45.95224" lon="4.86511">
        <ele>268</ele>
        <time>2017-07-21T09:43:33Z</time>
      </trkpt>
      <trkpt lat="45.95221" lon="4.86505">
        <ele>268</ele>
        <time>2017-07-21T09:43:34Z</time>
      </trkpt>
      <trkpt lat="45.95216" lon="4.86499">
        <ele>268</ele>
        <time>2017-07-21T09:43:35Z</time>
      </trkpt>
      <trkpt lat="45.95213" lon="4.86493">
        <ele>268</ele>
        <time>2017-07-21T09:43:36Z</time>
      </trkpt>
      <trkpt lat="45.95208" lon="4.86488">
        <ele>268</ele>
        <time>2017-07-21T09:43:37Z</time>
      </trkpt>
      <trkpt lat="45.95203" lon="4.86483">
        <ele>268</ele>
        <time>2017-07-21T09:43:38Z</time>
      </trkpt>
      <trkpt lat="45.95198" lon="4.86478">
        <ele>268</ele>
        <time>2017-07-21T09:43:39Z</time>
      </trkpt>
      <trkpt lat="45.95194" lon="4.86473">
        <ele>268</ele>
        <time>2017-07-21T09:43:40Z</time>
      </trkpt>
      <trkpt lat="45.9519" lon="4.8647">
        <ele>268</ele>
        <time>2017-07-21T09:43:41Z</time>
      </trkpt>
      <trkpt lat="45.95186" lon="4.86466">
        <ele>268</ele>
        <time>2017-07-21T09:43:42Z</time>
      </trkpt>
      <trkpt lat="45.9518" lon="4.86458">
        <ele>268</ele>
        <time>2017-07-21T09:43:44Z</time>
      </trkpt>
      <trkpt lat="45.95177" lon="4.86454">
        <ele>268</ele>
        <time>2017-07-21T09:43:45Z</time>
      </trkpt>
      <trkpt lat="45.95171" lon="4.86447">
        <ele>268</ele>
        <time>2017-07-21T09:43:47Z</time>
      </trkpt>
      <trkpt lat="45.95168" lon="4.86443">
        <ele>267</ele>
        <time>2017-07-21T09:43:48Z</time>
      </trkpt>
      <trkpt lat="45.95164" lon="4.86439">
        <ele>268</ele>
        <time>2017-07-21T09:43:49Z</time>
      </trkpt>
      <trkpt lat="45.9516" lon="4.86435">
        <ele>268</ele>
        <time>2017-07-21T09:43:50Z</time>
      </trkpt>
      <trkpt lat="45.95157" lon="4.86431">
        <ele>268</ele>
        <time>2017-07-21T09:43:51Z</time>
      </trkpt>
      <trkpt lat="45.95153" lon="4.86427">
        <ele>268</ele>
        <time>2017-07-21T09:43:52Z</time>
      </trkpt>
      <trkpt lat="45.95149" lon="4.86422">
        <ele>268</ele>
        <time>2017-07-21T09:43:53Z</time>
      </trkpt>
      <trkpt lat="45.95145" lon="4.86418">
        <ele>268</ele>
        <time>2017-07-21T09:43:54Z</time>
      </trkpt>
      <trkpt lat="45.95141" lon="4.86413">
        <ele>268</ele>
        <time>2017-07-21T09:43:55Z</time>
      </trkpt>
      <trkpt lat="45.95137" lon="4.86408">
        <ele>268</ele>
        <time>2017-07-21T09:43:56Z</time>
      </trkpt>
      <trkpt lat="45.95133" lon="4.86403">
        <ele>268</ele>
        <time>2017-07-21T09:43:57Z</time>
      </trkpt>
      <trkpt lat="45.95128" lon="4.86398">
        <ele>268</ele>
        <time>2017-07-21T09:43:58Z</time>
      </trkpt>
      <trkpt lat="45.95124" lon="4.86393">
        <ele>269</ele>
        <time>2017-07-21T09:43:59Z</time>
      </trkpt>
      <trkpt lat="45.95121" lon="4.86389">
        <ele>269</ele>
        <time>2017-07-21T09:44:00Z</time>
      </trkpt>
      <trkpt lat="45.95114" lon="4.86381">
        <ele>269</ele>
        <time>2017-07-21T09:44:02Z</time>
      </trkpt>
      <trkpt lat="45.95111" lon="4.86377">
        <ele>269</ele>
        <time>2017-07-21T09:44:03Z</time>
      </trkpt>
      <trkpt lat="45.95105" lon="4.86368">
        <ele>269</ele>
        <time>2017-07-21T09:44:05Z</time>
      </trkpt>
      <trkpt lat="45.95101" lon="4.86363">
        <ele>269</ele>
        <time>2017-07-21T09:44:06Z</time>
      </trkpt>
      <trkpt lat="45.95097" lon="4.86359">
        <ele>269</ele>
        <time>2017-07-21T09:44:07Z</time>
      </trkpt>
      <trkpt lat="45.95093" lon="4.86354">
        <ele>269</ele>
        <time>2017-07-21T09:44:08Z</time>
      </trkpt>
      <trkpt lat="45.95089" lon="4.86349">
        <ele>269</ele>
        <time>2017-07-21T09:44:09Z</time>
      </trkpt>
      <trkpt lat="45.95085" lon="4.86344">
        <ele>269</ele>
        <time>2017-07-21T09:44:10Z</time>
      </trkpt>
      <trkpt lat="45.95081" lon="4.86339">
        <ele>270</ele>
        <time>2017-07-21T09:44:11Z</time>
      </trkpt>
      <trkpt lat="45.95077" lon="4.86334">
        <ele>270</ele>
        <time>2017-07-21T09:44:12Z</time>
      </trkpt>
      <trkpt lat="45.95073" lon="4.86329">
        <ele>270</ele>
        <time>2017-07-21T09:44:13Z</time>
      </trkpt>
      <trkpt lat="45.95069" lon="4.86324">
        <ele>270</ele>
        <time>2017-07-21T09:44:14Z</time>
      </trkpt>
      <trkpt lat="45.95065" lon="4.8632">
        <ele>270</ele>
        <time>2017-07-21T09:44:15Z</time>
      </trkpt>
      <trkpt lat="45.95061" lon="4.86316">
        <ele>270</ele>
        <time>2017-07-21T09:44:16Z</time>
      </trkpt>
      <trkpt lat="45.95055" lon="4.86308">
        <ele>271</ele>
        <time>2017-07-21T09:44:18Z</time>
      </trkpt>
      <trkpt lat="45.95051" lon="4.86303">
        <ele>271</ele>
        <time>2017-07-21T09:44:19Z</time>
      </trkpt>
      <trkpt lat="45.95047" lon="4.86299">
        <ele>271</ele>
        <time>2017-07-21T09:44:20Z</time>
      </trkpt>
      <trkpt lat="45.95044" lon="4.86295">
        <ele>271</ele>
        <time>2017-07-21T09:44:21Z</time>
      </trkpt>
      <trkpt lat="45.9504" lon="4.86291">
        <ele>271</ele>
        <time>2017-07-21T09:44:22Z</time>
      </trkpt>
      <trkpt lat="45.95036" lon="4.86287">
        <ele>271</ele>
        <time>2017-07-21T09:44:23Z</time>
      </trkpt>
      <trkpt lat="45.95032" lon="4.86282">
        <ele>271</ele>
        <time>2017-07-21T09:44:24Z</time>
      </trkpt>
      <trkpt lat="45.95029" lon="4.86277">
        <ele>271</ele>
        <time>2017-07-21T09:44:25Z</time>
      </trkpt>
      <trkpt lat="45.95024" lon="4.86272">
        <ele>271</ele>
        <time>2017-07-21T09:44:26Z</time>
      </trkpt>
      <trkpt lat="45.95019" lon="4.86266">
        <ele>271</ele>
        <time>2017-07-21T09:44:27Z</time>
      </trkpt>
      <trkpt lat="45.95016" lon="4.86262">
        <ele>271</ele>
        <time>2017-07-21T09:44:28Z</time>
      </trkpt>
      <trkpt lat="45.95012" lon="4.86257">
        <ele>272</ele>
        <time>2017-07-21T09:44:29Z</time>
      </trkpt>
      <trkpt lat="45.95008" lon="4.86253">
        <ele>272</ele>
        <time>2017-07-21T09:44:30Z</time>
      </trkpt>
      <trkpt lat="45.95004" lon="4.86248">
        <ele>272</ele>
        <time>2017-07-21T09:44:31Z</time>
      </trkpt>
      <trkpt lat="45.95" lon="4.86244">
        <ele>272</ele>
        <time>2017-07-21T09:44:32Z</time>
      </trkpt>
      <trkpt lat="45.94997" lon="4.8624">
        <ele>272</ele>
        <time>2017-07-21T09:44:33Z</time>
      </trkpt>
      <trkpt lat="45.94993" lon="4.86236">
        <ele>272</ele>
        <time>2017-07-21T09:44:34Z</time>
      </trkpt>
      <trkpt lat="45.9499" lon="4.86232">
        <ele>272</ele>
        <time>2017-07-21T09:44:35Z</time>
      </trkpt>
      <trkpt lat="45.94986" lon="4.86227">
        <ele>272</ele>
        <time>2017-07-21T09:44:36Z</time>
      </trkpt>
      <trkpt lat="45.94983" lon="4.86223">
        <ele>272</ele>
        <time>2017-07-21T09:44:37Z</time>
      </trkpt>
      <trkpt lat="45.94979" lon="4.86218">
        <ele>272</ele>
        <time>2017-07-21T09:44:38Z</time>
      </trkpt>
      <trkpt lat="45.94975" lon="4.86213">
        <ele>272</ele>
        <time>2017-07-21T09:44:39Z</time>
      </trkpt>
      <trkpt lat="45.94971" lon="4.86209">
        <ele>272</ele>
        <time>2017-07-21T09:44:40Z</time>
      </trkpt>
      <trkpt lat="45.94967" lon="4.86205">
        <ele>272</ele>
        <time>2017-07-21T09:44:41Z</time>
      </trkpt>
      <trkpt lat="45.94961" lon="4.86196">
        <ele>272</ele>
        <time>2017-07-21T09:44:43Z</time>
      </trkpt>
      <trkpt lat="45.94957" lon="4.86192">
        <ele>273</ele>
        <time>2017-07-21T09:44:44Z</time>
      </trkpt>
      <trkpt lat="45.94951" lon="4.86183">
        <ele>273</ele>
        <time>2017-07-21T09:44:46Z</time>
      </trkpt>
      <trkpt lat="45.94948" lon="4.8618">
        <ele>273</ele>
        <time>2017-07-21T09:44:47Z</time>
      </trkpt>
      <trkpt lat="45.94942" lon="4.86172">
        <ele>273</ele>
        <time>2017-07-21T09:44:49Z</time>
      </trkpt>
      <trkpt lat="45.94938" lon="4.86168">
        <ele>273</ele>
        <time>2017-07-21T09:44:50Z</time>
      </trkpt>
      <trkpt lat="45.94932" lon="4.8616">
        <ele>273</ele>
        <time>2017-07-21T09:44:52Z</time>
      </trkpt>
      <trkpt lat="45.94929" lon="4.86156">
        <ele>273</ele>
        <time>2017-07-21T09:44:53Z</time>
      </trkpt>
      <trkpt lat="45.94925" lon="4.86151">
        <ele>273</ele>
        <time>2017-07-21T09:44:54Z</time>
      </trkpt>
      <trkpt lat="45.94922" lon="4.86147">
        <ele>273</ele>
        <time>2017-07-21T09:44:55Z</time>
      </trkpt>
      <trkpt lat="45.94919" lon="4.86142">
        <ele>273</ele>
        <time>2017-07-21T09:44:56Z</time>
      </trkpt>
      <trkpt lat="45.94916" lon="4.86137">
        <ele>274</ele>
        <time>2017-07-21T09:44:57Z</time>
      </trkpt>
      <trkpt lat="45.94911" lon="4.86127">
        <ele>274</ele>
        <time>2017-07-21T09:44:59Z</time>
      </trkpt>
      <trkpt lat="45.94908" lon="4.86122">
        <ele>274</ele>
        <time>2017-07-21T09:45:00Z</time>
      </trkpt>
      <trkpt lat="45.94906" lon="4.86116">
        <ele>274</ele>
        <time>2017-07-21T09:45:01Z</time>
      </trkpt>
      <trkpt lat="45.94904" lon="4.8611">
        <ele>274</ele>
        <time>2017-07-21T09:45:02Z</time>
      </trkpt>
      <trkpt lat="45.94901" lon="4.86104">
        <ele>274</ele>
        <time>2017-07-21T09:45:03Z</time>
      </trkpt>
      <trkpt lat="45.94899" lon="4.86099">
        <ele>274</ele>
        <time>2017-07-21T09:45:04Z</time>
      </trkpt>
      <trkpt lat="45.94894" lon="4.86088">
        <ele>274</ele>
        <time>2017-07-21T09:45:06Z</time>
      </trkpt>
      <trkpt lat="45.94892" lon="4.86082">
        <ele>274</ele>
        <time>2017-07-21T09:45:07Z</time>
      </trkpt>
      <trkpt lat="45.9489" lon="4.86076">
        <ele>274</ele>
        <time>2017-07-21T09:45:08Z</time>
      </trkpt>
      <trkpt lat="45.94889" lon="4.8607">
        <ele>274</ele>
        <time>2017-07-21T09:45:09Z</time>
      </trkpt>
      <trkpt lat="45.94888" lon="4.86057">
        <ele>274</ele>
        <time>2017-07-21T09:45:11Z</time>
      </trkpt>
      <trkpt lat="45.94885" lon="4.86052">
        <ele>274</ele>
        <time>2017-07-21T09:45:12Z</time>
      </trkpt>
      <trkpt lat="45.94883" lon="4.8604">
        <ele>274</ele>
        <time>2017-07-21T09:45:14Z</time>
      </trkpt>
      <trkpt lat="45.94881" lon="4.86035">
        <ele>274</ele>
        <time>2017-07-21T09:45:15Z</time>
      </trkpt>
      <trkpt lat="45.94878" lon="4.86025">
        <ele>274</ele>
        <time>2017-07-21T09:45:17Z</time>
      </trkpt>
      <trkpt lat="45.94877" lon="4.8602">
        <ele>274</ele>
        <time>2017-07-21T09:45:18Z</time>
      </trkpt>
      <trkpt lat="45.94874" lon="4.86008">
        <ele>274</ele>
        <time>2017-07-21T09:45:20Z</time>
      </trkpt>
      <trkpt lat="45.94872" lon="4.86002">
        <ele>274</ele>
        <time>2017-07-21T09:45:21Z</time>
      </trkpt>
      <trkpt lat="45.94871" lon="4.85994">
        <ele>275</ele>
        <time>2017-07-21T09:45:22Z</time>
      </trkpt>
      <trkpt lat="45.94869" lon="4.85987">
        <ele>275</ele>
        <time>2017-07-21T09:45:23Z</time>
      </trkpt>
      <trkpt lat="45.94867" lon="4.85979">
        <ele>275</ele>
        <time>2017-07-21T09:45:24Z</time>
      </trkpt>
      <trkpt lat="45.94865" lon="4.85973">
        <ele>275</ele>
        <time>2017-07-21T09:45:25Z</time>
      </trkpt>
      <trkpt lat="45.94863" lon="4.85966">
        <ele>275</ele>
        <time>2017-07-21T09:45:26Z</time>
      </trkpt>
      <trkpt lat="45.9486" lon="4.8596">
        <ele>275</ele>
        <time>2017-07-21T09:45:27Z</time>
      </trkpt>
      <trkpt lat="45.94858" lon="4.85948">
        <ele>275</ele>
        <time>2017-07-21T09:45:29Z</time>
      </trkpt>
      <trkpt lat="45.94856" lon="4.85942">
        <ele>275</ele>
        <time>2017-07-21T09:45:30Z</time>
      </trkpt>
      <trkpt lat="45.94854" lon="4.85932">
        <ele>275</ele>
        <time>2017-07-21T09:45:32Z</time>
      </trkpt>
      <trkpt lat="45.94853" lon="4.85926">
        <ele>275</ele>
        <time>2017-07-21T09:45:33Z</time>
      </trkpt>
      <trkpt lat="45.9485" lon="4.85915">
        <ele>275</ele>
        <time>2017-07-21T09:45:35Z</time>
      </trkpt>
      <trkpt lat="45.94849" lon="4.8591">
        <ele>275</ele>
        <time>2017-07-21T09:45:36Z</time>
      </trkpt>
      <trkpt lat="45.94845" lon="4.85898">
        <ele>276</ele>
        <time>2017-07-21T09:45:38Z</time>
      </trkpt>
      <trkpt lat="45.94845" lon="4.85891">
        <ele>276</ele>
        <time>2017-07-21T09:45:39Z</time>
      </trkpt>
      <trkpt lat="45.94841" lon="4.85879">
        <ele>276</ele>
        <time>2017-07-21T09:45:41Z</time>
      </trkpt>
      <trkpt lat="45.94839" lon="4.85874">
        <ele>276</ele>
        <time>2017-07-21T09:45:42Z</time>
      </trkpt>
      <trkpt lat="45.94837" lon="4.85863">
        <ele>276</ele>
        <time>2017-07-21T09:45:44Z</time>
      </trkpt>
      <trkpt lat="45.94835" lon="4.85857">
        <ele>276</ele>
        <time>2017-07-21T09:45:45Z</time>
      </trkpt>
      <trkpt lat="45.94833" lon="4.85851">
        <ele>277</ele>
        <time>2017-07-21T09:45:46Z</time>
      </trkpt>
      <trkpt lat="45.94831" lon="4.85845">
        <ele>277</ele>
        <time>2017-07-21T09:45:47Z</time>
      </trkpt>
      <trkpt lat="45.94829" lon="4.85838">
        <ele>277</ele>
        <time>2017-07-21T09:45:48Z</time>
      </trkpt>
      <trkpt lat="45.94828" lon="4.85832">
        <ele>277</ele>
        <time>2017-07-21T09:45:49Z</time>
      </trkpt>
      <trkpt lat="45.94826" lon="4.85825">
        <ele>277</ele>
        <time>2017-07-21T09:45:50Z</time>
      </trkpt>
      <trkpt lat="45.94824" lon="4.85818">
        <ele>278</ele>
        <time>2017-07-21T09:45:51Z</time>
      </trkpt>
      <trkpt lat="45.94822" lon="4.85811">
        <ele>278</ele>
        <time>2017-07-21T09:45:52Z</time>
      </trkpt>
      <trkpt lat="45.9482" lon="4.85804">
        <ele>278</ele>
        <time>2017-07-21T09:45:53Z</time>
      </trkpt>
      <trkpt lat="45.94819" lon="4.85798">
        <ele>278</ele>
        <time>2017-07-21T09:45:54Z</time>
      </trkpt>
      <trkpt lat="45.94817" lon="4.85792">
        <ele>278</ele>
        <time>2017-07-21T09:45:55Z</time>
      </trkpt>
      <trkpt lat="45.94814" lon="4.8578">
        <ele>278</ele>
        <time>2017-07-21T09:45:57Z</time>
      </trkpt>
      <trkpt lat="45.94812" lon="4.85774">
        <ele>278</ele>
        <time>2017-07-21T09:45:58Z</time>
      </trkpt>
      <trkpt lat="45.94811" lon="4.85768">
        <ele>278</ele>
        <time>2017-07-21T09:45:59Z</time>
      </trkpt>
      <trkpt lat="45.94809" lon="4.8576">
        <ele>278</ele>
        <time>2017-07-21T09:46:00Z</time>
      </trkpt>
      <trkpt lat="45.94807" lon="4.85753">
        <ele>278</ele>
        <time>2017-07-21T09:46:01Z</time>
      </trkpt>
      <trkpt lat="45.94805" lon="4.85746">
        <ele>279</ele>
        <time>2017-07-21T09:46:02Z</time>
      </trkpt>
      <trkpt lat="45.94804" lon="4.85738">
        <ele>279</ele>
        <time>2017-07-21T09:46:03Z</time>
      </trkpt>
      <trkpt lat="45.94802" lon="4.85732">
        <ele>280</ele>
        <time>2017-07-21T09:46:04Z</time>
      </trkpt>
      <trkpt lat="45.948" lon="4.85725">
        <ele>280</ele>
        <time>2017-07-21T09:46:05Z</time>
      </trkpt>
      <trkpt lat="45.94799" lon="4.85719">
        <ele>280</ele>
        <time>2017-07-21T09:46:06Z</time>
      </trkpt>
      <trkpt lat="45.94796" lon="4.85708">
        <ele>280</ele>
        <time>2017-07-21T09:46:08Z</time>
      </trkpt>
      <trkpt lat="45.94795" lon="4.85702">
        <ele>280</ele>
        <time>2017-07-21T09:46:09Z</time>
      </trkpt>
      <trkpt lat="45.94793" lon="4.8569">
        <ele>280</ele>
        <time>2017-07-21T09:46:11Z</time>
      </trkpt>
      <trkpt lat="45.94792" lon="4.85684">
        <ele>280</ele>
        <time>2017-07-21T09:46:12Z</time>
      </trkpt>
      <trkpt lat="45.94792" lon="4.85677">
        <ele>280</ele>
        <time>2017-07-21T09:46:13Z</time>
      </trkpt>
      <trkpt lat="45.94791" lon="4.8567">
        <ele>280</ele>
        <time>2017-07-21T09:46:14Z</time>
      </trkpt>
      <trkpt lat="45.94789" lon="4.85663">
        <ele>281</ele>
        <time>2017-07-21T09:46:15Z</time>
      </trkpt>
      <trkpt lat="45.94786" lon="4.85656">
        <ele>281</ele>
        <time>2017-07-21T09:46:16Z</time>
      </trkpt>
      <trkpt lat="45.94784" lon="4.85649">
        <ele>281</ele>
        <time>2017-07-21T09:46:17Z</time>
      </trkpt>
      <trkpt lat="45.94782" lon="4.85642">
        <ele>281</ele>
        <time>2017-07-21T09:46:18Z</time>
      </trkpt>
      <trkpt lat="45.94781" lon="4.85634">
        <ele>281</ele>
        <time>2017-07-21T09:46:19Z</time>
      </trkpt>
      <trkpt lat="45.94778" lon="4.85626">
        <ele>280</ele>
        <time>2017-07-21T09:46:20Z</time>
      </trkpt>
      <trkpt lat="45.94776" lon="4.85619">
        <ele>280</ele>
        <time>2017-07-21T09:46:21Z</time>
      </trkpt>
      <trkpt lat="45.94775" lon="4.85611">
        <ele>280</ele>
        <time>2017-07-21T09:46:22Z</time>
      </trkpt>
      <trkpt lat="45.94773" lon="4.85603">
        <ele>280</ele>
        <time>2017-07-21T09:46:23Z</time>
      </trkpt>
      <trkpt lat="45.94771" lon="4.85595">
        <ele>280</ele>
        <time>2017-07-21T09:46:24Z</time>
      </trkpt>
      <trkpt lat="45.94769" lon="4.85587">
        <ele>280</ele>
        <time>2017-07-21T09:46:25Z</time>
      </trkpt>
      <trkpt lat="45.94767" lon="4.85578">
        <ele>279</ele>
        <time>2017-07-21T09:46:26Z</time>
      </trkpt>
      <trkpt lat="45.94765" lon="4.85569">
        <ele>279</ele>
        <time>2017-07-21T09:46:27Z</time>
      </trkpt>
      <trkpt lat="45.94764" lon="4.85559">
        <ele>278</ele>
        <time>2017-07-21T09:46:28Z</time>
      </trkpt>
      <trkpt lat="45.94762" lon="4.85549">
        <ele>278</ele>
        <time>2017-07-21T09:46:29Z</time>
      </trkpt>
      <trkpt lat="45.9476" lon="4.85539">
        <ele>278</ele>
        <time>2017-07-21T09:46:30Z</time>
      </trkpt>
      <trkpt lat="45.94758" lon="4.85528">
        <ele>278</ele>
        <time>2017-07-21T09:46:31Z</time>
      </trkpt>
      <trkpt lat="45.94757" lon="4.85517">
        <ele>277</ele>
        <time>2017-07-21T09:46:32Z</time>
      </trkpt>
      <trkpt lat="45.94755" lon="4.85505">
        <ele>277</ele>
        <time>2017-07-21T09:46:33Z</time>
      </trkpt>
      <trkpt lat="45.94753" lon="4.85494">
        <ele>276</ele>
        <time>2017-07-21T09:46:34Z</time>
      </trkpt>
      <trkpt lat="45.94752" lon="4.85482">
        <ele>275</ele>
        <time>2017-07-21T09:46:35Z</time>
      </trkpt>
      <trkpt lat="45.9475" lon="4.8547">
        <ele>275</ele>
        <time>2017-07-21T09:46:36Z</time>
      </trkpt>
      <trkpt lat="45.94749" lon="4.85457">
        <ele>274</ele>
        <time>2017-07-21T09:46:37Z</time>
      </trkpt>
      <trkpt lat="45.94748" lon="4.85445">
        <ele>274</ele>
        <time>2017-07-21T09:46:38Z</time>
      </trkpt>
      <trkpt lat="45.94747" lon="4.85433">
        <ele>273</ele>
        <time>2017-07-21T09:46:39Z</time>
      </trkpt>
      <trkpt lat="45.94746" lon="4.8542">
        <ele>273</ele>
        <time>2017-07-21T09:46:40Z</time>
      </trkpt>
      <trkpt lat="45.94744" lon="4.85408">
        <ele>272</ele>
        <time>2017-07-21T09:46:41Z</time>
      </trkpt>
      <trkpt lat="45.94743" lon="4.85395">
        <ele>272</ele>
        <time>2017-07-21T09:46:42Z</time>
      </trkpt>
      <trkpt lat="45.94742" lon="4.85383">
        <ele>272</ele>
        <time>2017-07-21T09:46:43Z</time>
      </trkpt>
      <trkpt lat="45.94741" lon="4.85372">
        <ele>271</ele>
        <time>2017-07-21T09:46:44Z</time>
      </trkpt>
      <trkpt lat="45.94739" lon="4.8536">
        <ele>271</ele>
        <time>2017-07-21T09:46:45Z</time>
      </trkpt>
      <trkpt lat="45.94738" lon="4.85349">
        <ele>271</ele>
        <time>2017-07-21T09:46:46Z</time>
      </trkpt>
      <trkpt lat="45.94736" lon="4.85337">
        <ele>271</ele>
        <time>2017-07-21T09:46:47Z</time>
      </trkpt>
      <trkpt lat="45.94735" lon="4.85326">
        <ele>270</ele>
        <time>2017-07-21T09:46:48Z</time>
      </trkpt>
      <trkpt lat="45.94734" lon="4.85315">
        <ele>270</ele>
        <time>2017-07-21T09:46:49Z</time>
      </trkpt>
      <trkpt lat="45.94732" lon="4.85305">
        <ele>270</ele>
        <time>2017-07-21T09:46:50Z</time>
      </trkpt>
      <trkpt lat="45.94731" lon="4.85295">
        <ele>270</ele>
        <time>2017-07-21T09:46:51Z</time>
      </trkpt>
      <trkpt lat="45.9473" lon="4.85285">
        <ele>269</ele>
        <time>2017-07-21T09:46:52Z</time>
      </trkpt>
      <trkpt lat="45.94728" lon="4.85276">
        <ele>269</ele>
        <time>2017-07-21T09:46:53Z</time>
      </trkpt>
      <trkpt lat="45.94727" lon="4.85267">
        <ele>269</ele>
        <time>2017-07-21T09:46:54Z</time>
      </trkpt>
      <trkpt lat="45.94726" lon="4.85258">
        <ele>269</ele>
        <time>2017-07-21T09:46:55Z</time>
      </trkpt>
      <trkpt lat="45.94725" lon="4.85249">
        <ele>269</ele>
        <time>2017-07-21T09:46:56Z</time>
      </trkpt>
      <trkpt lat="45.94724" lon="4.85241">
        <ele>269</ele>
        <time>2017-07-21T09:46:57Z</time>
      </trkpt>
      <trkpt lat="45.94722" lon="4.85233">
        <ele>269</ele>
        <time>2017-07-21T09:46:58Z</time>
      </trkpt>
      <trkpt lat="45.94722" lon="4.85225">
        <ele>269</ele>
        <time>2017-07-21T09:46:59Z</time>
      </trkpt>
      <trkpt lat="45.94721" lon="4.85216">
        <ele>269</ele>
        <time>2017-07-21T09:47:00Z</time>
      </trkpt>
      <trkpt lat="45.9472" lon="4.85208">
        <ele>269</ele>
        <time>2017-07-21T09:47:01Z</time>
      </trkpt>
      <trkpt lat="45.94719" lon="4.85201">
        <ele>269</ele>
        <time>2017-07-21T09:47:02Z</time>
      </trkpt>
      <trkpt lat="45.94718" lon="4.85193">
        <ele>269</ele>
        <time>2017-07-21T09:47:03Z</time>
      </trkpt>
      <trkpt lat="45.94718" lon="4.85184">
        <ele>269</ele>
        <time>2017-07-21T09:47:04Z</time>
      </trkpt>
      <trkpt lat="45.94717" lon="4.85175">
        <ele>269</ele>
        <time>2017-07-21T09:47:05Z</time>
      </trkpt>
      <trkpt lat="45.94716" lon="4.85166">
        <ele>269</ele>
        <time>2017-07-21T09:47:06Z</time>
      </trkpt>
      <trkpt lat="45.94715" lon="4.85158">
        <ele>269</ele>
        <time>2017-07-21T09:47:07Z</time>
      </trkpt>
      <trkpt lat="45.94714" lon="4.85149">
        <ele>269</ele>
        <time>2017-07-21T09:47:08Z</time>
      </trkpt>
      <trkpt lat="45.94713" lon="4.85141">
        <ele>269</ele>
        <time>2017-07-21T09:47:09Z</time>
      </trkpt>
      <trkpt lat="45.94713" lon="4.85133">
        <ele>269</ele>
        <time>2017-07-21T09:47:10Z</time>
      </trkpt>
      <trkpt lat="45.94712" lon="4.85125">
        <ele>269</ele>
        <time>2017-07-21T09:47:11Z</time>
      </trkpt>
      <trkpt lat="45.94712" lon="4.85118">
        <ele>269</ele>
        <time>2017-07-21T09:47:12Z</time>
      </trkpt>
      <trkpt lat="45.94711" lon="4.8511">
        <ele>269</ele>
        <time>2017-07-21T09:47:13Z</time>
      </trkpt>
      <trkpt lat="45.9471" lon="4.85102">
        <ele>269</ele>
        <time>2017-07-21T09:47:14Z</time>
      </trkpt>
      <trkpt lat="45.94709" lon="4.85094">
        <ele>269</ele>
        <time>2017-07-21T09:47:15Z</time>
      </trkpt>
      <trkpt lat="45.94708" lon="4.85086">
        <ele>269</ele>
        <time>2017-07-21T09:47:16Z</time>
      </trkpt>
      <trkpt lat="45.94708" lon="4.85077">
        <ele>269</ele>
        <time>2017-07-21T09:47:17Z</time>
      </trkpt>
      <trkpt lat="45.94707" lon="4.85069">
        <ele>269</ele>
        <time>2017-07-21T09:47:18Z</time>
      </trkpt>
      <trkpt lat="45.94705" lon="4.8506">
        <ele>269</ele>
        <time>2017-07-21T09:47:19Z</time>
      </trkpt>
      <trkpt lat="45.94705" lon="4.85052">
        <ele>269</ele>
        <time>2017-07-21T09:47:20Z</time>
      </trkpt>
      <trkpt lat="45.94703" lon="4.85044">
        <ele>269</ele>
        <time>2017-07-21T09:47:21Z</time>
      </trkpt>
      <trkpt lat="45.94702" lon="4.85035">
        <ele>269</ele>
        <time>2017-07-21T09:47:22Z</time>
      </trkpt>
      <trkpt lat="45.94701" lon="4.85027">
        <ele>269</ele>
        <time>2017-07-21T09:47:23Z</time>
      </trkpt>
      <trkpt lat="45.947" lon="4.8502">
        <ele>269</ele>
        <time>2017-07-21T09:47:24Z</time>
      </trkpt>
      <trkpt lat="45.947" lon="4.85012">
        <ele>269</ele>
        <time>2017-07-21T09:47:25Z</time>
      </trkpt>
      <trkpt lat="45.94699" lon="4.85005">
        <ele>269</ele>
        <time>2017-07-21T09:47:26Z</time>
      </trkpt>
      <trkpt lat="45.94699" lon="4.84998">
        <ele>269</ele>
        <time>2017-07-21T09:47:27Z</time>
      </trkpt>
      <trkpt lat="45.94698" lon="4.8499">
        <ele>269</ele>
        <time>2017-07-21T09:47:28Z</time>
      </trkpt>
      <trkpt lat="45.94697" lon="4.84981">
        <ele>269</ele>
        <time>2017-07-21T09:47:29Z</time>
      </trkpt>
      <trkpt lat="45.94697" lon="4.84972">
        <ele>269</ele>
        <time>2017-07-21T09:47:30Z</time>
      </trkpt>
      <trkpt lat="45.94696" lon="4.84963">
        <ele>269</ele>
        <time>2017-07-21T09:47:31Z</time>
      </trkpt>
      <trkpt lat="45.94695" lon="4.84954">
        <ele>269</ele>
        <time>2017-07-21T09:47:32Z</time>
      </trkpt>
      <trkpt lat="45.94694" lon="4.84944">
        <ele>269</ele>
        <time>2017-07-21T09:47:33Z</time>
      </trkpt>
      <trkpt lat="45.94693" lon="4.84935">
        <ele>269</ele>
        <time>2017-07-21T09:47:34Z</time>
      </trkpt>
      <trkpt lat="45.94692" lon="4.84926">
        <ele>269</ele>
        <time>2017-07-21T09:47:35Z</time>
      </trkpt>
      <trkpt lat="45.94691" lon="4.84917">
        <ele>269</ele>
        <time>2017-07-21T09:47:36Z</time>
      </trkpt>
      <trkpt lat="45.94691" lon="4.84909">
        <ele>269</ele>
        <time>2017-07-21T09:47:37Z</time>
      </trkpt>
      <trkpt lat="45.94689" lon="4.84901">
        <ele>268</ele>
        <time>2017-07-21T09:47:38Z</time>
      </trkpt>
      <trkpt lat="45.94689" lon="4.84893">
        <ele>268</ele>
        <time>2017-07-21T09:47:39Z</time>
      </trkpt>
      <trkpt lat="45.94688" lon="4.84885">
        <ele>268</ele>
        <time>2017-07-21T09:47:40Z</time>
      </trkpt>
      <trkpt lat="45.94687" lon="4.84877">
        <ele>268</ele>
        <time>2017-07-21T09:47:41Z</time>
      </trkpt>
      <trkpt lat="45.94686" lon="4.84869">
        <ele>268</ele>
        <time>2017-07-21T09:47:42Z</time>
      </trkpt>
      <trkpt lat="45.94686" lon="4.84862">
        <ele>268</ele>
        <time>2017-07-21T09:47:43Z</time>
      </trkpt>
      <trkpt lat="45.94685" lon="4.84855">
        <ele>268</ele>
        <time>2017-07-21T09:47:44Z</time>
      </trkpt>
      <trkpt lat="45.94686" lon="4.84842">
        <ele>268</ele>
        <time>2017-07-21T09:47:46Z</time>
      </trkpt>
      <trkpt lat="45.94686" lon="4.84835">
        <ele>268</ele>
        <time>2017-07-21T09:47:47Z</time>
      </trkpt>
      <trkpt lat="45.94685" lon="4.84829">
        <ele>268</ele>
        <time>2017-07-21T09:47:48Z</time>
      </trkpt>
      <trkpt lat="45.94684" lon="4.84822">
        <ele>268</ele>
        <time>2017-07-21T09:47:49Z</time>
      </trkpt>
      <trkpt lat="45.94683" lon="4.84814">
        <ele>268</ele>
        <time>2017-07-21T09:47:50Z</time>
      </trkpt>
      <trkpt lat="45.94683" lon="4.84806">
        <ele>268</ele>
        <time>2017-07-21T09:47:51Z</time>
      </trkpt>
      <trkpt lat="45.94682" lon="4.84798">
        <ele>268</ele>
        <time>2017-07-21T09:47:52Z</time>
      </trkpt>
      <trkpt lat="45.94681" lon="4.84789">
        <ele>269</ele>
        <time>2017-07-21T09:47:53Z</time>
      </trkpt>
      <trkpt lat="45.94681" lon="4.8478">
        <ele>269</ele>
        <time>2017-07-21T09:47:54Z</time>
      </trkpt>
      <trkpt lat="45.9468" lon="4.84772">
        <ele>269</ele>
        <time>2017-07-21T09:47:55Z</time>
      </trkpt>
      <trkpt lat="45.94679" lon="4.84764">
        <ele>269</ele>
        <time>2017-07-21T09:47:56Z</time>
      </trkpt>
      <trkpt lat="45.94679" lon="4.84756">
        <ele>269</ele>
        <time>2017-07-21T09:47:57Z</time>
      </trkpt>
      <trkpt lat="45.94678" lon="4.84748">
        <ele>269</ele>
        <time>2017-07-21T09:47:58Z</time>
      </trkpt>
      <trkpt lat="45.94678" lon="4.8474">
        <ele>269</ele>
        <time>2017-07-21T09:47:59Z</time>
      </trkpt>
      <trkpt lat="45.94678" lon="4.84734">
        <ele>269</ele>
        <time>2017-07-21T09:48:00Z</time>
      </trkpt>
      <trkpt lat="45.94678" lon="4.84727">
        <ele>269</ele>
        <time>2017-07-21T09:48:01Z</time>
      </trkpt>
      <trkpt lat="45.94677" lon="4.8472">
        <ele>269</ele>
        <time>2017-07-21T09:48:02Z</time>
      </trkpt>
      <trkpt lat="45.94677" lon="4.84713">
        <ele>269</ele>
        <time>2017-07-21T09:48:03Z</time>
      </trkpt>
      <trkpt lat="45.94677" lon="4.84706">
        <ele>268</ele>
        <time>2017-07-21T09:48:04Z</time>
      </trkpt>
      <trkpt lat="45.94677" lon="4.84699">
        <ele>268</ele>
        <time>2017-07-21T09:48:05Z</time>
      </trkpt>
      <trkpt lat="45.94676" lon="4.84691">
        <ele>269</ele>
        <time>2017-07-21T09:48:06Z</time>
      </trkpt>
      <trkpt lat="45.94676" lon="4.84683">
        <ele>269</ele>
        <time>2017-07-21T09:48:07Z</time>
      </trkpt>
      <trkpt lat="45.94675" lon="4.84675">
        <ele>269</ele>
        <time>2017-07-21T09:48:08Z</time>
      </trkpt>
      <trkpt lat="45.94675" lon="4.84666">
        <ele>269</ele>
        <time>2017-07-21T09:48:09Z</time>
      </trkpt>
      <trkpt lat="45.94674" lon="4.84657">
        <ele>268</ele>
        <time>2017-07-21T09:48:10Z</time>
      </trkpt>
      <trkpt lat="45.94673" lon="4.84648">
        <ele>268</ele>
        <time>2017-07-21T09:48:11Z</time>
      </trkpt>
      <trkpt lat="45.94672" lon="4.84638">
        <ele>268</ele>
        <time>2017-07-21T09:48:12Z</time>
      </trkpt>
      <trkpt lat="45.94672" lon="4.84629">
        <ele>268</ele>
        <time>2017-07-21T09:48:13Z</time>
      </trkpt>
      <trkpt lat="45.94671" lon="4.8462">
        <ele>268</ele>
        <time>2017-07-21T09:48:14Z</time>
      </trkpt>
      <trkpt lat="45.94671" lon="4.84612">
        <ele>268</ele>
        <time>2017-07-21T09:48:15Z</time>
      </trkpt>
      <trkpt lat="45.94671" lon="4.84604">
        <ele>268</ele>
        <time>2017-07-21T09:48:16Z</time>
      </trkpt>
      <trkpt lat="45.9467" lon="4.84596">
        <ele>268</ele>
        <time>2017-07-21T09:48:17Z</time>
      </trkpt>
      <trkpt lat="45.9467" lon="4.84588">
        <ele>268</ele>
        <time>2017-07-21T09:48:18Z</time>
      </trkpt>
      <trkpt lat="45.94669" lon="4.84581">
        <ele>268</ele>
        <time>2017-07-21T09:48:19Z</time>
      </trkpt>
      <trkpt lat="45.94669" lon="4.84573">
        <ele>268</ele>
        <time>2017-07-21T09:48:20Z</time>
      </trkpt>
      <trkpt lat="45.94668" lon="4.84566">
        <ele>268</ele>
        <time>2017-07-21T09:48:21Z</time>
      </trkpt>
      <trkpt lat="45.94667" lon="4.84558">
        <ele>268</ele>
        <time>2017-07-21T09:48:22Z</time>
      </trkpt>
      <trkpt lat="45.94667" lon="4.84549">
        <ele>268</ele>
        <time>2017-07-21T09:48:23Z</time>
      </trkpt>
      <trkpt lat="45.94665" lon="4.84541">
        <ele>268</ele>
        <time>2017-07-21T09:48:24Z</time>
      </trkpt>
      <trkpt lat="45.94665" lon="4.84532">
        <ele>268</ele>
        <time>2017-07-21T09:48:25Z</time>
      </trkpt>
      <trkpt lat="45.94664" lon="4.84524">
        <ele>268</ele>
        <time>2017-07-21T09:48:26Z</time>
      </trkpt>
      <trkpt lat="45.94663" lon="4.84516">
        <ele>268</ele>
        <time>2017-07-21T09:48:27Z</time>
      </trkpt>
      <trkpt lat="45.94663" lon="4.84508">
        <ele>268</ele>
        <time>2017-07-21T09:48:28Z</time>
      </trkpt>
      <trkpt lat="45.94663" lon="4.845">
        <ele>268</ele>
        <time>2017-07-21T09:48:29Z</time>
      </trkpt>
      <trkpt lat="45.94663" lon="4.84493">
        <ele>268</ele>
        <time>2017-07-21T09:48:30Z</time>
      </trkpt>
      <trkpt lat="45.94662" lon="4.84486">
        <ele>268</ele>
        <time>2017-07-21T09:48:31Z</time>
      </trkpt>
      <trkpt lat="45.94661" lon="4.84479">
        <ele>268</ele>
        <time>2017-07-21T09:48:32Z</time>
      </trkpt>
      <trkpt lat="45.9466" lon="4.84472">
        <ele>268</ele>
        <time>2017-07-21T09:48:33Z</time>
      </trkpt>
      <trkpt lat="45.94659" lon="4.84464">
        <ele>268</ele>
        <time>2017-07-21T09:48:34Z</time>
      </trkpt>
      <trkpt lat="45.94658" lon="4.84456">
        <ele>268</ele>
        <time>2017-07-21T09:48:35Z</time>
      </trkpt>
      <trkpt lat="45.94657" lon="4.84448">
        <ele>268</ele>
        <time>2017-07-21T09:48:36Z</time>
      </trkpt>
      <trkpt lat="45.94656" lon="4.8444">
        <ele>268</ele>
        <time>2017-07-21T09:48:37Z</time>
      </trkpt>
      <trkpt lat="45.94655" lon="4.84432">
        <ele>268</ele>
        <time>2017-07-21T09:48:38Z</time>
      </trkpt>
      <trkpt lat="45.94655" lon="4.84424">
        <ele>268</ele>
        <time>2017-07-21T09:48:39Z</time>
      </trkpt>
      <trkpt lat="45.94653" lon="4.84416">
        <ele>268</ele>
        <time>2017-07-21T09:48:40Z</time>
      </trkpt>
      <trkpt lat="45.94652" lon="4.84408">
        <ele>268</ele>
        <time>2017-07-21T09:48:41Z</time>
      </trkpt>
      <trkpt lat="45.94651" lon="4.844">
        <ele>268</ele>
        <time>2017-07-21T09:48:42Z</time>
      </trkpt>
      <trkpt lat="45.9465" lon="4.84393">
        <ele>268</ele>
        <time>2017-07-21T09:48:43Z</time>
      </trkpt>
      <trkpt lat="45.94649" lon="4.84385">
        <ele>268</ele>
        <time>2017-07-21T09:48:44Z</time>
      </trkpt>
      <trkpt lat="45.94647" lon="4.84378">
        <ele>268</ele>
        <time>2017-07-21T09:48:45Z</time>
      </trkpt>
      <trkpt lat="45.94646" lon="4.84372">
        <ele>268</ele>
        <time>2017-07-21T09:48:46Z</time>
      </trkpt>
      <trkpt lat="45.94645" lon="4.84365">
        <ele>268</ele>
        <time>2017-07-21T09:48:47Z</time>
      </trkpt>
      <trkpt lat="45.94645" lon="4.84353">
        <ele>268</ele>
        <time>2017-07-21T09:48:49Z</time>
      </trkpt>
      <trkpt lat="45.94645" lon="4.84346">
        <ele>268</ele>
        <time>2017-07-21T09:48:50Z</time>
      </trkpt>
      <trkpt lat="45.94644" lon="4.84339">
        <ele>268</ele>
        <time>2017-07-21T09:48:51Z</time>
      </trkpt>
      <trkpt lat="45.94644" lon="4.84333">
        <ele>268</ele>
        <time>2017-07-21T09:48:52Z</time>
      </trkpt>
      <trkpt lat="45.94643" lon="4.84325">
        <ele>268</ele>
        <time>2017-07-21T09:48:53Z</time>
      </trkpt>
      <trkpt lat="45.94642" lon="4.84317">
        <ele>269</ele>
        <time>2017-07-21T09:48:54Z</time>
      </trkpt>
      <trkpt lat="45.94641" lon="4.84309">
        <ele>269</ele>
        <time>2017-07-21T09:48:55Z</time>
      </trkpt>
      <trkpt lat="45.9464" lon="4.843">
        <ele>269</ele>
        <time>2017-07-21T09:48:56Z</time>
      </trkpt>
      <trkpt lat="45.9464" lon="4.84292">
        <ele>269</ele>
        <time>2017-07-21T09:48:57Z</time>
      </trkpt>
      <trkpt lat="45.94639" lon="4.84285">
        <ele>269</ele>
        <time>2017-07-21T09:48:58Z</time>
      </trkpt>
      <trkpt lat="45.94638" lon="4.84277">
        <ele>269</ele>
        <time>2017-07-21T09:48:59Z</time>
      </trkpt>
      <trkpt lat="45.94637" lon="4.84269">
        <ele>269</ele>
        <time>2017-07-21T09:49:00Z</time>
      </trkpt>
      <trkpt lat="45.94638" lon="4.84262">
        <ele>269</ele>
        <time>2017-07-21T09:49:01Z</time>
      </trkpt>
      <trkpt lat="45.94637" lon="4.84255">
        <ele>269</ele>
        <time>2017-07-21T09:49:02Z</time>
      </trkpt>
      <trkpt lat="45.94636" lon="4.84248">
        <ele>269</ele>
        <time>2017-07-21T09:49:03Z</time>
      </trkpt>
      <trkpt lat="45.94636" lon="4.84241">
        <ele>269</ele>
        <time>2017-07-21T09:49:04Z</time>
      </trkpt>
      <trkpt lat="45.94634" lon="4.84235">
        <ele>269</ele>
        <time>2017-07-21T09:49:05Z</time>
      </trkpt>
      <trkpt lat="45.94633" lon="4.84228">
        <ele>269</ele>
        <time>2017-07-21T09:49:06Z</time>
      </trkpt>
      <trkpt lat="45.94632" lon="4.84221">
        <ele>269</ele>
        <time>2017-07-21T09:49:07Z</time>
      </trkpt>
      <trkpt lat="45.94631" lon="4.84215">
        <ele>269</ele>
        <time>2017-07-21T09:49:08Z</time>
      </trkpt>
      <trkpt lat="45.9463" lon="4.84207">
        <ele>269</ele>
        <time>2017-07-21T09:49:09Z</time>
      </trkpt>
      <trkpt lat="45.94629" lon="4.842">
        <ele>269</ele>
        <time>2017-07-21T09:49:10Z</time>
      </trkpt>
      <trkpt lat="45.94628" lon="4.84192">
        <ele>269</ele>
        <time>2017-07-21T09:49:11Z</time>
      </trkpt>
      <trkpt lat="45.94626" lon="4.84184">
        <ele>269</ele>
        <time>2017-07-21T09:49:12Z</time>
      </trkpt>
      <trkpt lat="45.94624" lon="4.84175">
        <ele>269</ele>
        <time>2017-07-21T09:49:13Z</time>
      </trkpt>
      <trkpt lat="45.94623" lon="4.84167">
        <ele>269</ele>
        <time>2017-07-21T09:49:14Z</time>
      </trkpt>
      <trkpt lat="45.94622" lon="4.84157">
        <ele>269</ele>
        <time>2017-07-21T09:49:15Z</time>
      </trkpt>
      <trkpt lat="45.94622" lon="4.84148">
        <ele>269</ele>
        <time>2017-07-21T09:49:16Z</time>
      </trkpt>
      <trkpt lat="45.9462" lon="4.84139">
        <ele>269</ele>
        <time>2017-07-21T09:49:17Z</time>
      </trkpt>
      <trkpt lat="45.94619" lon="4.84131">
        <ele>269</ele>
        <time>2017-07-21T09:49:18Z</time>
      </trkpt>
      <trkpt lat="45.94618" lon="4.84123">
        <ele>269</ele>
        <time>2017-07-21T09:49:19Z</time>
      </trkpt>
      <trkpt lat="45.94616" lon="4.84115">
        <ele>269</ele>
        <time>2017-07-21T09:49:20Z</time>
      </trkpt>
      <trkpt lat="45.94614" lon="4.84107">
        <ele>269</ele>
        <time>2017-07-21T09:49:21Z</time>
      </trkpt>
      <trkpt lat="45.94613" lon="4.84099">
        <ele>269</ele>
        <time>2017-07-21T09:49:22Z</time>
      </trkpt>
      <trkpt lat="45.94611" lon="4.84092">
        <ele>269</ele>
        <time>2017-07-21T09:49:23Z</time>
      </trkpt>
      <trkpt lat="45.9461" lon="4.84085">
        <ele>269</ele>
        <time>2017-07-21T09:49:24Z</time>
      </trkpt>
      <trkpt lat="45.94608" lon="4.84078">
        <ele>269</ele>
        <time>2017-07-21T09:49:25Z</time>
      </trkpt>
      <trkpt lat="45.94607" lon="4.84071">
        <ele>269</ele>
        <time>2017-07-21T09:49:26Z</time>
      </trkpt>
      <trkpt lat="45.94606" lon="4.84065">
        <ele>269</ele>
        <time>2017-07-21T09:49:27Z</time>
      </trkpt>
      <trkpt lat="45.94605" lon="4.84058">
        <ele>269</ele>
        <time>2017-07-21T09:49:28Z</time>
      </trkpt>
      <trkpt lat="45.94603" lon="4.84051">
        <ele>269</ele>
        <time>2017-07-21T09:49:29Z</time>
      </trkpt>
      <trkpt lat="45.94601" lon="4.84043">
        <ele>269</ele>
        <time>2017-07-21T09:49:30Z</time>
      </trkpt>
      <trkpt lat="45.946" lon="4.84035">
        <ele>269</ele>
        <time>2017-07-21T09:49:31Z</time>
      </trkpt>
      <trkpt lat="45.94598" lon="4.84027">
        <ele>269</ele>
        <time>2017-07-21T09:49:32Z</time>
      </trkpt>
      <trkpt lat="45.94596" lon="4.84018">
        <ele>269</ele>
        <time>2017-07-21T09:49:33Z</time>
      </trkpt>
      <trkpt lat="45.94595" lon="4.8401">
        <ele>269</ele>
        <time>2017-07-21T09:49:34Z</time>
      </trkpt>
      <trkpt lat="45.94594" lon="4.84001">
        <ele>269</ele>
        <time>2017-07-21T09:49:35Z</time>
      </trkpt>
      <trkpt lat="45.94592" lon="4.83993">
        <ele>269</ele>
        <time>2017-07-21T09:49:36Z</time>
      </trkpt>
      <trkpt lat="45.94591" lon="4.83984">
        <ele>268</ele>
        <time>2017-07-21T09:49:37Z</time>
      </trkpt>
      <trkpt lat="45.9459" lon="4.83976">
        <ele>268</ele>
        <time>2017-07-21T09:49:38Z</time>
      </trkpt>
      <trkpt lat="45.94589" lon="4.83968">
        <ele>268</ele>
        <time>2017-07-21T09:49:39Z</time>
      </trkpt>
      <trkpt lat="45.94588" lon="4.83959">
        <ele>268</ele>
        <time>2017-07-21T09:49:40Z</time>
      </trkpt>
      <trkpt lat="45.94586" lon="4.8395">
        <ele>268</ele>
        <time>2017-07-21T09:49:41Z</time>
      </trkpt>
      <trkpt lat="45.94585" lon="4.83941">
        <ele>268</ele>
        <time>2017-07-21T09:49:42Z</time>
      </trkpt>
      <trkpt lat="45.94583" lon="4.83931">
        <ele>268</ele>
        <time>2017-07-21T09:49:43Z</time>
      </trkpt>
      <trkpt lat="45.94582" lon="4.83921">
        <ele>268</ele>
        <time>2017-07-21T09:49:44Z</time>
      </trkpt>
      <trkpt lat="45.94581" lon="4.83912">
        <ele>268</ele>
        <time>2017-07-21T09:49:45Z</time>
      </trkpt>
      <trkpt lat="45.94581" lon="4.83902">
        <ele>268</ele>
        <time>2017-07-21T09:49:46Z</time>
      </trkpt>
      <trkpt lat="45.94579" lon="4.83892">
        <ele>267</ele>
        <time>2017-07-21T09:49:47Z</time>
      </trkpt>
      <trkpt lat="45.94578" lon="4.83882">
        <ele>267</ele>
        <time>2017-07-21T09:49:48Z</time>
      </trkpt>
      <trkpt lat="45.94576" lon="4.83871">
        <ele>267</ele>
        <time>2017-07-21T09:49:49Z</time>
      </trkpt>
      <trkpt lat="45.94574" lon="4.83861">
        <ele>267</ele>
        <time>2017-07-21T09:49:50Z</time>
      </trkpt>
      <trkpt lat="45.94573" lon="4.8385">
        <ele>266</ele>
        <time>2017-07-21T09:49:51Z</time>
      </trkpt>
      <trkpt lat="45.94571" lon="4.8384">
        <ele>266</ele>
        <time>2017-07-21T09:49:52Z</time>
      </trkpt>
      <trkpt lat="45.9457" lon="4.83829">
        <ele>265</ele>
        <time>2017-07-21T09:49:53Z</time>
      </trkpt>
      <trkpt lat="45.94568" lon="4.83819">
        <ele>264</ele>
        <time>2017-07-21T09:49:54Z</time>
      </trkpt>
      <trkpt lat="45.94567" lon="4.83808">
        <ele>264</ele>
        <time>2017-07-21T09:49:55Z</time>
      </trkpt>
      <trkpt lat="45.94565" lon="4.83797">
        <ele>264</ele>
        <time>2017-07-21T09:49:56Z</time>
      </trkpt>
      <trkpt lat="45.94564" lon="4.83787">
        <ele>264</ele>
        <time>2017-07-21T09:49:57Z</time>
      </trkpt>
      <trkpt lat="45.94562" lon="4.83777">
        <ele>264</ele>
        <time>2017-07-21T09:49:58Z</time>
      </trkpt>
      <trkpt lat="45.94561" lon="4.83767">
        <ele>263</ele>
        <time>2017-07-21T09:49:59Z</time>
      </trkpt>
      <trkpt lat="45.9456" lon="4.83757">
        <ele>263</ele>
        <time>2017-07-21T09:50:00Z</time>
      </trkpt>
      <trkpt lat="45.94558" lon="4.83747">
        <ele>262</ele>
        <time>2017-07-21T09:50:01Z</time>
      </trkpt>
      <trkpt lat="45.94557" lon="4.83737">
        <ele>262</ele>
        <time>2017-07-21T09:50:02Z</time>
      </trkpt>
      <trkpt lat="45.94555" lon="4.83728">
        <ele>262</ele>
        <time>2017-07-21T09:50:03Z</time>
      </trkpt>
      <trkpt lat="45.94554" lon="4.83719">
        <ele>262</ele>
        <time>2017-07-21T09:50:04Z</time>
      </trkpt>
      <trkpt lat="45.94553" lon="4.83709">
        <ele>262</ele>
        <time>2017-07-21T09:50:05Z</time>
      </trkpt>
      <trkpt lat="45.94551" lon="4.837">
        <ele>262</ele>
        <time>2017-07-21T09:50:06Z</time>
      </trkpt>
      <trkpt lat="45.9455" lon="4.83692">
        <ele>262</ele>
        <time>2017-07-21T09:50:07Z</time>
      </trkpt>
      <trkpt lat="45.94549" lon="4.83683">
        <ele>262</ele>
        <time>2017-07-21T09:50:08Z</time>
      </trkpt>
      <trkpt lat="45.94547" lon="4.83674">
        <ele>262</ele>
        <time>2017-07-21T09:50:09Z</time>
      </trkpt>
      <trkpt lat="45.94546" lon="4.83666">
        <ele>261</ele>
        <time>2017-07-21T09:50:10Z</time>
      </trkpt>
      <trkpt lat="45.94544" lon="4.83658">
        <ele>261</ele>
        <time>2017-07-21T09:50:11Z</time>
      </trkpt>
      <trkpt lat="45.94543" lon="4.8365">
        <ele>261</ele>
        <time>2017-07-21T09:50:12Z</time>
      </trkpt>
      <trkpt lat="45.94542" lon="4.83642">
        <ele>261</ele>
        <time>2017-07-21T09:50:13Z</time>
      </trkpt>
      <trkpt lat="45.9454" lon="4.83635">
        <ele>261</ele>
        <time>2017-07-21T09:50:14Z</time>
      </trkpt>
      <trkpt lat="45.94538" lon="4.83628">
        <ele>261</ele>
        <time>2017-07-21T09:50:15Z</time>
      </trkpt>
      <trkpt lat="45.94536" lon="4.8362">
        <ele>261</ele>
        <time>2017-07-21T09:50:16Z</time>
      </trkpt>
      <trkpt lat="45.94535" lon="4.83613">
        <ele>261</ele>
        <time>2017-07-21T09:50:17Z</time>
      </trkpt>
      <trkpt lat="45.94534" lon="4.83604">
        <ele>261</ele>
        <time>2017-07-21T09:50:18Z</time>
      </trkpt>
      <trkpt lat="45.94532" lon="4.83596">
        <ele>261</ele>
        <time>2017-07-21T09:50:19Z</time>
      </trkpt>
      <trkpt lat="45.94529" lon="4.83587">
        <ele>261</ele>
        <time>2017-07-21T09:50:20Z</time>
      </trkpt>
      <trkpt lat="45.94527" lon="4.83579">
        <ele>261</ele>
        <time>2017-07-21T09:50:21Z</time>
      </trkpt>
      <trkpt lat="45.94523" lon="4.83571">
        <ele>261</ele>
        <time>2017-07-21T09:50:22Z</time>
      </trkpt>
      <trkpt lat="45.9452" lon="4.83564">
        <ele>261</ele>
        <time>2017-07-21T09:50:23Z</time>
      </trkpt>
      <trkpt lat="45.94517" lon="4.83558">
        <ele>261</ele>
        <time>2017-07-21T09:50:24Z</time>
      </trkpt>
      <trkpt lat="45.94514" lon="4.83552">
        <ele>261</ele>
        <time>2017-07-21T09:50:25Z</time>
      </trkpt>
      <trkpt lat="45.94511" lon="4.83546">
        <ele>261</ele>
        <time>2017-07-21T09:50:26Z</time>
      </trkpt>
      <trkpt lat="45.94508" lon="4.8354">
        <ele>262</ele>
        <time>2017-07-21T09:50:27Z</time>
      </trkpt>
      <trkpt lat="45.94504" lon="4.83535">
        <ele>262</ele>
        <time>2017-07-21T09:50:28Z</time>
      </trkpt>
      <trkpt lat="45.945" lon="4.83529">
        <ele>262</ele>
        <time>2017-07-21T09:50:29Z</time>
      </trkpt>
      <trkpt lat="45.94496" lon="4.83523">
        <ele>262</ele>
        <time>2017-07-21T09:50:30Z</time>
      </trkpt>
      <trkpt lat="45.94493" lon="4.83518">
        <ele>262</ele>
        <time>2017-07-21T09:50:31Z</time>
      </trkpt>
      <trkpt lat="45.94489" lon="4.83511">
        <ele>262</ele>
        <time>2017-07-21T09:50:32Z</time>
      </trkpt>
      <trkpt lat="45.94485" lon="4.83504">
        <ele>262</ele>
        <time>2017-07-21T09:50:33Z</time>
      </trkpt>
      <trkpt lat="45.94482" lon="4.83498">
        <ele>263</ele>
        <time>2017-07-21T09:50:34Z</time>
      </trkpt>
      <trkpt lat="45.94478" lon="4.83491">
        <ele>263</ele>
        <time>2017-07-21T09:50:35Z</time>
      </trkpt>
      <trkpt lat="45.94475" lon="4.83485">
        <ele>263</ele>
        <time>2017-07-21T09:50:36Z</time>
      </trkpt>
      <trkpt lat="45.94472" lon="4.83478">
        <ele>263</ele>
        <time>2017-07-21T09:50:37Z</time>
      </trkpt>
      <trkpt lat="45.94468" lon="4.83473">
        <ele>263</ele>
        <time>2017-07-21T09:50:38Z</time>
      </trkpt>
      <trkpt lat="45.94465" lon="4.83467">
        <ele>263</ele>
        <time>2017-07-21T09:50:39Z</time>
      </trkpt>
      <trkpt lat="45.94462" lon="4.83462">
        <ele>263</ele>
        <time>2017-07-21T09:50:40Z</time>
      </trkpt>
      <trkpt lat="45.94459" lon="4.83456">
        <ele>263</ele>
        <time>2017-07-21T09:50:41Z</time>
      </trkpt>
      <trkpt lat="45.94455" lon="4.8345">
        <ele>263</ele>
        <time>2017-07-21T09:50:42Z</time>
      </trkpt>
      <trkpt lat="45.94452" lon="4.83444">
        <ele>263</ele>
        <time>2017-07-21T09:50:43Z</time>
      </trkpt>
      <trkpt lat="45.94448" lon="4.83438">
        <ele>263</ele>
        <time>2017-07-21T09:50:44Z</time>
      </trkpt>
      <trkpt lat="45.94445" lon="4.83431">
        <ele>263</ele>
        <time>2017-07-21T09:50:45Z</time>
      </trkpt>
      <trkpt lat="45.94442" lon="4.83424">
        <ele>264</ele>
        <time>2017-07-21T09:50:46Z</time>
      </trkpt>
      <trkpt lat="45.94439" lon="4.83418">
        <ele>264</ele>
        <time>2017-07-21T09:50:47Z</time>
      </trkpt>
      <trkpt lat="45.94436" lon="4.83412">
        <ele>264</ele>
        <time>2017-07-21T09:50:48Z</time>
      </trkpt>
      <trkpt lat="45.94433" lon="4.83406">
        <ele>264</ele>
        <time>2017-07-21T09:50:49Z</time>
      </trkpt>
      <trkpt lat="45.9443" lon="4.834">
        <ele>264</ele>
        <time>2017-07-21T09:50:50Z</time>
      </trkpt>
      <trkpt lat="45.94427" lon="4.83394">
        <ele>264</ele>
        <time>2017-07-21T09:50:51Z</time>
      </trkpt>
      <trkpt lat="45.94424" lon="4.83389">
        <ele>264</ele>
        <time>2017-07-21T09:50:52Z</time>
      </trkpt>
      <trkpt lat="45.94422" lon="4.83383">
        <ele>264</ele>
        <time>2017-07-21T09:50:53Z</time>
      </trkpt>
      <trkpt lat="45.94418" lon="4.83377">
        <ele>264</ele>
        <time>2017-07-21T09:50:54Z</time>
      </trkpt>
      <trkpt lat="45.94415" lon="4.83371">
        <ele>264</ele>
        <time>2017-07-21T09:50:55Z</time>
      </trkpt>
      <trkpt lat="45.94412" lon="4.83365">
        <ele>264</ele>
        <time>2017-07-21T09:50:56Z</time>
      </trkpt>
      <trkpt lat="45.94409" lon="4.83358">
        <ele>264</ele>
        <time>2017-07-21T09:50:57Z</time>
      </trkpt>
      <trkpt lat="45.94406" lon="4.83351">
        <ele>263</ele>
        <time>2017-07-21T09:50:58Z</time>
      </trkpt>
      <trkpt lat="45.94403" lon="4.83343">
        <ele>263</ele>
        <time>2017-07-21T09:50:59Z</time>
      </trkpt>
      <trkpt lat="45.944" lon="4.83335">
        <ele>263</ele>
        <time>2017-07-21T09:51:00Z</time>
      </trkpt>
      <trkpt lat="45.94397" lon="4.83328">
        <ele>264</ele>
        <time>2017-07-21T09:51:01Z</time>
      </trkpt>
      <trkpt lat="45.94394" lon="4.83321">
        <ele>264</ele>
        <time>2017-07-21T09:51:02Z</time>
      </trkpt>
      <trkpt lat="45.94393" lon="4.83314">
        <ele>264</ele>
        <time>2017-07-21T09:51:03Z</time>
      </trkpt>
      <trkpt lat="45.94391" lon="4.83308">
        <ele>264</ele>
        <time>2017-07-21T09:51:04Z</time>
      </trkpt>
      <trkpt lat="45.94389" lon="4.83302">
        <ele>264</ele>
        <time>2017-07-21T09:51:05Z</time>
      </trkpt>
      <trkpt lat="45.94386" lon="4.83297">
        <ele>264</ele>
        <time>2017-07-21T09:51:06Z</time>
      </trkpt>
      <trkpt lat="45.94383" lon="4.83285">
        <ele>264</ele>
        <time>2017-07-21T09:51:08Z</time>
      </trkpt>
      <trkpt lat="45.94381" lon="4.83279">
        <ele>264</ele>
        <time>2017-07-21T09:51:09Z</time>
      </trkpt>
      <trkpt lat="45.94379" lon="4.83273">
        <ele>264</ele>
        <time>2017-07-21T09:51:10Z</time>
      </trkpt>
      <trkpt lat="45.94376" lon="4.83266">
        <ele>264</ele>
        <time>2017-07-21T09:51:11Z</time>
      </trkpt>
      <trkpt lat="45.94374" lon="4.8326">
        <ele>264</ele>
        <time>2017-07-21T09:51:12Z</time>
      </trkpt>
      <trkpt lat="45.94372" lon="4.83252">
        <ele>265</ele>
        <time>2017-07-21T09:51:13Z</time>
      </trkpt>
      <trkpt lat="45.94369" lon="4.83245">
        <ele>265</ele>
        <time>2017-07-21T09:51:14Z</time>
      </trkpt>
      <trkpt lat="45.94366" lon="4.83238">
        <ele>265</ele>
        <time>2017-07-21T09:51:15Z</time>
      </trkpt>
      <trkpt lat="45.94363" lon="4.8323">
        <ele>266</ele>
        <time>2017-07-21T09:51:16Z</time>
      </trkpt>
      <trkpt lat="45.94361" lon="4.83223">
        <ele>266</ele>
        <time>2017-07-21T09:51:17Z</time>
      </trkpt>
      <trkpt lat="45.94359" lon="4.83216">
        <ele>266</ele>
        <time>2017-07-21T09:51:18Z</time>
      </trkpt>
      <trkpt lat="45.94357" lon="4.83209">
        <ele>266</ele>
        <time>2017-07-21T09:51:19Z</time>
      </trkpt>
      <trkpt lat="45.94354" lon="4.83203">
        <ele>266</ele>
        <time>2017-07-21T09:51:20Z</time>
      </trkpt>
      <trkpt lat="45.94352" lon="4.83197">
        <ele>266</ele>
        <time>2017-07-21T09:51:21Z</time>
      </trkpt>
      <trkpt lat="45.9435" lon="4.83191">
        <ele>266</ele>
        <time>2017-07-21T09:51:22Z</time>
      </trkpt>
      <trkpt lat="45.94348" lon="4.83185">
        <ele>266</ele>
        <time>2017-07-21T09:51:23Z</time>
      </trkpt>
      <trkpt lat="45.94346" lon="4.83179">
        <ele>266</ele>
        <time>2017-07-21T09:51:24Z</time>
      </trkpt>
      <trkpt lat="45.94344" lon="4.83173">
        <ele>266</ele>
        <time>2017-07-21T09:51:25Z</time>
      </trkpt>
      <trkpt lat="45.94342" lon="4.83166">
        <ele>266</ele>
        <time>2017-07-21T09:51:26Z</time>
      </trkpt>
      <trkpt lat="45.9434" lon="4.8316">
        <ele>266</ele>
        <time>2017-07-21T09:51:27Z</time>
      </trkpt>
      <trkpt lat="45.94338" lon="4.83153">
        <ele>266</ele>
        <time>2017-07-21T09:51:28Z</time>
      </trkpt>
      <trkpt lat="45.94336" lon="4.83146">
        <ele>266</ele>
        <time>2017-07-21T09:51:29Z</time>
      </trkpt>
      <trkpt lat="45.94333" lon="4.83139">
        <ele>266</ele>
        <time>2017-07-21T09:51:30Z</time>
      </trkpt>
      <trkpt lat="45.94331" lon="4.83132">
        <ele>266</ele>
        <time>2017-07-21T09:51:31Z</time>
      </trkpt>
      <trkpt lat="45.94329" lon="4.83126">
        <ele>266</ele>
        <time>2017-07-21T09:51:32Z</time>
      </trkpt>
      <trkpt lat="45.94326" lon="4.83121">
        <ele>266</ele>
        <time>2017-07-21T09:51:33Z</time>
      </trkpt>
      <trkpt lat="45.94324" lon="4.83114">
        <ele>266</ele>
        <time>2017-07-21T09:51:34Z</time>
      </trkpt>
      <trkpt lat="45.94322" lon="4.83109">
        <ele>266</ele>
        <time>2017-07-21T09:51:35Z</time>
      </trkpt>
      <trkpt lat="45.94318" lon="4.83097">
        <ele>266</ele>
        <time>2017-07-21T09:51:37Z</time>
      </trkpt>
      <trkpt lat="45.94316" lon="4.83091">
        <ele>266</ele>
        <time>2017-07-21T09:51:38Z</time>
      </trkpt>
      <trkpt lat="45.94313" lon="4.8308">
        <ele>266</ele>
        <time>2017-07-21T09:51:40Z</time>
      </trkpt>
      <trkpt lat="45.94311" lon="4.83075">
        <ele>266</ele>
        <time>2017-07-21T09:51:41Z</time>
      </trkpt>
      <trkpt lat="45.94309" lon="4.83064">
        <ele>266</ele>
        <time>2017-07-21T09:51:43Z</time>
      </trkpt>
      <trkpt lat="45.94308" lon="4.83058">
        <ele>266</ele>
        <time>2017-07-21T09:51:44Z</time>
      </trkpt>
      <trkpt lat="45.94307" lon="4.83052">
        <ele>266</ele>
        <time>2017-07-21T09:51:45Z</time>
      </trkpt>
      <trkpt lat="45.94305" lon="4.83046">
        <ele>266</ele>
        <time>2017-07-21T09:51:46Z</time>
      </trkpt>
      <trkpt lat="45.94303" lon="4.83039">
        <ele>266</ele>
        <time>2017-07-21T09:51:47Z</time>
      </trkpt>
      <trkpt lat="45.94302" lon="4.83032">
        <ele>266</ele>
        <time>2017-07-21T09:51:48Z</time>
      </trkpt>
      <trkpt lat="45.94301" lon="4.83025">
        <ele>266</ele>
        <time>2017-07-21T09:51:49Z</time>
      </trkpt>
      <trkpt lat="45.943" lon="4.83018">
        <ele>266</ele>
        <time>2017-07-21T09:51:50Z</time>
      </trkpt>
      <trkpt lat="45.94298" lon="4.83012">
        <ele>266</ele>
        <time>2017-07-21T09:51:51Z</time>
      </trkpt>
      <trkpt lat="45.94297" lon="4.83005">
        <ele>266</ele>
        <time>2017-07-21T09:51:52Z</time>
      </trkpt>
      <trkpt lat="45.94296" lon="4.82998">
        <ele>265</ele>
        <time>2017-07-21T09:51:53Z</time>
      </trkpt>
      <trkpt lat="45.94295" lon="4.82992">
        <ele>265</ele>
        <time>2017-07-21T09:51:54Z</time>
      </trkpt>
      <trkpt lat="45.94293" lon="4.82986">
        <ele>265</ele>
        <time>2017-07-21T09:51:55Z</time>
      </trkpt>
      <trkpt lat="45.94291" lon="4.8298">
        <ele>265</ele>
        <time>2017-07-21T09:51:56Z</time>
      </trkpt>
      <trkpt lat="45.94287" lon="4.8297">
        <ele>265</ele>
        <time>2017-07-21T09:51:58Z</time>
      </trkpt>
      <trkpt lat="45.94286" lon="4.82964">
        <ele>265</ele>
        <time>2017-07-21T09:51:59Z</time>
      </trkpt>
      <trkpt lat="45.94284" lon="4.82954">
        <ele>265</ele>
        <time>2017-07-21T09:52:01Z</time>
      </trkpt>
      <trkpt lat="45.94284" lon="4.82949">
        <ele>265</ele>
        <time>2017-07-21T09:52:02Z</time>
      </trkpt>
      <trkpt lat="45.94284" lon="4.82943">
        <ele>265</ele>
        <time>2017-07-21T09:52:03Z</time>
      </trkpt>
      <trkpt lat="45.94285" lon="4.82936">
        <ele>265</ele>
        <time>2017-07-21T09:52:04Z</time>
      </trkpt>
      <trkpt lat="45.94286" lon="4.82929">
        <ele>265</ele>
        <time>2017-07-21T09:52:05Z</time>
      </trkpt>
      <trkpt lat="45.94287" lon="4.82923">
        <ele>265</ele>
        <time>2017-07-21T09:52:06Z</time>
      </trkpt>
      <trkpt lat="45.94289" lon="4.8291">
        <ele>265</ele>
        <time>2017-07-21T09:52:08Z</time>
      </trkpt>
      <trkpt lat="45.94291" lon="4.82905">
        <ele>265</ele>
        <time>2017-07-21T09:52:09Z</time>
      </trkpt>
      <trkpt lat="45.94291" lon="4.82893">
        <ele>265</ele>
        <time>2017-07-21T09:52:11Z</time>
      </trkpt>
      <trkpt lat="45.94292" lon="4.82887">
        <ele>265</ele>
        <time>2017-07-21T09:52:12Z</time>
      </trkpt>
      <trkpt lat="45.94292" lon="4.8288">
        <ele>265</ele>
        <time>2017-07-21T09:52:13Z</time>
      </trkpt>
      <trkpt lat="45.94292" lon="4.82872">
        <ele>265</ele>
        <time>2017-07-21T09:52:14Z</time>
      </trkpt>
      <trkpt lat="45.94293" lon="4.82864">
        <ele>265</ele>
        <time>2017-07-21T09:52:15Z</time>
      </trkpt>
      <trkpt lat="45.94293" lon="4.82856">
        <ele>265</ele>
        <time>2017-07-21T09:52:16Z</time>
      </trkpt>
      <trkpt lat="45.94293" lon="4.82848">
        <ele>265</ele>
        <time>2017-07-21T09:52:17Z</time>
      </trkpt>
      <trkpt lat="45.94293" lon="4.82839">
        <ele>265</ele>
        <time>2017-07-21T09:52:18Z</time>
      </trkpt>
      <trkpt lat="45.94293" lon="4.82832">
        <ele>265</ele>
        <time>2017-07-21T09:52:19Z</time>
      </trkpt>
      <trkpt lat="45.94294" lon="4.82823">
        <ele>265</ele>
        <time>2017-07-21T09:52:20Z</time>
      </trkpt>
      <trkpt lat="45.94294" lon="4.82815">
        <ele>265</ele>
        <time>2017-07-21T09:52:21Z</time>
      </trkpt>
      <trkpt lat="45.94294" lon="4.82808">
        <ele>265</ele>
        <time>2017-07-21T09:52:22Z</time>
      </trkpt>
      <trkpt lat="45.94294" lon="4.828">
        <ele>265</ele>
        <time>2017-07-21T09:52:23Z</time>
      </trkpt>
      <trkpt lat="45.94294" lon="4.82793">
        <ele>265</ele>
        <time>2017-07-21T09:52:24Z</time>
      </trkpt>
      <trkpt lat="45.94294" lon="4.82785">
        <ele>265</ele>
        <time>2017-07-21T09:52:25Z</time>
      </trkpt>
      <trkpt lat="45.94294" lon="4.82778">
        <ele>265</ele>
        <time>2017-07-21T09:52:26Z</time>
      </trkpt>
      <trkpt lat="45.94295" lon="4.8277">
        <ele>265</ele>
        <time>2017-07-21T09:52:27Z</time>
      </trkpt>
      <trkpt lat="45.94295" lon="4.82762">
        <ele>265</ele>
        <time>2017-07-21T09:52:28Z</time>
      </trkpt>
      <trkpt lat="45.94295" lon="4.82754">
        <ele>265</ele>
        <time>2017-07-21T09:52:29Z</time>
      </trkpt>
      <trkpt lat="45.94295" lon="4.82745">
        <ele>265</ele>
        <time>2017-07-21T09:52:30Z</time>
      </trkpt>
      <trkpt lat="45.94295" lon="4.82736">
        <ele>265</ele>
        <time>2017-07-21T09:52:31Z</time>
      </trkpt>
      <trkpt lat="45.94296" lon="4.82727">
        <ele>265</ele>
        <time>2017-07-21T09:52:32Z</time>
      </trkpt>
      <trkpt lat="45.94296" lon="4.82719">
        <ele>265</ele>
        <time>2017-07-21T09:52:33Z</time>
      </trkpt>
      <trkpt lat="45.94297" lon="4.82711">
        <ele>265</ele>
        <time>2017-07-21T09:52:34Z</time>
      </trkpt>
      <trkpt lat="45.94297" lon="4.82702">
        <ele>265</ele>
        <time>2017-07-21T09:52:35Z</time>
      </trkpt>
      <trkpt lat="45.94297" lon="4.82693">
        <ele>265</ele>
        <time>2017-07-21T09:52:36Z</time>
      </trkpt>
      <trkpt lat="45.94297" lon="4.82685">
        <ele>265</ele>
        <time>2017-07-21T09:52:37Z</time>
      </trkpt>
      <trkpt lat="45.94298" lon="4.82677">
        <ele>265</ele>
        <time>2017-07-21T09:52:38Z</time>
      </trkpt>
      <trkpt lat="45.94298" lon="4.82669">
        <ele>265</ele>
        <time>2017-07-21T09:52:39Z</time>
      </trkpt>
      <trkpt lat="45.94298" lon="4.82662">
        <ele>265</ele>
        <time>2017-07-21T09:52:40Z</time>
      </trkpt>
      <trkpt lat="45.94298" lon="4.82654">
        <ele>265</ele>
        <time>2017-07-21T09:52:41Z</time>
      </trkpt>
      <trkpt lat="45.94298" lon="4.82647">
        <ele>265</ele>
        <time>2017-07-21T09:52:42Z</time>
      </trkpt>
      <trkpt lat="45.94298" lon="4.82639">
        <ele>265</ele>
        <time>2017-07-21T09:52:43Z</time>
      </trkpt>
      <trkpt lat="45.94298" lon="4.82632">
        <ele>265</ele>
        <time>2017-07-21T09:52:44Z</time>
      </trkpt>
      <trkpt lat="45.94299" lon="4.82625">
        <ele>265</ele>
        <time>2017-07-21T09:52:45Z</time>
      </trkpt>
      <trkpt lat="45.94299" lon="4.82617">
        <ele>265</ele>
        <time>2017-07-21T09:52:46Z</time>
      </trkpt>
      <trkpt lat="45.943" lon="4.82609">
        <ele>265</ele>
        <time>2017-07-21T09:52:47Z</time>
      </trkpt>
      <trkpt lat="45.94299" lon="4.82601">
        <ele>265</ele>
        <time>2017-07-21T09:52:48Z</time>
      </trkpt>
      <trkpt lat="45.943" lon="4.82593">
        <ele>265</ele>
        <time>2017-07-21T09:52:49Z</time>
      </trkpt>
      <trkpt lat="45.943" lon="4.82584">
        <ele>265</ele>
        <time>2017-07-21T09:52:50Z</time>
      </trkpt>
      <trkpt lat="45.943" lon="4.82576">
        <ele>264</ele>
        <time>2017-07-21T09:52:51Z</time>
      </trkpt>
      <trkpt lat="45.943" lon="4.82567">
        <ele>264</ele>
        <time>2017-07-21T09:52:52Z</time>
      </trkpt>
      <trkpt lat="45.943" lon="4.82558">
        <ele>264</ele>
        <time>2017-07-21T09:52:53Z</time>
      </trkpt>
      <trkpt lat="45.943" lon="4.8255">
        <ele>264</ele>
        <time>2017-07-21T09:52:54Z</time>
      </trkpt>
      <trkpt lat="45.943" lon="4.82542">
        <ele>264</ele>
        <time>2017-07-21T09:52:55Z</time>
      </trkpt>
      <trkpt lat="45.943" lon="4.82534">
        <ele>264</ele>
        <time>2017-07-21T09:52:56Z</time>
      </trkpt>
      <trkpt lat="45.943" lon="4.82526">
        <ele>264</ele>
        <time>2017-07-21T09:52:57Z</time>
      </trkpt>
      <trkpt lat="45.943" lon="4.82517">
        <ele>264</ele>
        <time>2017-07-21T09:52:58Z</time>
      </trkpt>
      <trkpt lat="45.94299" lon="4.82509">
        <ele>264</ele>
        <time>2017-07-21T09:52:59Z</time>
      </trkpt>
      <trkpt lat="45.94299" lon="4.82502">
        <ele>264</ele>
        <time>2017-07-21T09:53:00Z</time>
      </trkpt>
      <trkpt lat="45.94299" lon="4.82494">
        <ele>264</ele>
        <time>2017-07-21T09:53:01Z</time>
      </trkpt>
      <trkpt lat="45.94299" lon="4.82486">
        <ele>264</ele>
        <time>2017-07-21T09:53:02Z</time>
      </trkpt>
      <trkpt lat="45.94299" lon="4.82478">
        <ele>264</ele>
        <time>2017-07-21T09:53:03Z</time>
      </trkpt>
      <trkpt lat="45.94299" lon="4.82471">
        <ele>264</ele>
        <time>2017-07-21T09:53:04Z</time>
      </trkpt>
      <trkpt lat="45.94298" lon="4.82463">
        <ele>264</ele>
        <time>2017-07-21T09:53:05Z</time>
      </trkpt>
      <trkpt lat="45.94298" lon="4.82454">
        <ele>264</ele>
        <time>2017-07-21T09:53:06Z</time>
      </trkpt>
      <trkpt lat="45.94297" lon="4.82446">
        <ele>264</ele>
        <time>2017-07-21T09:53:07Z</time>
      </trkpt>
      <trkpt lat="45.94297" lon="4.82436">
        <ele>264</ele>
        <time>2017-07-21T09:53:08Z</time>
      </trkpt>
      <trkpt lat="45.94296" lon="4.82427">
        <ele>264</ele>
        <time>2017-07-21T09:53:09Z</time>
      </trkpt>
      <trkpt lat="45.94295" lon="4.82417">
        <ele>264</ele>
        <time>2017-07-21T09:53:10Z</time>
      </trkpt>
      <trkpt lat="45.94295" lon="4.82407">
        <ele>264</ele>
        <time>2017-07-21T09:53:11Z</time>
      </trkpt>
      <trkpt lat="45.94294" lon="4.82397">
        <ele>264</ele>
        <time>2017-07-21T09:53:12Z</time>
      </trkpt>
      <trkpt lat="45.94293" lon="4.82386">
        <ele>264</ele>
        <time>2017-07-21T09:53:13Z</time>
      </trkpt>
      <trkpt lat="45.94293" lon="4.82376">
        <ele>264</ele>
        <time>2017-07-21T09:53:14Z</time>
      </trkpt>
      <trkpt lat="45.94293" lon="4.82366">
        <ele>264</ele>
        <time>2017-07-21T09:53:15Z</time>
      </trkpt>
      <trkpt lat="45.94292" lon="4.82355">
        <ele>264</ele>
        <time>2017-07-21T09:53:16Z</time>
      </trkpt>
      <trkpt lat="45.94291" lon="4.82345">
        <ele>264</ele>
        <time>2017-07-21T09:53:17Z</time>
      </trkpt>
      <trkpt lat="45.94291" lon="4.82334">
        <ele>264</ele>
        <time>2017-07-21T09:53:18Z</time>
      </trkpt>
      <trkpt lat="45.9429" lon="4.82324">
        <ele>265</ele>
        <time>2017-07-21T09:53:19Z</time>
      </trkpt>
      <trkpt lat="45.9429" lon="4.82313">
        <ele>265</ele>
        <time>2017-07-21T09:53:20Z</time>
      </trkpt>
      <trkpt lat="45.94289" lon="4.82303">
        <ele>265</ele>
        <time>2017-07-21T09:53:21Z</time>
      </trkpt>
      <trkpt lat="45.94288" lon="4.82294">
        <ele>265</ele>
        <time>2017-07-21T09:53:22Z</time>
      </trkpt>
      <trkpt lat="45.94288" lon="4.82284">
        <ele>265</ele>
        <time>2017-07-21T09:53:23Z</time>
      </trkpt>
      <trkpt lat="45.94288" lon="4.82275">
        <ele>265</ele>
        <time>2017-07-21T09:53:24Z</time>
      </trkpt>
      <trkpt lat="45.94287" lon="4.82265">
        <ele>265</ele>
        <time>2017-07-21T09:53:25Z</time>
      </trkpt>
      <trkpt lat="45.94287" lon="4.82256">
        <ele>265</ele>
        <time>2017-07-21T09:53:26Z</time>
      </trkpt>
      <trkpt lat="45.94287" lon="4.82247">
        <ele>264</ele>
        <time>2017-07-21T09:53:27Z</time>
      </trkpt>
      <trkpt lat="45.94287" lon="4.82239">
        <ele>264</ele>
        <time>2017-07-21T09:53:28Z</time>
      </trkpt>
      <trkpt lat="45.94287" lon="4.8223">
        <ele>264</ele>
        <time>2017-07-21T09:53:29Z</time>
      </trkpt>
      <trkpt lat="45.94286" lon="4.82221">
        <ele>264</ele>
        <time>2017-07-21T09:53:30Z</time>
      </trkpt>
      <trkpt lat="45.94285" lon="4.82213">
        <ele>264</ele>
        <time>2017-07-21T09:53:31Z</time>
      </trkpt>
      <trkpt lat="45.94284" lon="4.82205">
        <ele>264</ele>
        <time>2017-07-21T09:53:32Z</time>
      </trkpt>
      <trkpt lat="45.94283" lon="4.82196">
        <ele>264</ele>
        <time>2017-07-21T09:53:33Z</time>
      </trkpt>
      <trkpt lat="45.94283" lon="4.82187">
        <ele>264</ele>
        <time>2017-07-21T09:53:34Z</time>
      </trkpt>
      <trkpt lat="45.94282" lon="4.82179">
        <ele>264</ele>
        <time>2017-07-21T09:53:35Z</time>
      </trkpt>
      <trkpt lat="45.9428" lon="4.82171">
        <ele>264</ele>
        <time>2017-07-21T09:53:36Z</time>
      </trkpt>
      <trkpt lat="45.94277" lon="4.82163">
        <ele>263</ele>
        <time>2017-07-21T09:53:37Z</time>
      </trkpt>
      <trkpt lat="45.94275" lon="4.82156">
        <ele>263</ele>
        <time>2017-07-21T09:53:38Z</time>
      </trkpt>
      <trkpt lat="45.94274" lon="4.82147">
        <ele>263</ele>
        <time>2017-07-21T09:53:39Z</time>
      </trkpt>
      <trkpt lat="45.94273" lon="4.82138">
        <ele>263</ele>
        <time>2017-07-21T09:53:40Z</time>
      </trkpt>
      <trkpt lat="45.9427" lon="4.82129">
        <ele>263</ele>
        <time>2017-07-21T09:53:41Z</time>
      </trkpt>
      <trkpt lat="45.94268" lon="4.8212">
        <ele>263</ele>
        <time>2017-07-21T09:53:42Z</time>
      </trkpt>
      <trkpt lat="45.94267" lon="4.82111">
        <ele>263</ele>
        <time>2017-07-21T09:53:43Z</time>
      </trkpt>
      <trkpt lat="45.94265" lon="4.82102">
        <ele>262</ele>
        <time>2017-07-21T09:53:44Z</time>
      </trkpt>
      <trkpt lat="45.94263" lon="4.82093">
        <ele>262</ele>
        <time>2017-07-21T09:53:45Z</time>
      </trkpt>
      <trkpt lat="45.94261" lon="4.82083">
        <ele>262</ele>
        <time>2017-07-21T09:53:46Z</time>
      </trkpt>
      <trkpt lat="45.94259" lon="4.82074">
        <ele>262</ele>
        <time>2017-07-21T09:53:47Z</time>
      </trkpt>
      <trkpt lat="45.94257" lon="4.82064">
        <ele>262</ele>
        <time>2017-07-21T09:53:48Z</time>
      </trkpt>
      <trkpt lat="45.94256" lon="4.82054">
        <ele>262</ele>
        <time>2017-07-21T09:53:49Z</time>
      </trkpt>
      <trkpt lat="45.94254" lon="4.82045">
        <ele>262</ele>
        <time>2017-07-21T09:53:50Z</time>
      </trkpt>
      <trkpt lat="45.94252" lon="4.82036">
        <ele>262</ele>
        <time>2017-07-21T09:53:51Z</time>
      </trkpt>
      <trkpt lat="45.9425" lon="4.82027">
        <ele>263</ele>
        <time>2017-07-21T09:53:52Z</time>
      </trkpt>
      <trkpt lat="45.94247" lon="4.82018">
        <ele>263</ele>
        <time>2017-07-21T09:53:53Z</time>
      </trkpt>
      <trkpt lat="45.94246" lon="4.82009">
        <ele>263</ele>
        <time>2017-07-21T09:53:54Z</time>
      </trkpt>
      <trkpt lat="45.94245" lon="4.82">
        <ele>262</ele>
        <time>2017-07-21T09:53:55Z</time>
      </trkpt>
      <trkpt lat="45.94243" lon="4.81992">
        <ele>263</ele>
        <time>2017-07-21T09:53:56Z</time>
      </trkpt>
      <trkpt lat="45.94241" lon="4.81984">
        <ele>263</ele>
        <time>2017-07-21T09:53:57Z</time>
      </trkpt>
      <trkpt lat="45.9424" lon="4.81976">
        <ele>263</ele>
        <time>2017-07-21T09:53:58Z</time>
      </trkpt>
      <trkpt lat="45.94238" lon="4.81968">
        <ele>263</ele>
        <time>2017-07-21T09:53:59Z</time>
      </trkpt>
      <trkpt lat="45.94236" lon="4.81961">
        <ele>264</ele>
        <time>2017-07-21T09:54:00Z</time>
      </trkpt>
      <trkpt lat="45.94235" lon="4.81953">
        <ele>264</ele>
        <time>2017-07-21T09:54:01Z</time>
      </trkpt>
      <trkpt lat="45.94235" lon="4.81945">
        <ele>264</ele>
        <time>2017-07-21T09:54:02Z</time>
      </trkpt>
      <trkpt lat="45.94233" lon="4.81938">
        <ele>263</ele>
        <time>2017-07-21T09:54:03Z</time>
      </trkpt>
      <trkpt lat="45.94232" lon="4.8193">
        <ele>263</ele>
        <time>2017-07-21T09:54:04Z</time>
      </trkpt>
      <trkpt lat="45.9423" lon="4.81922">
        <ele>263</ele>
        <time>2017-07-21T09:54:05Z</time>
      </trkpt>
      <trkpt lat="45.94228" lon="4.81913">
        <ele>264</ele>
        <time>2017-07-21T09:54:06Z</time>
      </trkpt>
      <trkpt lat="45.94226" lon="4.81905">
        <ele>264</ele>
        <time>2017-07-21T09:54:07Z</time>
      </trkpt>
      <trkpt lat="45.94224" lon="4.81896">
        <ele>264</ele>
        <time>2017-07-21T09:54:08Z</time>
      </trkpt>
      <trkpt lat="45.94222" lon="4.81888">
        <ele>265</ele>
        <time>2017-07-21T09:54:09Z</time>
      </trkpt>
      <trkpt lat="45.94221" lon="4.8188">
        <ele>265</ele>
        <time>2017-07-21T09:54:10Z</time>
      </trkpt>
      <trkpt lat="45.9422" lon="4.81872">
        <ele>265</ele>
        <time>2017-07-21T09:54:11Z</time>
      </trkpt>
      <trkpt lat="45.94218" lon="4.81866">
        <ele>265</ele>
        <time>2017-07-21T09:54:12Z</time>
      </trkpt>
      <trkpt lat="45.94217" lon="4.81859">
        <ele>265</ele>
        <time>2017-07-21T09:54:13Z</time>
      </trkpt>
      <trkpt lat="45.94215" lon="4.81852">
        <ele>265</ele>
        <time>2017-07-21T09:54:14Z</time>
      </trkpt>
      <trkpt lat="45.94214" lon="4.81846">
        <ele>265</ele>
        <time>2017-07-21T09:54:15Z</time>
      </trkpt>
      <trkpt lat="45.94212" lon="4.81839">
        <ele>265</ele>
        <time>2017-07-21T09:54:16Z</time>
      </trkpt>
      <trkpt lat="45.9421" lon="4.81832">
        <ele>266</ele>
        <time>2017-07-21T09:54:17Z</time>
      </trkpt>
      <trkpt lat="45.94209" lon="4.81825">
        <ele>266</ele>
        <time>2017-07-21T09:54:18Z</time>
      </trkpt>
      <trkpt lat="45.94209" lon="4.81818">
        <ele>266</ele>
        <time>2017-07-21T09:54:19Z</time>
      </trkpt>
      <trkpt lat="45.94208" lon="4.81811">
        <ele>266</ele>
        <time>2017-07-21T09:54:20Z</time>
      </trkpt>
      <trkpt lat="45.94209" lon="4.81803">
        <ele>266</ele>
        <time>2017-07-21T09:54:21Z</time>
      </trkpt>
      <trkpt lat="45.9421" lon="4.81796">
        <ele>265</ele>
        <time>2017-07-21T09:54:22Z</time>
      </trkpt>
      <trkpt lat="45.94211" lon="4.81789">
        <ele>265</ele>
        <time>2017-07-21T09:54:23Z</time>
      </trkpt>
      <trkpt lat="45.94212" lon="4.81782">
        <ele>265</ele>
        <time>2017-07-21T09:54:24Z</time>
      </trkpt>
      <trkpt lat="45.94213" lon="4.81775">
        <ele>265</ele>
        <time>2017-07-21T09:54:25Z</time>
      </trkpt>
      <trkpt lat="45.94216" lon="4.81769">
        <ele>265</ele>
        <time>2017-07-21T09:54:26Z</time>
      </trkpt>
      <trkpt lat="45.9422" lon="4.81763">
        <ele>265</ele>
        <time>2017-07-21T09:54:27Z</time>
      </trkpt>
      <trkpt lat="45.94223" lon="4.81758">
        <ele>265</ele>
        <time>2017-07-21T09:54:28Z</time>
      </trkpt>
      <trkpt lat="45.94227" lon="4.81753">
        <ele>264</ele>
        <time>2017-07-21T09:54:29Z</time>
      </trkpt>
      <trkpt lat="45.94229" lon="4.81747">
        <ele>265</ele>
        <time>2017-07-21T09:54:30Z</time>
      </trkpt>
      <trkpt lat="45.94229" lon="4.81739">
        <ele>265</ele>
        <time>2017-07-21T09:54:31Z</time>
      </trkpt>
      <trkpt lat="45.94228" lon="4.8173">
        <ele>265</ele>
        <time>2017-07-21T09:54:32Z</time>
      </trkpt>
      <trkpt lat="45.94225" lon="4.81723">
        <ele>265</ele>
        <time>2017-07-21T09:54:33Z</time>
      </trkpt>
      <trkpt lat="45.94222" lon="4.81717">
        <ele>266</ele>
        <time>2017-07-21T09:54:34Z</time>
      </trkpt>
      <trkpt lat="45.94218" lon="4.81713">
        <ele>266</ele>
        <time>2017-07-21T09:54:35Z</time>
      </trkpt>
      <trkpt lat="45.94213" lon="4.8171">
        <ele>266</ele>
        <time>2017-07-21T09:54:36Z</time>
      </trkpt>
      <trkpt lat="45.94207" lon="4.81707">
        <ele>266</ele>
        <time>2017-07-21T09:54:37Z</time>
      </trkpt>
      <trkpt lat="45.94201" lon="4.81702">
        <ele>267</ele>
        <time>2017-07-21T09:54:38Z</time>
      </trkpt>
      <trkpt lat="45.94196" lon="4.81697">
        <ele>267</ele>
        <time>2017-07-21T09:54:39Z</time>
      </trkpt>
      <trkpt lat="45.94192" lon="4.8169">
        <ele>267</ele>
        <time>2017-07-21T09:54:40Z</time>
      </trkpt>
      <trkpt lat="45.94187" lon="4.81683">
        <ele>267</ele>
        <time>2017-07-21T09:54:41Z</time>
      </trkpt>
      <trkpt lat="45.94183" lon="4.81674">
        <ele>268</ele>
        <time>2017-07-21T09:54:42Z</time>
      </trkpt>
      <trkpt lat="45.94179" lon="4.81664">
        <ele>268</ele>
        <time>2017-07-21T09:54:43Z</time>
      </trkpt>
      <trkpt lat="45.94176" lon="4.81653">
        <ele>268</ele>
        <time>2017-07-21T09:54:44Z</time>
      </trkpt>
      <trkpt lat="45.94173" lon="4.81643">
        <ele>268</ele>
        <time>2017-07-21T09:54:45Z</time>
      </trkpt>
      <trkpt lat="45.9417" lon="4.81632">
        <ele>267</ele>
        <time>2017-07-21T09:54:46Z</time>
      </trkpt>
      <trkpt lat="45.94167" lon="4.8162">
        <ele>267</ele>
        <time>2017-07-21T09:54:47Z</time>
      </trkpt>
      <trkpt lat="45.94164" lon="4.81607">
        <ele>267</ele>
        <time>2017-07-21T09:54:48Z</time>
      </trkpt>
      <trkpt lat="45.94162" lon="4.81594">
        <ele>267</ele>
        <time>2017-07-21T09:54:49Z</time>
      </trkpt>
      <trkpt lat="45.94159" lon="4.8158">
        <ele>266</ele>
        <time>2017-07-21T09:54:50Z</time>
      </trkpt>
      <trkpt lat="45.94154" lon="4.81563">
        <ele>265</ele>
        <time>2017-07-21T09:54:51Z</time>
      </trkpt>
      <trkpt lat="45.94153" lon="4.81541">
        <ele>264</ele>
        <time>2017-07-21T09:54:52Z</time>
      </trkpt>
      <trkpt lat="45.94155" lon="4.81522">
        <ele>263</ele>
        <time>2017-07-21T09:54:53Z</time>
      </trkpt>
      <trkpt lat="45.94153" lon="4.81504">
        <ele>263</ele>
        <time>2017-07-21T09:54:54Z</time>
      </trkpt>
      <trkpt lat="45.94153" lon="4.81486">
        <ele>259</ele>
        <time>2017-07-21T09:54:55Z</time>
      </trkpt>
      <trkpt lat="45.94155" lon="4.81469">
        <ele>258</ele>
        <time>2017-07-21T09:54:56Z</time>
      </trkpt>
      <trkpt lat="45.94156" lon="4.81452">
        <ele>257</ele>
        <time>2017-07-21T09:54:57Z</time>
      </trkpt>
      <trkpt lat="45.94161" lon="4.81436">
        <ele>256</ele>
        <time>2017-07-21T09:54:58Z</time>
      </trkpt>
      <trkpt lat="45.94163" lon="4.81419">
        <ele>256</ele>
        <time>2017-07-21T09:54:59Z</time>
      </trkpt>
      <trkpt lat="45.94168" lon="4.81402">
        <ele>257</ele>
        <time>2017-07-21T09:55:00Z</time>
      </trkpt>
      <trkpt lat="45.9417" lon="4.81386">
        <ele>258</ele>
        <time>2017-07-21T09:55:01Z</time>
      </trkpt>
      <trkpt lat="45.94171" lon="4.81369">
        <ele>257</ele>
        <time>2017-07-21T09:55:02Z</time>
      </trkpt>
      <trkpt lat="45.94173" lon="4.81353">
        <ele>256</ele>
        <time>2017-07-21T09:55:03Z</time>
      </trkpt>
      <trkpt lat="45.94174" lon="4.81337">
        <ele>254</ele>
        <time>2017-07-21T09:55:04Z</time>
      </trkpt>
      <trkpt lat="45.94176" lon="4.81321">
        <ele>255</ele>
        <time>2017-07-21T09:55:05Z</time>
      </trkpt>
      <trkpt lat="45.94178" lon="4.81305">
        <ele>256</ele>
        <time>2017-07-21T09:55:06Z</time>
      </trkpt>
      <trkpt lat="45.94179" lon="4.81288">
        <ele>256</ele>
        <time>2017-07-21T09:55:07Z</time>
      </trkpt>
      <trkpt lat="45.94177" lon="4.81272">
        <ele>255</ele>
        <time>2017-07-21T09:55:08Z</time>
      </trkpt>
      <trkpt lat="45.94174" lon="4.81256">
        <ele>253</ele>
        <time>2017-07-21T09:55:09Z</time>
      </trkpt>
      <trkpt lat="45.94172" lon="4.8124">
        <ele>252</ele>
        <time>2017-07-21T09:55:10Z</time>
      </trkpt>
      <trkpt lat="45.9417" lon="4.81225">
        <ele>253</ele>
        <time>2017-07-21T09:55:11Z</time>
      </trkpt>
      <trkpt lat="45.94163" lon="4.81209">
        <ele>245</ele>
        <time>2017-07-21T09:55:12Z</time>
      </trkpt>
      <trkpt lat="45.94158" lon="4.81194">
        <ele>245</ele>
        <time>2017-07-21T09:55:13Z</time>
      </trkpt>
      <trkpt lat="45.94153" lon="4.81178">
        <ele>245</ele>
        <time>2017-07-21T09:55:14Z</time>
      </trkpt>
      <trkpt lat="45.94146" lon="4.81162">
        <ele>245</ele>
        <time>2017-07-21T09:55:15Z</time>
      </trkpt>
      <trkpt lat="45.94139" lon="4.81146">
        <ele>244</ele>
        <time>2017-07-21T09:55:16Z</time>
      </trkpt>
      <trkpt lat="45.94133" lon="4.81131">
        <ele>244</ele>
        <time>2017-07-21T09:55:17Z</time>
      </trkpt>
      <trkpt lat="45.94127" lon="4.81117">
        <ele>244</ele>
        <time>2017-07-21T09:55:18Z</time>
      </trkpt>
      <trkpt lat="45.9412" lon="4.81103">
        <ele>243</ele>
        <time>2017-07-21T09:55:19Z</time>
      </trkpt>
      <trkpt lat="45.94113" lon="4.81089">
        <ele>242</ele>
        <time>2017-07-21T09:55:20Z</time>
      </trkpt>
      <trkpt lat="45.94106" lon="4.81076">
        <ele>243</ele>
        <time>2017-07-21T09:55:21Z</time>
      </trkpt>
      <trkpt lat="45.94095" lon="4.8106">
        <ele>243</ele>
        <time>2017-07-21T09:55:22Z</time>
      </trkpt>
      <trkpt lat="45.94088" lon="4.81042">
        <ele>244</ele>
        <time>2017-07-21T09:55:23Z</time>
      </trkpt>
      <trkpt lat="45.94083" lon="4.81027">
        <ele>234</ele>
        <time>2017-07-21T09:55:24Z</time>
      </trkpt>
      <trkpt lat="45.94079" lon="4.81008">
        <ele>237</ele>
        <time>2017-07-21T09:55:25Z</time>
      </trkpt>
      <trkpt lat="45.94075" lon="4.8099">
        <ele>236</ele>
        <time>2017-07-21T09:55:26Z</time>
      </trkpt>
      <trkpt lat="45.94071" lon="4.80974">
        <ele>233</ele>
        <time>2017-07-21T09:55:27Z</time>
      </trkpt>
      <trkpt lat="45.94068" lon="4.80956">
        <ele>232</ele>
        <time>2017-07-21T09:55:28Z</time>
      </trkpt>
      <trkpt lat="45.94066" lon="4.80939">
        <ele>233</ele>
        <time>2017-07-21T09:55:29Z</time>
      </trkpt>
      <trkpt lat="45.94064" lon="4.80922">
        <ele>233</ele>
        <time>2017-07-21T09:55:30Z</time>
      </trkpt>
      <trkpt lat="45.94062" lon="4.80906">
        <ele>232</ele>
        <time>2017-07-21T09:55:31Z</time>
      </trkpt>
      <trkpt lat="45.9406" lon="4.80888">
        <ele>231</ele>
        <time>2017-07-21T09:55:32Z</time>
      </trkpt>
      <trkpt lat="45.94059" lon="4.80872">
        <ele>231</ele>
        <time>2017-07-21T09:55:33Z</time>
      </trkpt>
      <trkpt lat="45.94057" lon="4.80856">
        <ele>231</ele>
        <time>2017-07-21T09:55:34Z</time>
      </trkpt>
      <trkpt lat="45.94054" lon="4.8084">
        <ele>231</ele>
        <time>2017-07-21T09:55:35Z</time>
      </trkpt>
      <trkpt lat="45.9405" lon="4.80824">
        <ele>230</ele>
        <time>2017-07-21T09:55:36Z</time>
      </trkpt>
      <trkpt lat="45.94049" lon="4.80808">
        <ele>229</ele>
        <time>2017-07-21T09:55:37Z</time>
      </trkpt>
      <trkpt lat="45.94047" lon="4.80791">
        <ele>229</ele>
        <time>2017-07-21T09:55:38Z</time>
      </trkpt>
      <trkpt lat="45.94044" lon="4.80773">
        <ele>228</ele>
        <time>2017-07-21T09:55:39Z</time>
      </trkpt>
      <trkpt lat="45.94043" lon="4.80754">
        <ele>228</ele>
        <time>2017-07-21T09:55:40Z</time>
      </trkpt>
      <trkpt lat="45.94042" lon="4.80731">
        <ele>227</ele>
        <time>2017-07-21T09:55:41Z</time>
      </trkpt>
      <trkpt lat="45.94039" lon="4.80715">
        <ele>226</ele>
        <time>2017-07-21T09:55:42Z</time>
      </trkpt>
      <trkpt lat="45.94038" lon="4.80699">
        <ele>226</ele>
        <time>2017-07-21T09:55:43Z</time>
      </trkpt>
      <trkpt lat="45.94036" lon="4.80681">
        <ele>226</ele>
        <time>2017-07-21T09:55:44Z</time>
      </trkpt>
      <trkpt lat="45.94032" lon="4.80659">
        <ele>225</ele>
        <time>2017-07-21T09:55:45Z</time>
      </trkpt>
      <trkpt lat="45.94033" lon="4.80645">
        <ele>225</ele>
        <time>2017-07-21T09:55:46Z</time>
      </trkpt>
      <trkpt lat="45.9403" lon="4.8063">
        <ele>225</ele>
        <time>2017-07-21T09:55:47Z</time>
      </trkpt>
      <trkpt lat="45.94029" lon="4.80616">
        <ele>225</ele>
        <time>2017-07-21T09:55:48Z</time>
      </trkpt>
      <trkpt lat="45.94027" lon="4.806">
        <ele>225</ele>
        <time>2017-07-21T09:55:49Z</time>
      </trkpt>
      <trkpt lat="45.94027" lon="4.80583">
        <ele>224</ele>
        <time>2017-07-21T09:55:50Z</time>
      </trkpt>
      <trkpt lat="45.94025" lon="4.80567">
        <ele>225</ele>
        <time>2017-07-21T09:55:51Z</time>
      </trkpt>
      <trkpt lat="45.94023" lon="4.80552">
        <ele>225</ele>
        <time>2017-07-21T09:55:52Z</time>
      </trkpt>
      <trkpt lat="45.94021" lon="4.80535">
        <ele>225</ele>
        <time>2017-07-21T09:55:53Z</time>
      </trkpt>
      <trkpt lat="45.94019" lon="4.80519">
        <ele>224</ele>
        <time>2017-07-21T09:55:54Z</time>
      </trkpt>
      <trkpt lat="45.94018" lon="4.80504">
        <ele>223</ele>
        <time>2017-07-21T09:55:55Z</time>
      </trkpt>
      <trkpt lat="45.94021" lon="4.80491">
        <ele>223</ele>
        <time>2017-07-21T09:55:56Z</time>
      </trkpt>
      <trkpt lat="45.94018" lon="4.80475">
        <ele>223</ele>
        <time>2017-07-21T09:55:57Z</time>
      </trkpt>
      <trkpt lat="45.94019" lon="4.80458">
        <ele>223</ele>
        <time>2017-07-21T09:55:58Z</time>
      </trkpt>
      <trkpt lat="45.94019" lon="4.80443">
        <ele>223</ele>
        <time>2017-07-21T09:55:59Z</time>
      </trkpt>
      <trkpt lat="45.94019" lon="4.80425">
        <ele>221</ele>
        <time>2017-07-21T09:56:00Z</time>
      </trkpt>
      <trkpt lat="45.94019" lon="4.8041">
        <ele>218</ele>
        <time>2017-07-21T09:56:01Z</time>
      </trkpt>
      <trkpt lat="45.94018" lon="4.80398">
        <ele>218</ele>
        <time>2017-07-21T09:56:02Z</time>
      </trkpt>
      <trkpt lat="45.94015" lon="4.80384">
        <ele>217</ele>
        <time>2017-07-21T09:56:03Z</time>
      </trkpt>
      <trkpt lat="45.9401" lon="4.8037">
        <ele>216</ele>
        <time>2017-07-21T09:56:04Z</time>
      </trkpt>
      <trkpt lat="45.94001" lon="4.80355">
        <ele>213</ele>
        <time>2017-07-21T09:56:05Z</time>
      </trkpt>
      <trkpt lat="45.93994" lon="4.80339">
        <ele>206</ele>
        <time>2017-07-21T09:56:06Z</time>
      </trkpt>
      <trkpt lat="45.93989" lon="4.80324">
        <ele>204</ele>
        <time>2017-07-21T09:56:07Z</time>
      </trkpt>
      <trkpt lat="45.93984" lon="4.80308">
        <ele>203</ele>
        <time>2017-07-21T09:56:08Z</time>
      </trkpt>
      <trkpt lat="45.9398" lon="4.80293">
        <ele>203</ele>
        <time>2017-07-21T09:56:09Z</time>
      </trkpt>
      <trkpt lat="45.93977" lon="4.80278">
        <ele>203</ele>
        <time>2017-07-21T09:56:10Z</time>
      </trkpt>
      <trkpt lat="45.93974" lon="4.80263">
        <ele>203</ele>
        <time>2017-07-21T09:56:11Z</time>
      </trkpt>
      <trkpt lat="45.93971" lon="4.80249">
        <ele>204</ele>
        <time>2017-07-21T09:56:12Z</time>
      </trkpt>
      <trkpt lat="45.93967" lon="4.80235">
        <ele>205</ele>
        <time>2017-07-21T09:56:13Z</time>
      </trkpt>
      <trkpt lat="45.93963" lon="4.8022">
        <ele>205</ele>
        <time>2017-07-21T09:56:14Z</time>
      </trkpt>
      <trkpt lat="45.9396" lon="4.80206">
        <ele>205</ele>
        <time>2017-07-21T09:56:15Z</time>
      </trkpt>
      <trkpt lat="45.93957" lon="4.80192">
        <ele>206</ele>
        <time>2017-07-21T09:56:16Z</time>
      </trkpt>
      <trkpt lat="45.93954" lon="4.80179">
        <ele>206</ele>
        <time>2017-07-21T09:56:17Z</time>
      </trkpt>
      <trkpt lat="45.93952" lon="4.80165">
        <ele>209</ele>
        <time>2017-07-21T09:56:18Z</time>
      </trkpt>
      <trkpt lat="45.9395" lon="4.80153">
        <ele>209</ele>
        <time>2017-07-21T09:56:19Z</time>
      </trkpt>
      <trkpt lat="45.93948" lon="4.8014">
        <ele>209</ele>
        <time>2017-07-21T09:56:20Z</time>
      </trkpt>
      <trkpt lat="45.93947" lon="4.80127">
        <ele>209</ele>
        <time>2017-07-21T09:56:21Z</time>
      </trkpt>
      <trkpt lat="45.93946" lon="4.80115">
        <ele>209</ele>
        <time>2017-07-21T09:56:22Z</time>
      </trkpt>
      <trkpt lat="45.93945" lon="4.80104">
        <ele>209</ele>
        <time>2017-07-21T09:56:23Z</time>
      </trkpt>
      <trkpt lat="45.93943" lon="4.80093">
        <ele>208</ele>
        <time>2017-07-21T09:56:24Z</time>
      </trkpt>
      <trkpt lat="45.93943" lon="4.80085">
        <ele>208</ele>
        <time>2017-07-21T09:56:25Z</time>
      </trkpt>
      <trkpt lat="45.93944" lon="4.80076">
        <ele>208</ele>
        <time>2017-07-21T09:56:26Z</time>
      </trkpt>
      <trkpt lat="45.93945" lon="4.80066">
        <ele>208</ele>
        <time>2017-07-21T09:56:27Z</time>
      </trkpt>
      <trkpt lat="45.93944" lon="4.80053">
        <ele>208</ele>
        <time>2017-07-21T09:56:28Z</time>
      </trkpt>
      <trkpt lat="45.93949" lon="4.80043">
        <ele>208</ele>
        <time>2017-07-21T09:56:29Z</time>
      </trkpt>
      <trkpt lat="45.9395" lon="4.80032">
        <ele>207</ele>
        <time>2017-07-21T09:56:30Z</time>
      </trkpt>
      <trkpt lat="45.93949" lon="4.80022">
        <ele>207</ele>
        <time>2017-07-21T09:56:31Z</time>
      </trkpt>
      <trkpt lat="45.93949" lon="4.80012">
        <ele>207</ele>
        <time>2017-07-21T09:56:32Z</time>
      </trkpt>
      <trkpt lat="45.9395" lon="4.80001">
        <ele>207</ele>
        <time>2017-07-21T09:56:33Z</time>
      </trkpt>
      <trkpt lat="45.93951" lon="4.7999">
        <ele>205</ele>
        <time>2017-07-21T09:56:34Z</time>
      </trkpt>
      <trkpt lat="45.93953" lon="4.79979">
        <ele>205</ele>
        <time>2017-07-21T09:56:35Z</time>
      </trkpt>
      <trkpt lat="45.93958" lon="4.79966">
        <ele>206</ele>
        <time>2017-07-21T09:56:36Z</time>
      </trkpt>
      <trkpt lat="45.9396" lon="4.79955">
        <ele>206</ele>
        <time>2017-07-21T09:56:37Z</time>
      </trkpt>
      <trkpt lat="45.93962" lon="4.79944">
        <ele>206</ele>
        <time>2017-07-21T09:56:38Z</time>
      </trkpt>
      <trkpt lat="45.93962" lon="4.79935">
        <ele>206</ele>
        <time>2017-07-21T09:56:39Z</time>
      </trkpt>
      <trkpt lat="45.93963" lon="4.79926">
        <ele>206</ele>
        <time>2017-07-21T09:56:40Z</time>
      </trkpt>
      <trkpt lat="45.93965" lon="4.79916">
        <ele>206</ele>
        <time>2017-07-21T09:56:41Z</time>
      </trkpt>
      <trkpt lat="45.93966" lon="4.79906">
        <ele>206</ele>
        <time>2017-07-21T09:56:42Z</time>
      </trkpt>
      <trkpt lat="45.93967" lon="4.79896">
        <ele>206</ele>
        <time>2017-07-21T09:56:43Z</time>
      </trkpt>
      <trkpt lat="45.93968" lon="4.79885">
        <ele>206</ele>
        <time>2017-07-21T09:56:44Z</time>
      </trkpt>
      <trkpt lat="45.93969" lon="4.79877">
        <ele>206</ele>
        <time>2017-07-21T09:56:45Z</time>
      </trkpt>
      <trkpt lat="45.93971" lon="4.79868">
        <ele>206</ele>
        <time>2017-07-21T09:56:46Z</time>
      </trkpt>
      <trkpt lat="45.93973" lon="4.79859">
        <ele>206</ele>
        <time>2017-07-21T09:56:47Z</time>
      </trkpt>
      <trkpt lat="45.93974" lon="4.7985">
        <ele>207</ele>
        <time>2017-07-21T09:56:48Z</time>
      </trkpt>
      <trkpt lat="45.93975" lon="4.7984">
        <ele>207</ele>
        <time>2017-07-21T09:56:49Z</time>
      </trkpt>
      <trkpt lat="45.93978" lon="4.79829">
        <ele>207</ele>
        <time>2017-07-21T09:56:50Z</time>
      </trkpt>
      <trkpt lat="45.93978" lon="4.7982">
        <ele>207</ele>
        <time>2017-07-21T09:56:51Z</time>
      </trkpt>
      <trkpt lat="45.9398" lon="4.7981">
        <ele>207</ele>
        <time>2017-07-21T09:56:52Z</time>
      </trkpt>
      <trkpt lat="45.93981" lon="4.798">
        <ele>207</ele>
        <time>2017-07-21T09:56:53Z</time>
      </trkpt>
      <trkpt lat="45.93983" lon="4.7979">
        <ele>207</ele>
        <time>2017-07-21T09:56:54Z</time>
      </trkpt>
      <trkpt lat="45.93983" lon="4.79781">
        <ele>207</ele>
        <time>2017-07-21T09:56:55Z</time>
      </trkpt>
      <trkpt lat="45.93983" lon="4.79771">
        <ele>207</ele>
        <time>2017-07-21T09:56:56Z</time>
      </trkpt>
      <trkpt lat="45.93981" lon="4.79763">
        <ele>207</ele>
        <time>2017-07-21T09:56:57Z</time>
      </trkpt>
      <trkpt lat="45.93981" lon="4.79754">
        <ele>207</ele>
        <time>2017-07-21T09:56:58Z</time>
      </trkpt>
      <trkpt lat="45.93979" lon="4.79743">
        <ele>207</ele>
        <time>2017-07-21T09:56:59Z</time>
      </trkpt>
      <trkpt lat="45.93977" lon="4.79732">
        <ele>207</ele>
        <time>2017-07-21T09:57:00Z</time>
      </trkpt>
      <trkpt lat="45.93976" lon="4.79721">
        <ele>207</ele>
        <time>2017-07-21T09:57:01Z</time>
      </trkpt>
      <trkpt lat="45.93975" lon="4.7971">
        <ele>207</ele>
        <time>2017-07-21T09:57:02Z</time>
      </trkpt>
      <trkpt lat="45.93974" lon="4.79699">
        <ele>207</ele>
        <time>2017-07-21T09:57:03Z</time>
      </trkpt>
      <trkpt lat="45.93972" lon="4.79689">
        <ele>207</ele>
        <time>2017-07-21T09:57:04Z</time>
      </trkpt>
      <trkpt lat="45.93974" lon="4.79675">
        <ele>208</ele>
        <time>2017-07-21T09:57:05Z</time>
      </trkpt>
      <trkpt lat="45.93973" lon="4.79664">
        <ele>208</ele>
        <time>2017-07-21T09:57:06Z</time>
      </trkpt>
      <trkpt lat="45.93974" lon="4.79653">
        <ele>208</ele>
        <time>2017-07-21T09:57:07Z</time>
      </trkpt>
      <trkpt lat="45.93974" lon="4.79643">
        <ele>208</ele>
        <time>2017-07-21T09:57:08Z</time>
      </trkpt>
      <trkpt lat="45.93975" lon="4.79632">
        <ele>208</ele>
        <time>2017-07-21T09:57:09Z</time>
      </trkpt>
      <trkpt lat="45.93973" lon="4.7962">
        <ele>208</ele>
        <time>2017-07-21T09:57:10Z</time>
      </trkpt>
      <trkpt lat="45.93974" lon="4.79614">
        <ele>208</ele>
        <time>2017-07-21T09:57:11Z</time>
      </trkpt>
      <trkpt lat="45.9397" lon="4.79603">
        <ele>208</ele>
        <time>2017-07-21T09:57:12Z</time>
      </trkpt>
      <trkpt lat="45.9397" lon="4.79593">
        <ele>208</ele>
        <time>2017-07-21T09:57:13Z</time>
      </trkpt>
      <trkpt lat="45.93967" lon="4.79582">
        <ele>206</ele>
        <time>2017-07-21T09:57:14Z</time>
      </trkpt>
      <trkpt lat="45.93965" lon="4.79571">
        <ele>206</ele>
        <time>2017-07-21T09:57:15Z</time>
      </trkpt>
      <trkpt lat="45.93966" lon="4.79562">
        <ele>206</ele>
        <time>2017-07-21T09:57:16Z</time>
      </trkpt>
      <trkpt lat="45.93966" lon="4.79552">
        <ele>206</ele>
        <time>2017-07-21T09:57:17Z</time>
      </trkpt>
      <trkpt lat="45.93964" lon="4.79541">
        <ele>205</ele>
        <time>2017-07-21T09:57:18Z</time>
      </trkpt>
      <trkpt lat="45.93964" lon="4.7953">
        <ele>205</ele>
        <time>2017-07-21T09:57:19Z</time>
      </trkpt>
      <trkpt lat="45.93963" lon="4.79518">
        <ele>205</ele>
        <time>2017-07-21T09:57:20Z</time>
      </trkpt>
      <trkpt lat="45.93963" lon="4.79507">
        <ele>205</ele>
        <time>2017-07-21T09:57:21Z</time>
      </trkpt>
      <trkpt lat="45.93962" lon="4.79496">
        <ele>204</ele>
        <time>2017-07-21T09:57:22Z</time>
      </trkpt>
      <trkpt lat="45.93961" lon="4.79484">
        <ele>203</ele>
        <time>2017-07-21T09:57:23Z</time>
      </trkpt>
      <trkpt lat="45.93961" lon="4.79473">
        <ele>203</ele>
        <time>2017-07-21T09:57:24Z</time>
      </trkpt>
      <trkpt lat="45.93959" lon="4.79461">
        <ele>203</ele>
        <time>2017-07-21T09:57:25Z</time>
      </trkpt>
      <trkpt lat="45.93959" lon="4.7945">
        <ele>203</ele>
        <time>2017-07-21T09:57:26Z</time>
      </trkpt>
      <trkpt lat="45.9396" lon="4.7944">
        <ele>203</ele>
        <time>2017-07-21T09:57:27Z</time>
      </trkpt>
      <trkpt lat="45.9396" lon="4.79429">
        <ele>203</ele>
        <time>2017-07-21T09:57:28Z</time>
      </trkpt>
      <trkpt lat="45.9396" lon="4.79418">
        <ele>203</ele>
        <time>2017-07-21T09:57:29Z</time>
      </trkpt>
      <trkpt lat="45.9396" lon="4.79408">
        <ele>202</ele>
        <time>2017-07-21T09:57:30Z</time>
      </trkpt>
      <trkpt lat="45.93959" lon="4.79397">
        <ele>202</ele>
        <time>2017-07-21T09:57:31Z</time>
      </trkpt>
      <trkpt lat="45.93959" lon="4.79384">
        <ele>201</ele>
        <time>2017-07-21T09:57:32Z</time>
      </trkpt>
      <trkpt lat="45.93959" lon="4.79373">
        <ele>201</ele>
        <time>2017-07-21T09:57:33Z</time>
      </trkpt>
      <trkpt lat="45.93958" lon="4.79361">
        <ele>201</ele>
        <time>2017-07-21T09:57:34Z</time>
      </trkpt>
      <trkpt lat="45.93957" lon="4.79349">
        <ele>201</ele>
        <time>2017-07-21T09:57:35Z</time>
      </trkpt>
      <trkpt lat="45.93957" lon="4.79337">
        <ele>201</ele>
        <time>2017-07-21T09:57:36Z</time>
      </trkpt>
      <trkpt lat="45.93956" lon="4.79327">
        <ele>199</ele>
        <time>2017-07-21T09:57:37Z</time>
      </trkpt>
      <trkpt lat="45.93956" lon="4.79316">
        <ele>199</ele>
        <time>2017-07-21T09:57:38Z</time>
      </trkpt>
      <trkpt lat="45.93955" lon="4.79305">
        <ele>199</ele>
        <time>2017-07-21T09:57:39Z</time>
      </trkpt>
      <trkpt lat="45.93953" lon="4.79294">
        <ele>198</ele>
        <time>2017-07-21T09:57:40Z</time>
      </trkpt>
      <trkpt lat="45.93953" lon="4.79284">
        <ele>198</ele>
        <time>2017-07-21T09:57:41Z</time>
      </trkpt>
      <trkpt lat="45.93952" lon="4.79274">
        <ele>198</ele>
        <time>2017-07-21T09:57:42Z</time>
      </trkpt>
      <trkpt lat="45.93951" lon="4.79265">
        <ele>198</ele>
        <time>2017-07-21T09:57:43Z</time>
      </trkpt>
      <trkpt lat="45.93951" lon="4.79255">
        <ele>198</ele>
        <time>2017-07-21T09:57:44Z</time>
      </trkpt>
      <trkpt lat="45.93952" lon="4.79245">
        <ele>197</ele>
        <time>2017-07-21T09:57:45Z</time>
      </trkpt>
      <trkpt lat="45.93952" lon="4.79233">
        <ele>197</ele>
        <time>2017-07-21T09:57:46Z</time>
      </trkpt>
      <trkpt lat="45.93953" lon="4.79223">
        <ele>197</ele>
        <time>2017-07-21T09:57:47Z</time>
      </trkpt>
      <trkpt lat="45.93952" lon="4.79213">
        <ele>197</ele>
        <time>2017-07-21T09:57:48Z</time>
      </trkpt>
      <trkpt lat="45.93952" lon="4.79201">
        <ele>197</ele>
        <time>2017-07-21T09:57:49Z</time>
      </trkpt>
      <trkpt lat="45.93952" lon="4.79189">
        <ele>197</ele>
        <time>2017-07-21T09:57:50Z</time>
      </trkpt>
      <trkpt lat="45.93951" lon="4.79177">
        <ele>197</ele>
        <time>2017-07-21T09:57:51Z</time>
      </trkpt>
      <trkpt lat="45.93951" lon="4.79165">
        <ele>197</ele>
        <time>2017-07-21T09:57:52Z</time>
      </trkpt>
      <trkpt lat="45.93951" lon="4.79153">
        <ele>197</ele>
        <time>2017-07-21T09:57:53Z</time>
      </trkpt>
      <trkpt lat="45.93952" lon="4.79141">
        <ele>197</ele>
        <time>2017-07-21T09:57:54Z</time>
      </trkpt>
      <trkpt lat="45.93952" lon="4.7913">
        <ele>197</ele>
        <time>2017-07-21T09:57:55Z</time>
      </trkpt>
      <trkpt lat="45.93951" lon="4.79118">
        <ele>197</ele>
        <time>2017-07-21T09:57:56Z</time>
      </trkpt>
      <trkpt lat="45.9395" lon="4.79108">
        <ele>197</ele>
        <time>2017-07-21T09:57:57Z</time>
      </trkpt>
      <trkpt lat="45.93948" lon="4.79096">
        <ele>196</ele>
        <time>2017-07-21T09:57:58Z</time>
      </trkpt>
      <trkpt lat="45.93948" lon="4.79085">
        <ele>196</ele>
        <time>2017-07-21T09:57:59Z</time>
      </trkpt>
      <trkpt lat="45.93948" lon="4.79073">
        <ele>196</ele>
        <time>2017-07-21T09:58:00Z</time>
      </trkpt>
      <trkpt lat="45.93949" lon="4.7906">
        <ele>196</ele>
        <time>2017-07-21T09:58:01Z</time>
      </trkpt>
      <trkpt lat="45.93948" lon="4.79047">
        <ele>196</ele>
        <time>2017-07-21T09:58:02Z</time>
      </trkpt>
      <trkpt lat="45.93948" lon="4.79035">
        <ele>196</ele>
        <time>2017-07-21T09:58:03Z</time>
      </trkpt>
      <trkpt lat="45.93949" lon="4.79021">
        <ele>195</ele>
        <time>2017-07-21T09:58:04Z</time>
      </trkpt>
      <trkpt lat="45.93949" lon="4.79009">
        <ele>195</ele>
        <time>2017-07-21T09:58:05Z</time>
      </trkpt>
      <trkpt lat="45.9395" lon="4.78996">
        <ele>194</ele>
        <time>2017-07-21T09:58:06Z</time>
      </trkpt>
      <trkpt lat="45.93951" lon="4.78984">
        <ele>194</ele>
        <time>2017-07-21T09:58:07Z</time>
      </trkpt>
      <trkpt lat="45.93951" lon="4.78972">
        <ele>194</ele>
        <time>2017-07-21T09:58:08Z</time>
      </trkpt>
      <trkpt lat="45.9395" lon="4.78961">
        <ele>194</ele>
        <time>2017-07-21T09:58:09Z</time>
      </trkpt>
      <trkpt lat="45.9395" lon="4.78949">
        <ele>194</ele>
        <time>2017-07-21T09:58:10Z</time>
      </trkpt>
      <trkpt lat="45.9395" lon="4.78937">
        <ele>194</ele>
        <time>2017-07-21T09:58:11Z</time>
      </trkpt>
      <trkpt lat="45.93949" lon="4.78925">
        <ele>194</ele>
        <time>2017-07-21T09:58:12Z</time>
      </trkpt>
      <trkpt lat="45.93949" lon="4.78913">
        <ele>194</ele>
        <time>2017-07-21T09:58:13Z</time>
      </trkpt>
      <trkpt lat="45.93947" lon="4.789">
        <ele>194</ele>
        <time>2017-07-21T09:58:14Z</time>
      </trkpt>
      <trkpt lat="45.93947" lon="4.78888">
        <ele>194</ele>
        <time>2017-07-21T09:58:15Z</time>
      </trkpt>
      <trkpt lat="45.93947" lon="4.78875">
        <ele>194</ele>
        <time>2017-07-21T09:58:16Z</time>
      </trkpt>
      <trkpt lat="45.93946" lon="4.78865">
        <ele>194</ele>
        <time>2017-07-21T09:58:17Z</time>
      </trkpt>
      <trkpt lat="45.93945" lon="4.78856">
        <ele>194</ele>
        <time>2017-07-21T09:58:18Z</time>
      </trkpt>
      <trkpt lat="45.93944" lon="4.78846">
        <ele>194</ele>
        <time>2017-07-21T09:58:19Z</time>
      </trkpt>
      <trkpt lat="45.93944" lon="4.78834">
        <ele>194</ele>
        <time>2017-07-21T09:58:20Z</time>
      </trkpt>
      <trkpt lat="45.93943" lon="4.78823">
        <ele>194</ele>
        <time>2017-07-21T09:58:21Z</time>
      </trkpt>
      <trkpt lat="45.93942" lon="4.78813">
        <ele>194</ele>
        <time>2017-07-21T09:58:22Z</time>
      </trkpt>
      <trkpt lat="45.93943" lon="4.78803">
        <ele>194</ele>
        <time>2017-07-21T09:58:23Z</time>
      </trkpt>
      <trkpt lat="45.93944" lon="4.78795">
        <ele>194</ele>
        <time>2017-07-21T09:58:24Z</time>
      </trkpt>
      <trkpt lat="45.93945" lon="4.78786">
        <ele>194</ele>
        <time>2017-07-21T09:58:25Z</time>
      </trkpt>
      <trkpt lat="45.93943" lon="4.78776">
        <ele>194</ele>
        <time>2017-07-21T09:58:26Z</time>
      </trkpt>
      <trkpt lat="45.93943" lon="4.78765">
        <ele>194</ele>
        <time>2017-07-21T09:58:27Z</time>
      </trkpt>
      <trkpt lat="45.93943" lon="4.78755">
        <ele>194</ele>
        <time>2017-07-21T09:58:28Z</time>
      </trkpt>
      <trkpt lat="45.93944" lon="4.78744">
        <ele>194</ele>
        <time>2017-07-21T09:58:29Z</time>
      </trkpt>
      <trkpt lat="45.9395" lon="4.78738">
        <ele>194</ele>
        <time>2017-07-21T09:58:30Z</time>
      </trkpt>
      <trkpt lat="45.93949" lon="4.78729">
        <ele>194</ele>
        <time>2017-07-21T09:58:31Z</time>
      </trkpt>
      <trkpt lat="45.93951" lon="4.78719">
        <ele>195</ele>
        <time>2017-07-21T09:58:32Z</time>
      </trkpt>
      <trkpt lat="45.93942" lon="4.78706">
        <ele>194</ele>
        <time>2017-07-21T09:58:33Z</time>
      </trkpt>
      <trkpt lat="45.93942" lon="4.78697">
        <ele>194</ele>
        <time>2017-07-21T09:58:34Z</time>
      </trkpt>
      <trkpt lat="45.93942" lon="4.78687">
        <ele>194</ele>
        <time>2017-07-21T09:58:35Z</time>
      </trkpt>
      <trkpt lat="45.93941" lon="4.78677">
        <ele>194</ele>
        <time>2017-07-21T09:58:36Z</time>
      </trkpt>
      <trkpt lat="45.93941" lon="4.78668">
        <ele>194</ele>
        <time>2017-07-21T09:58:37Z</time>
      </trkpt>
      <trkpt lat="45.93941" lon="4.78659">
        <ele>194</ele>
        <time>2017-07-21T09:58:38Z</time>
      </trkpt>
      <trkpt lat="45.93938" lon="4.78648">
        <ele>195</ele>
        <time>2017-07-21T09:58:39Z</time>
      </trkpt>
      <trkpt lat="45.93938" lon="4.78639">
        <ele>195</ele>
        <time>2017-07-21T09:58:40Z</time>
      </trkpt>
      <trkpt lat="45.93937" lon="4.78629">
        <ele>195</ele>
        <time>2017-07-21T09:58:41Z</time>
      </trkpt>
      <trkpt lat="45.93937" lon="4.7862">
        <ele>196</ele>
        <time>2017-07-21T09:58:42Z</time>
      </trkpt>
      <trkpt lat="45.93937" lon="4.78611">
        <ele>196</ele>
        <time>2017-07-21T09:58:43Z</time>
      </trkpt>
      <trkpt lat="45.93937" lon="4.78603">
        <ele>196</ele>
        <time>2017-07-21T09:58:44Z</time>
      </trkpt>
      <trkpt lat="45.93938" lon="4.78595">
        <ele>196</ele>
        <time>2017-07-21T09:58:45Z</time>
      </trkpt>
      <trkpt lat="45.93939" lon="4.78587">
        <ele>195</ele>
        <time>2017-07-21T09:58:46Z</time>
      </trkpt>
      <trkpt lat="45.9394" lon="4.7858">
        <ele>196</ele>
        <time>2017-07-21T09:58:47Z</time>
      </trkpt>
      <trkpt lat="45.93938" lon="4.78569">
        <ele>197</ele>
        <time>2017-07-21T09:58:49Z</time>
      </trkpt>
      <trkpt lat="45.93937" lon="4.78566">
        <ele>197</ele>
        <time>2017-07-21T09:58:50Z</time>
      </trkpt>
      <trkpt lat="45.93935" lon="4.78556">
        <ele>197</ele>
        <time>2017-07-21T09:58:55Z</time>
      </trkpt>
      <trkpt lat="45.93936" lon="4.78553">
        <ele>197</ele>
        <time>2017-07-21T09:58:56Z</time>
      </trkpt>
      <trkpt lat="45.93941" lon="4.78544">
        <ele>197</ele>
        <time>2017-07-21T09:58:59Z</time>
      </trkpt>
      <trkpt lat="45.93942" lon="4.78539">
        <ele>197</ele>
        <time>2017-07-21T09:59:00Z</time>
      </trkpt>
      <trkpt lat="45.93942" lon="4.78526">
        <ele>197</ele>
        <time>2017-07-21T09:59:02Z</time>
      </trkpt>
      <trkpt lat="45.93942" lon="4.78519">
        <ele>197</ele>
        <time>2017-07-21T09:59:03Z</time>
      </trkpt>
      <trkpt lat="45.93944" lon="4.78508">
        <ele>197</ele>
        <time>2017-07-21T09:59:05Z</time>
      </trkpt>
      <trkpt lat="45.93944" lon="4.78502">
        <ele>197</ele>
        <time>2017-07-21T09:59:06Z</time>
      </trkpt>
      <trkpt lat="45.93943" lon="4.78491">
        <ele>197</ele>
        <time>2017-07-21T09:59:08Z</time>
      </trkpt>
      <trkpt lat="45.93944" lon="4.78486">
        <ele>197</ele>
        <time>2017-07-21T09:59:09Z</time>
      </trkpt>
      <trkpt lat="45.93944" lon="4.7848">
        <ele>197</ele>
        <time>2017-07-21T09:59:10Z</time>
      </trkpt>
      <trkpt lat="45.93945" lon="4.78473">
        <ele>197</ele>
        <time>2017-07-21T09:59:11Z</time>
      </trkpt>
      <trkpt lat="45.93947" lon="4.78466">
        <ele>197</ele>
        <time>2017-07-21T09:59:12Z</time>
      </trkpt>
      <trkpt lat="45.93948" lon="4.78458">
        <ele>197</ele>
        <time>2017-07-21T09:59:13Z</time>
      </trkpt>
      <trkpt lat="45.93949" lon="4.7845">
        <ele>197</ele>
        <time>2017-07-21T09:59:14Z</time>
      </trkpt>
      <trkpt lat="45.9395" lon="4.78442">
        <ele>197</ele>
        <time>2017-07-21T09:59:15Z</time>
      </trkpt>
      <trkpt lat="45.9395" lon="4.78433">
        <ele>197</ele>
        <time>2017-07-21T09:59:16Z</time>
      </trkpt>
      <trkpt lat="45.9395" lon="4.78426">
        <ele>197</ele>
        <time>2017-07-21T09:59:17Z</time>
      </trkpt>
      <trkpt lat="45.9395" lon="4.78419">
        <ele>197</ele>
        <time>2017-07-21T09:59:18Z</time>
      </trkpt>
      <trkpt lat="45.9395" lon="4.78411">
        <ele>196</ele>
        <time>2017-07-21T09:59:19Z</time>
      </trkpt>
      <trkpt lat="45.93953" lon="4.78404">
        <ele>196</ele>
        <time>2017-07-21T09:59:20Z</time>
      </trkpt>
      <trkpt lat="45.93953" lon="4.78395">
        <ele>196</ele>
        <time>2017-07-21T09:59:21Z</time>
      </trkpt>
      <trkpt lat="45.93954" lon="4.78387">
        <ele>196</ele>
        <time>2017-07-21T09:59:22Z</time>
      </trkpt>
      <trkpt lat="45.93954" lon="4.78379">
        <ele>196</ele>
        <time>2017-07-21T09:59:23Z</time>
      </trkpt>
      <trkpt lat="45.93955" lon="4.78372">
        <ele>196</ele>
        <time>2017-07-21T09:59:24Z</time>
      </trkpt>
      <trkpt lat="45.93956" lon="4.78364">
        <ele>196</ele>
        <time>2017-07-21T09:59:25Z</time>
      </trkpt>
      <trkpt lat="45.93958" lon="4.78358">
        <ele>196</ele>
        <time>2017-07-21T09:59:26Z</time>
      </trkpt>
      <trkpt lat="45.93959" lon="4.7835">
        <ele>196</ele>
        <time>2017-07-21T09:59:27Z</time>
      </trkpt>
      <trkpt lat="45.9396" lon="4.78343">
        <ele>196</ele>
        <time>2017-07-21T09:59:28Z</time>
      </trkpt>
      <trkpt lat="45.93962" lon="4.78336">
        <ele>196</ele>
        <time>2017-07-21T09:59:29Z</time>
      </trkpt>
      <trkpt lat="45.93963" lon="4.7833">
        <ele>196</ele>
        <time>2017-07-21T09:59:30Z</time>
      </trkpt>
      <trkpt lat="45.93964" lon="4.78323">
        <ele>196</ele>
        <time>2017-07-21T09:59:31Z</time>
      </trkpt>
      <trkpt lat="45.93965" lon="4.78317">
        <ele>196</ele>
        <time>2017-07-21T09:59:32Z</time>
      </trkpt>
      <trkpt lat="45.93966" lon="4.7831">
        <ele>196</ele>
        <time>2017-07-21T09:59:33Z</time>
      </trkpt>
      <trkpt lat="45.93967" lon="4.78304">
        <ele>196</ele>
        <time>2017-07-21T09:59:34Z</time>
      </trkpt>
      <trkpt lat="45.93968" lon="4.78296">
        <ele>196</ele>
        <time>2017-07-21T09:59:35Z</time>
      </trkpt>
      <trkpt lat="45.93968" lon="4.78285">
        <ele>196</ele>
        <time>2017-07-21T09:59:37Z</time>
      </trkpt>
      <trkpt lat="45.93968" lon="4.78279">
        <ele>196</ele>
        <time>2017-07-21T09:59:38Z</time>
      </trkpt>
      <trkpt lat="45.93969" lon="4.78271">
        <ele>196</ele>
        <time>2017-07-21T09:59:39Z</time>
      </trkpt>
      <trkpt lat="45.9397" lon="4.78264">
        <ele>196</ele>
        <time>2017-07-21T09:59:40Z</time>
      </trkpt>
      <trkpt lat="45.93971" lon="4.78257">
        <ele>196</ele>
        <time>2017-07-21T09:59:41Z</time>
      </trkpt>
      <trkpt lat="45.93971" lon="4.78248">
        <ele>196</ele>
        <time>2017-07-21T09:59:42Z</time>
      </trkpt>
      <trkpt lat="45.93972" lon="4.78239">
        <ele>196</ele>
        <time>2017-07-21T09:59:43Z</time>
      </trkpt>
      <trkpt lat="45.93972" lon="4.78231">
        <ele>196</ele>
        <time>2017-07-21T09:59:44Z</time>
      </trkpt>
      <trkpt lat="45.93973" lon="4.78223">
        <ele>196</ele>
        <time>2017-07-21T09:59:45Z</time>
      </trkpt>
      <trkpt lat="45.93973" lon="4.78215">
        <ele>196</ele>
        <time>2017-07-21T09:59:46Z</time>
      </trkpt>
      <trkpt lat="45.93975" lon="4.78209">
        <ele>197</ele>
        <time>2017-07-21T09:59:47Z</time>
      </trkpt>
      <trkpt lat="45.93976" lon="4.78201">
        <ele>197</ele>
        <time>2017-07-21T09:59:48Z</time>
      </trkpt>
      <trkpt lat="45.93977" lon="4.78193">
        <ele>197</ele>
        <time>2017-07-21T09:59:49Z</time>
      </trkpt>
      <trkpt lat="45.93978" lon="4.78185">
        <ele>197</ele>
        <time>2017-07-21T09:59:50Z</time>
      </trkpt>
      <trkpt lat="45.9398" lon="4.78178">
        <ele>198</ele>
        <time>2017-07-21T09:59:51Z</time>
      </trkpt>
      <trkpt lat="45.93982" lon="4.78173">
        <ele>198</ele>
        <time>2017-07-21T09:59:52Z</time>
      </trkpt>
      <trkpt lat="45.93986" lon="4.78164">
        <ele>199</ele>
        <time>2017-07-21T09:59:55Z</time>
      </trkpt>
      <trkpt lat="45.93987" lon="4.78162">
        <ele>199</ele>
        <time>2017-07-21T09:59:56Z</time>
      </trkpt>
      <trkpt lat="45.93988" lon="4.78152">
        <ele>198</ele>
        <time>2017-07-21T10:00:00Z</time>
      </trkpt>
      <trkpt lat="45.93988" lon="4.78148">
        <ele>198</ele>
        <time>2017-07-21T10:00:01Z</time>
      </trkpt>
      <trkpt lat="45.93989" lon="4.78138">
        <ele>198</ele>
        <time>2017-07-21T10:00:03Z</time>
      </trkpt>
      <trkpt lat="45.9399" lon="4.78133">
        <ele>197</ele>
        <time>2017-07-21T10:00:04Z</time>
      </trkpt>
      <trkpt lat="45.93993" lon="4.78122">
        <ele>197</ele>
        <time>2017-07-21T10:00:06Z</time>
      </trkpt>
      <trkpt lat="45.93994" lon="4.78116">
        <ele>197</ele>
        <time>2017-07-21T10:00:07Z</time>
      </trkpt>
      <trkpt lat="45.93996" lon="4.78105">
        <ele>197</ele>
        <time>2017-07-21T10:00:09Z</time>
      </trkpt>
      <trkpt lat="45.94" lon="4.781">
        <ele>202</ele>
        <time>2017-07-21T10:00:10Z</time>
      </trkpt>
      <trkpt lat="45.94002" lon="4.78088">
        <ele>200</ele>
        <time>2017-07-21T10:00:12Z</time>
      </trkpt>
      <trkpt lat="45.94003" lon="4.78082">
        <ele>200</ele>
        <time>2017-07-21T10:00:13Z</time>
      </trkpt>
      <trkpt lat="45.94005" lon="4.7807">
        <ele>201</ele>
        <time>2017-07-21T10:00:15Z</time>
      </trkpt>
      <trkpt lat="45.94005" lon="4.78063">
        <ele>201</ele>
        <time>2017-07-21T10:00:16Z</time>
      </trkpt>
      <trkpt lat="45.94008" lon="4.78052">
        <ele>201</ele>
        <time>2017-07-21T10:00:18Z</time>
      </trkpt>
      <trkpt lat="45.9401" lon="4.78047">
        <ele>201</ele>
        <time>2017-07-21T10:00:19Z</time>
      </trkpt>
      <trkpt lat="45.94012" lon="4.78035">
        <ele>201</ele>
        <time>2017-07-21T10:00:21Z</time>
      </trkpt>
      <trkpt lat="45.94012" lon="4.78029">
        <ele>201</ele>
        <time>2017-07-21T10:00:22Z</time>
      </trkpt>
      <trkpt lat="45.94013" lon="4.78022">
        <ele>200</ele>
        <time>2017-07-21T10:00:23Z</time>
      </trkpt>
      <trkpt lat="45.94014" lon="4.78014">
        <ele>200</ele>
        <time>2017-07-21T10:00:24Z</time>
      </trkpt>
      <trkpt lat="45.94017" lon="4.78006">
        <ele>200</ele>
        <time>2017-07-21T10:00:25Z</time>
      </trkpt>
      <trkpt lat="45.94018" lon="4.77997">
        <ele>199</ele>
        <time>2017-07-21T10:00:26Z</time>
      </trkpt>
      <trkpt lat="45.9402" lon="4.77988">
        <ele>199</ele>
        <time>2017-07-21T10:00:27Z</time>
      </trkpt>
      <trkpt lat="45.9402" lon="4.77979">
        <ele>200</ele>
        <time>2017-07-21T10:00:28Z</time>
      </trkpt>
      <trkpt lat="45.94021" lon="4.7797">
        <ele>200</ele>
        <time>2017-07-21T10:00:29Z</time>
      </trkpt>
      <trkpt lat="45.94022" lon="4.77962">
        <ele>200</ele>
        <time>2017-07-21T10:00:30Z</time>
      </trkpt>
      <trkpt lat="45.94023" lon="4.77954">
        <ele>200</ele>
        <time>2017-07-21T10:00:31Z</time>
      </trkpt>
      <trkpt lat="45.94022" lon="4.77941">
        <ele>200</ele>
        <time>2017-07-21T10:00:32Z</time>
      </trkpt>
      <trkpt lat="45.94022" lon="4.77928">
        <ele>199</ele>
        <time>2017-07-21T10:00:33Z</time>
      </trkpt>
      <trkpt lat="45.94023" lon="4.77922">
        <ele>199</ele>
        <time>2017-07-21T10:00:34Z</time>
      </trkpt>
      <trkpt lat="45.94021" lon="4.77917">
        <ele>198</ele>
        <time>2017-07-21T10:00:35Z</time>
      </trkpt>
      <trkpt lat="45.94015" lon="4.77913">
        <ele>197</ele>
        <time>2017-07-21T10:00:36Z</time>
      </trkpt>
      <trkpt lat="45.94008" lon="4.7791">
        <ele>196</ele>
        <time>2017-07-21T10:00:39Z</time>
      </trkpt>
      <trkpt lat="45.94006" lon="4.77909">
        <ele>196</ele>
        <time>2017-07-21T10:00:40Z</time>
      </trkpt>
      <trkpt lat="45.94001" lon="4.77904">
        <ele>196</ele>
        <time>2017-07-21T10:00:42Z</time>
      </trkpt>
      <trkpt lat="45.93998" lon="4.77903">
        <ele>192</ele>
        <time>2017-07-21T10:00:43Z</time>
      </trkpt>
      <trkpt lat="45.93994" lon="4.77904">
        <ele>192</ele>
        <time>2017-07-21T10:00:44Z</time>
      </trkpt>
      <trkpt lat="45.93987" lon="4.77912">
        <ele>191</ele>
        <time>2017-07-21T10:00:45Z</time>
      </trkpt>
      <trkpt lat="45.93976" lon="4.77923">
        <ele>191</ele>
        <time>2017-07-21T10:00:46Z</time>
      </trkpt>
      <trkpt lat="45.93961" lon="4.77936">
        <ele>190</ele>
        <time>2017-07-21T10:00:47Z</time>
      </trkpt>
      <trkpt lat="45.93943" lon="4.77943">
        <ele>189</ele>
        <time>2017-07-21T10:00:48Z</time>
      </trkpt>
      <trkpt lat="45.93928" lon="4.7795">
        <ele>188</ele>
        <time>2017-07-21T10:00:49Z</time>
      </trkpt>
      <trkpt lat="45.93915" lon="4.77957">
        <ele>181</ele>
        <time>2017-07-21T10:00:50Z</time>
      </trkpt>
      <trkpt lat="45.93908" lon="4.77965">
        <ele>181</ele>
        <time>2017-07-21T10:00:51Z</time>
      </trkpt>
      <trkpt lat="45.93895" lon="4.77975">
        <ele>181</ele>
        <time>2017-07-21T10:00:52Z</time>
      </trkpt>
      <trkpt lat="45.93887" lon="4.77984">
        <ele>181</ele>
        <time>2017-07-21T10:00:53Z</time>
      </trkpt>
      <trkpt lat="45.93881" lon="4.7799">
        <ele>180</ele>
        <time>2017-07-21T10:00:54Z</time>
      </trkpt>
      <trkpt lat="45.93884" lon="4.78007">
        <ele>184</ele>
        <time>2017-07-21T10:00:55Z</time>
      </trkpt>
      <trkpt lat="45.93878" lon="4.78008">
        <ele>183</ele>
        <time>2017-07-21T10:00:56Z</time>
      </trkpt>
      <trkpt lat="45.93872" lon="4.78007">
        <ele>183</ele>
        <time>2017-07-21T10:00:57Z</time>
      </trkpt>
      <trkpt lat="45.93866" lon="4.78003">
        <ele>183</ele>
        <time>2017-07-21T10:00:58Z</time>
      </trkpt>
      <trkpt lat="45.93854" lon="4.77994">
        <ele>179</ele>
        <time>2017-07-21T10:01:00Z</time>
      </trkpt>
      <trkpt lat="45.93848" lon="4.77989">
        <ele>179</ele>
        <time>2017-07-21T10:01:01Z</time>
      </trkpt>
      <trkpt lat="45.93842" lon="4.77986">
        <ele>179</ele>
        <time>2017-07-21T10:01:02Z</time>
      </trkpt>
      <trkpt lat="45.93837" lon="4.77981">
        <ele>178</ele>
        <time>2017-07-21T10:01:03Z</time>
      </trkpt>
      <trkpt lat="45.93832" lon="4.77975">
        <ele>173</ele>
        <time>2017-07-21T10:01:04Z</time>
      </trkpt>
      <trkpt lat="45.93829" lon="4.77971">
        <ele>172</ele>
        <time>2017-07-21T10:01:05Z</time>
      </trkpt>
      <trkpt lat="45.93825" lon="4.77966">
        <ele>171</ele>
        <time>2017-07-21T10:01:06Z</time>
      </trkpt>
      <trkpt lat="45.93822" lon="4.77962">
        <ele>171</ele>
        <time>2017-07-21T10:01:07Z</time>
      </trkpt>
      <trkpt lat="45.93818" lon="4.77956">
        <ele>170</ele>
        <time>2017-07-21T10:01:08Z</time>
      </trkpt>
      <trkpt lat="45.93815" lon="4.7795">
        <ele>169</ele>
        <time>2017-07-21T10:01:09Z</time>
      </trkpt>
      <trkpt lat="45.93812" lon="4.77946">
        <ele>169</ele>
        <time>2017-07-21T10:01:10Z</time>
      </trkpt>
      <trkpt lat="45.93809" lon="4.77941">
        <ele>169</ele>
        <time>2017-07-21T10:01:11Z</time>
      </trkpt>
      <trkpt lat="45.93805" lon="4.77935">
        <ele>169</ele>
        <time>2017-07-21T10:01:12Z</time>
      </trkpt>
      <trkpt lat="45.93801" lon="4.7793">
        <ele>168</ele>
        <time>2017-07-21T10:01:13Z</time>
      </trkpt>
      <trkpt lat="45.93797" lon="4.77925">
        <ele>168</ele>
        <time>2017-07-21T10:01:14Z</time>
      </trkpt>
      <trkpt lat="45.93793" lon="4.77921">
        <ele>168</ele>
        <time>2017-07-21T10:01:15Z</time>
      </trkpt>
      <trkpt lat="45.9379" lon="4.77916">
        <ele>166</ele>
        <time>2017-07-21T10:01:16Z</time>
      </trkpt>
      <trkpt lat="45.93784" lon="4.7791">
        <ele>166</ele>
        <time>2017-07-21T10:01:18Z</time>
      </trkpt>
      <trkpt lat="45.93781" lon="4.77906">
        <ele>166</ele>
        <time>2017-07-21T10:01:19Z</time>
      </trkpt>
      <trkpt lat="45.93775" lon="4.77897">
        <ele>166</ele>
        <time>2017-07-21T10:01:21Z</time>
      </trkpt>
      <trkpt lat="45.93771" lon="4.77893">
        <ele>166</ele>
        <time>2017-07-21T10:01:22Z</time>
      </trkpt>
      <trkpt lat="45.93768" lon="4.77888">
        <ele>166</ele>
        <time>2017-07-21T10:01:23Z</time>
      </trkpt>
      <trkpt lat="45.93765" lon="4.77883">
        <ele>166</ele>
        <time>2017-07-21T10:01:24Z</time>
      </trkpt>
      <trkpt lat="45.93761" lon="4.77878">
        <ele>166</ele>
        <time>2017-07-21T10:01:25Z</time>
      </trkpt>
      <trkpt lat="45.93757" lon="4.77873">
        <ele>166</ele>
        <time>2017-07-21T10:01:26Z</time>
      </trkpt>
      <trkpt lat="45.93753" lon="4.77868">
        <ele>166</ele>
        <time>2017-07-21T10:01:27Z</time>
      </trkpt>
      <trkpt lat="45.93749" lon="4.77864">
        <ele>167</ele>
        <time>2017-07-21T10:01:28Z</time>
      </trkpt>
      <trkpt lat="45.93744" lon="4.77859">
        <ele>167</ele>
        <time>2017-07-21T10:01:29Z</time>
      </trkpt>
      <trkpt lat="45.93741" lon="4.77854">
        <ele>167</ele>
        <time>2017-07-21T10:01:30Z</time>
      </trkpt>
      <trkpt lat="45.93737" lon="4.77849">
        <ele>167</ele>
        <time>2017-07-21T10:01:31Z</time>
      </trkpt>
      <trkpt lat="45.93733" lon="4.77844">
        <ele>167</ele>
        <time>2017-07-21T10:01:32Z</time>
      </trkpt>
      <trkpt lat="45.93729" lon="4.77838">
        <ele>167</ele>
        <time>2017-07-21T10:01:33Z</time>
      </trkpt>
      <trkpt lat="45.93725" lon="4.77833">
        <ele>168</ele>
        <time>2017-07-21T10:01:34Z</time>
      </trkpt>
      <trkpt lat="45.93721" lon="4.77828">
        <ele>168</ele>
        <time>2017-07-21T10:01:35Z</time>
      </trkpt>
      <trkpt lat="45.93716" lon="4.77822">
        <ele>169</ele>
        <time>2017-07-21T10:01:36Z</time>
      </trkpt>
      <trkpt lat="45.93713" lon="4.77816">
        <ele>169</ele>
        <time>2017-07-21T10:01:37Z</time>
      </trkpt>
      <trkpt lat="45.9371" lon="4.7781">
        <ele>169</ele>
        <time>2017-07-21T10:01:38Z</time>
      </trkpt>
      <trkpt lat="45.93706" lon="4.77804">
        <ele>169</ele>
        <time>2017-07-21T10:01:39Z</time>
      </trkpt>
      <trkpt lat="45.93702" lon="4.77798">
        <ele>169</ele>
        <time>2017-07-21T10:01:40Z</time>
      </trkpt>
      <trkpt lat="45.93698" lon="4.77793">
        <ele>169</ele>
        <time>2017-07-21T10:01:41Z</time>
      </trkpt>
      <trkpt lat="45.93693" lon="4.77787">
        <ele>170</ele>
        <time>2017-07-21T10:01:42Z</time>
      </trkpt>
      <trkpt lat="45.93688" lon="4.7778">
        <ele>170</ele>
        <time>2017-07-21T10:01:43Z</time>
      </trkpt>
      <trkpt lat="45.93683" lon="4.77774">
        <ele>170</ele>
        <time>2017-07-21T10:01:44Z</time>
      </trkpt>
      <trkpt lat="45.93678" lon="4.77766">
        <ele>170</ele>
        <time>2017-07-21T10:01:45Z</time>
      </trkpt>
      <trkpt lat="45.93673" lon="4.77759">
        <ele>170</ele>
        <time>2017-07-21T10:01:46Z</time>
      </trkpt>
      <trkpt lat="45.93669" lon="4.77752">
        <ele>171</ele>
        <time>2017-07-21T10:01:47Z</time>
      </trkpt>
      <trkpt lat="45.93664" lon="4.77744">
        <ele>171</ele>
        <time>2017-07-21T10:01:48Z</time>
      </trkpt>
      <trkpt lat="45.93658" lon="4.77736">
        <ele>170</ele>
        <time>2017-07-21T10:01:49Z</time>
      </trkpt>
      <trkpt lat="45.93653" lon="4.77728">
        <ele>170</ele>
        <time>2017-07-21T10:01:50Z</time>
      </trkpt>
      <trkpt lat="45.93648" lon="4.77719">
        <ele>170</ele>
        <time>2017-07-21T10:01:51Z</time>
      </trkpt>
      <trkpt lat="45.93643" lon="4.7771">
        <ele>170</ele>
        <time>2017-07-21T10:01:52Z</time>
      </trkpt>
      <trkpt lat="45.93639" lon="4.77701">
        <ele>170</ele>
        <time>2017-07-21T10:01:53Z</time>
      </trkpt>
      <trkpt lat="45.93634" lon="4.77691">
        <ele>169</ele>
        <time>2017-07-21T10:01:54Z</time>
      </trkpt>
      <trkpt lat="45.93629" lon="4.77682">
        <ele>169</ele>
        <time>2017-07-21T10:01:55Z</time>
      </trkpt>
      <trkpt lat="45.93624" lon="4.77672">
        <ele>169</ele>
        <time>2017-07-21T10:01:56Z</time>
      </trkpt>
      <trkpt lat="45.93619" lon="4.77663">
        <ele>169</ele>
        <time>2017-07-21T10:01:57Z</time>
      </trkpt>
      <trkpt lat="45.93616" lon="4.77653">
        <ele>169</ele>
        <time>2017-07-21T10:01:58Z</time>
      </trkpt>
      <trkpt lat="45.93612" lon="4.77644">
        <ele>169</ele>
        <time>2017-07-21T10:01:59Z</time>
      </trkpt>
      <trkpt lat="45.93608" lon="4.77635">
        <ele>169</ele>
        <time>2017-07-21T10:02:00Z</time>
      </trkpt>
      <trkpt lat="45.93604" lon="4.77625">
        <ele>169</ele>
        <time>2017-07-21T10:02:01Z</time>
      </trkpt>
      <trkpt lat="45.93601" lon="4.77616">
        <ele>170</ele>
        <time>2017-07-21T10:02:02Z</time>
      </trkpt>
      <trkpt lat="45.93598" lon="4.77607">
        <ele>170</ele>
        <time>2017-07-21T10:02:03Z</time>
      </trkpt>
      <trkpt lat="45.93595" lon="4.77599">
        <ele>170</ele>
        <time>2017-07-21T10:02:04Z</time>
      </trkpt>
      <trkpt lat="45.93592" lon="4.7759">
        <ele>170</ele>
        <time>2017-07-21T10:02:05Z</time>
      </trkpt>
      <trkpt lat="45.93589" lon="4.77581">
        <ele>170</ele>
        <time>2017-07-21T10:02:06Z</time>
      </trkpt>
      <trkpt lat="45.93587" lon="4.77573">
        <ele>170</ele>
        <time>2017-07-21T10:02:07Z</time>
      </trkpt>
      <trkpt lat="45.93583" lon="4.77564">
        <ele>169</ele>
        <time>2017-07-21T10:02:08Z</time>
      </trkpt>
      <trkpt lat="45.93581" lon="4.77556">
        <ele>169</ele>
        <time>2017-07-21T10:02:09Z</time>
      </trkpt>
      <trkpt lat="45.93579" lon="4.77548">
        <ele>169</ele>
        <time>2017-07-21T10:02:10Z</time>
      </trkpt>
      <trkpt lat="45.93577" lon="4.7754">
        <ele>169</ele>
        <time>2017-07-21T10:02:11Z</time>
      </trkpt>
      <trkpt lat="45.93575" lon="4.77533">
        <ele>169</ele>
        <time>2017-07-21T10:02:12Z</time>
      </trkpt>
      <trkpt lat="45.93574" lon="4.77525">
        <ele>169</ele>
        <time>2017-07-21T10:02:13Z</time>
      </trkpt>
      <trkpt lat="45.93572" lon="4.77517">
        <ele>169</ele>
        <time>2017-07-21T10:02:14Z</time>
      </trkpt>
      <trkpt lat="45.9357" lon="4.77509">
        <ele>169</ele>
        <time>2017-07-21T10:02:15Z</time>
      </trkpt>
      <trkpt lat="45.93569" lon="4.77502">
        <ele>169</ele>
        <time>2017-07-21T10:02:16Z</time>
      </trkpt>
      <trkpt lat="45.93567" lon="4.77495">
        <ele>169</ele>
        <time>2017-07-21T10:02:17Z</time>
      </trkpt>
      <trkpt lat="45.93566" lon="4.77488">
        <ele>169</ele>
        <time>2017-07-21T10:02:18Z</time>
      </trkpt>
      <trkpt lat="45.93564" lon="4.77481">
        <ele>169</ele>
        <time>2017-07-21T10:02:19Z</time>
      </trkpt>
      <trkpt lat="45.93563" lon="4.77473">
        <ele>169</ele>
        <time>2017-07-21T10:02:20Z</time>
      </trkpt>
      <trkpt lat="45.93561" lon="4.77466">
        <ele>169</ele>
        <time>2017-07-21T10:02:21Z</time>
      </trkpt>
      <trkpt lat="45.9356" lon="4.77459">
        <ele>169</ele>
        <time>2017-07-21T10:02:22Z</time>
      </trkpt>
      <trkpt lat="45.93558" lon="4.77451">
        <ele>169</ele>
        <time>2017-07-21T10:02:23Z</time>
      </trkpt>
      <trkpt lat="45.93557" lon="4.77445">
        <ele>169</ele>
        <time>2017-07-21T10:02:24Z</time>
      </trkpt>
      <trkpt lat="45.93556" lon="4.77438">
        <ele>169</ele>
        <time>2017-07-21T10:02:25Z</time>
      </trkpt>
      <trkpt lat="45.93554" lon="4.77432">
        <ele>170</ele>
        <time>2017-07-21T10:02:26Z</time>
      </trkpt>
      <trkpt lat="45.93552" lon="4.7742">
        <ele>170</ele>
        <time>2017-07-21T10:02:28Z</time>
      </trkpt>
      <trkpt lat="45.93551" lon="4.77415">
        <ele>170</ele>
        <time>2017-07-21T10:02:29Z</time>
      </trkpt>
      <trkpt lat="45.93549" lon="4.77404">
        <ele>170</ele>
        <time>2017-07-21T10:02:31Z</time>
      </trkpt>
      <trkpt lat="45.93548" lon="4.77398">
        <ele>170</ele>
        <time>2017-07-21T10:02:32Z</time>
      </trkpt>
      <trkpt lat="45.93547" lon="4.77392">
        <ele>170</ele>
        <time>2017-07-21T10:02:33Z</time>
      </trkpt>
      <trkpt lat="45.93546" lon="4.77385">
        <ele>170</ele>
        <time>2017-07-21T10:02:34Z</time>
      </trkpt>
      <trkpt lat="45.93545" lon="4.77379">
        <ele>170</ele>
        <time>2017-07-21T10:02:35Z</time>
      </trkpt>
      <trkpt lat="45.93543" lon="4.77373">
        <ele>170</ele>
        <time>2017-07-21T10:02:36Z</time>
      </trkpt>
      <trkpt lat="45.93541" lon="4.77367">
        <ele>170</ele>
        <time>2017-07-21T10:02:37Z</time>
      </trkpt>
      <trkpt lat="45.93539" lon="4.77361">
        <ele>170</ele>
        <time>2017-07-21T10:02:38Z</time>
      </trkpt>
      <trkpt lat="45.93538" lon="4.77349">
        <ele>170</ele>
        <time>2017-07-21T10:02:40Z</time>
      </trkpt>
      <trkpt lat="45.93536" lon="4.77343">
        <ele>170</ele>
        <time>2017-07-21T10:02:41Z</time>
      </trkpt>
      <trkpt lat="45.93535" lon="4.77337">
        <ele>170</ele>
        <time>2017-07-21T10:02:42Z</time>
      </trkpt>
      <trkpt lat="45.93533" lon="4.7733">
        <ele>170</ele>
        <time>2017-07-21T10:02:43Z</time>
      </trkpt>
      <trkpt lat="45.93531" lon="4.77323">
        <ele>170</ele>
        <time>2017-07-21T10:02:44Z</time>
      </trkpt>
      <trkpt lat="45.93529" lon="4.77315">
        <ele>170</ele>
        <time>2017-07-21T10:02:45Z</time>
      </trkpt>
      <trkpt lat="45.93528" lon="4.77307">
        <ele>170</ele>
        <time>2017-07-21T10:02:46Z</time>
      </trkpt>
      <trkpt lat="45.93526" lon="4.77299">
        <ele>170</ele>
        <time>2017-07-21T10:02:47Z</time>
      </trkpt>
      <trkpt lat="45.93524" lon="4.77291">
        <ele>170</ele>
        <time>2017-07-21T10:02:48Z</time>
      </trkpt>
      <trkpt lat="45.93522" lon="4.77283">
        <ele>170</ele>
        <time>2017-07-21T10:02:49Z</time>
      </trkpt>
      <trkpt lat="45.93521" lon="4.77276">
        <ele>170</ele>
        <time>2017-07-21T10:02:50Z</time>
      </trkpt>
      <trkpt lat="45.93519" lon="4.77269">
        <ele>170</ele>
        <time>2017-07-21T10:02:51Z</time>
      </trkpt>
      <trkpt lat="45.93517" lon="4.77261">
        <ele>170</ele>
        <time>2017-07-21T10:02:52Z</time>
      </trkpt>
      <trkpt lat="45.93516" lon="4.77254">
        <ele>170</ele>
        <time>2017-07-21T10:02:53Z</time>
      </trkpt>
      <trkpt lat="45.93514" lon="4.77247">
        <ele>169</ele>
        <time>2017-07-21T10:02:54Z</time>
      </trkpt>
      <trkpt lat="45.93513" lon="4.7724">
        <ele>169</ele>
        <time>2017-07-21T10:02:55Z</time>
      </trkpt>
      <trkpt lat="45.93512" lon="4.77234">
        <ele>169</ele>
        <time>2017-07-21T10:02:56Z</time>
      </trkpt>
      <trkpt lat="45.9351" lon="4.77227">
        <ele>169</ele>
        <time>2017-07-21T10:02:57Z</time>
      </trkpt>
      <trkpt lat="45.93509" lon="4.77221">
        <ele>169</ele>
        <time>2017-07-21T10:02:58Z</time>
      </trkpt>
      <trkpt lat="45.93508" lon="4.77214">
        <ele>169</ele>
        <time>2017-07-21T10:02:59Z</time>
      </trkpt>
      <trkpt lat="45.93506" lon="4.77208">
        <ele>169</ele>
        <time>2017-07-21T10:03:00Z</time>
      </trkpt>
      <trkpt lat="45.93504" lon="4.77201">
        <ele>169</ele>
        <time>2017-07-21T10:03:01Z</time>
      </trkpt>
      <trkpt lat="45.93503" lon="4.77194">
        <ele>169</ele>
        <time>2017-07-21T10:03:02Z</time>
      </trkpt>
      <trkpt lat="45.93501" lon="4.77187">
        <ele>169</ele>
        <time>2017-07-21T10:03:03Z</time>
      </trkpt>
      <trkpt lat="45.93499" lon="4.77179">
        <ele>169</ele>
        <time>2017-07-21T10:03:04Z</time>
      </trkpt>
      <trkpt lat="45.93498" lon="4.77171">
        <ele>169</ele>
        <time>2017-07-21T10:03:05Z</time>
      </trkpt>
      <trkpt lat="45.93496" lon="4.77164">
        <ele>169</ele>
        <time>2017-07-21T10:03:06Z</time>
      </trkpt>
      <trkpt lat="45.93494" lon="4.77157">
        <ele>169</ele>
        <time>2017-07-21T10:03:07Z</time>
      </trkpt>
      <trkpt lat="45.93492" lon="4.77149">
        <ele>169</ele>
        <time>2017-07-21T10:03:08Z</time>
      </trkpt>
      <trkpt lat="45.93491" lon="4.77142">
        <ele>169</ele>
        <time>2017-07-21T10:03:09Z</time>
      </trkpt>
      <trkpt lat="45.93489" lon="4.77135">
        <ele>169</ele>
        <time>2017-07-21T10:03:10Z</time>
      </trkpt>
      <trkpt lat="45.93488" lon="4.77128">
        <ele>169</ele>
        <time>2017-07-21T10:03:11Z</time>
      </trkpt>
      <trkpt lat="45.93487" lon="4.77122">
        <ele>169</ele>
        <time>2017-07-21T10:03:12Z</time>
      </trkpt>
      <trkpt lat="45.93486" lon="4.77115">
        <ele>169</ele>
        <time>2017-07-21T10:03:13Z</time>
      </trkpt>
      <trkpt lat="45.93485" lon="4.77108">
        <ele>169</ele>
        <time>2017-07-21T10:03:14Z</time>
      </trkpt>
      <trkpt lat="45.93483" lon="4.77102">
        <ele>169</ele>
        <time>2017-07-21T10:03:15Z</time>
      </trkpt>
      <trkpt lat="45.93481" lon="4.77095">
        <ele>169</ele>
        <time>2017-07-21T10:03:16Z</time>
      </trkpt>
      <trkpt lat="45.9348" lon="4.77087">
        <ele>169</ele>
        <time>2017-07-21T10:03:17Z</time>
      </trkpt>
      <trkpt lat="45.93479" lon="4.7708">
        <ele>170</ele>
        <time>2017-07-21T10:03:18Z</time>
      </trkpt>
      <trkpt lat="45.93478" lon="4.77072">
        <ele>170</ele>
        <time>2017-07-21T10:03:19Z</time>
      </trkpt>
      <trkpt lat="45.93477" lon="4.77064">
        <ele>170</ele>
        <time>2017-07-21T10:03:20Z</time>
      </trkpt>
      <trkpt lat="45.93476" lon="4.77055">
        <ele>170</ele>
        <time>2017-07-21T10:03:21Z</time>
      </trkpt>
      <trkpt lat="45.93475" lon="4.77047">
        <ele>170</ele>
        <time>2017-07-21T10:03:22Z</time>
      </trkpt>
      <trkpt lat="45.93473" lon="4.7704">
        <ele>170</ele>
        <time>2017-07-21T10:03:23Z</time>
      </trkpt>
      <trkpt lat="45.93472" lon="4.77032">
        <ele>170</ele>
        <time>2017-07-21T10:03:24Z</time>
      </trkpt>
      <trkpt lat="45.93471" lon="4.77026">
        <ele>170</ele>
        <time>2017-07-21T10:03:25Z</time>
      </trkpt>
      <trkpt lat="45.93469" lon="4.77019">
        <ele>170</ele>
        <time>2017-07-21T10:03:26Z</time>
      </trkpt>
      <trkpt lat="45.93467" lon="4.77012">
        <ele>170</ele>
        <time>2017-07-21T10:03:27Z</time>
      </trkpt>
      <trkpt lat="45.93466" lon="4.77005">
        <ele>170</ele>
        <time>2017-07-21T10:03:28Z</time>
      </trkpt>
      <trkpt lat="45.93465" lon="4.76999">
        <ele>170</ele>
        <time>2017-07-21T10:03:29Z</time>
      </trkpt>
      <trkpt lat="45.93463" lon="4.76992">
        <ele>170</ele>
        <time>2017-07-21T10:03:30Z</time>
      </trkpt>
      <trkpt lat="45.93463" lon="4.76986">
        <ele>170</ele>
        <time>2017-07-21T10:03:31Z</time>
      </trkpt>
      <trkpt lat="45.93461" lon="4.76979">
        <ele>170</ele>
        <time>2017-07-21T10:03:32Z</time>
      </trkpt>
      <trkpt lat="45.9346" lon="4.76971">
        <ele>170</ele>
        <time>2017-07-21T10:03:33Z</time>
      </trkpt>
      <trkpt lat="45.93459" lon="4.76964">
        <ele>170</ele>
        <time>2017-07-21T10:03:34Z</time>
      </trkpt>
      <trkpt lat="45.93458" lon="4.76956">
        <ele>170</ele>
        <time>2017-07-21T10:03:35Z</time>
      </trkpt>
      <trkpt lat="45.93456" lon="4.76948">
        <ele>170</ele>
        <time>2017-07-21T10:03:36Z</time>
      </trkpt>
      <trkpt lat="45.93454" lon="4.76939">
        <ele>170</ele>
        <time>2017-07-21T10:03:37Z</time>
      </trkpt>
      <trkpt lat="45.93452" lon="4.76931">
        <ele>170</ele>
        <time>2017-07-21T10:03:38Z</time>
      </trkpt>
      <trkpt lat="45.93451" lon="4.76923">
        <ele>170</ele>
        <time>2017-07-21T10:03:39Z</time>
      </trkpt>
      <trkpt lat="45.9345" lon="4.76913">
        <ele>170</ele>
        <time>2017-07-21T10:03:40Z</time>
      </trkpt>
      <trkpt lat="45.93449" lon="4.76906">
        <ele>170</ele>
        <time>2017-07-21T10:03:41Z</time>
      </trkpt>
      <trkpt lat="45.93447" lon="4.76898">
        <ele>170</ele>
        <time>2017-07-21T10:03:42Z</time>
      </trkpt>
      <trkpt lat="45.93445" lon="4.7689">
        <ele>170</ele>
        <time>2017-07-21T10:03:43Z</time>
      </trkpt>
      <trkpt lat="45.93442" lon="4.76883">
        <ele>170</ele>
        <time>2017-07-21T10:03:44Z</time>
      </trkpt>
      <trkpt lat="45.9344" lon="4.76876">
        <ele>171</ele>
        <time>2017-07-21T10:03:45Z</time>
      </trkpt>
      <trkpt lat="45.93437" lon="4.76869">
        <ele>171</ele>
        <time>2017-07-21T10:03:46Z</time>
      </trkpt>
      <trkpt lat="45.93435" lon="4.76863">
        <ele>171</ele>
        <time>2017-07-21T10:03:47Z</time>
      </trkpt>
      <trkpt lat="45.93432" lon="4.76857">
        <ele>171</ele>
        <time>2017-07-21T10:03:48Z</time>
      </trkpt>
      <trkpt lat="45.93429" lon="4.76851">
        <ele>171</ele>
        <time>2017-07-21T10:03:49Z</time>
      </trkpt>
      <trkpt lat="45.93426" lon="4.76845">
        <ele>171</ele>
        <time>2017-07-21T10:03:50Z</time>
      </trkpt>
      <trkpt lat="45.93423" lon="4.76839">
        <ele>171</ele>
        <time>2017-07-21T10:03:51Z</time>
      </trkpt>
      <trkpt lat="45.9342" lon="4.76833">
        <ele>172</ele>
        <time>2017-07-21T10:03:52Z</time>
      </trkpt>
      <trkpt lat="45.93417" lon="4.76826">
        <ele>172</ele>
        <time>2017-07-21T10:03:53Z</time>
      </trkpt>
      <trkpt lat="45.93413" lon="4.7682">
        <ele>172</ele>
        <time>2017-07-21T10:03:54Z</time>
      </trkpt>
      <trkpt lat="45.93409" lon="4.76813">
        <ele>172</ele>
        <time>2017-07-21T10:03:55Z</time>
      </trkpt>
      <trkpt lat="45.93405" lon="4.76807">
        <ele>172</ele>
        <time>2017-07-21T10:03:56Z</time>
      </trkpt>
      <trkpt lat="45.934" lon="4.76802">
        <ele>172</ele>
        <time>2017-07-21T10:03:57Z</time>
      </trkpt>
      <trkpt lat="45.93396" lon="4.76797">
        <ele>172</ele>
        <time>2017-07-21T10:03:58Z</time>
      </trkpt>
      <trkpt lat="45.93392" lon="4.76792">
        <ele>172</ele>
        <time>2017-07-21T10:03:59Z</time>
      </trkpt>
      <trkpt lat="45.93388" lon="4.76787">
        <ele>172</ele>
        <time>2017-07-21T10:04:00Z</time>
      </trkpt>
      <trkpt lat="45.93383" lon="4.76783">
        <ele>172</ele>
        <time>2017-07-21T10:04:01Z</time>
      </trkpt>
      <trkpt lat="45.93379" lon="4.76779">
        <ele>172</ele>
        <time>2017-07-21T10:04:02Z</time>
      </trkpt>
      <trkpt lat="45.93374" lon="4.76775">
        <ele>172</ele>
        <time>2017-07-21T10:04:03Z</time>
      </trkpt>
      <trkpt lat="45.9337" lon="4.76771">
        <ele>172</ele>
        <time>2017-07-21T10:04:04Z</time>
      </trkpt>
      <trkpt lat="45.93365" lon="4.76767">
        <ele>172</ele>
        <time>2017-07-21T10:04:05Z</time>
      </trkpt>
      <trkpt lat="45.9336" lon="4.76763">
        <ele>172</ele>
        <time>2017-07-21T10:04:06Z</time>
      </trkpt>
      <trkpt lat="45.93358" lon="4.76757">
        <ele>172</ele>
        <time>2017-07-21T10:04:07Z</time>
      </trkpt>
      <trkpt lat="45.93352" lon="4.76753">
        <ele>172</ele>
        <time>2017-07-21T10:04:08Z</time>
      </trkpt>
      <trkpt lat="45.93345" lon="4.76749">
        <ele>172</ele>
        <time>2017-07-21T10:04:09Z</time>
      </trkpt>
      <trkpt lat="45.93339" lon="4.76745">
        <ele>173</ele>
        <time>2017-07-21T10:04:10Z</time>
      </trkpt>
      <trkpt lat="45.93334" lon="4.76741">
        <ele>173</ele>
        <time>2017-07-21T10:04:11Z</time>
      </trkpt>
      <trkpt lat="45.9333" lon="4.76737">
        <ele>172</ele>
        <time>2017-07-21T10:04:12Z</time>
      </trkpt>
      <trkpt lat="45.93325" lon="4.76733">
        <ele>172</ele>
        <time>2017-07-21T10:04:13Z</time>
      </trkpt>
      <trkpt lat="45.93321" lon="4.76728">
        <ele>172</ele>
        <time>2017-07-21T10:04:14Z</time>
      </trkpt>
      <trkpt lat="45.93317" lon="4.76724">
        <ele>172</ele>
        <time>2017-07-21T10:04:15Z</time>
      </trkpt>
      <trkpt lat="45.93313" lon="4.7672">
        <ele>172</ele>
        <time>2017-07-21T10:04:16Z</time>
      </trkpt>
      <trkpt lat="45.93309" lon="4.76716">
        <ele>172</ele>
        <time>2017-07-21T10:04:17Z</time>
      </trkpt>
      <trkpt lat="45.93305" lon="4.76711">
        <ele>172</ele>
        <time>2017-07-21T10:04:18Z</time>
      </trkpt>
      <trkpt lat="45.93301" lon="4.76707">
        <ele>172</ele>
        <time>2017-07-21T10:04:19Z</time>
      </trkpt>
      <trkpt lat="45.93297" lon="4.76702">
        <ele>172</ele>
        <time>2017-07-21T10:04:20Z</time>
      </trkpt>
      <trkpt lat="45.93293" lon="4.76698">
        <ele>172</ele>
        <time>2017-07-21T10:04:21Z</time>
      </trkpt>
      <trkpt lat="45.93287" lon="4.76692">
        <ele>172</ele>
        <time>2017-07-21T10:04:22Z</time>
      </trkpt>
      <trkpt lat="45.93282" lon="4.76686">
        <ele>172</ele>
        <time>2017-07-21T10:04:23Z</time>
      </trkpt>
      <trkpt lat="45.93277" lon="4.76682">
        <ele>172</ele>
        <time>2017-07-21T10:04:24Z</time>
      </trkpt>
      <trkpt lat="45.93273" lon="4.76678">
        <ele>172</ele>
        <time>2017-07-21T10:04:25Z</time>
      </trkpt>
      <trkpt lat="45.93268" lon="4.76673">
        <ele>172</ele>
        <time>2017-07-21T10:04:26Z</time>
      </trkpt>
      <trkpt lat="45.93264" lon="4.76668">
        <ele>172</ele>
        <time>2017-07-21T10:04:27Z</time>
      </trkpt>
      <trkpt lat="45.9326" lon="4.76664">
        <ele>171</ele>
        <time>2017-07-21T10:04:28Z</time>
      </trkpt>
      <trkpt lat="45.93256" lon="4.76659">
        <ele>171</ele>
        <time>2017-07-21T10:04:29Z</time>
      </trkpt>
      <trkpt lat="45.93252" lon="4.76654">
        <ele>171</ele>
        <time>2017-07-21T10:04:30Z</time>
      </trkpt>
      <trkpt lat="45.93248" lon="4.7665">
        <ele>171</ele>
        <time>2017-07-21T10:04:31Z</time>
      </trkpt>
      <trkpt lat="45.93244" lon="4.76646">
        <ele>171</ele>
        <time>2017-07-21T10:04:32Z</time>
      </trkpt>
      <trkpt lat="45.9324" lon="4.76642">
        <ele>171</ele>
        <time>2017-07-21T10:04:33Z</time>
      </trkpt>
      <trkpt lat="45.93236" lon="4.76637">
        <ele>171</ele>
        <time>2017-07-21T10:04:34Z</time>
      </trkpt>
      <trkpt lat="45.93232" lon="4.76633">
        <ele>170</ele>
        <time>2017-07-21T10:04:35Z</time>
      </trkpt>
      <trkpt lat="45.93228" lon="4.76629">
        <ele>170</ele>
        <time>2017-07-21T10:04:36Z</time>
      </trkpt>
      <trkpt lat="45.93224" lon="4.76624">
        <ele>170</ele>
        <time>2017-07-21T10:04:37Z</time>
      </trkpt>
      <trkpt lat="45.93219" lon="4.76614">
        <ele>170</ele>
        <time>2017-07-21T10:04:39Z</time>
      </trkpt>
      <trkpt lat="45.93214" lon="4.76609">
        <ele>170</ele>
        <time>2017-07-21T10:04:40Z</time>
      </trkpt>
      <trkpt lat="45.93208" lon="4.76605">
        <ele>170</ele>
        <time>2017-07-21T10:04:41Z</time>
      </trkpt>
      <trkpt lat="45.93205" lon="4.766">
        <ele>170</ele>
        <time>2017-07-21T10:04:42Z</time>
      </trkpt>
      <trkpt lat="45.93199" lon="4.76596">
        <ele>170</ele>
        <time>2017-07-21T10:04:43Z</time>
      </trkpt>
      <trkpt lat="45.93194" lon="4.76592">
        <ele>170</ele>
        <time>2017-07-21T10:04:44Z</time>
      </trkpt>
      <trkpt lat="45.9319" lon="4.76589">
        <ele>170</ele>
        <time>2017-07-21T10:04:45Z</time>
      </trkpt>
      <trkpt lat="45.93185" lon="4.76584">
        <ele>171</ele>
        <time>2017-07-21T10:04:46Z</time>
      </trkpt>
      <trkpt lat="45.9318" lon="4.76579">
        <ele>170</ele>
        <time>2017-07-21T10:04:47Z</time>
      </trkpt>
      <trkpt lat="45.93176" lon="4.76575">
        <ele>170</ele>
        <time>2017-07-21T10:04:48Z</time>
      </trkpt>
      <trkpt lat="45.93171" lon="4.7657">
        <ele>170</ele>
        <time>2017-07-21T10:04:49Z</time>
      </trkpt>
      <trkpt lat="45.93166" lon="4.76566">
        <ele>170</ele>
        <time>2017-07-21T10:04:50Z</time>
      </trkpt>
      <trkpt lat="45.9316" lon="4.76559">
        <ele>170</ele>
        <time>2017-07-21T10:04:52Z</time>
      </trkpt>
      <trkpt lat="45.93158" lon="4.76555">
        <ele>170</ele>
        <time>2017-07-21T10:04:53Z</time>
      </trkpt>
      <trkpt lat="45.93152" lon="4.76547">
        <ele>170</ele>
        <time>2017-07-21T10:04:55Z</time>
      </trkpt>
      <trkpt lat="45.93149" lon="4.76543">
        <ele>170</ele>
        <time>2017-07-21T10:04:56Z</time>
      </trkpt>
      <trkpt lat="45.93145" lon="4.76539">
        <ele>170</ele>
        <time>2017-07-21T10:04:57Z</time>
      </trkpt>
      <trkpt lat="45.9314" lon="4.76535">
        <ele>170</ele>
        <time>2017-07-21T10:04:58Z</time>
      </trkpt>
      <trkpt lat="45.93136" lon="4.76531">
        <ele>170</ele>
        <time>2017-07-21T10:04:59Z</time>
      </trkpt>
      <trkpt lat="45.93131" lon="4.76527">
        <ele>170</ele>
        <time>2017-07-21T10:05:00Z</time>
      </trkpt>
      <trkpt lat="45.93126" lon="4.76522">
        <ele>170</ele>
        <time>2017-07-21T10:05:01Z</time>
      </trkpt>
      <trkpt lat="45.9312" lon="4.76518">
        <ele>170</ele>
        <time>2017-07-21T10:05:02Z</time>
      </trkpt>
      <trkpt lat="45.93114" lon="4.76514">
        <ele>170</ele>
        <time>2017-07-21T10:05:03Z</time>
      </trkpt>
      <trkpt lat="45.9311" lon="4.7651">
        <ele>170</ele>
        <time>2017-07-21T10:05:04Z</time>
      </trkpt>
      <trkpt lat="45.93105" lon="4.76506">
        <ele>170</ele>
        <time>2017-07-21T10:05:05Z</time>
      </trkpt>
      <trkpt lat="45.93101" lon="4.76502">
        <ele>170</ele>
        <time>2017-07-21T10:05:06Z</time>
      </trkpt>
      <trkpt lat="45.93094" lon="4.76493">
        <ele>170</ele>
        <time>2017-07-21T10:05:08Z</time>
      </trkpt>
      <trkpt lat="45.9309" lon="4.76489">
        <ele>170</ele>
        <time>2017-07-21T10:05:09Z</time>
      </trkpt>
      <trkpt lat="45.93084" lon="4.76484">
        <ele>170</ele>
        <time>2017-07-21T10:05:10Z</time>
      </trkpt>
      <trkpt lat="45.93078" lon="4.76479">
        <ele>169</ele>
        <time>2017-07-21T10:05:11Z</time>
      </trkpt>
      <trkpt lat="45.93074" lon="4.76475">
        <ele>169</ele>
        <time>2017-07-21T10:05:12Z</time>
      </trkpt>
      <trkpt lat="45.93069" lon="4.7647">
        <ele>169</ele>
        <time>2017-07-21T10:05:13Z</time>
      </trkpt>
      <trkpt lat="45.93065" lon="4.76466">
        <ele>169</ele>
        <time>2017-07-21T10:05:14Z</time>
      </trkpt>
      <trkpt lat="45.93061" lon="4.76461">
        <ele>169</ele>
        <time>2017-07-21T10:05:15Z</time>
      </trkpt>
      <trkpt lat="45.93056" lon="4.76456">
        <ele>169</ele>
        <time>2017-07-21T10:05:16Z</time>
      </trkpt>
      <trkpt lat="45.9305" lon="4.76451">
        <ele>169</ele>
        <time>2017-07-21T10:05:17Z</time>
      </trkpt>
      <trkpt lat="45.93045" lon="4.76446">
        <ele>169</ele>
        <time>2017-07-21T10:05:18Z</time>
      </trkpt>
      <trkpt lat="45.9304" lon="4.7644">
        <ele>169</ele>
        <time>2017-07-21T10:05:19Z</time>
      </trkpt>
      <trkpt lat="45.93035" lon="4.76435">
        <ele>169</ele>
        <time>2017-07-21T10:05:20Z</time>
      </trkpt>
      <trkpt lat="45.93031" lon="4.7643">
        <ele>169</ele>
        <time>2017-07-21T10:05:21Z</time>
      </trkpt>
      <trkpt lat="45.93027" lon="4.76426">
        <ele>169</ele>
        <time>2017-07-21T10:05:22Z</time>
      </trkpt>
      <trkpt lat="45.93023" lon="4.76422">
        <ele>169</ele>
        <time>2017-07-21T10:05:23Z</time>
      </trkpt>
      <trkpt lat="45.93018" lon="4.76419">
        <ele>169</ele>
        <time>2017-07-21T10:05:24Z</time>
      </trkpt>
      <trkpt lat="45.93014" lon="4.76415">
        <ele>169</ele>
        <time>2017-07-21T10:05:25Z</time>
      </trkpt>
      <trkpt lat="45.93011" lon="4.7641">
        <ele>169</ele>
        <time>2017-07-21T10:05:26Z</time>
      </trkpt>
      <trkpt lat="45.93007" lon="4.76406">
        <ele>169</ele>
        <time>2017-07-21T10:05:27Z</time>
      </trkpt>
      <trkpt lat="45.93003" lon="4.76402">
        <ele>169</ele>
        <time>2017-07-21T10:05:28Z</time>
      </trkpt>
      <trkpt lat="45.92999" lon="4.76398">
        <ele>169</ele>
        <time>2017-07-21T10:05:29Z</time>
      </trkpt>
      <trkpt lat="45.92994" lon="4.76394">
        <ele>169</ele>
        <time>2017-07-21T10:05:30Z</time>
      </trkpt>
      <trkpt lat="45.9299" lon="4.76391">
        <ele>169</ele>
        <time>2017-07-21T10:05:31Z</time>
      </trkpt>
      <trkpt lat="45.92986" lon="4.76387">
        <ele>169</ele>
        <time>2017-07-21T10:05:32Z</time>
      </trkpt>
      <trkpt lat="45.92981" lon="4.76383">
        <ele>169</ele>
        <time>2017-07-21T10:05:33Z</time>
      </trkpt>
      <trkpt lat="45.92977" lon="4.76379">
        <ele>169</ele>
        <time>2017-07-21T10:05:34Z</time>
      </trkpt>
      <trkpt lat="45.92973" lon="4.76375">
        <ele>169</ele>
        <time>2017-07-21T10:05:35Z</time>
      </trkpt>
      <trkpt lat="45.92966" lon="4.76368">
        <ele>169</ele>
        <time>2017-07-21T10:05:37Z</time>
      </trkpt>
      <trkpt lat="45.92962" lon="4.76364">
        <ele>169</ele>
        <time>2017-07-21T10:05:38Z</time>
      </trkpt>
      <trkpt lat="45.92959" lon="4.76359">
        <ele>169</ele>
        <time>2017-07-21T10:05:39Z</time>
      </trkpt>
      <trkpt lat="45.92955" lon="4.76355">
        <ele>169</ele>
        <time>2017-07-21T10:05:40Z</time>
      </trkpt>
      <trkpt lat="45.9295" lon="4.76351">
        <ele>169</ele>
        <time>2017-07-21T10:05:41Z</time>
      </trkpt>
      <trkpt lat="45.92946" lon="4.76347">
        <ele>169</ele>
        <time>2017-07-21T10:05:42Z</time>
      </trkpt>
      <trkpt lat="45.92941" lon="4.76342">
        <ele>169</ele>
        <time>2017-07-21T10:05:43Z</time>
      </trkpt>
      <trkpt lat="45.92936" lon="4.76337">
        <ele>169</ele>
        <time>2017-07-21T10:05:44Z</time>
      </trkpt>
      <trkpt lat="45.92931" lon="4.76332">
        <ele>169</ele>
        <time>2017-07-21T10:05:45Z</time>
      </trkpt>
      <trkpt lat="45.92926" lon="4.76327">
        <ele>169</ele>
        <time>2017-07-21T10:05:46Z</time>
      </trkpt>
      <trkpt lat="45.92921" lon="4.76322">
        <ele>169</ele>
        <time>2017-07-21T10:05:47Z</time>
      </trkpt>
      <trkpt lat="45.92917" lon="4.76318">
        <ele>169</ele>
        <time>2017-07-21T10:05:48Z</time>
      </trkpt>
      <trkpt lat="45.92912" lon="4.76314">
        <ele>169</ele>
        <time>2017-07-21T10:05:49Z</time>
      </trkpt>
      <trkpt lat="45.92907" lon="4.76309">
        <ele>169</ele>
        <time>2017-07-21T10:05:50Z</time>
      </trkpt>
      <trkpt lat="45.92903" lon="4.76305">
        <ele>169</ele>
        <time>2017-07-21T10:05:51Z</time>
      </trkpt>
      <trkpt lat="45.92898" lon="4.763">
        <ele>169</ele>
        <time>2017-07-21T10:05:52Z</time>
      </trkpt>
      <trkpt lat="45.92893" lon="4.76295">
        <ele>169</ele>
        <time>2017-07-21T10:05:53Z</time>
      </trkpt>
      <trkpt lat="45.92888" lon="4.76289">
        <ele>169</ele>
        <time>2017-07-21T10:05:54Z</time>
      </trkpt>
      <trkpt lat="45.92884" lon="4.76285">
        <ele>169</ele>
        <time>2017-07-21T10:05:55Z</time>
      </trkpt>
      <trkpt lat="45.9288" lon="4.7628">
        <ele>169</ele>
        <time>2017-07-21T10:05:56Z</time>
      </trkpt>
      <trkpt lat="45.92876" lon="4.76275">
        <ele>169</ele>
        <time>2017-07-21T10:05:57Z</time>
      </trkpt>
      <trkpt lat="45.92872" lon="4.76271">
        <ele>169</ele>
        <time>2017-07-21T10:05:58Z</time>
      </trkpt>
      <trkpt lat="45.92868" lon="4.76267">
        <ele>169</ele>
        <time>2017-07-21T10:05:59Z</time>
      </trkpt>
      <trkpt lat="45.92864" lon="4.76264">
        <ele>169</ele>
        <time>2017-07-21T10:06:00Z</time>
      </trkpt>
      <trkpt lat="45.9286" lon="4.7626">
        <ele>169</ele>
        <time>2017-07-21T10:06:01Z</time>
      </trkpt>
      <trkpt lat="45.92856" lon="4.76256">
        <ele>169</ele>
        <time>2017-07-21T10:06:02Z</time>
      </trkpt>
      <trkpt lat="45.92852" lon="4.76252">
        <ele>169</ele>
        <time>2017-07-21T10:06:03Z</time>
      </trkpt>
      <trkpt lat="45.92847" lon="4.76248">
        <ele>169</ele>
        <time>2017-07-21T10:06:04Z</time>
      </trkpt>
      <trkpt lat="45.92843" lon="4.76244">
        <ele>169</ele>
        <time>2017-07-21T10:06:05Z</time>
      </trkpt>
      <trkpt lat="45.92838" lon="4.76239">
        <ele>169</ele>
        <time>2017-07-21T10:06:06Z</time>
      </trkpt>
      <trkpt lat="45.92833" lon="4.76234">
        <ele>168</ele>
        <time>2017-07-21T10:06:07Z</time>
      </trkpt>
      <trkpt lat="45.92828" lon="4.76227">
        <ele>168</ele>
        <time>2017-07-21T10:06:08Z</time>
      </trkpt>
      <trkpt lat="45.92823" lon="4.7622">
        <ele>168</ele>
        <time>2017-07-21T10:06:09Z</time>
      </trkpt>
      <trkpt lat="45.92817" lon="4.76216">
        <ele>168</ele>
        <time>2017-07-21T10:06:10Z</time>
      </trkpt>
      <trkpt lat="45.92812" lon="4.76211">
        <ele>168</ele>
        <time>2017-07-21T10:06:11Z</time>
      </trkpt>
      <trkpt lat="45.92809" lon="4.76208">
        <ele>168</ele>
        <time>2017-07-21T10:06:12Z</time>
      </trkpt>
      <trkpt lat="45.92805" lon="4.76204">
        <ele>168</ele>
        <time>2017-07-21T10:06:13Z</time>
      </trkpt>
      <trkpt lat="45.92801" lon="4.76199">
        <ele>168</ele>
        <time>2017-07-21T10:06:14Z</time>
      </trkpt>
      <trkpt lat="45.92797" lon="4.76196">
        <ele>168</ele>
        <time>2017-07-21T10:06:15Z</time>
      </trkpt>
      <trkpt lat="45.92793" lon="4.76192">
        <ele>168</ele>
        <time>2017-07-21T10:06:16Z</time>
      </trkpt>
      <trkpt lat="45.92789" lon="4.76189">
        <ele>168</ele>
        <time>2017-07-21T10:06:17Z</time>
      </trkpt>
      <trkpt lat="45.92785" lon="4.76186">
        <ele>168</ele>
        <time>2017-07-21T10:06:18Z</time>
      </trkpt>
      <trkpt lat="45.92781" lon="4.76183">
        <ele>168</ele>
        <time>2017-07-21T10:06:19Z</time>
      </trkpt>
      <trkpt lat="45.92777" lon="4.76179">
        <ele>167</ele>
        <time>2017-07-21T10:06:20Z</time>
      </trkpt>
      <trkpt lat="45.92773" lon="4.76175">
        <ele>167</ele>
        <time>2017-07-21T10:06:21Z</time>
      </trkpt>
      <trkpt lat="45.92769" lon="4.76171">
        <ele>167</ele>
        <time>2017-07-21T10:06:22Z</time>
      </trkpt>
      <trkpt lat="45.92765" lon="4.76167">
        <ele>167</ele>
        <time>2017-07-21T10:06:23Z</time>
      </trkpt>
      <trkpt lat="45.92761" lon="4.76162">
        <ele>167</ele>
        <time>2017-07-21T10:06:24Z</time>
      </trkpt>
      <trkpt lat="45.92757" lon="4.76158">
        <ele>167</ele>
        <time>2017-07-21T10:06:25Z</time>
      </trkpt>
      <trkpt lat="45.92752" lon="4.76154">
        <ele>167</ele>
        <time>2017-07-21T10:06:26Z</time>
      </trkpt>
      <trkpt lat="45.92746" lon="4.7615">
        <ele>168</ele>
        <time>2017-07-21T10:06:27Z</time>
      </trkpt>
      <trkpt lat="45.92741" lon="4.76147">
        <ele>168</ele>
        <time>2017-07-21T10:06:28Z</time>
      </trkpt>
      <trkpt lat="45.92736" lon="4.76143">
        <ele>168</ele>
        <time>2017-07-21T10:06:29Z</time>
      </trkpt>
      <trkpt lat="45.92731" lon="4.76139">
        <ele>168</ele>
        <time>2017-07-21T10:06:30Z</time>
      </trkpt>
      <trkpt lat="45.92726" lon="4.76136">
        <ele>168</ele>
        <time>2017-07-21T10:06:31Z</time>
      </trkpt>
      <trkpt lat="45.92721" lon="4.76133">
        <ele>168</ele>
        <time>2017-07-21T10:06:32Z</time>
      </trkpt>
      <trkpt lat="45.92713" lon="4.76128">
        <ele>168</ele>
        <time>2017-07-21T10:06:34Z</time>
      </trkpt>
      <trkpt lat="45.92709" lon="4.76125">
        <ele>168</ele>
        <time>2017-07-21T10:06:35Z</time>
      </trkpt>
      <trkpt lat="45.92705" lon="4.76121">
        <ele>169</ele>
        <time>2017-07-21T10:06:36Z</time>
      </trkpt>
      <trkpt lat="45.927" lon="4.76117">
        <ele>169</ele>
        <time>2017-07-21T10:06:37Z</time>
      </trkpt>
      <trkpt lat="45.92696" lon="4.76114">
        <ele>169</ele>
        <time>2017-07-21T10:06:38Z</time>
      </trkpt>
      <trkpt lat="45.92691" lon="4.7611">
        <ele>169</ele>
        <time>2017-07-21T10:06:39Z</time>
      </trkpt>
      <trkpt lat="45.92686" lon="4.76106">
        <ele>169</ele>
        <time>2017-07-21T10:06:40Z</time>
      </trkpt>
      <trkpt lat="45.92681" lon="4.76102">
        <ele>169</ele>
        <time>2017-07-21T10:06:41Z</time>
      </trkpt>
      <trkpt lat="45.92676" lon="4.76098">
        <ele>169</ele>
        <time>2017-07-21T10:06:42Z</time>
      </trkpt>
      <trkpt lat="45.9267" lon="4.76094">
        <ele>169</ele>
        <time>2017-07-21T10:06:43Z</time>
      </trkpt>
      <trkpt lat="45.92664" lon="4.7609">
        <ele>170</ele>
        <time>2017-07-21T10:06:44Z</time>
      </trkpt>
      <trkpt lat="45.92658" lon="4.76086">
        <ele>170</ele>
        <time>2017-07-21T10:06:45Z</time>
      </trkpt>
      <trkpt lat="45.92653" lon="4.76082">
        <ele>170</ele>
        <time>2017-07-21T10:06:46Z</time>
      </trkpt>
      <trkpt lat="45.92647" lon="4.76078">
        <ele>170</ele>
        <time>2017-07-21T10:06:47Z</time>
      </trkpt>
      <trkpt lat="45.92642" lon="4.76074">
        <ele>170</ele>
        <time>2017-07-21T10:06:48Z</time>
      </trkpt>
      <trkpt lat="45.92637" lon="4.7607">
        <ele>170</ele>
        <time>2017-07-21T10:06:49Z</time>
      </trkpt>
      <trkpt lat="45.92631" lon="4.76066">
        <ele>170</ele>
        <time>2017-07-21T10:06:50Z</time>
      </trkpt>
      <trkpt lat="45.92625" lon="4.76061">
        <ele>170</ele>
        <time>2017-07-21T10:06:51Z</time>
      </trkpt>
      <trkpt lat="45.92619" lon="4.76056">
        <ele>171</ele>
        <time>2017-07-21T10:06:52Z</time>
      </trkpt>
      <trkpt lat="45.92613" lon="4.76052">
        <ele>171</ele>
        <time>2017-07-21T10:06:53Z</time>
      </trkpt>
      <trkpt lat="45.92607" lon="4.76049">
        <ele>171</ele>
        <time>2017-07-21T10:06:54Z</time>
      </trkpt>
      <trkpt lat="45.92602" lon="4.76044">
        <ele>171</ele>
        <time>2017-07-21T10:06:55Z</time>
      </trkpt>
      <trkpt lat="45.92597" lon="4.7604">
        <ele>171</ele>
        <time>2017-07-21T10:06:56Z</time>
      </trkpt>
      <trkpt lat="45.92592" lon="4.76036">
        <ele>171</ele>
        <time>2017-07-21T10:06:57Z</time>
      </trkpt>
      <trkpt lat="45.92586" lon="4.76032">
        <ele>171</ele>
        <time>2017-07-21T10:06:58Z</time>
      </trkpt>
      <trkpt lat="45.92581" lon="4.76028">
        <ele>172</ele>
        <time>2017-07-21T10:06:59Z</time>
      </trkpt>
      <trkpt lat="45.92575" lon="4.76025">
        <ele>172</ele>
        <time>2017-07-21T10:07:00Z</time>
      </trkpt>
      <trkpt lat="45.9257" lon="4.76022">
        <ele>172</ele>
        <time>2017-07-21T10:07:01Z</time>
      </trkpt>
      <trkpt lat="45.92566" lon="4.7602">
        <ele>172</ele>
        <time>2017-07-21T10:07:02Z</time>
      </trkpt>
      <trkpt lat="45.92562" lon="4.76017">
        <ele>172</ele>
        <time>2017-07-21T10:07:03Z</time>
      </trkpt>
      <trkpt lat="45.92554" lon="4.76011">
        <ele>172</ele>
        <time>2017-07-21T10:07:05Z</time>
      </trkpt>
      <trkpt lat="45.9255" lon="4.76009">
        <ele>172</ele>
        <time>2017-07-21T10:07:06Z</time>
      </trkpt>
      <trkpt lat="45.92546" lon="4.76006">
        <ele>172</ele>
        <time>2017-07-21T10:07:07Z</time>
      </trkpt>
      <trkpt lat="45.92542" lon="4.76003">
        <ele>172</ele>
        <time>2017-07-21T10:07:08Z</time>
      </trkpt>
      <trkpt lat="45.92537" lon="4.76">
        <ele>172</ele>
        <time>2017-07-21T10:07:09Z</time>
      </trkpt>
      <trkpt lat="45.92534" lon="4.75996">
        <ele>172</ele>
        <time>2017-07-21T10:07:10Z</time>
      </trkpt>
      <trkpt lat="45.92526" lon="4.75991">
        <ele>172</ele>
        <time>2017-07-21T10:07:12Z</time>
      </trkpt>
      <trkpt lat="45.92522" lon="4.75988">
        <ele>172</ele>
        <time>2017-07-21T10:07:13Z</time>
      </trkpt>
      <trkpt lat="45.92518" lon="4.75985">
        <ele>172</ele>
        <time>2017-07-21T10:07:14Z</time>
      </trkpt>
      <trkpt lat="45.92513" lon="4.75982">
        <ele>172</ele>
        <time>2017-07-21T10:07:15Z</time>
      </trkpt>
      <trkpt lat="45.92505" lon="4.75977">
        <ele>172</ele>
        <time>2017-07-21T10:07:17Z</time>
      </trkpt>
      <trkpt lat="45.92501" lon="4.75974">
        <ele>172</ele>
        <time>2017-07-21T10:07:18Z</time>
      </trkpt>
      <trkpt lat="45.92497" lon="4.75972">
        <ele>172</ele>
        <time>2017-07-21T10:07:19Z</time>
      </trkpt>
      <trkpt lat="45.92493" lon="4.75968">
        <ele>172</ele>
        <time>2017-07-21T10:07:20Z</time>
      </trkpt>
      <trkpt lat="45.92488" lon="4.75966">
        <ele>172</ele>
        <time>2017-07-21T10:07:21Z</time>
      </trkpt>
      <trkpt lat="45.92484" lon="4.75963">
        <ele>172</ele>
        <time>2017-07-21T10:07:22Z</time>
      </trkpt>
      <trkpt lat="45.9248" lon="4.7596">
        <ele>172</ele>
        <time>2017-07-21T10:07:23Z</time>
      </trkpt>
      <trkpt lat="45.92475" lon="4.75958">
        <ele>172</ele>
        <time>2017-07-21T10:07:24Z</time>
      </trkpt>
      <trkpt lat="45.92471" lon="4.75955">
        <ele>172</ele>
        <time>2017-07-21T10:07:25Z</time>
      </trkpt>
      <trkpt lat="45.92466" lon="4.75952">
        <ele>172</ele>
        <time>2017-07-21T10:07:26Z</time>
      </trkpt>
      <trkpt lat="45.92461" lon="4.75949">
        <ele>172</ele>
        <time>2017-07-21T10:07:27Z</time>
      </trkpt>
      <trkpt lat="45.92456" lon="4.75946">
        <ele>172</ele>
        <time>2017-07-21T10:07:28Z</time>
      </trkpt>
      <trkpt lat="45.92451" lon="4.75942">
        <ele>172</ele>
        <time>2017-07-21T10:07:29Z</time>
      </trkpt>
      <trkpt lat="45.92446" lon="4.75938">
        <ele>172</ele>
        <time>2017-07-21T10:07:30Z</time>
      </trkpt>
      <trkpt lat="45.9244" lon="4.75935">
        <ele>172</ele>
        <time>2017-07-21T10:07:31Z</time>
      </trkpt>
      <trkpt lat="45.92435" lon="4.75931">
        <ele>172</ele>
        <time>2017-07-21T10:07:32Z</time>
      </trkpt>
      <trkpt lat="45.92429" lon="4.75927">
        <ele>172</ele>
        <time>2017-07-21T10:07:33Z</time>
      </trkpt>
      <trkpt lat="45.92423" lon="4.75923">
        <ele>172</ele>
        <time>2017-07-21T10:07:34Z</time>
      </trkpt>
      <trkpt lat="45.92418" lon="4.75919">
        <ele>172</ele>
        <time>2017-07-21T10:07:35Z</time>
      </trkpt>
      <trkpt lat="45.92412" lon="4.75915">
        <ele>172</ele>
        <time>2017-07-21T10:07:36Z</time>
      </trkpt>
      <trkpt lat="45.92407" lon="4.75911">
        <ele>172</ele>
        <time>2017-07-21T10:07:37Z</time>
      </trkpt>
      <trkpt lat="45.92401" lon="4.75907">
        <ele>173</ele>
        <time>2017-07-21T10:07:38Z</time>
      </trkpt>
      <trkpt lat="45.92395" lon="4.75903">
        <ele>173</ele>
        <time>2017-07-21T10:07:39Z</time>
      </trkpt>
      <trkpt lat="45.9239" lon="4.75899">
        <ele>173</ele>
        <time>2017-07-21T10:07:40Z</time>
      </trkpt>
      <trkpt lat="45.92384" lon="4.75894">
        <ele>173</ele>
        <time>2017-07-21T10:07:41Z</time>
      </trkpt>
      <trkpt lat="45.92378" lon="4.7589">
        <ele>173</ele>
        <time>2017-07-21T10:07:42Z</time>
      </trkpt>
      <trkpt lat="45.92373" lon="4.75887">
        <ele>173</ele>
        <time>2017-07-21T10:07:43Z</time>
      </trkpt>
      <trkpt lat="45.92368" lon="4.75883">
        <ele>173</ele>
        <time>2017-07-21T10:07:44Z</time>
      </trkpt>
      <trkpt lat="45.92363" lon="4.7588">
        <ele>173</ele>
        <time>2017-07-21T10:07:45Z</time>
      </trkpt>
      <trkpt lat="45.92357" lon="4.75876">
        <ele>173</ele>
        <time>2017-07-21T10:07:46Z</time>
      </trkpt>
      <trkpt lat="45.92352" lon="4.75873">
        <ele>173</ele>
        <time>2017-07-21T10:07:47Z</time>
      </trkpt>
      <trkpt lat="45.92347" lon="4.7587">
        <ele>173</ele>
        <time>2017-07-21T10:07:48Z</time>
      </trkpt>
      <trkpt lat="45.92343" lon="4.75868">
        <ele>173</ele>
        <time>2017-07-21T10:07:49Z</time>
      </trkpt>
      <trkpt lat="45.92338" lon="4.75865">
        <ele>173</ele>
        <time>2017-07-21T10:07:50Z</time>
      </trkpt>
      <trkpt lat="45.92331" lon="4.7586">
        <ele>173</ele>
        <time>2017-07-21T10:07:52Z</time>
      </trkpt>
      <trkpt lat="45.92326" lon="4.75857">
        <ele>174</ele>
        <time>2017-07-21T10:07:53Z</time>
      </trkpt>
      <trkpt lat="45.92322" lon="4.75854">
        <ele>174</ele>
        <time>2017-07-21T10:07:54Z</time>
      </trkpt>
      <trkpt lat="45.92316" lon="4.75851">
        <ele>174</ele>
        <time>2017-07-21T10:07:55Z</time>
      </trkpt>
      <trkpt lat="45.92312" lon="4.75849">
        <ele>173</ele>
        <time>2017-07-21T10:07:56Z</time>
      </trkpt>
      <trkpt lat="45.92307" lon="4.75846">
        <ele>173</ele>
        <time>2017-07-21T10:07:57Z</time>
      </trkpt>
      <trkpt lat="45.92302" lon="4.75843">
        <ele>173</ele>
        <time>2017-07-21T10:07:58Z</time>
      </trkpt>
      <trkpt lat="45.92297" lon="4.7584">
        <ele>173</ele>
        <time>2017-07-21T10:07:59Z</time>
      </trkpt>
      <trkpt lat="45.92291" lon="4.75836">
        <ele>173</ele>
        <time>2017-07-21T10:08:00Z</time>
      </trkpt>
      <trkpt lat="45.92285" lon="4.75833">
        <ele>174</ele>
        <time>2017-07-21T10:08:01Z</time>
      </trkpt>
      <trkpt lat="45.9228" lon="4.75829">
        <ele>174</ele>
        <time>2017-07-21T10:08:02Z</time>
      </trkpt>
      <trkpt lat="45.92275" lon="4.75825">
        <ele>174</ele>
        <time>2017-07-21T10:08:03Z</time>
      </trkpt>
      <trkpt lat="45.92271" lon="4.7582">
        <ele>174</ele>
        <time>2017-07-21T10:08:04Z</time>
      </trkpt>
      <trkpt lat="45.92268" lon="4.75814">
        <ele>174</ele>
        <time>2017-07-21T10:08:05Z</time>
      </trkpt>
      <trkpt lat="45.92265" lon="4.75808">
        <ele>174</ele>
        <time>2017-07-21T10:08:06Z</time>
      </trkpt>
      <trkpt lat="45.92262" lon="4.75802">
        <ele>174</ele>
        <time>2017-07-21T10:08:07Z</time>
      </trkpt>
      <trkpt lat="45.92261" lon="4.75796">
        <ele>174</ele>
        <time>2017-07-21T10:08:08Z</time>
      </trkpt>
      <trkpt lat="45.92259" lon="4.75789">
        <ele>174</ele>
        <time>2017-07-21T10:08:09Z</time>
      </trkpt>
      <trkpt lat="45.92257" lon="4.75782">
        <ele>174</ele>
        <time>2017-07-21T10:08:10Z</time>
      </trkpt>
      <trkpt lat="45.92257" lon="4.75774">
        <ele>174</ele>
        <time>2017-07-21T10:08:11Z</time>
      </trkpt>
      <trkpt lat="45.92255" lon="4.75766">
        <ele>174</ele>
        <time>2017-07-21T10:08:12Z</time>
      </trkpt>
      <trkpt lat="45.92254" lon="4.75758">
        <ele>174</ele>
        <time>2017-07-21T10:08:13Z</time>
      </trkpt>
      <trkpt lat="45.92252" lon="4.75751">
        <ele>174</ele>
        <time>2017-07-21T10:08:14Z</time>
      </trkpt>
      <trkpt lat="45.92251" lon="4.75743">
        <ele>174</ele>
        <time>2017-07-21T10:08:15Z</time>
      </trkpt>
      <trkpt lat="45.92249" lon="4.75735">
        <ele>174</ele>
        <time>2017-07-21T10:08:16Z</time>
      </trkpt>
      <trkpt lat="45.92246" lon="4.75729">
        <ele>174</ele>
        <time>2017-07-21T10:08:17Z</time>
      </trkpt>
      <trkpt lat="45.92243" lon="4.75722">
        <ele>174</ele>
        <time>2017-07-21T10:08:18Z</time>
      </trkpt>
      <trkpt lat="45.9224" lon="4.75715">
        <ele>174</ele>
        <time>2017-07-21T10:08:19Z</time>
      </trkpt>
      <trkpt lat="45.92237" lon="4.75709">
        <ele>174</ele>
        <time>2017-07-21T10:08:20Z</time>
      </trkpt>
      <trkpt lat="45.92233" lon="4.75704">
        <ele>174</ele>
        <time>2017-07-21T10:08:21Z</time>
      </trkpt>
      <trkpt lat="45.92229" lon="4.75699">
        <ele>174</ele>
        <time>2017-07-21T10:08:22Z</time>
      </trkpt>
      <trkpt lat="45.92225" lon="4.75694">
        <ele>174</ele>
        <time>2017-07-21T10:08:23Z</time>
      </trkpt>
      <trkpt lat="45.9222" lon="4.7569">
        <ele>174</ele>
        <time>2017-07-21T10:08:24Z</time>
      </trkpt>
      <trkpt lat="45.92216" lon="4.75684">
        <ele>174</ele>
        <time>2017-07-21T10:08:25Z</time>
      </trkpt>
      <trkpt lat="45.92211" lon="4.75679">
        <ele>174</ele>
        <time>2017-07-21T10:08:26Z</time>
      </trkpt>
      <trkpt lat="45.92207" lon="4.75674">
        <ele>174</ele>
        <time>2017-07-21T10:08:27Z</time>
      </trkpt>
      <trkpt lat="45.92203" lon="4.75669">
        <ele>174</ele>
        <time>2017-07-21T10:08:28Z</time>
      </trkpt>
      <trkpt lat="45.92199" lon="4.75665">
        <ele>174</ele>
        <time>2017-07-21T10:08:29Z</time>
      </trkpt>
      <trkpt lat="45.92194" lon="4.75661">
        <ele>174</ele>
        <time>2017-07-21T10:08:30Z</time>
      </trkpt>
      <trkpt lat="45.92189" lon="4.75656">
        <ele>174</ele>
        <time>2017-07-21T10:08:31Z</time>
      </trkpt>
      <trkpt lat="45.92185" lon="4.75652">
        <ele>174</ele>
        <time>2017-07-21T10:08:32Z</time>
      </trkpt>
      <trkpt lat="45.9218" lon="4.75648">
        <ele>174</ele>
        <time>2017-07-21T10:08:33Z</time>
      </trkpt>
      <trkpt lat="45.92176" lon="4.75643">
        <ele>174</ele>
        <time>2017-07-21T10:08:34Z</time>
      </trkpt>
      <trkpt lat="45.92171" lon="4.75639">
        <ele>174</ele>
        <time>2017-07-21T10:08:35Z</time>
      </trkpt>
      <trkpt lat="45.92167" lon="4.75634">
        <ele>174</ele>
        <time>2017-07-21T10:08:36Z</time>
      </trkpt>
      <trkpt lat="45.92162" lon="4.7563">
        <ele>174</ele>
        <time>2017-07-21T10:08:37Z</time>
      </trkpt>
      <trkpt lat="45.92157" lon="4.75625">
        <ele>174</ele>
        <time>2017-07-21T10:08:38Z</time>
      </trkpt>
      <trkpt lat="45.92152" lon="4.7562">
        <ele>174</ele>
        <time>2017-07-21T10:08:39Z</time>
      </trkpt>
      <trkpt lat="45.92147" lon="4.75615">
        <ele>174</ele>
        <time>2017-07-21T10:08:40Z</time>
      </trkpt>
      <trkpt lat="45.92142" lon="4.75611">
        <ele>174</ele>
        <time>2017-07-21T10:08:41Z</time>
      </trkpt>
      <trkpt lat="45.92138" lon="4.75607">
        <ele>174</ele>
        <time>2017-07-21T10:08:42Z</time>
      </trkpt>
      <trkpt lat="45.92134" lon="4.75602">
        <ele>174</ele>
        <time>2017-07-21T10:08:43Z</time>
      </trkpt>
      <trkpt lat="45.9213" lon="4.75598">
        <ele>174</ele>
        <time>2017-07-21T10:08:44Z</time>
      </trkpt>
      <trkpt lat="45.92126" lon="4.75594">
        <ele>174</ele>
        <time>2017-07-21T10:08:45Z</time>
      </trkpt>
      <trkpt lat="45.9212" lon="4.75586">
        <ele>174</ele>
        <time>2017-07-21T10:08:47Z</time>
      </trkpt>
      <trkpt lat="45.92118" lon="4.75582">
        <ele>174</ele>
        <time>2017-07-21T10:08:48Z</time>
      </trkpt>
      <trkpt lat="45.92118" lon="4.75571">
        <ele>174</ele>
        <time>2017-07-21T10:08:50Z</time>
      </trkpt>
      <trkpt lat="45.92121" lon="4.75565">
        <ele>174</ele>
        <time>2017-07-21T10:08:51Z</time>
      </trkpt>
      <trkpt lat="45.92123" lon="4.75559">
        <ele>174</ele>
        <time>2017-07-21T10:08:52Z</time>
      </trkpt>
      <trkpt lat="45.92126" lon="4.75553">
        <ele>174</ele>
        <time>2017-07-21T10:08:53Z</time>
      </trkpt>
      <trkpt lat="45.9213" lon="4.75547">
        <ele>174</ele>
        <time>2017-07-21T10:08:54Z</time>
      </trkpt>
      <trkpt lat="45.92133" lon="4.75541">
        <ele>174</ele>
        <time>2017-07-21T10:08:55Z</time>
      </trkpt>
      <trkpt lat="45.92137" lon="4.75534">
        <ele>174</ele>
        <time>2017-07-21T10:08:56Z</time>
      </trkpt>
      <trkpt lat="45.92141" lon="4.75528">
        <ele>174</ele>
        <time>2017-07-21T10:08:57Z</time>
      </trkpt>
      <trkpt lat="45.92144" lon="4.75521">
        <ele>174</ele>
        <time>2017-07-21T10:08:58Z</time>
      </trkpt>
      <trkpt lat="45.92147" lon="4.75515">
        <ele>175</ele>
        <time>2017-07-21T10:08:59Z</time>
      </trkpt>
      <trkpt lat="45.9215" lon="4.75508">
        <ele>175</ele>
        <time>2017-07-21T10:09:00Z</time>
      </trkpt>
      <trkpt lat="45.92152" lon="4.75501">
        <ele>175</ele>
        <time>2017-07-21T10:09:01Z</time>
      </trkpt>
      <trkpt lat="45.92155" lon="4.75495">
        <ele>175</ele>
        <time>2017-07-21T10:09:02Z</time>
      </trkpt>
      <trkpt lat="45.92157" lon="4.75488">
        <ele>175</ele>
        <time>2017-07-21T10:09:03Z</time>
      </trkpt>
      <trkpt lat="45.9216" lon="4.75482">
        <ele>176</ele>
        <time>2017-07-21T10:09:04Z</time>
      </trkpt>
      <trkpt lat="45.92162" lon="4.75475">
        <ele>176</ele>
        <time>2017-07-21T10:09:05Z</time>
      </trkpt>
      <trkpt lat="45.92164" lon="4.75468">
        <ele>176</ele>
        <time>2017-07-21T10:09:06Z</time>
      </trkpt>
      <trkpt lat="45.92167" lon="4.75461">
        <ele>176</ele>
        <time>2017-07-21T10:09:07Z</time>
      </trkpt>
      <trkpt lat="45.9217" lon="4.75454">
        <ele>176</ele>
        <time>2017-07-21T10:09:08Z</time>
      </trkpt>
      <trkpt lat="45.92172" lon="4.75447">
        <ele>176</ele>
        <time>2017-07-21T10:09:09Z</time>
      </trkpt>
      <trkpt lat="45.92175" lon="4.7544">
        <ele>177</ele>
        <time>2017-07-21T10:09:10Z</time>
      </trkpt>
      <trkpt lat="45.92179" lon="4.75437">
        <ele>177</ele>
        <time>2017-07-21T10:09:11Z</time>
      </trkpt>
      <trkpt lat="45.92182" lon="4.7543">
        <ele>177</ele>
        <time>2017-07-21T10:09:12Z</time>
      </trkpt>
      <trkpt lat="45.92184" lon="4.75423">
        <ele>177</ele>
        <time>2017-07-21T10:09:13Z</time>
      </trkpt>
      <trkpt lat="45.92188" lon="4.75418">
        <ele>177</ele>
        <time>2017-07-21T10:09:14Z</time>
      </trkpt>
      <trkpt lat="45.92189" lon="4.75412">
        <ele>177</ele>
        <time>2017-07-21T10:09:15Z</time>
      </trkpt>
      <trkpt lat="45.92189" lon="4.75403">
        <ele>177</ele>
        <time>2017-07-21T10:09:16Z</time>
      </trkpt>
      <trkpt lat="45.92191" lon="4.75396">
        <ele>177</ele>
        <time>2017-07-21T10:09:17Z</time>
      </trkpt>
      <trkpt lat="45.92194" lon="4.75391">
        <ele>177</ele>
        <time>2017-07-21T10:09:18Z</time>
      </trkpt>
      <trkpt lat="45.92196" lon="4.75385">
        <ele>177</ele>
        <time>2017-07-21T10:09:19Z</time>
      </trkpt>
      <trkpt lat="45.92198" lon="4.75378">
        <ele>177</ele>
        <time>2017-07-21T10:09:20Z</time>
      </trkpt>
      <trkpt lat="45.92201" lon="4.75371">
        <ele>177</ele>
        <time>2017-07-21T10:09:21Z</time>
      </trkpt>
      <trkpt lat="45.92203" lon="4.75364">
        <ele>177</ele>
        <time>2017-07-21T10:09:22Z</time>
      </trkpt>
      <trkpt lat="45.92205" lon="4.75357">
        <ele>177</ele>
        <time>2017-07-21T10:09:23Z</time>
      </trkpt>
      <trkpt lat="45.92206" lon="4.75348">
        <ele>177</ele>
        <time>2017-07-21T10:09:24Z</time>
      </trkpt>
      <trkpt lat="45.92207" lon="4.7534">
        <ele>177</ele>
        <time>2017-07-21T10:09:25Z</time>
      </trkpt>
      <trkpt lat="45.92208" lon="4.75331">
        <ele>176</ele>
        <time>2017-07-21T10:09:26Z</time>
      </trkpt>
      <trkpt lat="45.92211" lon="4.75323">
        <ele>176</ele>
        <time>2017-07-21T10:09:27Z</time>
      </trkpt>
      <trkpt lat="45.92212" lon="4.75315">
        <ele>176</ele>
        <time>2017-07-21T10:09:28Z</time>
      </trkpt>
      <trkpt lat="45.92212" lon="4.75306">
        <ele>176</ele>
        <time>2017-07-21T10:09:29Z</time>
      </trkpt>
      <trkpt lat="45.92212" lon="4.75297">
        <ele>176</ele>
        <time>2017-07-21T10:09:30Z</time>
      </trkpt>
      <trkpt lat="45.92212" lon="4.75288">
        <ele>176</ele>
        <time>2017-07-21T10:09:31Z</time>
      </trkpt>
      <trkpt lat="45.92212" lon="4.75279">
        <ele>176</ele>
        <time>2017-07-21T10:09:32Z</time>
      </trkpt>
      <trkpt lat="45.92213" lon="4.7527">
        <ele>176</ele>
        <time>2017-07-21T10:09:33Z</time>
      </trkpt>
      <trkpt lat="45.92213" lon="4.75261">
        <ele>176</ele>
        <time>2017-07-21T10:09:34Z</time>
      </trkpt>
      <trkpt lat="45.92214" lon="4.75253">
        <ele>175</ele>
        <time>2017-07-21T10:09:35Z</time>
      </trkpt>
      <trkpt lat="45.92215" lon="4.75244">
        <ele>175</ele>
        <time>2017-07-21T10:09:36Z</time>
      </trkpt>
      <trkpt lat="45.92215" lon="4.75235">
        <ele>175</ele>
        <time>2017-07-21T10:09:37Z</time>
      </trkpt>
      <trkpt lat="45.92215" lon="4.75226">
        <ele>175</ele>
        <time>2017-07-21T10:09:38Z</time>
      </trkpt>
      <trkpt lat="45.92216" lon="4.75216">
        <ele>175</ele>
        <time>2017-07-21T10:09:39Z</time>
      </trkpt>
      <trkpt lat="45.92218" lon="4.75207">
        <ele>175</ele>
        <time>2017-07-21T10:09:40Z</time>
      </trkpt>
      <trkpt lat="45.92221" lon="4.75198">
        <ele>175</ele>
        <time>2017-07-21T10:09:41Z</time>
      </trkpt>
      <trkpt lat="45.92224" lon="4.75189">
        <ele>175</ele>
        <time>2017-07-21T10:09:42Z</time>
      </trkpt>
      <trkpt lat="45.92227" lon="4.7518">
        <ele>175</ele>
        <time>2017-07-21T10:09:43Z</time>
      </trkpt>
      <trkpt lat="45.9223" lon="4.75172">
        <ele>175</ele>
        <time>2017-07-21T10:09:44Z</time>
      </trkpt>
      <trkpt lat="45.92233" lon="4.75164">
        <ele>174</ele>
        <time>2017-07-21T10:09:45Z</time>
      </trkpt>
      <trkpt lat="45.92237" lon="4.75156">
        <ele>174</ele>
        <time>2017-07-21T10:09:46Z</time>
      </trkpt>
      <trkpt lat="45.92241" lon="4.75149">
        <ele>174</ele>
        <time>2017-07-21T10:09:47Z</time>
      </trkpt>
      <trkpt lat="45.92245" lon="4.75143">
        <ele>174</ele>
        <time>2017-07-21T10:09:48Z</time>
      </trkpt>
      <trkpt lat="45.9225" lon="4.75137">
        <ele>174</ele>
        <time>2017-07-21T10:09:49Z</time>
      </trkpt>
      <trkpt lat="45.92254" lon="4.75131">
        <ele>174</ele>
        <time>2017-07-21T10:09:50Z</time>
      </trkpt>
      <trkpt lat="45.92259" lon="4.75126">
        <ele>174</ele>
        <time>2017-07-21T10:09:51Z</time>
      </trkpt>
      <trkpt lat="45.92265" lon="4.75121">
        <ele>174</ele>
        <time>2017-07-21T10:09:52Z</time>
      </trkpt>
      <trkpt lat="45.92269" lon="4.75115">
        <ele>174</ele>
        <time>2017-07-21T10:09:53Z</time>
      </trkpt>
      <trkpt lat="45.92274" lon="4.7511">
        <ele>174</ele>
        <time>2017-07-21T10:09:54Z</time>
      </trkpt>
      <trkpt lat="45.92278" lon="4.75105">
        <ele>174</ele>
        <time>2017-07-21T10:09:55Z</time>
      </trkpt>
      <trkpt lat="45.92282" lon="4.75099">
        <ele>173</ele>
        <time>2017-07-21T10:09:56Z</time>
      </trkpt>
      <trkpt lat="45.92286" lon="4.75094">
        <ele>173</ele>
        <time>2017-07-21T10:09:57Z</time>
      </trkpt>
      <trkpt lat="45.92291" lon="4.7509">
        <ele>173</ele>
        <time>2017-07-21T10:09:58Z</time>
      </trkpt>
      <trkpt lat="45.92296" lon="4.75084">
        <ele>173</ele>
        <time>2017-07-21T10:09:59Z</time>
      </trkpt>
      <trkpt lat="45.92301" lon="4.75079">
        <ele>172</ele>
        <time>2017-07-21T10:10:00Z</time>
      </trkpt>
      <trkpt lat="45.92306" lon="4.75073">
        <ele>172</ele>
        <time>2017-07-21T10:10:01Z</time>
      </trkpt>
      <trkpt lat="45.92311" lon="4.75066">
        <ele>172</ele>
        <time>2017-07-21T10:10:02Z</time>
      </trkpt>
      <trkpt lat="45.92316" lon="4.75059">
        <ele>172</ele>
        <time>2017-07-21T10:10:03Z</time>
      </trkpt>
      <trkpt lat="45.92321" lon="4.75051">
        <ele>172</ele>
        <time>2017-07-21T10:10:04Z</time>
      </trkpt>
      <trkpt lat="45.92326" lon="4.75043">
        <ele>172</ele>
        <time>2017-07-21T10:10:05Z</time>
      </trkpt>
      <trkpt lat="45.92331" lon="4.75036">
        <ele>171</ele>
        <time>2017-07-21T10:10:06Z</time>
      </trkpt>
      <trkpt lat="45.92335" lon="4.75029">
        <ele>170</ele>
        <time>2017-07-21T10:10:07Z</time>
      </trkpt>
      <trkpt lat="45.92338" lon="4.75021">
        <ele>170</ele>
        <time>2017-07-21T10:10:08Z</time>
      </trkpt>
      <trkpt lat="45.92342" lon="4.75014">
        <ele>170</ele>
        <time>2017-07-21T10:10:09Z</time>
      </trkpt>
      <trkpt lat="45.92345" lon="4.75006">
        <ele>170</ele>
        <time>2017-07-21T10:10:10Z</time>
      </trkpt>
      <trkpt lat="45.92348" lon="4.74999">
        <ele>170</ele>
        <time>2017-07-21T10:10:11Z</time>
      </trkpt>
      <trkpt lat="45.92351" lon="4.74992">
        <ele>170</ele>
        <time>2017-07-21T10:10:12Z</time>
      </trkpt>
      <trkpt lat="45.92354" lon="4.74985">
        <ele>170</ele>
        <time>2017-07-21T10:10:13Z</time>
      </trkpt>
      <trkpt lat="45.92356" lon="4.74978">
        <ele>170</ele>
        <time>2017-07-21T10:10:14Z</time>
      </trkpt>
      <trkpt lat="45.92359" lon="4.74971">
        <ele>170</ele>
        <time>2017-07-21T10:10:15Z</time>
      </trkpt>
      <trkpt lat="45.92362" lon="4.74963">
        <ele>170</ele>
        <time>2017-07-21T10:10:16Z</time>
      </trkpt>
      <trkpt lat="45.92365" lon="4.74955">
        <ele>170</ele>
        <time>2017-07-21T10:10:17Z</time>
      </trkpt>
      <trkpt lat="45.92369" lon="4.74948">
        <ele>170</ele>
        <time>2017-07-21T10:10:18Z</time>
      </trkpt>
      <trkpt lat="45.92372" lon="4.7494">
        <ele>170</ele>
        <time>2017-07-21T10:10:19Z</time>
      </trkpt>
      <trkpt lat="45.92374" lon="4.74932">
        <ele>170</ele>
        <time>2017-07-21T10:10:20Z</time>
      </trkpt>
      <trkpt lat="45.92377" lon="4.74925">
        <ele>170</ele>
        <time>2017-07-21T10:10:21Z</time>
      </trkpt>
      <trkpt lat="45.9238" lon="4.74918">
        <ele>170</ele>
        <time>2017-07-21T10:10:22Z</time>
      </trkpt>
      <trkpt lat="45.92383" lon="4.74911">
        <ele>171</ele>
        <time>2017-07-21T10:10:23Z</time>
      </trkpt>
      <trkpt lat="45.92385" lon="4.74905">
        <ele>171</ele>
        <time>2017-07-21T10:10:24Z</time>
      </trkpt>
      <trkpt lat="45.92388" lon="4.74898">
        <ele>171</ele>
        <time>2017-07-21T10:10:25Z</time>
      </trkpt>
      <trkpt lat="45.9239" lon="4.74891">
        <ele>171</ele>
        <time>2017-07-21T10:10:26Z</time>
      </trkpt>
      <trkpt lat="45.92392" lon="4.74884">
        <ele>171</ele>
        <time>2017-07-21T10:10:27Z</time>
      </trkpt>
      <trkpt lat="45.92395" lon="4.74877">
        <ele>171</ele>
        <time>2017-07-21T10:10:28Z</time>
      </trkpt>
      <trkpt lat="45.92397" lon="4.7487">
        <ele>171</ele>
        <time>2017-07-21T10:10:29Z</time>
      </trkpt>
      <trkpt lat="45.924" lon="4.74863">
        <ele>171</ele>
        <time>2017-07-21T10:10:30Z</time>
      </trkpt>
      <trkpt lat="45.92402" lon="4.74855">
        <ele>171</ele>
        <time>2017-07-21T10:10:31Z</time>
      </trkpt>
      <trkpt lat="45.92404" lon="4.74848">
        <ele>171</ele>
        <time>2017-07-21T10:10:32Z</time>
      </trkpt>
      <trkpt lat="45.92406" lon="4.7484">
        <ele>171</ele>
        <time>2017-07-21T10:10:33Z</time>
      </trkpt>
      <trkpt lat="45.92408" lon="4.74832">
        <ele>171</ele>
        <time>2017-07-21T10:10:34Z</time>
      </trkpt>
      <trkpt lat="45.9241" lon="4.74824">
        <ele>171</ele>
        <time>2017-07-21T10:10:35Z</time>
      </trkpt>
      <trkpt lat="45.92412" lon="4.74815">
        <ele>171</ele>
        <time>2017-07-21T10:10:36Z</time>
      </trkpt>
      <trkpt lat="45.92414" lon="4.74807">
        <ele>171</ele>
        <time>2017-07-21T10:10:37Z</time>
      </trkpt>
      <trkpt lat="45.92415" lon="4.74799">
        <ele>171</ele>
        <time>2017-07-21T10:10:38Z</time>
      </trkpt>
      <trkpt lat="45.92416" lon="4.74791">
        <ele>171</ele>
        <time>2017-07-21T10:10:39Z</time>
      </trkpt>
      <trkpt lat="45.92418" lon="4.74784">
        <ele>171</ele>
        <time>2017-07-21T10:10:40Z</time>
      </trkpt>
      <trkpt lat="45.9242" lon="4.74777">
        <ele>171</ele>
        <time>2017-07-21T10:10:41Z</time>
      </trkpt>
      <trkpt lat="45.92421" lon="4.7477">
        <ele>171</ele>
        <time>2017-07-21T10:10:42Z</time>
      </trkpt>
      <trkpt lat="45.92423" lon="4.74762">
        <ele>171</ele>
        <time>2017-07-21T10:10:43Z</time>
      </trkpt>
      <trkpt lat="45.92425" lon="4.74756">
        <ele>171</ele>
        <time>2017-07-21T10:10:44Z</time>
      </trkpt>
      <trkpt lat="45.92427" lon="4.74749">
        <ele>172</ele>
        <time>2017-07-21T10:10:45Z</time>
      </trkpt>
      <trkpt lat="45.92429" lon="4.74741">
        <ele>171</ele>
        <time>2017-07-21T10:10:46Z</time>
      </trkpt>
      <trkpt lat="45.92432" lon="4.74734">
        <ele>171</ele>
        <time>2017-07-21T10:10:47Z</time>
      </trkpt>
      <trkpt lat="45.92434" lon="4.74727">
        <ele>171</ele>
        <time>2017-07-21T10:10:48Z</time>
      </trkpt>
      <trkpt lat="45.92437" lon="4.7472">
        <ele>171</ele>
        <time>2017-07-21T10:10:49Z</time>
      </trkpt>
      <trkpt lat="45.9244" lon="4.74712">
        <ele>171</ele>
        <time>2017-07-21T10:10:50Z</time>
      </trkpt>
      <trkpt lat="45.92442" lon="4.74705">
        <ele>171</ele>
        <time>2017-07-21T10:10:51Z</time>
      </trkpt>
      <trkpt lat="45.92445" lon="4.74699">
        <ele>171</ele>
        <time>2017-07-21T10:10:52Z</time>
      </trkpt>
      <trkpt lat="45.92447" lon="4.74693">
        <ele>171</ele>
        <time>2017-07-21T10:10:53Z</time>
      </trkpt>
      <trkpt lat="45.9245" lon="4.74686">
        <ele>171</ele>
        <time>2017-07-21T10:10:54Z</time>
      </trkpt>
      <trkpt lat="45.92453" lon="4.7468">
        <ele>171</ele>
        <time>2017-07-21T10:10:55Z</time>
      </trkpt>
      <trkpt lat="45.92456" lon="4.74674">
        <ele>171</ele>
        <time>2017-07-21T10:10:56Z</time>
      </trkpt>
      <trkpt lat="45.92459" lon="4.74668">
        <ele>171</ele>
        <time>2017-07-21T10:10:57Z</time>
      </trkpt>
      <trkpt lat="45.92462" lon="4.74663">
        <ele>171</ele>
        <time>2017-07-21T10:10:58Z</time>
      </trkpt>
      <trkpt lat="45.92464" lon="4.74656">
        <ele>171</ele>
        <time>2017-07-21T10:10:59Z</time>
      </trkpt>
      <trkpt lat="45.92468" lon="4.7465">
        <ele>171</ele>
        <time>2017-07-21T10:11:00Z</time>
      </trkpt>
      <trkpt lat="45.92471" lon="4.74645">
        <ele>171</ele>
        <time>2017-07-21T10:11:01Z</time>
      </trkpt>
      <trkpt lat="45.92473" lon="4.74639">
        <ele>171</ele>
        <time>2017-07-21T10:11:02Z</time>
      </trkpt>
      <trkpt lat="45.92478" lon="4.74632">
        <ele>171</ele>
        <time>2017-07-21T10:11:03Z</time>
      </trkpt>
      <trkpt lat="45.92484" lon="4.74625">
        <ele>171</ele>
        <time>2017-07-21T10:11:04Z</time>
      </trkpt>
      <trkpt lat="45.92489" lon="4.74619">
        <ele>171</ele>
        <time>2017-07-21T10:11:05Z</time>
      </trkpt>
      <trkpt lat="45.92494" lon="4.74612">
        <ele>171</ele>
        <time>2017-07-21T10:11:06Z</time>
      </trkpt>
      <trkpt lat="45.92499" lon="4.74608">
        <ele>171</ele>
        <time>2017-07-21T10:11:07Z</time>
      </trkpt>
      <trkpt lat="45.92503" lon="4.74602">
        <ele>171</ele>
        <time>2017-07-21T10:11:08Z</time>
      </trkpt>
      <trkpt lat="45.92508" lon="4.74597">
        <ele>171</ele>
        <time>2017-07-21T10:11:09Z</time>
      </trkpt>
      <trkpt lat="45.92513" lon="4.74592">
        <ele>171</ele>
        <time>2017-07-21T10:11:10Z</time>
      </trkpt>
      <trkpt lat="45.92518" lon="4.74587">
        <ele>171</ele>
        <time>2017-07-21T10:11:11Z</time>
      </trkpt>
      <trkpt lat="45.92523" lon="4.74581">
        <ele>171</ele>
        <time>2017-07-21T10:11:12Z</time>
      </trkpt>
      <trkpt lat="45.92527" lon="4.74575">
        <ele>171</ele>
        <time>2017-07-21T10:11:13Z</time>
      </trkpt>
      <trkpt lat="45.92532" lon="4.7457">
        <ele>171</ele>
        <time>2017-07-21T10:11:14Z</time>
      </trkpt>
      <trkpt lat="45.92536" lon="4.74564">
        <ele>171</ele>
        <time>2017-07-21T10:11:15Z</time>
      </trkpt>
      <trkpt lat="45.9254" lon="4.74557">
        <ele>171</ele>
        <time>2017-07-21T10:11:16Z</time>
      </trkpt>
      <trkpt lat="45.92544" lon="4.74551">
        <ele>170</ele>
        <time>2017-07-21T10:11:17Z</time>
      </trkpt>
      <trkpt lat="45.92548" lon="4.74545">
        <ele>170</ele>
        <time>2017-07-21T10:11:18Z</time>
      </trkpt>
      <trkpt lat="45.92551" lon="4.74539">
        <ele>170</ele>
        <time>2017-07-21T10:11:19Z</time>
      </trkpt>
      <trkpt lat="45.92555" lon="4.74533">
        <ele>170</ele>
        <time>2017-07-21T10:11:20Z</time>
      </trkpt>
      <trkpt lat="45.92559" lon="4.74526">
        <ele>170</ele>
        <time>2017-07-21T10:11:21Z</time>
      </trkpt>
      <trkpt lat="45.92562" lon="4.74519">
        <ele>170</ele>
        <time>2017-07-21T10:11:22Z</time>
      </trkpt>
      <trkpt lat="45.92566" lon="4.74511">
        <ele>170</ele>
        <time>2017-07-21T10:11:23Z</time>
      </trkpt>
      <trkpt lat="45.92571" lon="4.74504">
        <ele>170</ele>
        <time>2017-07-21T10:11:24Z</time>
      </trkpt>
      <trkpt lat="45.92574" lon="4.74497">
        <ele>170</ele>
        <time>2017-07-21T10:11:25Z</time>
      </trkpt>
      <trkpt lat="45.92578" lon="4.7449">
        <ele>170</ele>
        <time>2017-07-21T10:11:26Z</time>
      </trkpt>
      <trkpt lat="45.92582" lon="4.74484">
        <ele>170</ele>
        <time>2017-07-21T10:11:27Z</time>
      </trkpt>
      <trkpt lat="45.92586" lon="4.74478">
        <ele>170</ele>
        <time>2017-07-21T10:11:28Z</time>
      </trkpt>
      <trkpt lat="45.92589" lon="4.74472">
        <ele>170</ele>
        <time>2017-07-21T10:11:29Z</time>
      </trkpt>
      <trkpt lat="45.92593" lon="4.74465">
        <ele>170</ele>
        <time>2017-07-21T10:11:30Z</time>
      </trkpt>
      <trkpt lat="45.92596" lon="4.74459">
        <ele>170</ele>
        <time>2017-07-21T10:11:31Z</time>
      </trkpt>
      <trkpt lat="45.92599" lon="4.74453">
        <ele>170</ele>
        <time>2017-07-21T10:11:32Z</time>
      </trkpt>
      <trkpt lat="45.92603" lon="4.74446">
        <ele>170</ele>
        <time>2017-07-21T10:11:33Z</time>
      </trkpt>
      <trkpt lat="45.92606" lon="4.74441">
        <ele>170</ele>
        <time>2017-07-21T10:11:34Z</time>
      </trkpt>
      <trkpt lat="45.92609" lon="4.74436">
        <ele>170</ele>
        <time>2017-07-21T10:11:35Z</time>
      </trkpt>
      <trkpt lat="45.92612" lon="4.7443">
        <ele>170</ele>
        <time>2017-07-21T10:11:36Z</time>
      </trkpt>
      <trkpt lat="45.92615" lon="4.74424">
        <ele>170</ele>
        <time>2017-07-21T10:11:37Z</time>
      </trkpt>
      <trkpt lat="45.92618" lon="4.74419">
        <ele>170</ele>
        <time>2017-07-21T10:11:38Z</time>
      </trkpt>
      <trkpt lat="45.92621" lon="4.74413">
        <ele>170</ele>
        <time>2017-07-21T10:11:39Z</time>
      </trkpt>
      <trkpt lat="45.92624" lon="4.74407">
        <ele>170</ele>
        <time>2017-07-21T10:11:40Z</time>
      </trkpt>
      <trkpt lat="45.92627" lon="4.74401">
        <ele>170</ele>
        <time>2017-07-21T10:11:41Z</time>
      </trkpt>
      <trkpt lat="45.92631" lon="4.74395">
        <ele>170</ele>
        <time>2017-07-21T10:11:42Z</time>
      </trkpt>
      <trkpt lat="45.92635" lon="4.74388">
        <ele>170</ele>
        <time>2017-07-21T10:11:43Z</time>
      </trkpt>
      <trkpt lat="45.92639" lon="4.74381">
        <ele>170</ele>
        <time>2017-07-21T10:11:44Z</time>
      </trkpt>
      <trkpt lat="45.92643" lon="4.74374">
        <ele>171</ele>
        <time>2017-07-21T10:11:45Z</time>
      </trkpt>
      <trkpt lat="45.92646" lon="4.74367">
        <ele>171</ele>
        <time>2017-07-21T10:11:46Z</time>
      </trkpt>
      <trkpt lat="45.9265" lon="4.7436">
        <ele>171</ele>
        <time>2017-07-21T10:11:47Z</time>
      </trkpt>
      <trkpt lat="45.92653" lon="4.74354">
        <ele>171</ele>
        <time>2017-07-21T10:11:48Z</time>
      </trkpt>
      <trkpt lat="45.92656" lon="4.74348">
        <ele>171</ele>
        <time>2017-07-21T10:11:49Z</time>
      </trkpt>
      <trkpt lat="45.92659" lon="4.74344">
        <ele>171</ele>
        <time>2017-07-21T10:11:50Z</time>
      </trkpt>
      <trkpt lat="45.92663" lon="4.74339">
        <ele>171</ele>
        <time>2017-07-21T10:11:51Z</time>
      </trkpt>
      <trkpt lat="45.92666" lon="4.74333">
        <ele>171</ele>
        <time>2017-07-21T10:11:52Z</time>
      </trkpt>
      <trkpt lat="45.92669" lon="4.74327">
        <ele>171</ele>
        <time>2017-07-21T10:11:53Z</time>
      </trkpt>
      <trkpt lat="45.92671" lon="4.74321">
        <ele>171</ele>
        <time>2017-07-21T10:11:54Z</time>
      </trkpt>
      <trkpt lat="45.92675" lon="4.74314">
        <ele>171</ele>
        <time>2017-07-21T10:11:55Z</time>
      </trkpt>
      <trkpt lat="45.92678" lon="4.74308">
        <ele>171</ele>
        <time>2017-07-21T10:11:56Z</time>
      </trkpt>
      <trkpt lat="45.92682" lon="4.74302">
        <ele>171</ele>
        <time>2017-07-21T10:11:57Z</time>
      </trkpt>
      <trkpt lat="45.92685" lon="4.74296">
        <ele>171</ele>
        <time>2017-07-21T10:11:58Z</time>
      </trkpt>
      <trkpt lat="45.92689" lon="4.7429">
        <ele>171</ele>
        <time>2017-07-21T10:11:59Z</time>
      </trkpt>
      <trkpt lat="45.92692" lon="4.74284">
        <ele>171</ele>
        <time>2017-07-21T10:12:00Z</time>
      </trkpt>
      <trkpt lat="45.92695" lon="4.74279">
        <ele>171</ele>
        <time>2017-07-21T10:12:01Z</time>
      </trkpt>
      <trkpt lat="45.92698" lon="4.74273">
        <ele>171</ele>
        <time>2017-07-21T10:12:02Z</time>
      </trkpt>
      <trkpt lat="45.92701" lon="4.74268">
        <ele>171</ele>
        <time>2017-07-21T10:12:03Z</time>
      </trkpt>
      <trkpt lat="45.92704" lon="4.74262">
        <ele>171</ele>
        <time>2017-07-21T10:12:04Z</time>
      </trkpt>
      <trkpt lat="45.92708" lon="4.74258">
        <ele>171</ele>
        <time>2017-07-21T10:12:05Z</time>
      </trkpt>
      <trkpt lat="45.92712" lon="4.74252">
        <ele>171</ele>
        <time>2017-07-21T10:12:06Z</time>
      </trkpt>
      <trkpt lat="45.92715" lon="4.74246">
        <ele>171</ele>
        <time>2017-07-21T10:12:07Z</time>
      </trkpt>
      <trkpt lat="45.92718" lon="4.7424">
        <ele>171</ele>
        <time>2017-07-21T10:12:08Z</time>
      </trkpt>
      <trkpt lat="45.92722" lon="4.74234">
        <ele>171</ele>
        <time>2017-07-21T10:12:09Z</time>
      </trkpt>
      <trkpt lat="45.92726" lon="4.74228">
        <ele>171</ele>
        <time>2017-07-21T10:12:10Z</time>
      </trkpt>
      <trkpt lat="45.9273" lon="4.74222">
        <ele>171</ele>
        <time>2017-07-21T10:12:11Z</time>
      </trkpt>
      <trkpt lat="45.92735" lon="4.74215">
        <ele>171</ele>
        <time>2017-07-21T10:12:12Z</time>
      </trkpt>
      <trkpt lat="45.9274" lon="4.74209">
        <ele>171</ele>
        <time>2017-07-21T10:12:13Z</time>
      </trkpt>
      <trkpt lat="45.92744" lon="4.74202">
        <ele>171</ele>
        <time>2017-07-21T10:12:14Z</time>
      </trkpt>
      <trkpt lat="45.92749" lon="4.74195">
        <ele>171</ele>
        <time>2017-07-21T10:12:15Z</time>
      </trkpt>
      <trkpt lat="45.92754" lon="4.74189">
        <ele>172</ele>
        <time>2017-07-21T10:12:16Z</time>
      </trkpt>
      <trkpt lat="45.92759" lon="4.74183">
        <ele>172</ele>
        <time>2017-07-21T10:12:17Z</time>
      </trkpt>
      <trkpt lat="45.92763" lon="4.74177">
        <ele>172</ele>
        <time>2017-07-21T10:12:18Z</time>
      </trkpt>
      <trkpt lat="45.92768" lon="4.74172">
        <ele>172</ele>
        <time>2017-07-21T10:12:19Z</time>
      </trkpt>
      <trkpt lat="45.92773" lon="4.74168">
        <ele>172</ele>
        <time>2017-07-21T10:12:20Z</time>
      </trkpt>
      <trkpt lat="45.92777" lon="4.74163">
        <ele>172</ele>
        <time>2017-07-21T10:12:21Z</time>
      </trkpt>
      <trkpt lat="45.92781" lon="4.74158">
        <ele>172</ele>
        <time>2017-07-21T10:12:22Z</time>
      </trkpt>
      <trkpt lat="45.92786" lon="4.74153">
        <ele>172</ele>
        <time>2017-07-21T10:12:23Z</time>
      </trkpt>
      <trkpt lat="45.92789" lon="4.74149">
        <ele>172</ele>
        <time>2017-07-21T10:12:24Z</time>
      </trkpt>
      <trkpt lat="45.92793" lon="4.74145">
        <ele>172</ele>
        <time>2017-07-21T10:12:25Z</time>
      </trkpt>
      <trkpt lat="45.92798" lon="4.7414">
        <ele>172</ele>
        <time>2017-07-21T10:12:26Z</time>
      </trkpt>
      <trkpt lat="45.92802" lon="4.74136">
        <ele>172</ele>
        <time>2017-07-21T10:12:27Z</time>
      </trkpt>
      <trkpt lat="45.92806" lon="4.74132">
        <ele>172</ele>
        <time>2017-07-21T10:12:28Z</time>
      </trkpt>
      <trkpt lat="45.92811" lon="4.74127">
        <ele>172</ele>
        <time>2017-07-21T10:12:29Z</time>
      </trkpt>
      <trkpt lat="45.92815" lon="4.74122">
        <ele>172</ele>
        <time>2017-07-21T10:12:30Z</time>
      </trkpt>
      <trkpt lat="45.9282" lon="4.74117">
        <ele>172</ele>
        <time>2017-07-21T10:12:31Z</time>
      </trkpt>
      <trkpt lat="45.92825" lon="4.74111">
        <ele>171</ele>
        <time>2017-07-21T10:12:32Z</time>
      </trkpt>
      <trkpt lat="45.92829" lon="4.74106">
        <ele>171</ele>
        <time>2017-07-21T10:12:33Z</time>
      </trkpt>
      <trkpt lat="45.92834" lon="4.74101">
        <ele>171</ele>
        <time>2017-07-21T10:12:34Z</time>
      </trkpt>
      <trkpt lat="45.92839" lon="4.74096">
        <ele>171</ele>
        <time>2017-07-21T10:12:35Z</time>
      </trkpt>
      <trkpt lat="45.92844" lon="4.74092">
        <ele>171</ele>
        <time>2017-07-21T10:12:36Z</time>
      </trkpt>
      <trkpt lat="45.92848" lon="4.74086">
        <ele>171</ele>
        <time>2017-07-21T10:12:37Z</time>
      </trkpt>
      <trkpt lat="45.92852" lon="4.7408">
        <ele>172</ele>
        <time>2017-07-21T10:12:38Z</time>
      </trkpt>
      <trkpt lat="45.92856" lon="4.74075">
        <ele>172</ele>
        <time>2017-07-21T10:12:39Z</time>
      </trkpt>
      <trkpt lat="45.9286" lon="4.7407">
        <ele>172</ele>
        <time>2017-07-21T10:12:40Z</time>
      </trkpt>
      <trkpt lat="45.92863" lon="4.74066">
        <ele>172</ele>
        <time>2017-07-21T10:12:41Z</time>
      </trkpt>
      <trkpt lat="45.9287" lon="4.74057">
        <ele>172</ele>
        <time>2017-07-21T10:12:43Z</time>
      </trkpt>
      <trkpt lat="45.92873" lon="4.74054">
        <ele>172</ele>
        <time>2017-07-21T10:12:44Z</time>
      </trkpt>
      <trkpt lat="45.92881" lon="4.74049">
        <ele>172</ele>
        <time>2017-07-21T10:12:46Z</time>
      </trkpt>
      <trkpt lat="45.92885" lon="4.74048">
        <ele>172</ele>
        <time>2017-07-21T10:12:47Z</time>
      </trkpt>
      <trkpt lat="45.92889" lon="4.74048">
        <ele>172</ele>
        <time>2017-07-21T10:12:48Z</time>
      </trkpt>
      <trkpt lat="45.92894" lon="4.74048">
        <ele>172</ele>
        <time>2017-07-21T10:12:49Z</time>
      </trkpt>
      <trkpt lat="45.92899" lon="4.74048">
        <ele>172</ele>
        <time>2017-07-21T10:12:50Z</time>
      </trkpt>
      <trkpt lat="45.92904" lon="4.74047">
        <ele>172</ele>
        <time>2017-07-21T10:12:51Z</time>
      </trkpt>
      <trkpt lat="45.9291" lon="4.74044">
        <ele>172</ele>
        <time>2017-07-21T10:12:52Z</time>
      </trkpt>
      <trkpt lat="45.92914" lon="4.74038">
        <ele>172</ele>
        <time>2017-07-21T10:12:53Z</time>
      </trkpt>
      <trkpt lat="45.92918" lon="4.74032">
        <ele>172</ele>
        <time>2017-07-21T10:12:54Z</time>
      </trkpt>
      <trkpt lat="45.9292" lon="4.74025">
        <ele>172</ele>
        <time>2017-07-21T10:12:55Z</time>
      </trkpt>
      <trkpt lat="45.9292" lon="4.74017">
        <ele>172</ele>
        <time>2017-07-21T10:12:56Z</time>
      </trkpt>
      <trkpt lat="45.9292" lon="4.7401">
        <ele>172</ele>
        <time>2017-07-21T10:12:57Z</time>
      </trkpt>
      <trkpt lat="45.92918" lon="4.74004">
        <ele>172</ele>
        <time>2017-07-21T10:12:58Z</time>
      </trkpt>
      <trkpt lat="45.92915" lon="4.73998">
        <ele>172</ele>
        <time>2017-07-21T10:12:59Z</time>
      </trkpt>
      <trkpt lat="45.92911" lon="4.73993">
        <ele>172</ele>
        <time>2017-07-21T10:13:00Z</time>
      </trkpt>
      <trkpt lat="45.92907" lon="4.73988">
        <ele>172</ele>
        <time>2017-07-21T10:13:01Z</time>
      </trkpt>
      <trkpt lat="45.92902" lon="4.73985">
        <ele>172</ele>
        <time>2017-07-21T10:13:02Z</time>
      </trkpt>
      <trkpt lat="45.92899" lon="4.73981">
        <ele>172</ele>
        <time>2017-07-21T10:13:03Z</time>
      </trkpt>
      <trkpt lat="45.92895" lon="4.73977">
        <ele>172</ele>
        <time>2017-07-21T10:13:04Z</time>
      </trkpt>
      <trkpt lat="45.92892" lon="4.73972">
        <ele>172</ele>
        <time>2017-07-21T10:13:05Z</time>
      </trkpt>
      <trkpt lat="45.92891" lon="4.73966">
        <ele>172</ele>
        <time>2017-07-21T10:13:06Z</time>
      </trkpt>
      <trkpt lat="45.92889" lon="4.73959">
        <ele>172</ele>
        <time>2017-07-21T10:13:07Z</time>
      </trkpt>
      <trkpt lat="45.92889" lon="4.73952">
        <ele>172</ele>
        <time>2017-07-21T10:13:08Z</time>
      </trkpt>
      <trkpt lat="45.92889" lon="4.73945">
        <ele>172</ele>
        <time>2017-07-21T10:13:09Z</time>
      </trkpt>
      <trkpt lat="45.92889" lon="4.73938">
        <ele>172</ele>
        <time>2017-07-21T10:13:10Z</time>
      </trkpt>
      <trkpt lat="45.92888" lon="4.73931">
        <ele>172</ele>
        <time>2017-07-21T10:13:11Z</time>
      </trkpt>
      <trkpt lat="45.92888" lon="4.73923">
        <ele>172</ele>
        <time>2017-07-21T10:13:12Z</time>
      </trkpt>
      <trkpt lat="45.92887" lon="4.73916">
        <ele>173</ele>
        <time>2017-07-21T10:13:13Z</time>
      </trkpt>
      <trkpt lat="45.92886" lon="4.7391">
        <ele>173</ele>
        <time>2017-07-21T10:13:14Z</time>
      </trkpt>
      <trkpt lat="45.92885" lon="4.73903">
        <ele>173</ele>
        <time>2017-07-21T10:13:15Z</time>
      </trkpt>
      <trkpt lat="45.92884" lon="4.73896">
        <ele>173</ele>
        <time>2017-07-21T10:13:16Z</time>
      </trkpt>
      <trkpt lat="45.92882" lon="4.73889">
        <ele>173</ele>
        <time>2017-07-21T10:13:17Z</time>
      </trkpt>
      <trkpt lat="45.9288" lon="4.73883">
        <ele>173</ele>
        <time>2017-07-21T10:13:18Z</time>
      </trkpt>
      <trkpt lat="45.92878" lon="4.73875">
        <ele>173</ele>
        <time>2017-07-21T10:13:19Z</time>
      </trkpt>
      <trkpt lat="45.92878" lon="4.73868">
        <ele>173</ele>
        <time>2017-07-21T10:13:20Z</time>
      </trkpt>
      <trkpt lat="45.92877" lon="4.7386">
        <ele>173</ele>
        <time>2017-07-21T10:13:21Z</time>
      </trkpt>
      <trkpt lat="45.92873" lon="4.73852">
        <ele>173</ele>
        <time>2017-07-21T10:13:22Z</time>
      </trkpt>
      <trkpt lat="45.92871" lon="4.73844">
        <ele>173</ele>
        <time>2017-07-21T10:13:23Z</time>
      </trkpt>
      <trkpt lat="45.92868" lon="4.73835">
        <ele>173</ele>
        <time>2017-07-21T10:13:24Z</time>
      </trkpt>
      <trkpt lat="45.92865" lon="4.73827">
        <ele>173</ele>
        <time>2017-07-21T10:13:25Z</time>
      </trkpt>
      <trkpt lat="45.92863" lon="4.7382">
        <ele>173</ele>
        <time>2017-07-21T10:13:26Z</time>
      </trkpt>
      <trkpt lat="45.92861" lon="4.73812">
        <ele>173</ele>
        <time>2017-07-21T10:13:27Z</time>
      </trkpt>
      <trkpt lat="45.9286" lon="4.73805">
        <ele>173</ele>
        <time>2017-07-21T10:13:28Z</time>
      </trkpt>
      <trkpt lat="45.92858" lon="4.73798">
        <ele>173</ele>
        <time>2017-07-21T10:13:29Z</time>
      </trkpt>
      <trkpt lat="45.92855" lon="4.73793">
        <ele>173</ele>
        <time>2017-07-21T10:13:30Z</time>
      </trkpt>
      <trkpt lat="45.92851" lon="4.73788">
        <ele>173</ele>
        <time>2017-07-21T10:13:31Z</time>
      </trkpt>
      <trkpt lat="45.92843" lon="4.73784">
        <ele>173</ele>
        <time>2017-07-21T10:13:33Z</time>
      </trkpt>
      <trkpt lat="45.92838" lon="4.73782">
        <ele>173</ele>
        <time>2017-07-21T10:13:34Z</time>
      </trkpt>
      <trkpt lat="45.92834" lon="4.7378">
        <ele>173</ele>
        <time>2017-07-21T10:13:35Z</time>
      </trkpt>
      <trkpt lat="45.92828" lon="4.73779">
        <ele>173</ele>
        <time>2017-07-21T10:13:36Z</time>
      </trkpt>
      <trkpt lat="45.92824" lon="4.73777">
        <ele>173</ele>
        <time>2017-07-21T10:13:37Z</time>
      </trkpt>
      <trkpt lat="45.9282" lon="4.73774">
        <ele>173</ele>
        <time>2017-07-21T10:13:38Z</time>
      </trkpt>
      <trkpt lat="45.92815" lon="4.73771">
        <ele>173</ele>
        <time>2017-07-21T10:13:39Z</time>
      </trkpt>
      <trkpt lat="45.92811" lon="4.73769">
        <ele>173</ele>
        <time>2017-07-21T10:13:40Z</time>
      </trkpt>
      <trkpt lat="45.92807" lon="4.73766">
        <ele>173</ele>
        <time>2017-07-21T10:13:41Z</time>
      </trkpt>
      <trkpt lat="45.92803" lon="4.73762">
        <ele>173</ele>
        <time>2017-07-21T10:13:42Z</time>
      </trkpt>
      <trkpt lat="45.92796" lon="4.73756">
        <ele>173</ele>
        <time>2017-07-21T10:13:44Z</time>
      </trkpt>
      <trkpt lat="45.92793" lon="4.73753">
        <ele>173</ele>
        <time>2017-07-21T10:13:45Z</time>
      </trkpt>
      <trkpt lat="45.92788" lon="4.73746">
        <ele>172</ele>
        <time>2017-07-21T10:13:47Z</time>
      </trkpt>
      <trkpt lat="45.92786" lon="4.73741">
        <ele>172</ele>
        <time>2017-07-21T10:13:48Z</time>
      </trkpt>
      <trkpt lat="45.92782" lon="4.73738">
        <ele>172</ele>
        <time>2017-07-21T10:13:49Z</time>
      </trkpt>
      <trkpt lat="45.92778" lon="4.73735">
        <ele>172</ele>
        <time>2017-07-21T10:13:50Z</time>
      </trkpt>
      <trkpt lat="45.92774" lon="4.73731">
        <ele>172</ele>
        <time>2017-07-21T10:13:51Z</time>
      </trkpt>
      <trkpt lat="45.92769" lon="4.73728">
        <ele>172</ele>
        <time>2017-07-21T10:13:52Z</time>
      </trkpt>
      <trkpt lat="45.92763" lon="4.73726">
        <ele>172</ele>
        <time>2017-07-21T10:13:53Z</time>
      </trkpt>
      <trkpt lat="45.92758" lon="4.73724">
        <ele>172</ele>
        <time>2017-07-21T10:13:54Z</time>
      </trkpt>
      <trkpt lat="45.92753" lon="4.73722">
        <ele>172</ele>
        <time>2017-07-21T10:13:55Z</time>
      </trkpt>
      <trkpt lat="45.92747" lon="4.7372">
        <ele>173</ele>
        <time>2017-07-21T10:13:56Z</time>
      </trkpt>
      <trkpt lat="45.92742" lon="4.73719">
        <ele>173</ele>
        <time>2017-07-21T10:13:57Z</time>
      </trkpt>
      <trkpt lat="45.92736" lon="4.73717">
        <ele>173</ele>
        <time>2017-07-21T10:13:58Z</time>
      </trkpt>
      <trkpt lat="45.92731" lon="4.73716">
        <ele>173</ele>
        <time>2017-07-21T10:13:59Z</time>
      </trkpt>
      <trkpt lat="45.92726" lon="4.73714">
        <ele>173</ele>
        <time>2017-07-21T10:14:00Z</time>
      </trkpt>
      <trkpt lat="45.9272" lon="4.73713">
        <ele>173</ele>
        <time>2017-07-21T10:14:01Z</time>
      </trkpt>
      <trkpt lat="45.92715" lon="4.73712">
        <ele>173</ele>
        <time>2017-07-21T10:14:02Z</time>
      </trkpt>
      <trkpt lat="45.92709" lon="4.7371">
        <ele>173</ele>
        <time>2017-07-21T10:14:03Z</time>
      </trkpt>
      <trkpt lat="45.92704" lon="4.73709">
        <ele>173</ele>
        <time>2017-07-21T10:14:04Z</time>
      </trkpt>
      <trkpt lat="45.92699" lon="4.73709">
        <ele>173</ele>
        <time>2017-07-21T10:14:05Z</time>
      </trkpt>
      <trkpt lat="45.92694" lon="4.73709">
        <ele>173</ele>
        <time>2017-07-21T10:14:06Z</time>
      </trkpt>
      <trkpt lat="45.92691" lon="4.73714">
        <ele>173</ele>
        <time>2017-07-21T10:14:07Z</time>
      </trkpt>
      <trkpt lat="45.92689" lon="4.73722">
        <ele>173</ele>
        <time>2017-07-21T10:14:08Z</time>
      </trkpt>
      <trkpt lat="45.92684" lon="4.73724">
        <ele>174</ele>
        <time>2017-07-21T10:14:09Z</time>
      </trkpt>
      <trkpt lat="45.92678" lon="4.73722">
        <ele>174</ele>
        <time>2017-07-21T10:14:10Z</time>
      </trkpt>
      <trkpt lat="45.92672" lon="4.73719">
        <ele>174</ele>
        <time>2017-07-21T10:14:11Z</time>
      </trkpt>
      <trkpt lat="45.92667" lon="4.73714">
        <ele>173</ele>
        <time>2017-07-21T10:14:12Z</time>
      </trkpt>
      <trkpt lat="45.92662" lon="4.73709">
        <ele>173</ele>
        <time>2017-07-21T10:14:13Z</time>
      </trkpt>
      <trkpt lat="45.92657" lon="4.73704">
        <ele>173</ele>
        <time>2017-07-21T10:14:14Z</time>
      </trkpt>
      <trkpt lat="45.92653" lon="4.737">
        <ele>173</ele>
        <time>2017-07-21T10:14:15Z</time>
      </trkpt>
      <trkpt lat="45.92649" lon="4.73692">
        <ele>173</ele>
        <time>2017-07-21T10:14:16Z</time>
      </trkpt>
      <trkpt lat="45.92645" lon="4.73685">
        <ele>173</ele>
        <time>2017-07-21T10:14:17Z</time>
      </trkpt>
      <trkpt lat="45.92641" lon="4.73679">
        <ele>173</ele>
        <time>2017-07-21T10:14:18Z</time>
      </trkpt>
      <trkpt lat="45.92639" lon="4.73673">
        <ele>173</ele>
        <time>2017-07-21T10:14:19Z</time>
      </trkpt>
      <trkpt lat="45.92636" lon="4.73667">
        <ele>173</ele>
        <time>2017-07-21T10:14:20Z</time>
      </trkpt>
      <trkpt lat="45.92634" lon="4.73662">
        <ele>173</ele>
        <time>2017-07-21T10:14:21Z</time>
      </trkpt>
      <trkpt lat="45.92632" lon="4.73656">
        <ele>173</ele>
        <time>2017-07-21T10:14:22Z</time>
      </trkpt>
      <trkpt lat="45.9263" lon="4.7365">
        <ele>173</ele>
        <time>2017-07-21T10:14:23Z</time>
      </trkpt>
      <trkpt lat="45.92627" lon="4.73644">
        <ele>173</ele>
        <time>2017-07-21T10:14:24Z</time>
      </trkpt>
      <trkpt lat="45.92622" lon="4.73638">
        <ele>173</ele>
        <time>2017-07-21T10:14:25Z</time>
      </trkpt>
      <trkpt lat="45.92617" lon="4.73632">
        <ele>173</ele>
        <time>2017-07-21T10:14:26Z</time>
      </trkpt>
      <trkpt lat="45.92612" lon="4.73627">
        <ele>173</ele>
        <time>2017-07-21T10:14:27Z</time>
      </trkpt>
      <trkpt lat="45.92606" lon="4.73624">
        <ele>173</ele>
        <time>2017-07-21T10:14:28Z</time>
      </trkpt>
      <trkpt lat="45.926" lon="4.73623">
        <ele>173</ele>
        <time>2017-07-21T10:14:29Z</time>
      </trkpt>
      <trkpt lat="45.92594" lon="4.73622">
        <ele>173</ele>
        <time>2017-07-21T10:14:30Z</time>
      </trkpt>
      <trkpt lat="45.92589" lon="4.73622">
        <ele>173</ele>
        <time>2017-07-21T10:14:31Z</time>
      </trkpt>
      <trkpt lat="45.92584" lon="4.73623">
        <ele>172</ele>
        <time>2017-07-21T10:14:32Z</time>
      </trkpt>
      <trkpt lat="45.9258" lon="4.73624">
        <ele>173</ele>
        <time>2017-07-21T10:14:33Z</time>
      </trkpt>
      <trkpt lat="45.92575" lon="4.73625">
        <ele>173</ele>
        <time>2017-07-21T10:14:34Z</time>
      </trkpt>
      <trkpt lat="45.9257" lon="4.73626">
        <ele>173</ele>
        <time>2017-07-21T10:14:35Z</time>
      </trkpt>
      <trkpt lat="45.92565" lon="4.73627">
        <ele>173</ele>
        <time>2017-07-21T10:14:36Z</time>
      </trkpt>
      <trkpt lat="45.92561" lon="4.73629">
        <ele>173</ele>
        <time>2017-07-21T10:14:37Z</time>
      </trkpt>
      <trkpt lat="45.92556" lon="4.7363">
        <ele>173</ele>
        <time>2017-07-21T10:14:38Z</time>
      </trkpt>
      <trkpt lat="45.92551" lon="4.73631">
        <ele>173</ele>
        <time>2017-07-21T10:14:39Z</time>
      </trkpt>
      <trkpt lat="45.92546" lon="4.73631">
        <ele>173</ele>
        <time>2017-07-21T10:14:40Z</time>
      </trkpt>
      <trkpt lat="45.92541" lon="4.73632">
        <ele>173</ele>
        <time>2017-07-21T10:14:41Z</time>
      </trkpt>
      <trkpt lat="45.92537" lon="4.73633">
        <ele>173</ele>
        <time>2017-07-21T10:14:42Z</time>
      </trkpt>
      <trkpt lat="45.92532" lon="4.73634">
        <ele>173</ele>
        <time>2017-07-21T10:14:43Z</time>
      </trkpt>
      <trkpt lat="45.92527" lon="4.73635">
        <ele>173</ele>
        <time>2017-07-21T10:14:44Z</time>
      </trkpt>
      <trkpt lat="45.92522" lon="4.73637">
        <ele>173</ele>
        <time>2017-07-21T10:14:45Z</time>
      </trkpt>
      <trkpt lat="45.92518" lon="4.73637">
        <ele>173</ele>
        <time>2017-07-21T10:14:46Z</time>
      </trkpt>
      <trkpt lat="45.92509" lon="4.73638">
        <ele>174</ele>
        <time>2017-07-21T10:14:48Z</time>
      </trkpt>
      <trkpt lat="45.92505" lon="4.73638">
        <ele>174</ele>
        <time>2017-07-21T10:14:49Z</time>
      </trkpt>
      <trkpt lat="45.92496" lon="4.73638">
        <ele>174</ele>
        <time>2017-07-21T10:14:51Z</time>
      </trkpt>
      <trkpt lat="45.92492" lon="4.73638">
        <ele>174</ele>
        <time>2017-07-21T10:14:52Z</time>
      </trkpt>
      <trkpt lat="45.92484" lon="4.73637">
        <ele>174</ele>
        <time>2017-07-21T10:14:54Z</time>
      </trkpt>
      <trkpt lat="45.92481" lon="4.73638">
        <ele>174</ele>
        <time>2017-07-21T10:14:55Z</time>
      </trkpt>
      <trkpt lat="45.92473" lon="4.73642">
        <ele>174</ele>
        <time>2017-07-21T10:14:57Z</time>
      </trkpt>
      <trkpt lat="45.9247" lon="4.73645">
        <ele>174</ele>
        <time>2017-07-21T10:14:58Z</time>
      </trkpt>
      <trkpt lat="45.92468" lon="4.73654">
        <ele>174</ele>
        <time>2017-07-21T10:15:00Z</time>
      </trkpt>
      <trkpt lat="45.92468" lon="4.73659">
        <ele>174</ele>
        <time>2017-07-21T10:15:01Z</time>
      </trkpt>
      <trkpt lat="45.92466" lon="4.73671">
        <ele>174</ele>
        <time>2017-07-21T10:15:03Z</time>
      </trkpt>
      <trkpt lat="45.92465" lon="4.73676">
        <ele>174</ele>
        <time>2017-07-21T10:15:04Z</time>
      </trkpt>
      <trkpt lat="45.92465" lon="4.73686">
        <ele>174</ele>
        <time>2017-07-21T10:15:06Z</time>
      </trkpt>
      <trkpt lat="45.92465" lon="4.7369">
        <ele>174</ele>
        <time>2017-07-21T10:15:07Z</time>
      </trkpt>
      <trkpt lat="45.92464" lon="4.737">
        <ele>174</ele>
        <time>2017-07-21T10:15:09Z</time>
      </trkpt>
      <trkpt lat="45.92464" lon="4.73704">
        <ele>174</ele>
        <time>2017-07-21T10:15:10Z</time>
      </trkpt>
      <trkpt lat="45.92464" lon="4.73711">
        <ele>174</ele>
        <time>2017-07-21T10:15:12Z</time>
      </trkpt>
      <trkpt lat="45.92463" lon="4.73711">
        <ele>174</ele>
        <time>2017-07-21T10:15:13Z</time>
      </trkpt>
      <trkpt lat="45.92464" lon="4.73709">
        <ele>174</ele>
        <time>2017-07-21T10:15:51.318Z</time>
      </trkpt>
    </trkseg>
  </trk>
</gpx>